GFSMW_prec_precacc24_015.txt.gz
Total_Precipitation_Accumulation
0.00 0.00 0.00 0.00 0.00 0.00 0.00 0.00 0.00 0.00 0.00 0.00 0.00 0.00 0.00 0.00 0.00 0.00 0.00 0.00 0.00 0.00 0.00 0.00 0.00 0.00 0.00 0.00 0.00 0.00 0.00 0.00 0.00 0.00 0.00 0.00 0.00 0.00 0.00 0.00 0.00 0.00 0.00
0.00 0.00 0.00 0.00 0.00 0.00 0.00 0.00 0.00 0.00 0.00 0.00 0.00 0.00 0.00 0.00 0.00 0.00 0.00 0.00 0.00 0.00 0.00 0.00 0.00 0.00 0.00 0.00 0.00 0.00 0.00 0.00 0.00 0.01 0.03 0.01 0.00 0.00 0.00 0.00 0.00 0.00 0.00
0.00 0.00 0.00 0.00 0.00 0.00 0.00 0.00 0.00 0.00 0.00 0.00 0.00 0.00 0.00 0.00 0.00 0.00 0.00 0.00 0.00 0.00 0.00 0.00 0.00 0.00 0.00 0.00 0.00 0.00 0.00 0.01 0.01 0.01 0.04 0.06 0.03 0.01 0.00 0.00 0.00 0.00 0.00
0.00 0.00 0.00 0.00 0.00 0.00 0.00 0.00 0.00 0.00 0.00 0.00 0.00 0.00 0.00 0.00 0.00 0.00 0.00 0.00 0.00 0.00 0.00 0.00 0.00 0.00 0.00 0.00 0.00 0.00 0.01 0.02 0.02 0.01 0.01 0.04 0.05 0.08 0.06 0.02 0.01 0.00 0.00
0.00 0.00 0.00 0.00 0.00 0.00 0.00 0.00 0.00 0.00 0.00 0.00 0.00 0.00 0.00 0.00 0.00 0.00 0.00 0.00 0.00 0.00 0.00 0.00 0.00 0.00 0.00 0.00 0.00 0.01 0.01 0.02 0.03 0.03 0.04 0.05 0.05 0.07 0.10 0.07 0.02 0.01 0.00
0.00 0.00 0.00 0.00 0.00 0.00 0.00 0.00 0.00 0.00 0.00 0.00 0.00 0.00 0.00 0.00 0.00 0.00 0.00 0.00 0.00 0.00 0.00 0.00 0.00 0.00 0.00 0.00 0.00 0.00 0.00 0.01 0.04 0.06 0.06 0.07 0.08 0.08 0.08 0.09 0.05 0.04 0.02
0.00 0.00 0.00 0.00 0.00 0.00 0.00 0.00 0.00 0.00 0.00 0.00 0.00 0.00 0.00 0.00 0.00 0.00 0.00 0.00 0.00 0.00 0.00 0.00 0.00 0.00 0.00 0.00 0.00 0.00 0.00 0.00 0.00 0.01 0.02 0.03 0.04 0.06 0.09 0.13 0.09 0.09 0.05
0.00 0.00 0.00 0.00 0.00 0.00 0.00 0.00 0.00 0.00 0.00 0.00 0.00 0.00 0.00 0.00 0.00 0.00 0.00 0.00 0.00 0.00 0.00 0.00 0.00 0.00 0.00 0.00 0.00 0.00 0.00 0.00 0.00 0.00 0.00 0.00 0.00 0.01 0.02 0.05 0.11 0.08 0.03
0.00 0.00 0.00 0.00 0.00 0.00 0.00 0.00 0.00 0.00 0.00 0.00 0.00 0.00 0.00 0.00 0.00 0.00 0.00 0.00 0.00 0.00 0.00 0.00 0.00 0.00 0.00 0.00 0.00 0.00 0.00 0.00 0.00 0.00 0.00 0.00 0.00 0.00 0.00 0.02 0.07 0.13 0.07
0.00 0.00 0.00 0.00 0.00 0.00 0.00 0.00 0.00 0.00 0.00 0.00 0.00 0.00 0.00 0.00 0.00 0.00 0.00 0.00 0.00 0.00 0.00 0.00 0.00 0.00 0.00 0.00 0.00 0.00 0.00 0.00 0.00 0.00 0.00 0.00 0.00 0.00 0.00 0.01 0.02 0.06 0.11
0.00 0.00 0.00 0.00 0.00 0.00 0.00 0.00 0.00 0.00 0.00 0.00 0.00 0.00 0.00 0.00 0.00 0.00 0.00 0.00 0.00 0.00 0.00 0.00 0.00 0.00 0.00 0.00 0.00 0.00 0.00 0.00 0.00 0.00 0.00 0.00 0.00 0.00 0.00 0.00 0.00 0.00 0.04
0.00 0.00 0.00 0.00 0.00 0.00 0.00 0.00 0.00 0.00 0.00 0.00 0.00 0.00 0.00 0.00 0.00 0.00 0.00 0.00 0.00 0.00 0.00 0.00 0.00 0.00 0.00 0.00 0.00 0.00 0.00 0.00 0.00 0.00 0.00 0.00 0.00 0.00 0.00 0.00 0.00 0.00 0.02
0.00 0.00 0.00 0.00 0.00 0.00 0.00 0.00 0.00 0.00 0.00 0.00 0.00 0.00 0.00 0.00 0.00 0.00 0.00 0.00 0.00 0.00 0.00 0.00 0.00 0.00 0.00 0.00 0.00 0.00 0.00 0.00 0.00 0.00 0.00 0.00 0.00 0.00 0.00 0.00 0.00 0.01 0.02
0.00 0.00 0.00 0.00 0.00 0.00 0.00 0.00 0.00 0.00 0.00 0.00 0.00 0.00 0.00 0.00 0.00 0.00 0.00 0.00 0.00 0.00 0.00 0.00 0.00 0.00 0.00 0.00 0.00 0.00 0.00 0.00 0.00 0.00 0.00 0.00 0.00 0.00 0.00 0.00 0.01 0.02 0.03
0.00 0.00 0.00 0.00 0.00 0.00 0.00 0.00 0.00 0.00 0.00 0.00 0.00 0.00 0.00 0.00 0.00 0.00 0.00 0.00 0.00 0.00 0.00 0.00 0.00 0.00 0.00 0.00 0.00 0.00 0.00 0.00 0.00 0.00 0.00 0.00 0.00 0.00 0.00 0.01 0.02 0.04 0.04
0.00 0.00 0.00 0.00 0.00 0.00 0.00 0.00 0.00 0.00 0.00 0.00 0.00 0.00 0.00 0.00 0.00 0.00 0.00 0.00 0.00 0.00 0.00 0.00 0.00 0.00 0.00 0.00 0.00 0.00 0.00 0.00 0.00 0.00 0.00 0.00 0.00 0.00 0.00 0.01 0.02 0.04 0.08
0.00 0.00 0.00 0.00 0.00 0.00 0.00 0.00 0.00 0.00 0.00 0.00 0.00 0.00 0.00 0.00 0.00 0.00 0.00 0.00 0.00 0.00 0.00 0.00 0.00 0.00 0.00 0.00 0.00 0.00 0.00 0.00 0.00 0.00 0.00 0.00 0.00 0.01 0.01 0.01 0.02 0.06 0.08
0.00 0.00 0.00 0.00 0.00 0.00 0.00 0.00 0.00 0.00 0.00 0.00 0.00 0.00 0.00 0.00 0.00 0.00 0.00 0.00 0.00 0.00 0.00 0.00 0.00 0.00 0.00 0.00 0.00 0.00 0.00 0.00 0.00 0.00 0.00 0.00 0.01 0.01 0.01 0.03 0.11 0.06 0.02
0.00 0.00 0.00 0.00 0.00 0.00 0.00 0.00 0.00 0.00 0.00 0.00 0.00 0.00 0.00 0.00 0.00 0.00 0.00 0.00 0.00 0.00 0.00 0.00 0.00 0.00 0.00 0.00 0.00 0.00 0.00 0.00 0.00 0.00 0.00 0.02 0.02 0.01 0.05 0.14 0.10 0.01 0.00
0.00 0.00 0.00 0.00 0.00 0.00 0.00 0.00 0.00 0.00 0.00 0.00 0.00 0.00 0.00 0.00 0.00 0.00 0.00 0.00 0.00 0.00 0.00 0.00 0.00 0.00 0.00 0.00 0.00 0.00 0.00 0.00 0.00 0.01 0.02 0.01 0.01 0.04 0.16 0.07 0.03 0.07 0.03
0.00 0.00 0.00 0.00 0.00 0.00 0.00 0.00 0.00 0.00 0.00 0.00 0.00 0.00 0.00 0.00 0.00 0.00 0.00 0.00 0.00 0.00 0.00 0.00 0.00 0.00 0.00 0.00 0.00 0.00 0.01 0.01 0.06 0.08 0.01 0.00 0.05 0.14 0.04 0.01 0.03 0.05 0.03
0.00 0.00 0.00 0.00 0.00 0.00 0.00 0.00 0.00 0.00 0.00 0.00 0.00 0.00 0.00 0.00 0.00 0.00 0.00 0.00 0.00 0.00 0.00 0.00 0.00 0.00 0.00 0.00 0.00 0.01 0.02 0.04 0.05 0.03 0.02 0.08 0.13 0.01 0.01 0.01 0.02 0.03 0.02
0.00 0.00 0.00 0.00 0.00 0.00 0.00 0.00 0.00 0.00 0.00 0.00 0.00 0.00 0.00 0.00 0.00 0.00 0.00 0.00 0.00 0.00 0.00 0.00 0.00 0.00 0.00 0.00 0.00 0.00 0.05 0.06 0.04 0.04 0.12 0.10 0.01 0.00 0.00 0.00 0.01 0.01 0.01
0.00 0.00 0.00 0.00 0.00 0.00 0.00 0.00 0.00 0.00 0.00 0.00 0.00 0.00 0.00 0.00 0.00 0.00 0.00 0.00 0.00 0.00 0.00 0.00 0.00 0.00 0.00 0.00 0.00 0.02 0.04 0.03 0.07 0.14 0.11 0.00 0.00 0.00 0.00 0.00 0.00 0.00 0.01
0.00 0.00 0.00 0.00 0.00 0.00 0.00 0.00 0.00 0.00 0.00 0.00 0.00 0.00 0.00 0.00 0.00 0.00 0.00 0.00 0.00 0.00 0.00 0.00 0.01 0.01 0.01 0.01 0.03 0.04 0.03 0.06 0.13 0.05 0.00 0.00 0.00 0.00 0.00 0.00 0.00 0.00 0.00
0.00 0.00 0.00 0.00 0.00 0.00 0.00 0.00 0.00 0.00 0.00 0.00 0.00 0.00 0.00 0.00 0.00 0.00 0.00 0.00 0.00 0.00 0.00 0.00 0.01 0.01 0.01 0.03 0.04 0.02 0.07 0.12 0.04 0.00 0.00 0.01 0.01 0.01 0.01 0.01 0.01 0.00 0.01

GFSMW_prec_precacc24_021.txt.gz
Total_Precipitation_Accumulation
0.00 0.00 0.00 0.00 0.00 0.00 0.00 0.00 0.00 0.00 0.00 0.00 0.00 0.00 0.00 0.00 0.00 0.00 0.00 0.00 0.00 0.00 0.00 0.00 0.00 0.00 0.00 0.00 0.00 0.00 0.00 0.00 0.00 0.00 0.00 0.00 0.00 0.00 0.00 0.00 0.00 0.00 0.00
0.00 0.00 0.00 0.00 0.00 0.00 0.00 0.00 0.00 0.00 0.00 0.00 0.00 0.00 0.00 0.00 0.00 0.00 0.00 0.00 0.00 0.00 0.00 0.00 0.00 0.00 0.00 0.00 0.00 0.00 0.00 0.00 0.00 0.01 0.03 0.01 0.00 0.00 0.00 0.00 0.00 0.00 0.00
0.00 0.00 0.00 0.00 0.00 0.00 0.00 0.00 0.00 0.00 0.00 0.00 0.00 0.00 0.00 0.00 0.00 0.00 0.00 0.00 0.00 0.00 0.00 0.00 0.00 0.00 0.00 0.00 0.00 0.00 0.00 0.01 0.01 0.01 0.04 0.06 0.03 0.01 0.00 0.00 0.00 0.00 0.00
0.00 0.00 0.00 0.00 0.00 0.00 0.00 0.00 0.00 0.00 0.00 0.00 0.00 0.00 0.00 0.00 0.00 0.00 0.00 0.00 0.00 0.00 0.00 0.00 0.00 0.00 0.00 0.00 0.00 0.00 0.01 0.02 0.02 0.01 0.01 0.04 0.05 0.08 0.06 0.02 0.01 0.00 0.00
0.00 0.00 0.00 0.00 0.00 0.00 0.00 0.00 0.00 0.00 0.00 0.00 0.00 0.00 0.00 0.00 0.00 0.00 0.00 0.00 0.00 0.00 0.00 0.00 0.00 0.00 0.00 0.00 0.00 0.01 0.01 0.02 0.03 0.03 0.04 0.05 0.05 0.07 0.10 0.07 0.02 0.01 0.00
0.00 0.00 0.00 0.00 0.00 0.00 0.00 0.00 0.00 0.00 0.00 0.00 0.00 0.00 0.00 0.00 0.00 0.00 0.00 0.00 0.00 0.00 0.00 0.00 0.00 0.00 0.00 0.00 0.00 0.00 0.00 0.01 0.04 0.06 0.06 0.07 0.08 0.08 0.08 0.09 0.05 0.04 0.02
0.00 0.00 0.00 0.00 0.00 0.00 0.00 0.00 0.00 0.00 0.00 0.00 0.00 0.00 0.00 0.00 0.00 0.00 0.00 0.00 0.00 0.00 0.00 0.00 0.00 0.00 0.00 0.00 0.00 0.00 0.00 0.00 0.00 0.01 0.02 0.03 0.04 0.06 0.09 0.13 0.09 0.09 0.05
0.00 0.00 0.00 0.00 0.00 0.00 0.00 0.00 0.00 0.00 0.00 0.00 0.00 0.00 0.00 0.00 0.00 0.00 0.00 0.00 0.00 0.00 0.00 0.00 0.00 0.00 0.00 0.00 0.00 0.00 0.00 0.00 0.00 0.00 0.00 0.00 0.00 0.01 0.02 0.05 0.11 0.08 0.03
0.00 0.00 0.00 0.00 0.00 0.00 0.00 0.00 0.00 0.00 0.00 0.00 0.00 0.00 0.00 0.00 0.00 0.00 0.00 0.00 0.00 0.00 0.00 0.00 0.00 0.00 0.00 0.00 0.00 0.00 0.00 0.00 0.00 0.00 0.00 0.00 0.00 0.00 0.00 0.02 0.07 0.13 0.07
0.00 0.00 0.00 0.00 0.00 0.00 0.00 0.00 0.00 0.00 0.00 0.00 0.00 0.00 0.00 0.00 0.00 0.00 0.00 0.00 0.00 0.00 0.00 0.00 0.00 0.00 0.00 0.00 0.00 0.00 0.00 0.00 0.00 0.00 0.00 0.00 0.00 0.00 0.00 0.01 0.02 0.06 0.11
0.00 0.00 0.00 0.00 0.00 0.00 0.00 0.00 0.00 0.00 0.00 0.00 0.00 0.00 0.00 0.00 0.00 0.00 0.00 0.00 0.00 0.00 0.00 0.00 0.00 0.00 0.00 0.00 0.00 0.00 0.00 0.00 0.00 0.00 0.00 0.00 0.00 0.00 0.00 0.00 0.00 0.00 0.04
0.00 0.00 0.00 0.00 0.00 0.00 0.00 0.00 0.00 0.00 0.00 0.00 0.00 0.00 0.00 0.00 0.00 0.00 0.00 0.00 0.00 0.00 0.00 0.00 0.00 0.00 0.00 0.00 0.00 0.00 0.00 0.00 0.00 0.00 0.00 0.00 0.00 0.00 0.00 0.00 0.00 0.00 0.02
0.00 0.00 0.00 0.00 0.00 0.00 0.00 0.00 0.00 0.00 0.00 0.00 0.00 0.00 0.00 0.00 0.00 0.00 0.00 0.00 0.00 0.00 0.00 0.00 0.00 0.00 0.00 0.00 0.00 0.00 0.00 0.00 0.00 0.00 0.00 0.00 0.00 0.00 0.00 0.00 0.00 0.01 0.02
0.00 0.00 0.00 0.00 0.00 0.00 0.00 0.00 0.00 0.00 0.00 0.00 0.00 0.00 0.00 0.00 0.00 0.00 0.00 0.00 0.00 0.00 0.00 0.00 0.00 0.00 0.00 0.00 0.00 0.00 0.00 0.00 0.00 0.00 0.00 0.00 0.00 0.00 0.00 0.00 0.01 0.02 0.03
0.00 0.00 0.00 0.00 0.00 0.00 0.00 0.00 0.00 0.00 0.00 0.00 0.00 0.00 0.00 0.00 0.00 0.00 0.00 0.00 0.00 0.00 0.00 0.00 0.00 0.00 0.00 0.00 0.00 0.00 0.00 0.00 0.00 0.00 0.00 0.00 0.00 0.00 0.00 0.01 0.02 0.04 0.05
0.00 0.00 0.00 0.00 0.00 0.00 0.00 0.00 0.00 0.00 0.00 0.00 0.00 0.00 0.00 0.00 0.00 0.00 0.00 0.00 0.00 0.00 0.00 0.00 0.00 0.00 0.00 0.00 0.00 0.00 0.00 0.00 0.00 0.00 0.00 0.00 0.00 0.00 0.00 0.01 0.02 0.06 0.13
0.00 0.00 0.00 0.00 0.00 0.00 0.00 0.00 0.00 0.00 0.00 0.00 0.00 0.00 0.00 0.00 0.00 0.00 0.00 0.00 0.00 0.00 0.00 0.00 0.00 0.00 0.00 0.00 0.00 0.00 0.00 0.00 0.00 0.00 0.00 0.00 0.00 0.01 0.01 0.01 0.04 0.10 0.18
0.00 0.00 0.00 0.00 0.00 0.00 0.00 0.00 0.00 0.00 0.00 0.00 0.00 0.00 0.00 0.00 0.00 0.00 0.00 0.00 0.00 0.00 0.00 0.00 0.00 0.00 0.00 0.00 0.00 0.00 0.00 0.00 0.00 0.00 0.00 0.00 0.01 0.02 0.03 0.04 0.14 0.10 0.03
0.00 0.00 0.00 0.00 0.00 0.00 0.00 0.00 0.00 0.00 0.00 0.00 0.00 0.00 0.00 0.00 0.00 0.00 0.00 0.00 0.00 0.00 0.00 0.00 0.00 0.00 0.00 0.00 0.00 0.00 0.00 0.00 0.00 0.00 0.00 0.03 0.02 0.01 0.08 0.18 0.16 0.02 0.00
0.00 0.00 0.00 0.00 0.00 0.00 0.00 0.00 0.00 0.00 0.00 0.00 0.00 0.00 0.00 0.00 0.00 0.00 0.00 0.00 0.00 0.00 0.00 0.00 0.00 0.00 0.00 0.00 0.00 0.00 0.00 0.00 0.00 0.01 0.02 0.02 0.01 0.05 0.23 0.11 0.04 0.08 0.03
0.00 0.00 0.00 0.00 0.00 0.00 0.00 0.00 0.00 0.00 0.00 0.00 0.00 0.00 0.00 0.00 0.00 0.00 0.00 0.00 0.00 0.00 0.00 0.00 0.00 0.00 0.00 0.00 0.00 0.00 0.01 0.02 0.06 0.09 0.02 0.01 0.06 0.21 0.09 0.02 0.03 0.06 0.04
0.00 0.00 0.00 0.00 0.00 0.00 0.00 0.00 0.00 0.00 0.00 0.00 0.00 0.00 0.00 0.00 0.00 0.00 0.00 0.00 0.00 0.00 0.00 0.00 0.00 0.00 0.00 0.00 0.00 0.01 0.02 0.05 0.07 0.04 0.02 0.09 0.18 0.04 0.01 0.01 0.02 0.03 0.03
0.00 0.00 0.00 0.00 0.00 0.00 0.00 0.00 0.00 0.00 0.00 0.00 0.00 0.00 0.00 0.00 0.00 0.00 0.00 0.00 0.00 0.00 0.00 0.00 0.00 0.00 0.00 0.00 0.00 0.00 0.06 0.07 0.04 0.04 0.15 0.15 0.02 0.00 0.00 0.01 0.01 0.01 0.01
0.00 0.00 0.00 0.00 0.00 0.00 0.00 0.00 0.00 0.00 0.00 0.00 0.00 0.00 0.00 0.00 0.00 0.00 0.00 0.00 0.00 0.00 0.00 0.00 0.00 0.00 0.00 0.00 0.00 0.02 0.05 0.03 0.08 0.17 0.17 0.01 0.00 0.00 0.00 0.00 0.00 0.00 0.02
0.00 0.00 0.00 0.00 0.00 0.00 0.00 0.00 0.00 0.00 0.00 0.00 0.00 0.00 0.00 0.00 0.00 0.00 0.00 0.00 0.00 0.00 0.00 0.00 0.01 0.01 0.01 0.01 0.04 0.05 0.03 0.07 0.16 0.06 0.00 0.00 0.00 0.00 0.00 0.00 0.00 0.00 0.01
0.00 0.00 0.00 0.00 0.00 0.00 0.00 0.00 0.00 0.00 0.00 0.00 0.00 0.00 0.00 0.00 0.00 0.00 0.00 0.00 0.00 0.00 0.00 0.00 0.01 0.01 0.02 0.03 0.04 0.02 0.09 0.14 0.05 0.00 0.00 0.01 0.01 0.02 0.01 0.01 0.02 0.01 0.03

GFSMW_prec_precacc24_027.txt.gz
Total_Precipitation_Accumulation
0.00 0.00 0.00 0.00 0.00 0.00 0.00 0.00 0.00 0.00 0.00 0.00 0.00 0.00 0.00 0.00 0.00 0.00 0.00 0.00 0.00 0.00 0.00 0.00 0.00 0.00 0.00 0.00 0.00 0.00 0.00 0.00 0.00 0.00 0.00 0.00 0.00 0.00 0.00 0.00 0.00 0.00 0.00
0.00 0.00 0.00 0.00 0.00 0.00 0.00 0.00 0.00 0.00 0.00 0.00 0.00 0.00 0.00 0.00 0.00 0.00 0.00 0.00 0.00 0.00 0.00 0.00 0.00 0.00 0.00 0.00 0.00 0.00 0.00 0.00 0.00 0.01 0.02 0.01 0.00 0.00 0.00 0.00 0.00 0.00 0.00
0.00 0.00 0.00 0.00 0.00 0.00 0.00 0.00 0.00 0.00 0.00 0.00 0.00 0.00 0.00 0.00 0.00 0.00 0.00 0.00 0.00 0.00 0.00 0.00 0.00 0.00 0.00 0.00 0.00 0.00 0.00 0.00 0.00 0.01 0.03 0.04 0.02 0.01 0.00 0.00 0.00 0.00 0.00
0.00 0.00 0.00 0.00 0.00 0.00 0.00 0.00 0.00 0.00 0.00 0.00 0.00 0.00 0.00 0.00 0.00 0.00 0.00 0.00 0.00 0.00 0.00 0.00 0.00 0.00 0.00 0.00 0.00 0.00 0.00 0.00 0.01 0.00 0.01 0.03 0.04 0.06 0.04 0.01 0.01 0.00 0.00
0.00 0.00 0.00 0.00 0.00 0.00 0.00 0.00 0.00 0.00 0.00 0.00 0.00 0.00 0.00 0.00 0.00 0.00 0.00 0.00 0.00 0.00 0.00 0.00 0.00 0.00 0.00 0.00 0.00 0.00 0.00 0.00 0.00 0.01 0.01 0.02 0.03 0.04 0.06 0.03 0.01 0.01 0.00
0.00 0.00 0.00 0.00 0.00 0.00 0.00 0.00 0.00 0.00 0.00 0.00 0.00 0.00 0.00 0.00 0.00 0.00 0.00 0.00 0.00 0.00 0.00 0.00 0.00 0.00 0.00 0.00 0.00 0.00 0.00 0.00 0.00 0.00 0.00 0.00 0.00 0.01 0.02 0.02 0.01 0.02 0.01
0.00 0.00 0.00 0.00 0.00 0.00 0.00 0.00 0.00 0.00 0.00 0.00 0.00 0.00 0.00 0.00 0.00 0.00 0.00 0.00 0.00 0.00 0.00 0.00 0.00 0.00 0.00 0.00 0.00 0.00 0.00 0.00 0.00 0.00 0.00 0.00 0.00 0.00 0.00 0.01 0.01 0.01 0.00
0.00 0.00 0.00 0.00 0.00 0.00 0.00 0.00 0.00 0.00 0.00 0.00 0.00 0.00 0.00 0.00 0.00 0.00 0.00 0.00 0.00 0.00 0.00 0.00 0.00 0.00 0.00 0.00 0.00 0.00 0.00 0.00 0.00 0.00 0.00 0.00 0.00 0.00 0.00 0.01 0.05 0.02 0.00
0.00 0.00 0.00 0.00 0.00 0.00 0.00 0.00 0.00 0.00 0.00 0.00 0.00 0.00 0.00 0.00 0.00 0.00 0.00 0.00 0.00 0.00 0.00 0.00 0.00 0.00 0.00 0.00 0.00 0.00 0.00 0.00 0.00 0.00 0.00 0.00 0.00 0.00 0.00 0.02 0.05 0.06 0.04
0.00 0.00 0.00 0.00 0.00 0.00 0.00 0.00 0.00 0.00 0.00 0.00 0.00 0.00 0.00 0.00 0.00 0.00 0.00 0.00 0.00 0.00 0.00 0.00 0.00 0.00 0.00 0.00 0.00 0.00 0.00 0.00 0.00 0.00 0.00 0.00 0.00 0.00 0.00 0.01 0.00 0.01 0.02
0.00 0.00 0.00 0.00 0.00 0.00 0.00 0.00 0.00 0.00 0.00 0.00 0.00 0.00 0.00 0.00 0.00 0.00 0.00 0.00 0.00 0.00 0.00 0.00 0.00 0.00 0.00 0.00 0.00 0.00 0.00 0.00 0.00 0.00 0.00 0.00 0.00 0.00 0.00 0.00 0.00 0.00 0.00
0.00 0.00 0.00 0.00 0.00 0.00 0.00 0.00 0.00 0.00 0.00 0.00 0.00 0.00 0.00 0.00 0.00 0.00 0.00 0.00 0.00 0.00 0.00 0.00 0.00 0.00 0.00 0.00 0.00 0.00 0.00 0.00 0.00 0.00 0.00 0.00 0.00 0.00 0.00 0.00 0.00 0.00 0.01
0.00 0.00 0.00 0.00 0.00 0.00 0.00 0.00 0.00 0.00 0.00 0.00 0.00 0.00 0.00 0.00 0.00 0.00 0.00 0.00 0.00 0.00 0.00 0.00 0.00 0.00 0.00 0.00 0.00 0.00 0.00 0.00 0.00 0.00 0.00 0.00 0.00 0.00 0.00 0.00 0.00 0.00 0.02
0.00 0.00 0.00 0.00 0.00 0.00 0.00 0.00 0.00 0.00 0.00 0.00 0.00 0.00 0.00 0.00 0.00 0.00 0.00 0.00 0.00 0.00 0.00 0.00 0.00 0.00 0.00 0.00 0.00 0.00 0.00 0.00 0.00 0.00 0.00 0.00 0.00 0.00 0.00 0.00 0.01 0.02 0.03
0.00 0.00 0.00 0.00 0.00 0.00 0.00 0.00 0.00 0.00 0.00 0.00 0.00 0.00 0.00 0.00 0.00 0.00 0.00 0.00 0.00 0.00 0.00 0.00 0.00 0.00 0.00 0.00 0.00 0.00 0.00 0.00 0.00 0.00 0.00 0.00 0.00 0.00 0.00 0.02 0.03 0.04 0.06
0.00 0.00 0.00 0.00 0.00 0.00 0.00 0.00 0.00 0.00 0.00 0.00 0.00 0.00 0.00 0.00 0.00 0.00 0.00 0.00 0.00 0.00 0.00 0.00 0.00 0.00 0.00 0.00 0.00 0.00 0.00 0.00 0.00 0.00 0.00 0.00 0.00 0.00 0.00 0.02 0.03 0.07 0.16
0.00 0.00 0.00 0.00 0.00 0.00 0.00 0.00 0.00 0.00 0.00 0.00 0.00 0.00 0.00 0.00 0.00 0.00 0.00 0.00 0.00 0.00 0.00 0.00 0.00 0.00 0.00 0.00 0.00 0.00 0.00 0.00 0.00 0.00 0.00 0.00 0.00 0.01 0.01 0.01 0.06 0.12 0.25
0.00 0.00 0.00 0.00 0.00 0.00 0.00 0.00 0.00 0.00 0.00 0.00 0.00 0.00 0.00 0.00 0.00 0.00 0.00 0.00 0.00 0.00 0.00 0.00 0.00 0.00 0.00 0.00 0.00 0.00 0.00 0.00 0.00 0.00 0.00 0.00 0.01 0.02 0.03 0.06 0.20 0.19 0.09
0.00 0.00 0.00 0.00 0.00 0.00 0.00 0.00 0.00 0.00 0.00 0.00 0.00 0.00 0.00 0.00 0.00 0.00 0.00 0.00 0.00 0.00 0.00 0.00 0.00 0.00 0.00 0.00 0.00 0.00 0.00 0.00 0.00 0.00 0.00 0.04 0.03 0.02 0.10 0.24 0.23 0.04 0.00
0.00 0.00 0.00 0.00 0.00 0.00 0.00 0.00 0.00 0.00 0.00 0.00 0.00 0.00 0.00 0.00 0.00 0.00 0.00 0.00 0.00 0.00 0.00 0.00 0.00 0.00 0.00 0.00 0.00 0.00 0.00 0.00 0.00 0.01 0.02 0.02 0.02 0.07 0.30 0.13 0.04 0.07 0.02
0.00 0.00 0.00 0.00 0.00 0.00 0.00 0.00 0.00 0.00 0.00 0.00 0.00 0.00 0.00 0.00 0.00 0.00 0.00 0.00 0.00 0.00 0.00 0.00 0.00 0.00 0.00 0.00 0.00 0.00 0.01 0.01 0.06 0.08 0.02 0.01 0.08 0.25 0.10 0.02 0.02 0.03 0.03
0.00 0.00 0.00 0.00 0.00 0.00 0.00 0.00 0.00 0.00 0.00 0.00 0.00 0.00 0.00 0.00 0.00 0.00 0.00 0.00 0.00 0.00 0.00 0.00 0.00 0.00 0.00 0.00 0.00 0.01 0.02 0.05 0.06 0.03 0.02 0.10 0.21 0.04 0.00 0.00 0.02 0.03 0.02
0.00 0.00 0.00 0.00 0.00 0.00 0.00 0.00 0.00 0.00 0.00 0.00 0.00 0.00 0.00 0.00 0.00 0.00 0.00 0.00 0.00 0.00 0.00 0.00 0.00 0.00 0.00 0.00 0.00 0.00 0.05 0.06 0.04 0.04 0.16 0.16 0.01 0.00 0.00 0.00 0.01 0.01 0.00
0.00 0.00 0.00 0.00 0.00 0.00 0.00 0.00 0.00 0.00 0.00 0.00 0.00 0.00 0.00 0.00 0.00 0.00 0.00 0.00 0.00 0.00 0.00 0.00 0.00 0.00 0.00 0.00 0.00 0.02 0.04 0.03 0.07 0.16 0.17 0.01 0.00 0.00 0.00 0.00 0.00 0.00 0.01
0.00 0.00 0.00 0.00 0.00 0.00 0.00 0.00 0.00 0.00 0.00 0.00 0.00 0.00 0.00 0.00 0.00 0.00 0.00 0.00 0.00 0.00 0.00 0.00 0.00 0.01 0.01 0.00 0.03 0.04 0.03 0.06 0.12 0.06 0.00 0.00 0.00 0.00 0.00 0.00 0.00 0.00 0.01
0.00 0.00 0.00 0.00 0.00 0.00 0.00 0.00 0.00 0.00 0.00 0.00 0.00 0.00 0.00 0.00 0.00 0.00 0.00 0.00 0.00 0.00 0.00 0.00 0.01 0.01 0.01 0.02 0.03 0.02 0.08 0.10 0.04 0.00 0.00 0.01 0.01 0.02 0.01 0.01 0.02 0.01 0.02

GFSMW_prec_precacc24_030.txt.gz
Total_Precipitation_Accumulation
0.00 0.00 0.00 0.00 0.00 0.00 0.00 0.00 0.00 0.00 0.00 0.00 0.00 0.00 0.00 0.00 0.00 0.00 0.00 0.00 0.00 0.00 0.00 0.00 0.00 0.00 0.00 0.00 0.00 0.00 0.00 0.00 0.00 0.00 0.00 0.00 0.00 0.00 0.00 0.00 0.00 0.00 0.00
0.00 0.00 0.00 0.00 0.00 0.00 0.00 0.00 0.00 0.00 0.00 0.00 0.00 0.00 0.00 0.00 0.00 0.00 0.00 0.00 0.00 0.00 0.00 0.00 0.00 0.00 0.00 0.00 0.00 0.00 0.00 0.00 0.00 0.01 0.01 0.01 0.00 0.00 0.00 0.00 0.00 0.00 0.00
0.00 0.00 0.00 0.00 0.00 0.00 0.00 0.00 0.00 0.00 0.00 0.00 0.00 0.00 0.00 0.00 0.00 0.00 0.00 0.00 0.00 0.00 0.00 0.00 0.00 0.00 0.00 0.00 0.00 0.00 0.00 0.00 0.00 0.00 0.01 0.02 0.01 0.01 0.00 0.00 0.00 0.00 0.00
0.00 0.00 0.00 0.00 0.00 0.00 0.00 0.00 0.00 0.00 0.00 0.00 0.00 0.00 0.00 0.00 0.00 0.00 0.00 0.00 0.00 0.00 0.00 0.00 0.00 0.00 0.00 0.00 0.00 0.00 0.00 0.00 0.00 0.00 0.00 0.01 0.02 0.01 0.00 0.00 0.00 0.00 0.00
0.00 0.00 0.00 0.00 0.00 0.00 0.00 0.00 0.00 0.00 0.00 0.00 0.00 0.00 0.00 0.00 0.00 0.00 0.00 0.00 0.00 0.00 0.00 0.00 0.00 0.00 0.00 0.00 0.00 0.00 0.00 0.00 0.00 0.00 0.00 0.00 0.00 0.00 0.00 0.00 0.00 0.00 0.00
0.00 0.00 0.00 0.00 0.00 0.00 0.00 0.00 0.00 0.00 0.00 0.00 0.00 0.00 0.00 0.00 0.00 0.00 0.00 0.00 0.00 0.00 0.00 0.00 0.00 0.00 0.00 0.00 0.00 0.00 0.00 0.00 0.00 0.00 0.00 0.00 0.00 0.00 0.00 0.00 0.00 0.00 0.00
0.00 0.00 0.00 0.00 0.00 0.00 0.00 0.00 0.00 0.00 0.00 0.00 0.00 0.00 0.00 0.00 0.00 0.00 0.00 0.00 0.00 0.00 0.00 0.00 0.00 0.00 0.00 0.00 0.00 0.00 0.00 0.00 0.00 0.00 0.00 0.00 0.00 0.00 0.00 0.00 0.00 0.00 0.00
0.00 0.00 0.00 0.00 0.00 0.00 0.00 0.00 0.00 0.00 0.00 0.00 0.00 0.00 0.00 0.00 0.00 0.00 0.00 0.00 0.00 0.00 0.00 0.00 0.00 0.00 0.00 0.00 0.00 0.00 0.00 0.00 0.00 0.00 0.00 0.00 0.00 0.00 0.00 0.00 0.03 0.02 0.00
0.00 0.00 0.00 0.00 0.00 0.00 0.00 0.00 0.00 0.00 0.00 0.00 0.00 0.00 0.00 0.00 0.00 0.00 0.00 0.00 0.00 0.00 0.00 0.00 0.00 0.00 0.00 0.00 0.00 0.00 0.00 0.00 0.00 0.00 0.00 0.00 0.00 0.00 0.00 0.01 0.03 0.02 0.02
0.00 0.00 0.00 0.00 0.00 0.00 0.00 0.00 0.00 0.00 0.00 0.00 0.00 0.00 0.00 0.00 0.00 0.00 0.00 0.00 0.00 0.00 0.00 0.00 0.00 0.00 0.00 0.00 0.00 0.00 0.00 0.00 0.00 0.00 0.00 0.00 0.00 0.00 0.00 0.00 0.00 0.00 0.01
0.00 0.00 0.00 0.00 0.00 0.00 0.00 0.00 0.00 0.00 0.00 0.00 0.00 0.00 0.00 0.00 0.00 0.00 0.00 0.00 0.00 0.00 0.00 0.00 0.00 0.00 0.00 0.00 0.00 0.00 0.00 0.00 0.00 0.00 0.00 0.00 0.00 0.00 0.00 0.00 0.00 0.00 0.00
0.00 0.00 0.00 0.00 0.00 0.00 0.00 0.00 0.00 0.00 0.00 0.00 0.00 0.00 0.00 0.00 0.00 0.00 0.00 0.00 0.00 0.00 0.00 0.00 0.00 0.00 0.00 0.00 0.00 0.00 0.00 0.00 0.00 0.00 0.00 0.00 0.00 0.00 0.00 0.00 0.00 0.00 0.00
0.00 0.00 0.00 0.00 0.00 0.00 0.00 0.00 0.00 0.00 0.00 0.00 0.00 0.00 0.00 0.00 0.00 0.00 0.00 0.00 0.00 0.00 0.00 0.00 0.00 0.00 0.00 0.00 0.00 0.00 0.00 0.00 0.00 0.00 0.00 0.00 0.00 0.00 0.00 0.00 0.00 0.00 0.02
0.01 0.00 0.00 0.00 0.00 0.00 0.00 0.00 0.00 0.00 0.00 0.00 0.00 0.00 0.00 0.00 0.00 0.00 0.00 0.00 0.00 0.00 0.00 0.00 0.00 0.00 0.00 0.00 0.00 0.00 0.00 0.00 0.00 0.00 0.00 0.00 0.00 0.00 0.00 0.00 0.01 0.02 0.03
0.01 0.00 0.00 0.00 0.00 0.00 0.00 0.00 0.00 0.00 0.00 0.00 0.00 0.00 0.00 0.00 0.00 0.00 0.00 0.00 0.00 0.00 0.00 0.00 0.00 0.00 0.00 0.00 0.00 0.00 0.00 0.00 0.00 0.00 0.00 0.00 0.00 0.00 0.00 0.02 0.03 0.05 0.06
0.00 0.00 0.00 0.00 0.00 0.00 0.00 0.00 0.00 0.00 0.00 0.00 0.00 0.00 0.00 0.00 0.00 0.00 0.00 0.00 0.00 0.00 0.00 0.00 0.00 0.00 0.00 0.00 0.00 0.00 0.00 0.00 0.00 0.00 0.00 0.00 0.00 0.00 0.00 0.02 0.04 0.07 0.19
0.00 0.00 0.00 0.00 0.00 0.00 0.00 0.00 0.00 0.00 0.00 0.00 0.00 0.00 0.00 0.00 0.00 0.00 0.00 0.00 0.00 0.00 0.00 0.00 0.00 0.00 0.00 0.00 0.00 0.00 0.00 0.00 0.00 0.00 0.00 0.00 0.00 0.01 0.01 0.01 0.06 0.16 0.27
0.00 0.00 0.00 0.00 0.00 0.00 0.00 0.00 0.00 0.00 0.00 0.00 0.00 0.00 0.00 0.00 0.00 0.00 0.00 0.00 0.00 0.00 0.00 0.00 0.00 0.00 0.00 0.00 0.00 0.00 0.00 0.00 0.00 0.00 0.00 0.00 0.01 0.02 0.04 0.08 0.26 0.20 0.09
0.00 0.00 0.00 0.00 0.00 0.00 0.00 0.00 0.00 0.00 0.00 0.00 0.00 0.00 0.00 0.00 0.00 0.00 0.00 0.00 0.00 0.00 0.00 0.00 0.00 0.00 0.00 0.00 0.00 0.00 0.00 0.00 0.00 0.00 0.00 0.03 0.03 0.02 0.10 0.24 0.22 0.04 0.00
0.00 0.00 0.00 0.00 0.00 0.00 0.00 0.00 0.00 0.00 0.00 0.00 0.00 0.00 0.00 0.00 0.00 0.00 0.00 0.00 0.00 0.00 0.00 0.00 0.00 0.00 0.00 0.00 0.00 0.00 0.00 0.00 0.00 0.01 0.02 0.02 0.02 0.07 0.30 0.13 0.02 0.02 0.01
0.00 0.00 0.00 0.00 0.00 0.00 0.00 0.00 0.00 0.00 0.00 0.00 0.00 0.00 0.00 0.00 0.00 0.00 0.00 0.00 0.00 0.00 0.00 0.00 0.00 0.00 0.00 0.00 0.00 0.00 0.01 0.01 0.05 0.06 0.01 0.01 0.07 0.24 0.10 0.02 0.01 0.02 0.04
0.00 0.00 0.00 0.00 0.00 0.00 0.00 0.00 0.00 0.00 0.00 0.00 0.00 0.00 0.00 0.00 0.00 0.00 0.00 0.00 0.00 0.00 0.00 0.00 0.00 0.00 0.00 0.00 0.00 0.00 0.01 0.04 0.05 0.03 0.02 0.07 0.19 0.04 0.00 0.00 0.02 0.03 0.02
0.00 0.00 0.00 0.00 0.00 0.00 0.00 0.00 0.00 0.00 0.00 0.00 0.00 0.00 0.00 0.00 0.00 0.00 0.00 0.00 0.00 0.00 0.00 0.00 0.00 0.00 0.00 0.00 0.00 0.00 0.04 0.04 0.04 0.04 0.12 0.12 0.01 0.00 0.00 0.00 0.01 0.01 0.00
0.00 0.00 0.00 0.00 0.00 0.00 0.00 0.00 0.00 0.00 0.00 0.00 0.00 0.00 0.00 0.00 0.00 0.00 0.00 0.00 0.00 0.00 0.00 0.00 0.00 0.00 0.00 0.00 0.00 0.02 0.03 0.03 0.07 0.10 0.13 0.01 0.00 0.00 0.00 0.00 0.00 0.00 0.01
0.00 0.00 0.00 0.00 0.00 0.00 0.00 0.00 0.00 0.00 0.00 0.00 0.00 0.00 0.00 0.00 0.00 0.00 0.00 0.00 0.00 0.00 0.00 0.00 0.00 0.00 0.01 0.00 0.02 0.03 0.03 0.05 0.08 0.04 0.00 0.00 0.00 0.00 0.00 0.00 0.00 0.00 0.01
0.00 0.00 0.00 0.00 0.00 0.00 0.00 0.00 0.00 0.00 0.00 0.00 0.00 0.00 0.00 0.00 0.00 0.00 0.00 0.00 0.00 0.00 0.00 0.00 0.00 0.00 0.01 0.02 0.02 0.02 0.07 0.08 0.03 0.00 0.00 0.01 0.01 0.01 0.01 0.01 0.02 0.01 0.02

GFSMW_prec_precacc24_033.txt.gz
Total_Precipitation_Accumulation
0.00 0.00 0.00 0.00 0.00 0.00 0.00 0.00 0.00 0.00 0.00 0.00 0.00 0.01 0.06 0.04 0.01 0.00 0.00 0.00 0.00 0.00 0.00 0.00 0.00 0.00 0.00 0.00 0.00 0.00 0.00 0.00 0.00 0.00 0.00 0.00 0.00 0.00 0.00 0.00 0.00 0.00 0.00
0.00 0.00 0.00 0.00 0.00 0.00 0.00 0.00 0.00 0.00 0.00 0.00 0.00 0.02 0.07 0.04 0.01 0.00 0.00 0.00 0.00 0.00 0.00 0.00 0.00 0.00 0.00 0.00 0.00 0.00 0.00 0.00 0.00 0.00 0.00 0.00 0.00 0.00 0.00 0.00 0.00 0.00 0.00
0.00 0.00 0.00 0.00 0.00 0.00 0.00 0.00 0.00 0.00 0.00 0.00 0.00 0.01 0.03 0.02 0.01 0.00 0.00 0.00 0.00 0.00 0.00 0.00 0.00 0.00 0.00 0.00 0.00 0.00 0.00 0.00 0.00 0.00 0.00 0.00 0.00 0.00 0.00 0.00 0.00 0.00 0.00
0.00 0.00 0.00 0.00 0.00 0.00 0.00 0.00 0.00 0.00 0.00 0.00 0.00 0.00 0.03 0.03 0.01 0.00 0.00 0.00 0.00 0.00 0.00 0.00 0.00 0.00 0.00 0.00 0.00 0.00 0.00 0.00 0.00 0.00 0.00 0.00 0.00 0.00 0.00 0.00 0.00 0.00 0.00
0.00 0.00 0.00 0.00 0.00 0.00 0.00 0.00 0.00 0.00 0.00 0.00 0.00 0.00 0.02 0.02 0.00 0.00 0.00 0.00 0.00 0.00 0.00 0.00 0.00 0.00 0.00 0.00 0.00 0.00 0.00 0.00 0.00 0.00 0.00 0.00 0.00 0.00 0.00 0.00 0.00 0.00 0.00
0.00 0.00 0.00 0.00 0.00 0.00 0.00 0.00 0.00 0.00 0.00 0.00 0.00 0.00 0.01 0.00 0.00 0.00 0.00 0.00 0.00 0.00 0.00 0.00 0.00 0.00 0.00 0.00 0.00 0.00 0.00 0.00 0.00 0.00 0.00 0.00 0.00 0.00 0.00 0.00 0.00 0.00 0.00
0.00 0.00 0.00 0.00 0.00 0.00 0.00 0.00 0.00 0.00 0.00 0.00 0.00 0.00 0.00 0.00 0.00 0.00 0.00 0.00 0.00 0.00 0.00 0.00 0.00 0.00 0.00 0.00 0.00 0.00 0.00 0.00 0.00 0.00 0.00 0.00 0.00 0.00 0.00 0.00 0.00 0.00 0.00
0.00 0.00 0.00 0.00 0.00 0.00 0.00 0.00 0.00 0.00 0.00 0.00 0.00 0.00 0.00 0.00 0.00 0.00 0.00 0.00 0.00 0.00 0.00 0.00 0.00 0.00 0.00 0.00 0.00 0.00 0.00 0.00 0.00 0.00 0.00 0.00 0.00 0.00 0.00 0.00 0.00 0.01 0.00
0.00 0.00 0.00 0.00 0.00 0.00 0.00 0.00 0.00 0.00 0.00 0.00 0.00 0.00 0.00 0.00 0.00 0.00 0.00 0.00 0.00 0.00 0.00 0.00 0.00 0.00 0.00 0.00 0.00 0.00 0.00 0.00 0.00 0.00 0.00 0.00 0.00 0.00 0.00 0.00 0.01 0.01 0.01
0.00 0.00 0.00 0.00 0.00 0.00 0.00 0.00 0.00 0.00 0.00 0.00 0.00 0.00 0.00 0.00 0.00 0.00 0.00 0.00 0.00 0.00 0.00 0.00 0.00 0.00 0.00 0.00 0.00 0.00 0.00 0.00 0.00 0.00 0.00 0.00 0.00 0.00 0.00 0.00 0.00 0.00 0.00
0.00 0.00 0.00 0.00 0.00 0.00 0.00 0.00 0.00 0.00 0.00 0.00 0.00 0.00 0.00 0.00 0.00 0.00 0.00 0.00 0.00 0.00 0.00 0.00 0.00 0.00 0.00 0.00 0.00 0.00 0.00 0.00 0.00 0.00 0.00 0.00 0.00 0.00 0.00 0.00 0.00 0.00 0.00
0.00 0.00 0.00 0.00 0.00 0.00 0.00 0.00 0.00 0.00 0.00 0.00 0.00 0.00 0.00 0.00 0.00 0.00 0.00 0.00 0.00 0.00 0.00 0.00 0.00 0.00 0.00 0.00 0.00 0.00 0.00 0.00 0.00 0.00 0.00 0.00 0.00 0.00 0.00 0.00 0.00 0.00 0.00
0.00 0.00 0.00 0.00 0.00 0.00 0.00 0.00 0.00 0.00 0.00 0.00 0.00 0.00 0.00 0.00 0.00 0.00 0.00 0.00 0.00 0.00 0.00 0.00 0.00 0.00 0.00 0.00 0.00 0.00 0.00 0.00 0.00 0.00 0.00 0.00 0.00 0.00 0.00 0.00 0.00 0.00 0.01
0.01 0.00 0.00 0.00 0.00 0.00 0.00 0.00 0.00 0.00 0.00 0.00 0.00 0.00 0.00 0.00 0.00 0.00 0.00 0.00 0.00 0.00 0.00 0.00 0.00 0.00 0.00 0.00 0.00 0.00 0.00 0.00 0.00 0.00 0.00 0.00 0.00 0.00 0.00 0.00 0.00 0.02 0.02
0.01 0.00 0.00 0.00 0.00 0.00 0.00 0.00 0.00 0.00 0.00 0.00 0.00 0.00 0.00 0.00 0.00 0.00 0.00 0.00 0.00 0.00 0.00 0.00 0.00 0.00 0.00 0.00 0.00 0.00 0.00 0.00 0.00 0.00 0.00 0.00 0.00 0.00 0.00 0.02 0.03 0.04 0.05
0.01 0.00 0.00 0.00 0.00 0.00 0.00 0.00 0.00 0.00 0.00 0.00 0.00 0.00 0.00 0.00 0.00 0.00 0.00 0.00 0.00 0.00 0.00 0.00 0.00 0.00 0.00 0.00 0.00 0.00 0.00 0.00 0.00 0.00 0.00 0.00 0.00 0.00 0.00 0.02 0.04 0.07 0.19
0.00 0.00 0.00 0.00 0.00 0.00 0.00 0.00 0.00 0.00 0.00 0.00 0.00 0.00 0.00 0.00 0.00 0.00 0.00 0.00 0.00 0.00 0.00 0.00 0.00 0.00 0.00 0.00 0.00 0.00 0.00 0.00 0.00 0.00 0.00 0.00 0.00 0.00 0.01 0.01 0.05 0.16 0.27
0.00 0.00 0.00 0.00 0.00 0.00 0.00 0.00 0.00 0.00 0.00 0.00 0.00 0.00 0.00 0.00 0.00 0.00 0.00 0.00 0.00 0.00 0.00 0.00 0.00 0.00 0.00 0.00 0.00 0.00 0.00 0.00 0.00 0.00 0.00 0.00 0.01 0.02 0.03 0.07 0.24 0.21 0.09
0.00 0.00 0.00 0.00 0.00 0.00 0.00 0.00 0.00 0.00 0.00 0.00 0.00 0.00 0.00 0.00 0.00 0.00 0.00 0.00 0.00 0.00 0.00 0.00 0.00 0.00 0.00 0.00 0.00 0.00 0.00 0.00 0.00 0.00 0.00 0.02 0.02 0.02 0.08 0.21 0.22 0.04 0.00
0.00 0.00 0.00 0.00 0.00 0.00 0.00 0.00 0.00 0.00 0.00 0.00 0.00 0.00 0.00 0.00 0.00 0.00 0.00 0.00 0.00 0.00 0.00 0.00 0.00 0.00 0.00 0.00 0.00 0.00 0.00 0.00 0.00 0.01 0.01 0.02 0.02 0.05 0.26 0.13 0.02 0.02 0.01
0.00 0.00 0.00 0.00 0.00 0.00 0.00 0.00 0.00 0.00 0.00 0.00 0.00 0.00 0.00 0.00 0.00 0.00 0.00 0.00 0.00 0.00 0.00 0.00 0.00 0.00 0.00 0.00 0.00 0.00 0.01 0.01 0.04 0.04 0.01 0.01 0.05 0.19 0.10 0.02 0.01 0.02 0.04
0.00 0.00 0.00 0.00 0.00 0.00 0.00 0.00 0.00 0.00 0.00 0.00 0.00 0.00 0.00 0.00 0.00 0.00 0.00 0.00 0.00 0.00 0.00 0.00 0.00 0.00 0.00 0.00 0.00 0.00 0.01 0.03 0.04 0.03 0.02 0.04 0.13 0.04 0.00 0.00 0.02 0.03 0.02
0.00 0.00 0.00 0.00 0.00 0.00 0.00 0.00 0.00 0.00 0.00 0.00 0.00 0.00 0.00 0.00 0.00 0.00 0.00 0.00 0.00 0.00 0.00 0.00 0.00 0.00 0.00 0.00 0.00 0.00 0.02 0.03 0.03 0.04 0.09 0.08 0.01 0.00 0.00 0.00 0.01 0.01 0.00
0.00 0.00 0.00 0.00 0.00 0.00 0.00 0.00 0.00 0.00 0.00 0.00 0.00 0.00 0.00 0.00 0.00 0.00 0.00 0.00 0.00 0.00 0.00 0.00 0.00 0.00 0.00 0.00 0.00 0.01 0.02 0.02 0.05 0.08 0.10 0.01 0.00 0.00 0.00 0.00 0.00 0.00 0.01
0.00 0.00 0.00 0.00 0.00 0.00 0.00 0.00 0.00 0.00 0.00 0.00 0.00 0.00 0.00 0.00 0.00 0.00 0.00 0.00 0.00 0.00 0.00 0.00 0.00 0.00 0.00 0.00 0.01 0.02 0.03 0.04 0.07 0.04 0.00 0.00 0.00 0.00 0.00 0.00 0.00 0.00 0.01
0.00 0.00 0.00 0.00 0.00 0.00 0.00 0.00 0.00 0.00 0.00 0.00 0.00 0.00 0.00 0.00 0.00 0.00 0.00 0.00 0.00 0.00 0.00 0.00 0.00 0.00 0.00 0.01 0.01 0.01 0.05 0.07 0.03 0.00 0.00 0.00 0.01 0.01 0.01 0.01 0.01 0.01 0.02

GFSMW_prec_precacc24_039.txt.gz
Total_Precipitation_Accumulation
0.00 0.00 0.00 0.00 0.00 0.00 0.00 0.00 0.00 0.00 0.00 0.00 0.00 0.01 0.06 0.16 0.10 0.07 0.03 0.00 0.00 0.00 0.00 0.00 0.00 0.00 0.00 0.00 0.00 0.00 0.00 0.00 0.00 0.00 0.00 0.00 0.00 0.00 0.00 0.00 0.00 0.00 0.00
0.00 0.00 0.00 0.00 0.00 0.00 0.00 0.00 0.00 0.00 0.00 0.00 0.00 0.02 0.08 0.13 0.13 0.10 0.07 0.07 0.04 0.00 0.00 0.00 0.00 0.00 0.00 0.00 0.00 0.00 0.00 0.00 0.00 0.00 0.00 0.00 0.00 0.00 0.00 0.00 0.00 0.00 0.00
0.00 0.00 0.00 0.00 0.00 0.00 0.00 0.00 0.00 0.00 0.00 0.00 0.00 0.01 0.03 0.04 0.05 0.03 0.04 0.07 0.05 0.02 0.00 0.00 0.00 0.00 0.00 0.00 0.00 0.00 0.00 0.00 0.00 0.00 0.00 0.00 0.00 0.00 0.00 0.00 0.00 0.00 0.00
0.00 0.00 0.00 0.00 0.00 0.00 0.00 0.00 0.00 0.00 0.00 0.00 0.00 0.00 0.03 0.06 0.07 0.08 0.08 0.08 0.05 0.03 0.00 0.00 0.00 0.00 0.00 0.00 0.00 0.00 0.00 0.00 0.00 0.00 0.00 0.00 0.00 0.00 0.00 0.00 0.00 0.00 0.00
0.00 0.00 0.00 0.00 0.00 0.00 0.00 0.00 0.00 0.00 0.00 0.00 0.00 0.00 0.02 0.05 0.05 0.04 0.04 0.03 0.03 0.01 0.01 0.00 0.00 0.00 0.00 0.00 0.00 0.00 0.00 0.00 0.00 0.00 0.00 0.00 0.00 0.00 0.00 0.00 0.00 0.00 0.00
0.00 0.00 0.00 0.00 0.00 0.00 0.00 0.00 0.00 0.00 0.00 0.00 0.00 0.00 0.03 0.06 0.03 0.02 0.02 0.03 0.02 0.01 0.00 0.00 0.00 0.00 0.00 0.00 0.00 0.00 0.00 0.00 0.00 0.00 0.00 0.00 0.00 0.00 0.00 0.00 0.00 0.00 0.00
0.00 0.00 0.00 0.00 0.00 0.00 0.00 0.00 0.00 0.00 0.00 0.00 0.00 0.00 0.00 0.03 0.05 0.04 0.03 0.02 0.01 0.01 0.00 0.00 0.00 0.00 0.00 0.00 0.00 0.00 0.00 0.00 0.00 0.00 0.00 0.00 0.00 0.00 0.00 0.00 0.00 0.00 0.00
0.00 0.00 0.00 0.00 0.00 0.00 0.00 0.00 0.00 0.00 0.00 0.00 0.00 0.00 0.00 0.00 0.02 0.01 0.01 0.00 0.00 0.00 0.00 0.00 0.00 0.00 0.00 0.00 0.00 0.00 0.00 0.00 0.00 0.00 0.00 0.00 0.00 0.00 0.00 0.00 0.00 0.00 0.00
0.00 0.00 0.00 0.00 0.00 0.00 0.00 0.00 0.00 0.00 0.00 0.00 0.00 0.00 0.00 0.01 0.02 0.01 0.00 0.00 0.00 0.00 0.00 0.00 0.00 0.00 0.00 0.00 0.00 0.00 0.00 0.00 0.00 0.00 0.00 0.00 0.00 0.00 0.00 0.00 0.00 0.00 0.00
0.00 0.00 0.00 0.00 0.00 0.00 0.00 0.00 0.00 0.00 0.00 0.00 0.00 0.00 0.00 0.00 0.01 0.01 0.00 0.01 0.00 0.00 0.00 0.00 0.00 0.00 0.00 0.00 0.00 0.00 0.00 0.00 0.00 0.00 0.00 0.00 0.00 0.00 0.00 0.00 0.00 0.00 0.00
0.00 0.00 0.00 0.00 0.00 0.00 0.00 0.00 0.00 0.00 0.00 0.00 0.00 0.00 0.00 0.00 0.00 0.01 0.01 0.01 0.00 0.00 0.00 0.00 0.00 0.00 0.00 0.00 0.00 0.00 0.00 0.00 0.00 0.00 0.00 0.00 0.00 0.00 0.00 0.00 0.00 0.00 0.00
0.00 0.00 0.00 0.00 0.00 0.00 0.00 0.00 0.00 0.00 0.00 0.00 0.00 0.00 0.00 0.00 0.00 0.00 0.00 0.00 0.00 0.00 0.00 0.00 0.00 0.00 0.00 0.00 0.00 0.00 0.00 0.00 0.00 0.00 0.00 0.00 0.00 0.00 0.00 0.00 0.00 0.00 0.00
0.00 0.00 0.00 0.00 0.00 0.00 0.00 0.00 0.00 0.00 0.00 0.00 0.00 0.00 0.00 0.00 0.00 0.00 0.01 0.00 0.00 0.00 0.00 0.00 0.00 0.00 0.00 0.00 0.00 0.00 0.00 0.00 0.00 0.00 0.00 0.00 0.00 0.00 0.00 0.00 0.00 0.00 0.00
0.01 0.00 0.00 0.00 0.00 0.00 0.00 0.00 0.00 0.00 0.00 0.00 0.00 0.00 0.00 0.00 0.00 0.00 0.00 0.00 0.00 0.00 0.00 0.00 0.00 0.00 0.00 0.00 0.00 0.00 0.00 0.00 0.00 0.00 0.00 0.00 0.00 0.00 0.00 0.00 0.00 0.01 0.01
0.01 0.00 0.00 0.00 0.00 0.00 0.00 0.00 0.00 0.00 0.00 0.00 0.00 0.00 0.00 0.00 0.00 0.00 0.00 0.00 0.00 0.00 0.00 0.00 0.00 0.00 0.00 0.00 0.00 0.00 0.00 0.00 0.00 0.00 0.00 0.00 0.00 0.00 0.00 0.01 0.01 0.01 0.03
0.01 0.00 0.00 0.00 0.00 0.00 0.00 0.00 0.00 0.00 0.00 0.00 0.00 0.00 0.00 0.00 0.00 0.00 0.00 0.00 0.00 0.00 0.00 0.00 0.00 0.00 0.00 0.00 0.00 0.00 0.00 0.00 0.00 0.00 0.00 0.00 0.00 0.00 0.00 0.01 0.03 0.05 0.16
0.00 0.00 0.00 0.00 0.00 0.00 0.00 0.00 0.00 0.00 0.00 0.00 0.00 0.01 0.00 0.00 0.00 0.00 0.00 0.00 0.00 0.00 0.00 0.00 0.00 0.00 0.00 0.00 0.00 0.00 0.00 0.00 0.00 0.00 0.00 0.00 0.00 0.00 0.00 0.00 0.05 0.14 0.24
0.00 0.00 0.00 0.00 0.00 0.00 0.00 0.00 0.00 0.00 0.00 0.00 0.00 0.00 0.00 0.00 0.00 0.00 0.00 0.00 0.00 0.00 0.00 0.00 0.00 0.00 0.00 0.00 0.00 0.00 0.00 0.00 0.00 0.00 0.00 0.00 0.00 0.01 0.03 0.06 0.20 0.17 0.08
0.00 0.00 0.00 0.00 0.00 0.00 0.00 0.00 0.00 0.00 0.00 0.00 0.00 0.00 0.00 0.00 0.00 0.00 0.00 0.00 0.00 0.00 0.00 0.00 0.00 0.00 0.00 0.00 0.00 0.00 0.00 0.00 0.00 0.00 0.00 0.02 0.02 0.02 0.07 0.15 0.17 0.03 0.00
0.00 0.00 0.00 0.00 0.00 0.01 0.02 0.02 0.02 0.01 0.02 0.01 0.00 0.00 0.00 0.00 0.00 0.00 0.00 0.00 0.00 0.00 0.00 0.00 0.00 0.00 0.00 0.00 0.00 0.00 0.00 0.00 0.00 0.00 0.00 0.01 0.02 0.04 0.19 0.10 0.02 0.01 0.00
0.02 0.02 0.02 0.02 0.02 0.02 0.02 0.01 0.01 0.00 0.00 0.00 0.00 0.00 0.00 0.00 0.00 0.00 0.00 0.00 0.00 0.00 0.00 0.00 0.00 0.00 0.00 0.00 0.00 0.00 0.00 0.00 0.02 0.01 0.00 0.00 0.04 0.14 0.08 0.02 0.00 0.01 0.04
0.00 0.00 0.00 0.00 0.00 0.00 0.00 0.00 0.00 0.00 0.00 0.00 0.00 0.00 0.00 0.00 0.00 0.00 0.00 0.00 0.00 0.00 0.00 0.00 0.00 0.00 0.00 0.00 0.00 0.00 0.00 0.03 0.02 0.01 0.00 0.02 0.10 0.04 0.00 0.00 0.01 0.03 0.02
0.00 0.00 0.00 0.00 0.00 0.00 0.00 0.00 0.00 0.00 0.00 0.00 0.00 0.00 0.00 0.00 0.00 0.00 0.00 0.00 0.00 0.00 0.00 0.00 0.00 0.00 0.00 0.00 0.00 0.00 0.01 0.02 0.03 0.02 0.06 0.06 0.01 0.00 0.00 0.00 0.01 0.01 0.00
0.00 0.00 0.00 0.00 0.00 0.00 0.00 0.00 0.00 0.00 0.00 0.00 0.00 0.00 0.00 0.00 0.00 0.00 0.00 0.00 0.00 0.00 0.00 0.00 0.00 0.00 0.00 0.00 0.00 0.00 0.00 0.01 0.03 0.04 0.07 0.00 0.00 0.00 0.00 0.00 0.00 0.00 0.00
0.00 0.00 0.00 0.00 0.00 0.00 0.00 0.00 0.00 0.00 0.00 0.00 0.00 0.00 0.00 0.00 0.00 0.00 0.00 0.00 0.00 0.00 0.00 0.00 0.00 0.00 0.00 0.00 0.01 0.01 0.02 0.03 0.04 0.02 0.00 0.00 0.00 0.00 0.00 0.00 0.00 0.00 0.01
0.00 0.00 0.00 0.00 0.00 0.00 0.00 0.00 0.00 0.00 0.00 0.00 0.00 0.00 0.00 0.00 0.00 0.00 0.00 0.00 0.00 0.00 0.00 0.00 0.00 0.00 0.00 0.00 0.01 0.01 0.04 0.04 0.02 0.00 0.00 0.00 0.00 0.00 0.00 0.00 0.01 0.01 0.01

GFSMW_prec_precacc24_042.txt.gz
Total_Precipitation_Accumulation
0.00 0.00 0.00 0.00 0.00 0.00 0.00 0.00 0.00 0.00 0.00 0.00 0.00 0.01 0.06 0.16 0.11 0.08 0.04 0.06 0.02 0.00 0.00 0.00 0.00 0.00 0.00 0.00 0.00 0.00 0.00 0.00 0.00 0.00 0.00 0.00 0.00 0.00 0.00 0.00 0.00 0.00 0.00
0.00 0.00 0.00 0.00 0.00 0.00 0.00 0.00 0.00 0.00 0.00 0.00 0.00 0.02 0.08 0.13 0.13 0.10 0.09 0.12 0.10 0.05 0.02 0.00 0.00 0.00 0.00 0.00 0.00 0.00 0.00 0.00 0.00 0.00 0.00 0.00 0.00 0.00 0.00 0.00 0.00 0.00 0.00
0.00 0.00 0.00 0.00 0.00 0.00 0.00 0.00 0.00 0.00 0.00 0.00 0.00 0.01 0.03 0.04 0.05 0.04 0.06 0.09 0.11 0.09 0.02 0.01 0.00 0.00 0.00 0.00 0.00 0.00 0.00 0.00 0.00 0.00 0.00 0.00 0.00 0.00 0.00 0.00 0.00 0.00 0.00
0.00 0.00 0.00 0.00 0.00 0.00 0.00 0.00 0.00 0.00 0.00 0.00 0.00 0.00 0.03 0.06 0.09 0.11 0.10 0.09 0.10 0.07 0.03 0.02 0.01 0.00 0.00 0.00 0.00 0.00 0.00 0.00 0.00 0.00 0.00 0.00 0.00 0.00 0.00 0.00 0.00 0.00 0.00
0.00 0.00 0.00 0.00 0.00 0.00 0.00 0.00 0.00 0.00 0.00 0.00 0.00 0.00 0.03 0.06 0.07 0.05 0.04 0.06 0.06 0.03 0.02 0.01 0.00 0.00 0.00 0.00 0.00 0.00 0.00 0.00 0.00 0.00 0.00 0.00 0.00 0.00 0.00 0.00 0.00 0.00 0.00
0.00 0.00 0.00 0.00 0.00 0.00 0.00 0.00 0.00 0.00 0.00 0.00 0.00 0.00 0.03 0.06 0.03 0.02 0.03 0.05 0.04 0.03 0.01 0.00 0.00 0.00 0.00 0.00 0.00 0.00 0.00 0.00 0.00 0.00 0.00 0.00 0.00 0.00 0.00 0.00 0.00 0.00 0.00
0.00 0.00 0.00 0.00 0.00 0.00 0.00 0.00 0.00 0.00 0.00 0.00 0.00 0.00 0.00 0.03 0.05 0.04 0.03 0.03 0.03 0.02 0.01 0.00 0.00 0.00 0.00 0.00 0.00 0.00 0.00 0.00 0.00 0.00 0.00 0.00 0.00 0.00 0.00 0.00 0.00 0.00 0.00
0.00 0.00 0.00 0.00 0.00 0.00 0.00 0.00 0.00 0.00 0.00 0.00 0.00 0.00 0.00 0.00 0.02 0.02 0.02 0.03 0.03 0.02 0.01 0.01 0.00 0.00 0.00 0.00 0.00 0.00 0.00 0.00 0.00 0.00 0.00 0.00 0.00 0.00 0.00 0.00 0.00 0.00 0.00
0.00 0.00 0.00 0.00 0.00 0.00 0.00 0.00 0.00 0.00 0.00 0.00 0.00 0.00 0.00 0.01 0.03 0.02 0.03 0.03 0.02 0.01 0.00 0.00 0.00 0.00 0.00 0.00 0.00 0.00 0.00 0.00 0.00 0.00 0.00 0.00 0.00 0.00 0.00 0.00 0.00 0.00 0.00
0.00 0.00 0.00 0.00 0.00 0.00 0.00 0.00 0.00 0.00 0.00 0.00 0.00 0.00 0.00 0.01 0.01 0.02 0.02 0.01 0.01 0.00 0.00 0.00 0.00 0.00 0.00 0.00 0.00 0.00 0.00 0.00 0.00 0.00 0.00 0.00 0.00 0.00 0.00 0.00 0.00 0.00 0.00
0.00 0.00 0.00 0.00 0.00 0.00 0.00 0.00 0.00 0.00 0.00 0.00 0.00 0.00 0.00 0.00 0.00 0.02 0.01 0.01 0.01 0.00 0.00 0.00 0.00 0.00 0.00 0.00 0.00 0.00 0.00 0.00 0.00 0.00 0.00 0.00 0.00 0.00 0.00 0.00 0.00 0.00 0.00
0.00 0.00 0.00 0.00 0.00 0.00 0.00 0.00 0.00 0.00 0.00 0.00 0.00 0.00 0.00 0.00 0.00 0.01 0.01 0.01 0.01 0.01 0.00 0.00 0.00 0.00 0.00 0.00 0.00 0.00 0.00 0.00 0.00 0.00 0.00 0.00 0.00 0.00 0.00 0.00 0.00 0.00 0.00
0.00 0.00 0.00 0.00 0.00 0.00 0.01 0.01 0.00 0.00 0.00 0.00 0.00 0.00 0.00 0.01 0.01 0.01 0.01 0.01 0.00 0.00 0.00 0.00 0.00 0.00 0.00 0.00 0.00 0.00 0.00 0.00 0.00 0.00 0.00 0.00 0.00 0.00 0.00 0.00 0.00 0.00 0.00
0.01 0.00 0.00 0.00 0.00 0.01 0.02 0.00 0.00 0.00 0.00 0.00 0.00 0.00 0.00 0.01 0.00 0.00 0.00 0.01 0.00 0.00 0.00 0.00 0.00 0.00 0.00 0.00 0.00 0.00 0.00 0.00 0.00 0.00 0.00 0.00 0.00 0.00 0.00 0.00 0.00 0.00 0.00
0.01 0.01 0.00 0.00 0.00 0.00 0.00 0.00 0.00 0.00 0.00 0.00 0.00 0.00 0.00 0.00 0.00 0.00 0.00 0.00 0.00 0.00 0.00 0.00 0.00 0.00 0.00 0.00 0.00 0.00 0.00 0.00 0.00 0.00 0.00 0.00 0.00 0.00 0.00 0.01 0.01 0.01 0.03
0.01 0.00 0.00 0.00 0.00 0.00 0.00 0.00 0.00 0.00 0.00 0.00 0.01 0.01 0.00 0.00 0.00 0.00 0.00 0.00 0.00 0.00 0.00 0.00 0.00 0.00 0.00 0.00 0.00 0.00 0.00 0.00 0.00 0.00 0.00 0.00 0.00 0.00 0.00 0.01 0.02 0.03 0.13
0.00 0.00 0.00 0.00 0.00 0.00 0.00 0.00 0.00 0.00 0.00 0.00 0.01 0.01 0.00 0.00 0.00 0.00 0.00 0.01 0.00 0.00 0.00 0.00 0.00 0.00 0.00 0.00 0.00 0.00 0.00 0.00 0.00 0.00 0.00 0.00 0.00 0.00 0.00 0.00 0.04 0.13 0.20
0.00 0.00 0.00 0.00 0.00 0.00 0.00 0.00 0.00 0.00 0.01 0.01 0.01 0.00 0.00 0.00 0.00 0.01 0.00 0.00 0.00 0.00 0.00 0.00 0.00 0.00 0.00 0.00 0.00 0.00 0.00 0.00 0.00 0.00 0.00 0.00 0.00 0.01 0.02 0.05 0.18 0.16 0.07
0.00 0.00 0.00 0.00 0.00 0.00 0.00 0.00 0.00 0.00 0.01 0.01 0.01 0.02 0.01 0.01 0.00 0.02 0.00 0.00 0.00 0.00 0.00 0.00 0.00 0.00 0.00 0.00 0.00 0.00 0.00 0.00 0.00 0.00 0.00 0.01 0.01 0.01 0.05 0.13 0.16 0.03 0.00
0.00 0.00 0.00 0.00 0.00 0.01 0.03 0.02 0.03 0.04 0.05 0.07 0.05 0.09 0.16 0.15 0.04 0.00 0.00 0.00 0.00 0.00 0.00 0.00 0.00 0.00 0.00 0.00 0.00 0.00 0.00 0.00 0.00 0.00 0.00 0.01 0.02 0.03 0.15 0.08 0.02 0.01 0.00
0.06 0.06 0.06 0.06 0.09 0.16 0.18 0.13 0.16 0.19 0.16 0.14 0.17 0.06 0.02 0.01 0.00 0.00 0.00 0.00 0.00 0.00 0.00 0.00 0.00 0.00 0.00 0.00 0.00 0.00 0.00 0.00 0.01 0.01 0.00 0.00 0.03 0.11 0.07 0.03 0.00 0.01 0.03
0.19 0.26 0.17 0.16 0.20 0.30 0.35 0.19 0.14 0.15 0.11 0.04 0.00 0.00 0.00 0.00 0.00 0.00 0.00 0.00 0.00 0.00 0.00 0.00 0.00 0.00 0.00 0.00 0.00 0.00 0.00 0.02 0.02 0.01 0.00 0.02 0.08 0.03 0.00 0.00 0.01 0.03 0.02
0.01 0.02 0.02 0.02 0.02 0.01 0.02 0.01 0.00 0.00 0.00 0.00 0.00 0.00 0.00 0.00 0.00 0.00 0.00 0.00 0.00 0.00 0.00 0.00 0.00 0.00 0.00 0.00 0.00 0.00 0.01 0.01 0.02 0.02 0.04 0.04 0.01 0.00 0.00 0.00 0.00 0.01 0.00
0.02 0.01 0.00 0.00 0.00 0.00 0.00 0.00 0.00 0.00 0.00 0.00 0.00 0.00 0.00 0.00 0.00 0.00 0.00 0.00 0.00 0.00 0.00 0.00 0.00 0.00 0.00 0.00 0.00 0.00 0.00 0.01 0.02 0.02 0.04 0.00 0.00 0.00 0.00 0.00 0.00 0.00 0.00
0.00 0.00 0.00 0.00 0.00 0.00 0.00 0.00 0.00 0.00 0.00 0.00 0.00 0.00 0.00 0.00 0.00 0.00 0.00 0.00 0.00 0.00 0.00 0.00 0.00 0.00 0.00 0.00 0.00 0.01 0.01 0.02 0.03 0.01 0.00 0.00 0.00 0.00 0.00 0.00 0.00 0.00 0.00
0.00 0.00 0.00 0.00 0.00 0.00 0.00 0.00 0.00 0.00 0.00 0.00 0.00 0.00 0.00 0.00 0.00 0.00 0.00 0.00 0.00 0.00 0.00 0.00 0.00 0.00 0.00 0.00 0.00 0.02 0.04 0.02 0.02 0.00 0.00 0.00 0.00 0.00 0.00 0.00 0.01 0.00 0.01

GFSMW_prec_precacc24_048.txt.gz
Total_Precipitation_Accumulation
0.00 0.00 0.00 0.00 0.00 0.00 0.00 0.00 0.00 0.00 0.02 0.03 0.03 0.03 0.12 0.21 0.14 0.09 0.05 0.06 0.04 0.02 0.00 0.00 0.00 0.00 0.00 0.00 0.00 0.00 0.00 0.00 0.00 0.00 0.00 0.00 0.00 0.00 0.00 0.00 0.00 0.00 0.00
0.00 0.00 0.00 0.00 0.00 0.00 0.00 0.00 0.00 0.00 0.00 0.01 0.01 0.06 0.18 0.26 0.24 0.17 0.12 0.12 0.13 0.15 0.06 0.00 0.00 0.00 0.00 0.00 0.00 0.00 0.00 0.00 0.00 0.00 0.00 0.00 0.00 0.00 0.00 0.00 0.00 0.00 0.00
0.00 0.00 0.00 0.00 0.00 0.00 0.00 0.00 0.00 0.00 0.00 0.00 0.03 0.07 0.13 0.17 0.19 0.12 0.08 0.11 0.18 0.29 0.16 0.04 0.01 0.00 0.00 0.00 0.00 0.00 0.00 0.00 0.00 0.00 0.00 0.00 0.00 0.00 0.00 0.00 0.00 0.00 0.00
0.00 0.00 0.00 0.00 0.00 0.00 0.00 0.00 0.00 0.00 0.00 0.00 0.00 0.01 0.04 0.09 0.14 0.18 0.18 0.23 0.24 0.28 0.18 0.10 0.09 0.05 0.02 0.00 0.00 0.00 0.00 0.00 0.00 0.00 0.00 0.00 0.00 0.00 0.00 0.00 0.00 0.00 0.00
0.00 0.00 0.00 0.00 0.00 0.00 0.00 0.00 0.00 0.00 0.00 0.00 0.00 0.00 0.04 0.10 0.13 0.16 0.16 0.20 0.26 0.22 0.16 0.10 0.08 0.05 0.03 0.02 0.02 0.01 0.00 0.00 0.00 0.00 0.00 0.00 0.00 0.00 0.00 0.00 0.00 0.00 0.00
0.00 0.00 0.00 0.00 0.00 0.00 0.00 0.00 0.00 0.00 0.00 0.00 0.00 0.00 0.03 0.07 0.07 0.07 0.09 0.14 0.16 0.15 0.12 0.08 0.05 0.06 0.05 0.05 0.03 0.01 0.00 0.00 0.00 0.00 0.00 0.00 0.00 0.00 0.00 0.00 0.00 0.00 0.00
0.00 0.00 0.00 0.00 0.00 0.00 0.00 0.00 0.00 0.00 0.00 0.00 0.00 0.00 0.00 0.04 0.07 0.07 0.07 0.07 0.08 0.08 0.09 0.07 0.05 0.05 0.03 0.02 0.01 0.00 0.00 0.00 0.00 0.00 0.00 0.00 0.00 0.00 0.00 0.00 0.00 0.00 0.00
0.00 0.00 0.00 0.00 0.00 0.00 0.00 0.00 0.00 0.00 0.00 0.00 0.00 0.00 0.00 0.02 0.05 0.05 0.06 0.07 0.08 0.08 0.05 0.03 0.03 0.02 0.01 0.02 0.01 0.01 0.00 0.00 0.00 0.00 0.00 0.00 0.00 0.00 0.00 0.00 0.00 0.00 0.00
0.00 0.00 0.00 0.00 0.00 0.00 0.00 0.00 0.00 0.00 0.00 0.00 0.01 0.00 0.01 0.04 0.06 0.06 0.07 0.08 0.07 0.05 0.03 0.03 0.03 0.02 0.01 0.01 0.01 0.00 0.00 0.00 0.00 0.00 0.00 0.00 0.00 0.00 0.00 0.00 0.00 0.00 0.00
0.00 0.00 0.00 0.00 0.00 0.00 0.00 0.00 0.00 0.00 0.01 0.03 0.01 0.01 0.01 0.04 0.05 0.06 0.06 0.05 0.03 0.02 0.02 0.01 0.01 0.01 0.01 0.00 0.01 0.00 0.00 0.00 0.00 0.00 0.00 0.00 0.00 0.00 0.00 0.00 0.00 0.00 0.00
0.00 0.00 0.00 0.00 0.00 0.00 0.00 0.00 0.00 0.00 0.01 0.01 0.01 0.02 0.03 0.05 0.04 0.05 0.04 0.03 0.02 0.01 0.01 0.01 0.01 0.00 0.00 0.01 0.01 0.00 0.00 0.00 0.00 0.00 0.00 0.00 0.00 0.00 0.00 0.00 0.00 0.00 0.00
0.00 0.00 0.00 0.00 0.00 0.00 0.00 0.00 0.00 0.00 0.01 0.00 0.00 0.00 0.02 0.04 0.05 0.04 0.03 0.01 0.02 0.02 0.01 0.00 0.00 0.00 0.01 0.00 0.00 0.00 0.00 0.00 0.00 0.00 0.00 0.00 0.00 0.00 0.00 0.00 0.00 0.00 0.00
0.00 0.00 0.00 0.00 0.00 0.00 0.02 0.04 0.02 0.00 0.00 0.00 0.01 0.01 0.02 0.04 0.05 0.03 0.02 0.02 0.01 0.01 0.01 0.01 0.02 0.04 0.06 0.06 0.05 0.04 0.01 0.00 0.00 0.00 0.00 0.00 0.00 0.00 0.00 0.00 0.00 0.00 0.00
0.01 0.00 0.00 0.00 0.00 0.03 0.05 0.03 0.03 0.02 0.02 0.03 0.03 0.03 0.01 0.01 0.01 0.01 0.01 0.02 0.01 0.01 0.01 0.02 0.02 0.02 0.02 0.02 0.02 0.01 0.00 0.00 0.00 0.00 0.00 0.00 0.00 0.00 0.00 0.00 0.00 0.00 0.00
0.01 0.01 0.00 0.01 0.00 0.01 0.02 0.01 0.04 0.05 0.09 0.08 0.05 0.03 0.01 0.01 0.01 0.00 0.00 0.01 0.01 0.01 0.01 0.03 0.04 0.07 0.08 0.05 0.03 0.02 0.02 0.01 0.00 0.00 0.00 0.00 0.00 0.00 0.00 0.00 0.00 0.01 0.02
0.02 0.00 0.00 0.00 0.01 0.01 0.00 0.00 0.03 0.06 0.06 0.07 0.05 0.03 0.01 0.00 0.00 0.00 0.01 0.01 0.01 0.02 0.03 0.04 0.04 0.05 0.06 0.06 0.04 0.02 0.01 0.00 0.00 0.00 0.00 0.00 0.00 0.00 0.00 0.01 0.02 0.02 0.09
0.01 0.00 0.00 0.00 0.00 0.00 0.00 0.01 0.03 0.02 0.03 0.03 0.03 0.02 0.00 0.00 0.00 0.02 0.03 0.04 0.08 0.14 0.15 0.16 0.14 0.13 0.10 0.07 0.03 0.00 0.00 0.00 0.00 0.00 0.00 0.00 0.00 0.00 0.00 0.00 0.02 0.10 0.12
0.00 0.00 0.00 0.00 0.00 0.00 0.00 0.01 0.03 0.03 0.07 0.04 0.02 0.01 0.02 0.04 0.05 0.09 0.15 0.12 0.07 0.12 0.17 0.15 0.08 0.03 0.01 0.00 0.00 0.00 0.00 0.00 0.00 0.00 0.00 0.00 0.00 0.00 0.01 0.04 0.16 0.08 0.01
0.00 0.00 0.00 0.00 0.00 0.00 0.00 0.00 0.00 0.01 0.01 0.02 0.04 0.08 0.12 0.14 0.16 0.21 0.31 0.34 0.28 0.20 0.11 0.04 0.03 0.02 0.01 0.00 0.00 0.00 0.00 0.00 0.00 0.00 0.00 0.01 0.01 0.01 0.04 0.08 0.05 0.01 0.00
0.00 0.00 0.00 0.00 0.00 0.01 0.03 0.02 0.04 0.05 0.08 0.15 0.27 0.31 0.38 0.52 0.50 0.45 0.28 0.15 0.06 0.02 0.01 0.01 0.00 0.00 0.00 0.00 0.00 0.00 0.00 0.00 0.00 0.00 0.00 0.00 0.01 0.02 0.07 0.04 0.01 0.01 0.00
0.06 0.06 0.06 0.07 0.10 0.18 0.19 0.16 0.28 0.37 0.41 0.49 0.73 0.57 0.45 0.50 0.39 0.24 0.11 0.06 0.03 0.01 0.00 0.00 0.00 0.00 0.00 0.00 0.00 0.00 0.00 0.00 0.00 0.00 0.00 0.00 0.02 0.04 0.03 0.02 0.00 0.01 0.03
0.28 0.31 0.23 0.34 0.45 0.74 0.62 0.50 0.58 0.63 0.62 0.42 0.30 0.28 0.18 0.09 0.03 0.02 0.01 0.00 0.00 0.00 0.00 0.00 0.00 0.00 0.00 0.00 0.00 0.00 0.00 0.01 0.00 0.00 0.00 0.00 0.03 0.02 0.00 0.00 0.01 0.02 0.01
0.13 0.18 0.25 0.41 0.41 0.49 0.36 0.37 0.22 0.24 0.21 0.10 0.06 0.04 0.01 0.00 0.00 0.00 0.00 0.00 0.00 0.00 0.00 0.00 0.00 0.00 0.00 0.00 0.00 0.00 0.00 0.00 0.01 0.01 0.02 0.02 0.01 0.00 0.00 0.00 0.00 0.00 0.00
0.02 0.01 0.01 0.01 0.04 0.02 0.02 0.03 0.02 0.02 0.02 0.00 0.00 0.00 0.00 0.00 0.00 0.00 0.00 0.00 0.00 0.00 0.00 0.00 0.00 0.00 0.00 0.00 0.00 0.00 0.00 0.00 0.01 0.01 0.01 0.00 0.00 0.00 0.00 0.00 0.00 0.00 0.00
0.00 0.00 0.00 0.00 0.00 0.00 0.00 0.00 0.00 0.00 0.00 0.00 0.00 0.00 0.00 0.00 0.00 0.00 0.00 0.00 0.00 0.00 0.00 0.00 0.00 0.00 0.00 0.00 0.00 0.00 0.01 0.02 0.01 0.01 0.00 0.00 0.00 0.00 0.00 0.00 0.00 0.00 0.00
0.00 0.00 0.00 0.00 0.00 0.00 0.00 0.00 0.00 0.00 0.00 0.00 0.00 0.00 0.00 0.00 0.00 0.00 0.00 0.00 0.00 0.00 0.00 0.00 0.00 0.00 0.00 0.00 0.00 0.01 0.02 0.02 0.01 0.00 0.00 0.00 0.00 0.00 0.00 0.00 0.00 0.00 0.00

GFSMW_prec_precacc24_051.txt.gz
Total_Precipitation_Accumulation
0.00 0.00 0.00 0.00 0.00 0.00 0.00 0.00 0.00 0.00 0.02 0.04 0.05 0.05 0.14 0.24 0.15 0.12 0.10 0.09 0.07 0.05 0.02 0.00 0.00 0.00 0.00 0.00 0.00 0.00 0.00 0.00 0.00 0.00 0.00 0.00 0.00 0.00 0.00 0.00 0.00 0.00 0.00
0.00 0.00 0.00 0.00 0.00 0.00 0.00 0.00 0.00 0.00 0.00 0.01 0.01 0.07 0.19 0.27 0.27 0.22 0.16 0.16 0.16 0.23 0.11 0.01 0.00 0.00 0.00 0.00 0.00 0.00 0.00 0.00 0.00 0.00 0.00 0.00 0.00 0.00 0.00 0.00 0.00 0.00 0.00
0.00 0.00 0.00 0.00 0.00 0.00 0.00 0.00 0.00 0.00 0.00 0.00 0.03 0.09 0.17 0.23 0.23 0.16 0.10 0.12 0.21 0.42 0.25 0.06 0.02 0.00 0.01 0.03 0.01 0.00 0.00 0.00 0.00 0.00 0.00 0.00 0.00 0.00 0.00 0.00 0.00 0.00 0.00
0.00 0.00 0.00 0.00 0.00 0.00 0.00 0.00 0.00 0.00 0.00 0.00 0.00 0.01 0.04 0.10 0.15 0.18 0.19 0.25 0.26 0.40 0.30 0.17 0.13 0.12 0.11 0.10 0.07 0.04 0.01 0.00 0.00 0.00 0.00 0.00 0.00 0.00 0.00 0.00 0.00 0.00 0.00
0.00 0.00 0.00 0.00 0.00 0.00 0.00 0.00 0.00 0.00 0.00 0.00 0.00 0.00 0.04 0.11 0.15 0.17 0.19 0.23 0.29 0.29 0.26 0.21 0.17 0.13 0.10 0.08 0.07 0.06 0.02 0.00 0.00 0.00 0.00 0.00 0.00 0.00 0.00 0.00 0.00 0.00 0.00
0.00 0.00 0.00 0.00 0.00 0.00 0.00 0.00 0.00 0.00 0.00 0.00 0.00 0.00 0.03 0.07 0.07 0.11 0.16 0.18 0.19 0.18 0.16 0.16 0.14 0.14 0.11 0.09 0.06 0.04 0.01 0.01 0.00 0.00 0.00 0.00 0.00 0.00 0.00 0.00 0.00 0.00 0.00
0.00 0.00 0.00 0.00 0.00 0.00 0.00 0.00 0.00 0.00 0.00 0.00 0.00 0.00 0.00 0.04 0.07 0.10 0.12 0.09 0.09 0.09 0.11 0.12 0.10 0.12 0.09 0.06 0.03 0.01 0.01 0.01 0.00 0.00 0.00 0.00 0.00 0.00 0.00 0.00 0.00 0.00 0.00
0.00 0.00 0.00 0.00 0.00 0.00 0.00 0.00 0.00 0.00 0.00 0.00 0.00 0.00 0.00 0.02 0.05 0.05 0.06 0.08 0.09 0.10 0.09 0.09 0.09 0.07 0.05 0.04 0.02 0.01 0.00 0.00 0.00 0.00 0.00 0.00 0.00 0.00 0.00 0.00 0.00 0.00 0.00
0.00 0.00 0.00 0.00 0.00 0.00 0.00 0.00 0.00 0.00 0.00 0.00 0.01 0.00 0.01 0.04 0.06 0.06 0.07 0.09 0.10 0.08 0.07 0.07 0.07 0.04 0.02 0.01 0.01 0.00 0.00 0.00 0.00 0.00 0.00 0.00 0.00 0.00 0.00 0.00 0.00 0.00 0.00
0.00 0.00 0.00 0.00 0.00 0.00 0.00 0.00 0.00 0.00 0.01 0.03 0.01 0.01 0.01 0.04 0.05 0.06 0.07 0.07 0.07 0.06 0.07 0.05 0.03 0.02 0.01 0.00 0.01 0.00 0.00 0.01 0.01 0.01 0.00 0.00 0.00 0.00 0.00 0.00 0.00 0.00 0.00
0.00 0.00 0.00 0.00 0.00 0.00 0.00 0.00 0.00 0.00 0.01 0.01 0.01 0.02 0.03 0.05 0.04 0.06 0.05 0.06 0.05 0.05 0.05 0.03 0.01 0.01 0.00 0.01 0.01 0.00 0.00 0.00 0.00 0.00 0.00 0.00 0.00 0.00 0.00 0.00 0.00 0.00 0.00
0.00 0.00 0.00 0.00 0.00 0.00 0.00 0.00 0.00 0.00 0.01 0.00 0.00 0.00 0.02 0.04 0.05 0.06 0.05 0.04 0.04 0.04 0.03 0.01 0.00 0.00 0.01 0.00 0.00 0.00 0.01 0.01 0.01 0.00 0.00 0.00 0.00 0.00 0.00 0.00 0.00 0.00 0.00
0.00 0.00 0.00 0.00 0.00 0.00 0.02 0.04 0.02 0.00 0.00 0.00 0.01 0.01 0.02 0.05 0.07 0.07 0.06 0.04 0.02 0.01 0.01 0.01 0.02 0.04 0.06 0.07 0.06 0.07 0.08 0.07 0.07 0.06 0.03 0.01 0.01 0.01 0.00 0.00 0.00 0.00 0.00
0.01 0.00 0.00 0.00 0.00 0.03 0.05 0.03 0.03 0.02 0.03 0.05 0.06 0.06 0.04 0.04 0.03 0.02 0.02 0.02 0.01 0.01 0.01 0.02 0.02 0.02 0.02 0.03 0.03 0.03 0.03 0.03 0.04 0.05 0.05 0.02 0.01 0.00 0.00 0.00 0.00 0.00 0.00
0.01 0.01 0.00 0.01 0.00 0.01 0.02 0.02 0.04 0.06 0.11 0.11 0.09 0.06 0.02 0.02 0.01 0.00 0.00 0.01 0.01 0.01 0.01 0.03 0.05 0.08 0.10 0.10 0.09 0.08 0.08 0.07 0.04 0.02 0.00 0.00 0.00 0.00 0.00 0.00 0.00 0.01 0.01
0.02 0.00 0.00 0.00 0.01 0.01 0.00 0.00 0.03 0.06 0.07 0.08 0.06 0.03 0.03 0.01 0.00 0.00 0.01 0.01 0.02 0.03 0.03 0.05 0.06 0.08 0.11 0.17 0.17 0.14 0.11 0.06 0.03 0.03 0.02 0.01 0.00 0.00 0.00 0.00 0.01 0.02 0.08
0.01 0.00 0.00 0.00 0.00 0.00 0.00 0.01 0.03 0.02 0.03 0.06 0.05 0.03 0.05 0.06 0.01 0.03 0.05 0.06 0.10 0.16 0.20 0.21 0.24 0.29 0.31 0.23 0.12 0.06 0.03 0.02 0.01 0.00 0.00 0.00 0.00 0.00 0.00 0.00 0.01 0.08 0.08
0.00 0.00 0.00 0.00 0.00 0.00 0.00 0.01 0.12 0.06 0.29 0.11 0.20 0.20 0.24 0.07 0.07 0.12 0.21 0.21 0.15 0.18 0.27 0.39 0.44 0.31 0.15 0.06 0.01 0.01 0.00 0.00 0.00 0.00 0.00 0.00 0.00 0.00 0.01 0.03 0.10 0.04 0.01
0.00 0.00 0.00 0.00 0.00 0.00 0.00 0.00 0.00 0.01 0.06 0.14 0.25 0.14 0.17 0.15 0.19 0.27 0.46 0.63 0.70 0.54 0.35 0.18 0.09 0.05 0.02 0.01 0.00 0.00 0.00 0.00 0.00 0.00 0.00 0.00 0.00 0.00 0.02 0.05 0.03 0.01 0.00
0.00 0.00 0.00 0.00 0.00 0.01 0.03 0.02 0.04 0.05 0.08 0.15 0.27 0.32 0.45 0.68 0.66 0.73 0.57 0.39 0.27 0.17 0.08 0.02 0.00 0.00 0.00 0.00 0.00 0.00 0.00 0.00 0.00 0.00 0.00 0.00 0.00 0.01 0.05 0.04 0.01 0.01 0.00
0.06 0.06 0.06 0.07 0.10 0.18 0.19 0.16 0.28 0.37 0.43 0.55 0.82 0.63 0.56 0.72 0.59 0.36 0.24 0.13 0.06 0.02 0.01 0.00 0.00 0.00 0.00 0.00 0.00 0.00 0.00 0.00 0.00 0.00 0.00 0.00 0.01 0.03 0.03 0.02 0.00 0.00 0.02
0.28 0.31 0.23 0.34 0.46 0.74 0.62 0.50 0.60 0.66 0.66 0.47 0.39 0.37 0.23 0.16 0.08 0.03 0.02 0.01 0.00 0.00 0.00 0.00 0.00 0.00 0.00 0.00 0.00 0.00 0.00 0.00 0.00 0.00 0.00 0.00 0.02 0.02 0.00 0.00 0.00 0.01 0.01
0.13 0.18 0.25 0.41 0.42 0.51 0.38 0.39 0.25 0.25 0.25 0.12 0.07 0.06 0.02 0.01 0.00 0.00 0.00 0.00 0.00 0.00 0.00 0.00 0.00 0.00 0.00 0.00 0.00 0.00 0.00 0.00 0.01 0.01 0.01 0.01 0.01 0.00 0.00 0.00 0.00 0.00 0.00
0.02 0.01 0.01 0.01 0.04 0.03 0.03 0.03 0.02 0.03 0.03 0.01 0.00 0.00 0.00 0.00 0.00 0.00 0.00 0.00 0.00 0.00 0.00 0.00 0.00 0.00 0.00 0.00 0.00 0.00 0.00 0.00 0.01 0.01 0.01 0.00 0.00 0.00 0.00 0.00 0.00 0.00 0.00
0.00 0.00 0.00 0.00 0.00 0.00 0.00 0.00 0.00 0.00 0.00 0.00 0.00 0.00 0.00 0.00 0.00 0.00 0.00 0.00 0.00 0.00 0.00 0.00 0.00 0.00 0.00 0.00 0.00 0.00 0.00 0.01 0.01 0.00 0.00 0.00 0.00 0.00 0.00 0.00 0.00 0.00 0.00
0.00 0.00 0.00 0.00 0.00 0.00 0.00 0.00 0.00 0.00 0.00 0.00 0.00 0.00 0.00 0.00 0.00 0.00 0.00 0.00 0.00 0.00 0.00 0.00 0.00 0.00 0.00 0.00 0.00 0.01 0.02 0.01 0.01 0.00 0.00 0.00 0.00 0.00 0.00 0.00 0.00 0.00 0.00

GFSMW_prec_precacc24_054.txt.gz
Total_Precipitation_Accumulation
0.00 0.00 0.00 0.00 0.00 0.00 0.00 0.00 0.00 0.00 0.02 0.05 0.05 0.06 0.14 0.26 0.16 0.15 0.16 0.11 0.09 0.08 0.05 0.02 0.00 0.00 0.00 0.00 0.00 0.00 0.00 0.00 0.00 0.00 0.00 0.00 0.00 0.00 0.00 0.00 0.00 0.00 0.00
0.00 0.00 0.00 0.00 0.00 0.00 0.00 0.00 0.00 0.00 0.00 0.01 0.02 0.07 0.19 0.27 0.28 0.25 0.19 0.21 0.21 0.28 0.14 0.05 0.01 0.00 0.00 0.00 0.00 0.00 0.00 0.00 0.00 0.00 0.00 0.00 0.00 0.00 0.00 0.00 0.00 0.00 0.00
0.00 0.00 0.00 0.00 0.00 0.00 0.00 0.00 0.00 0.00 0.00 0.00 0.03 0.09 0.17 0.23 0.23 0.16 0.11 0.13 0.26 0.46 0.31 0.11 0.05 0.02 0.02 0.05 0.03 0.04 0.03 0.01 0.00 0.00 0.00 0.00 0.00 0.00 0.00 0.00 0.00 0.00 0.00
0.00 0.00 0.00 0.00 0.00 0.00 0.00 0.00 0.00 0.00 0.00 0.00 0.00 0.01 0.04 0.10 0.15 0.18 0.19 0.25 0.28 0.45 0.38 0.22 0.16 0.15 0.14 0.14 0.14 0.10 0.09 0.05 0.02 0.00 0.00 0.00 0.00 0.00 0.00 0.00 0.00 0.00 0.00
0.00 0.00 0.00 0.00 0.00 0.00 0.00 0.00 0.00 0.00 0.00 0.00 0.00 0.00 0.04 0.11 0.15 0.17 0.19 0.24 0.30 0.33 0.34 0.25 0.21 0.16 0.13 0.12 0.10 0.09 0.05 0.03 0.02 0.00 0.00 0.00 0.00 0.00 0.00 0.00 0.00 0.00 0.00
0.00 0.00 0.00 0.00 0.00 0.00 0.00 0.00 0.00 0.00 0.00 0.00 0.00 0.00 0.03 0.07 0.07 0.11 0.18 0.21 0.21 0.20 0.19 0.18 0.18 0.19 0.14 0.13 0.11 0.08 0.05 0.02 0.01 0.01 0.00 0.00 0.00 0.00 0.00 0.00 0.00 0.00 0.00
0.00 0.00 0.00 0.00 0.00 0.00 0.00 0.00 0.00 0.00 0.00 0.00 0.00 0.00 0.00 0.04 0.07 0.11 0.13 0.14 0.13 0.11 0.14 0.17 0.15 0.16 0.15 0.13 0.08 0.06 0.04 0.02 0.01 0.00 0.00 0.00 0.00 0.00 0.00 0.00 0.00 0.00 0.00
0.00 0.00 0.00 0.00 0.00 0.00 0.00 0.00 0.00 0.00 0.00 0.00 0.00 0.00 0.00 0.02 0.05 0.06 0.07 0.08 0.10 0.14 0.12 0.13 0.14 0.12 0.11 0.10 0.06 0.03 0.02 0.00 0.00 0.00 0.00 0.00 0.00 0.00 0.00 0.00 0.00 0.00 0.00
0.00 0.00 0.00 0.00 0.00 0.00 0.00 0.00 0.00 0.00 0.00 0.00 0.01 0.00 0.01 0.04 0.06 0.06 0.07 0.09 0.10 0.09 0.09 0.12 0.13 0.10 0.07 0.06 0.04 0.01 0.00 0.00 0.00 0.00 0.00 0.00 0.00 0.00 0.00 0.00 0.00 0.00 0.00
0.00 0.00 0.00 0.00 0.00 0.00 0.00 0.00 0.00 0.00 0.01 0.03 0.01 0.01 0.01 0.04 0.05 0.06 0.07 0.07 0.07 0.06 0.09 0.10 0.09 0.07 0.05 0.02 0.02 0.01 0.00 0.01 0.01 0.01 0.00 0.00 0.00 0.00 0.00 0.00 0.00 0.00 0.00
0.00 0.00 0.00 0.00 0.00 0.00 0.00 0.00 0.00 0.00 0.01 0.01 0.01 0.02 0.03 0.05 0.04 0.06 0.05 0.06 0.05 0.05 0.06 0.05 0.05 0.04 0.03 0.02 0.01 0.00 0.00 0.00 0.00 0.00 0.00 0.00 0.01 0.01 0.02 0.02 0.02 0.02 0.01
0.00 0.00 0.00 0.00 0.00 0.00 0.00 0.00 0.00 0.00 0.01 0.00 0.00 0.00 0.02 0.04 0.05 0.06 0.05 0.04 0.04 0.04 0.03 0.02 0.02 0.02 0.01 0.01 0.00 0.00 0.01 0.01 0.01 0.00 0.00 0.01 0.02 0.03 0.05 0.06 0.04 0.01 0.00
0.00 0.00 0.00 0.00 0.00 0.00 0.02 0.04 0.02 0.00 0.00 0.00 0.01 0.01 0.02 0.05 0.07 0.07 0.06 0.04 0.02 0.02 0.01 0.01 0.03 0.04 0.06 0.07 0.06 0.07 0.08 0.07 0.08 0.08 0.10 0.13 0.13 0.12 0.07 0.03 0.01 0.01 0.00
0.00 0.00 0.00 0.00 0.00 0.03 0.05 0.03 0.03 0.02 0.03 0.05 0.06 0.06 0.05 0.05 0.03 0.03 0.03 0.03 0.02 0.01 0.01 0.02 0.02 0.02 0.02 0.03 0.03 0.04 0.04 0.05 0.06 0.09 0.10 0.09 0.06 0.03 0.01 0.01 0.00 0.00 0.00
0.00 0.01 0.00 0.01 0.00 0.01 0.02 0.02 0.04 0.06 0.11 0.11 0.09 0.07 0.03 0.03 0.02 0.01 0.01 0.02 0.01 0.01 0.01 0.03 0.05 0.08 0.10 0.11 0.10 0.10 0.11 0.13 0.15 0.14 0.10 0.08 0.05 0.03 0.01 0.00 0.00 0.00 0.01
0.02 0.00 0.00 0.00 0.01 0.01 0.00 0.00 0.03 0.06 0.07 0.08 0.06 0.03 0.03 0.02 0.01 0.01 0.01 0.01 0.02 0.03 0.03 0.05 0.06 0.09 0.13 0.25 0.26 0.25 0.27 0.26 0.23 0.17 0.10 0.06 0.02 0.01 0.00 0.00 0.01 0.01 0.04
0.01 0.00 0.00 0.00 0.00 0.00 0.00 0.01 0.03 0.02 0.03 0.06 0.06 0.04 0.05 0.08 0.02 0.05 0.06 0.06 0.10 0.17 0.22 0.24 0.27 0.33 0.38 0.42 0.33 0.25 0.16 0.10 0.06 0.02 0.00 0.00 0.00 0.00 0.00 0.00 0.01 0.03 0.05
0.00 0.00 0.00 0.00 0.00 0.00 0.00 0.01 0.12 0.06 0.33 0.13 0.26 0.29 0.30 0.27 0.21 0.20 0.27 0.26 0.21 0.24 0.34 0.48 0.56 0.49 0.41 0.31 0.20 0.14 0.09 0.03 0.01 0.00 0.00 0.00 0.00 0.00 0.00 0.01 0.04 0.03 0.01
0.00 0.00 0.00 0.00 0.00 0.00 0.00 0.01 0.00 0.01 0.06 0.20 0.36 0.24 0.31 0.24 0.22 0.34 0.52 0.78 0.90 0.69 0.51 0.37 0.25 0.18 0.13 0.07 0.03 0.01 0.00 0.00 0.00 0.00 0.00 0.00 0.00 0.00 0.01 0.03 0.03 0.01 0.00
0.00 0.00 0.00 0.00 0.01 0.01 0.03 0.02 0.04 0.05 0.08 0.16 0.28 0.34 0.45 0.68 0.69 0.78 0.61 0.46 0.39 0.31 0.24 0.17 0.08 0.03 0.01 0.00 0.00 0.00 0.00 0.00 0.00 0.00 0.00 0.00 0.00 0.01 0.03 0.03 0.01 0.01 0.00
0.06 0.06 0.06 0.07 0.10 0.18 0.19 0.16 0.28 0.38 0.44 0.56 0.84 0.64 0.61 0.78 0.68 0.48 0.35 0.20 0.12 0.09 0.05 0.02 0.01 0.00 0.00 0.00 0.00 0.00 0.00 0.00 0.00 0.00 0.00 0.00 0.00 0.02 0.03 0.02 0.00 0.00 0.01
0.28 0.31 0.23 0.34 0.46 0.74 0.62 0.50 0.60 0.66 0.67 0.50 0.43 0.42 0.31 0.22 0.15 0.07 0.03 0.01 0.00 0.00 0.00 0.00 0.00 0.00 0.00 0.00 0.00 0.00 0.00 0.00 0.00 0.00 0.00 0.00 0.02 0.02 0.00 0.00 0.00 0.01 0.01
0.13 0.18 0.25 0.41 0.42 0.51 0.38 0.39 0.25 0.25 0.25 0.14 0.09 0.08 0.04 0.01 0.00 0.00 0.00 0.00 0.00 0.00 0.00 0.00 0.00 0.00 0.00 0.00 0.00 0.00 0.00 0.00 0.00 0.00 0.01 0.01 0.01 0.00 0.00 0.00 0.00 0.00 0.00
0.02 0.01 0.01 0.01 0.04 0.03 0.03 0.03 0.02 0.03 0.03 0.01 0.00 0.00 0.00 0.00 0.00 0.00 0.00 0.00 0.00 0.00 0.00 0.00 0.00 0.00 0.00 0.00 0.00 0.00 0.00 0.00 0.01 0.01 0.01 0.00 0.00 0.00 0.00 0.00 0.00 0.00 0.00
0.00 0.00 0.00 0.00 0.00 0.00 0.00 0.00 0.00 0.00 0.00 0.00 0.00 0.00 0.00 0.00 0.00 0.00 0.00 0.00 0.00 0.00 0.00 0.00 0.00 0.00 0.00 0.00 0.00 0.00 0.00 0.01 0.01 0.00 0.00 0.00 0.00 0.00 0.00 0.00 0.00 0.00 0.00
0.00 0.00 0.00 0.00 0.00 0.00 0.00 0.00 0.00 0.00 0.00 0.00 0.00 0.00 0.00 0.00 0.00 0.00 0.00 0.00 0.00 0.00 0.00 0.00 0.00 0.00 0.00 0.00 0.00 0.01 0.02 0.01 0.01 0.00 0.00 0.00 0.00 0.00 0.00 0.00 0.00 0.00 0.00

GFSMW_prec_precacc24_057.txt.gz
Total_Precipitation_Accumulation
0.00 0.00 0.00 0.00 0.00 0.00 0.00 0.00 0.00 0.00 0.02 0.05 0.06 0.05 0.08 0.23 0.19 0.15 0.22 0.17 0.15 0.11 0.07 0.02 0.00 0.00 0.00 0.00 0.00 0.00 0.00 0.00 0.00 0.00 0.00 0.00 0.00 0.00 0.00 0.00 0.00 0.00 0.00
0.00 0.00 0.00 0.00 0.00 0.00 0.00 0.00 0.00 0.00 0.00 0.01 0.02 0.05 0.12 0.24 0.29 0.28 0.22 0.22 0.23 0.32 0.18 0.05 0.01 0.00 0.00 0.00 0.00 0.00 0.00 0.00 0.00 0.00 0.00 0.00 0.00 0.00 0.00 0.00 0.00 0.00 0.00
0.00 0.00 0.00 0.00 0.00 0.00 0.00 0.00 0.00 0.00 0.00 0.00 0.03 0.09 0.15 0.21 0.23 0.16 0.11 0.13 0.26 0.47 0.33 0.12 0.05 0.04 0.04 0.05 0.03 0.04 0.03 0.01 0.00 0.00 0.00 0.00 0.00 0.00 0.00 0.00 0.00 0.00 0.00
0.00 0.00 0.00 0.00 0.00 0.00 0.00 0.00 0.00 0.00 0.00 0.00 0.00 0.01 0.01 0.07 0.14 0.18 0.19 0.26 0.29 0.46 0.45 0.27 0.18 0.20 0.17 0.16 0.16 0.11 0.10 0.07 0.03 0.00 0.00 0.00 0.00 0.00 0.00 0.00 0.00 0.00 0.00
0.00 0.00 0.00 0.00 0.00 0.00 0.00 0.00 0.00 0.00 0.00 0.00 0.00 0.00 0.02 0.09 0.14 0.17 0.19 0.24 0.30 0.33 0.36 0.27 0.25 0.18 0.17 0.16 0.13 0.11 0.07 0.05 0.04 0.02 0.01 0.00 0.00 0.00 0.00 0.00 0.00 0.00 0.00
0.00 0.00 0.00 0.00 0.00 0.00 0.00 0.00 0.00 0.00 0.00 0.00 0.00 0.00 0.02 0.07 0.07 0.11 0.18 0.21 0.21 0.21 0.21 0.26 0.22 0.24 0.18 0.15 0.14 0.12 0.07 0.05 0.04 0.02 0.01 0.01 0.00 0.00 0.00 0.00 0.00 0.00 0.00
0.00 0.00 0.00 0.00 0.00 0.00 0.00 0.00 0.00 0.00 0.00 0.00 0.00 0.00 0.00 0.04 0.07 0.11 0.13 0.14 0.13 0.11 0.15 0.21 0.22 0.22 0.21 0.17 0.13 0.10 0.08 0.05 0.03 0.02 0.01 0.00 0.00 0.00 0.00 0.00 0.00 0.00 0.00
0.00 0.00 0.00 0.00 0.00 0.00 0.00 0.00 0.00 0.00 0.00 0.00 0.00 0.00 0.00 0.02 0.05 0.06 0.07 0.08 0.10 0.14 0.13 0.15 0.20 0.21 0.20 0.19 0.15 0.11 0.08 0.04 0.03 0.01 0.01 0.00 0.00 0.00 0.00 0.00 0.00 0.00 0.01
0.00 0.00 0.00 0.00 0.00 0.00 0.00 0.00 0.00 0.00 0.00 0.00 0.01 0.00 0.01 0.04 0.06 0.06 0.07 0.09 0.10 0.09 0.09 0.13 0.15 0.15 0.15 0.16 0.13 0.09 0.06 0.03 0.01 0.01 0.01 0.01 0.00 0.00 0.00 0.00 0.01 0.03 0.03
0.00 0.00 0.00 0.00 0.00 0.00 0.00 0.00 0.00 0.00 0.01 0.03 0.01 0.01 0.01 0.04 0.05 0.06 0.07 0.07 0.07 0.06 0.09 0.10 0.09 0.08 0.08 0.07 0.08 0.06 0.04 0.02 0.01 0.01 0.00 0.00 0.00 0.00 0.00 0.00 0.00 0.01 0.02
0.00 0.00 0.00 0.00 0.00 0.00 0.00 0.00 0.00 0.00 0.01 0.01 0.01 0.02 0.03 0.05 0.04 0.06 0.05 0.06 0.05 0.05 0.06 0.05 0.05 0.04 0.03 0.03 0.03 0.02 0.02 0.02 0.01 0.00 0.00 0.00 0.01 0.01 0.02 0.03 0.06 0.08 0.10
0.00 0.00 0.00 0.00 0.00 0.00 0.00 0.00 0.00 0.00 0.01 0.00 0.00 0.00 0.02 0.04 0.05 0.06 0.05 0.04 0.04 0.04 0.03 0.02 0.02 0.02 0.01 0.01 0.01 0.01 0.01 0.01 0.01 0.01 0.01 0.02 0.03 0.05 0.08 0.13 0.14 0.10 0.05
0.00 0.00 0.00 0.00 0.00 0.00 0.02 0.04 0.02 0.00 0.00 0.00 0.01 0.01 0.02 0.05 0.07 0.07 0.06 0.04 0.02 0.02 0.01 0.01 0.03 0.04 0.06 0.07 0.07 0.08 0.08 0.07 0.08 0.09 0.11 0.14 0.16 0.19 0.19 0.15 0.08 0.04 0.03
0.00 0.00 0.00 0.00 0.00 0.03 0.05 0.03 0.03 0.02 0.03 0.05 0.06 0.06 0.05 0.05 0.04 0.04 0.05 0.04 0.02 0.01 0.02 0.02 0.02 0.02 0.02 0.03 0.03 0.04 0.04 0.06 0.10 0.16 0.20 0.21 0.19 0.15 0.09 0.07 0.07 0.06 0.05
0.00 0.01 0.00 0.01 0.00 0.01 0.02 0.02 0.04 0.06 0.11 0.11 0.09 0.07 0.03 0.04 0.05 0.05 0.05 0.04 0.04 0.04 0.02 0.04 0.06 0.08 0.10 0.11 0.10 0.10 0.13 0.19 0.25 0.27 0.23 0.19 0.17 0.14 0.11 0.07 0.04 0.02 0.01
0.01 0.00 0.00 0.00 0.01 0.01 0.00 0.00 0.03 0.06 0.07 0.08 0.06 0.03 0.04 0.04 0.04 0.09 0.09 0.06 0.05 0.06 0.06 0.06 0.08 0.11 0.15 0.30 0.30 0.30 0.32 0.32 0.28 0.23 0.18 0.14 0.09 0.05 0.02 0.00 0.00 0.01 0.02
0.01 0.00 0.00 0.00 0.00 0.00 0.00 0.01 0.03 0.02 0.03 0.06 0.06 0.04 0.05 0.08 0.03 0.06 0.08 0.22 0.18 0.17 0.25 0.34 0.36 0.41 0.48 0.51 0.39 0.28 0.18 0.14 0.13 0.12 0.09 0.05 0.02 0.01 0.00 0.00 0.00 0.02 0.03
0.00 0.00 0.00 0.00 0.00 0.00 0.00 0.01 0.12 0.06 0.33 0.14 0.29 0.37 0.34 0.29 0.24 0.23 0.36 0.33 0.25 0.24 0.35 0.50 0.61 0.55 0.46 0.34 0.22 0.16 0.16 0.13 0.09 0.04 0.02 0.00 0.00 0.00 0.00 0.00 0.02 0.02 0.01
0.00 0.00 0.00 0.00 0.00 0.00 0.00 0.01 0.00 0.01 0.06 0.21 0.39 0.28 0.41 0.29 0.31 0.53 0.61 0.82 1.00 0.77 0.55 0.41 0.31 0.26 0.20 0.12 0.08 0.05 0.02 0.01 0.00 0.00 0.00 0.00 0.00 0.00 0.01 0.02 0.02 0.01 0.00
0.00 0.00 0.00 0.00 0.01 0.01 0.03 0.02 0.04 0.05 0.08 0.16 0.28 0.34 0.45 0.70 0.70 0.82 0.66 0.50 0.49 0.49 0.37 0.25 0.16 0.11 0.05 0.02 0.00 0.00 0.00 0.00 0.00 0.00 0.00 0.00 0.00 0.00 0.02 0.03 0.01 0.01 0.00
0.06 0.06 0.06 0.07 0.10 0.18 0.19 0.16 0.28 0.38 0.45 0.58 0.88 0.67 0.66 0.83 0.72 0.56 0.47 0.29 0.17 0.13 0.09 0.05 0.02 0.01 0.00 0.00 0.00 0.00 0.00 0.00 0.00 0.00 0.00 0.00 0.00 0.01 0.02 0.02 0.00 0.00 0.01
0.28 0.31 0.23 0.34 0.46 0.74 0.62 0.50 0.60 0.66 0.67 0.50 0.43 0.42 0.32 0.24 0.18 0.08 0.04 0.01 0.00 0.00 0.00 0.00 0.00 0.00 0.00 0.00 0.00 0.00 0.00 0.00 0.00 0.00 0.00 0.00 0.01 0.02 0.00 0.00 0.00 0.01 0.00
0.13 0.18 0.25 0.41 0.42 0.51 0.38 0.39 0.25 0.25 0.25 0.14 0.10 0.08 0.05 0.01 0.00 0.00 0.00 0.00 0.00 0.00 0.00 0.00 0.00 0.00 0.00 0.00 0.00 0.00 0.00 0.00 0.00 0.00 0.01 0.01 0.01 0.00 0.00 0.00 0.00 0.00 0.00
0.02 0.01 0.01 0.01 0.04 0.03 0.03 0.03 0.02 0.03 0.03 0.01 0.00 0.00 0.00 0.00 0.00 0.00 0.00 0.00 0.00 0.00 0.00 0.00 0.00 0.00 0.00 0.00 0.00 0.00 0.00 0.00 0.00 0.01 0.01 0.00 0.00 0.00 0.00 0.00 0.00 0.00 0.00
0.00 0.00 0.00 0.00 0.00 0.00 0.00 0.00 0.00 0.00 0.00 0.00 0.00 0.00 0.00 0.00 0.00 0.00 0.00 0.00 0.00 0.00 0.00 0.00 0.00 0.00 0.00 0.00 0.00 0.00 0.00 0.01 0.01 0.00 0.00 0.00 0.00 0.00 0.00 0.00 0.00 0.00 0.00
0.00 0.00 0.00 0.00 0.00 0.00 0.00 0.00 0.00 0.00 0.00 0.00 0.00 0.00 0.00 0.00 0.00 0.00 0.00 0.00 0.00 0.00 0.00 0.00 0.00 0.00 0.00 0.00 0.00 0.00 0.01 0.01 0.00 0.00 0.00 0.00 0.00 0.00 0.00 0.00 0.00 0.00 0.00

GFSMW_prec_precacc24_060.txt.gz
Total_Precipitation_Accumulation
0.00 0.00 0.00 0.00 0.00 0.00 0.00 0.00 0.00 0.00 0.02 0.05 0.06 0.06 0.08 0.14 0.14 0.12 0.22 0.18 0.15 0.12 0.08 0.03 0.01 0.00 0.00 0.00 0.00 0.00 0.00 0.00 0.00 0.00 0.00 0.00 0.00 0.00 0.00 0.00 0.00 0.00 0.00
0.00 0.00 0.00 0.00 0.00 0.00 0.00 0.00 0.00 0.00 0.00 0.01 0.02 0.05 0.11 0.17 0.22 0.26 0.22 0.22 0.22 0.32 0.18 0.06 0.02 0.03 0.00 0.00 0.00 0.00 0.00 0.00 0.00 0.00 0.00 0.00 0.00 0.00 0.00 0.00 0.00 0.00 0.00
0.00 0.00 0.00 0.00 0.00 0.00 0.00 0.00 0.00 0.00 0.00 0.00 0.03 0.09 0.14 0.19 0.20 0.16 0.10 0.12 0.26 0.47 0.35 0.16 0.07 0.14 0.06 0.06 0.03 0.04 0.03 0.01 0.00 0.00 0.00 0.00 0.00 0.00 0.00 0.00 0.00 0.00 0.00
0.00 0.00 0.00 0.00 0.00 0.00 0.00 0.00 0.00 0.00 0.00 0.00 0.00 0.01 0.01 0.04 0.10 0.15 0.17 0.24 0.28 0.46 0.47 0.30 0.21 0.24 0.22 0.18 0.17 0.12 0.10 0.07 0.03 0.00 0.00 0.00 0.00 0.00 0.00 0.00 0.00 0.00 0.00
0.00 0.00 0.00 0.00 0.00 0.00 0.00 0.00 0.00 0.00 0.00 0.00 0.00 0.00 0.02 0.06 0.10 0.15 0.18 0.23 0.30 0.34 0.37 0.33 0.31 0.21 0.22 0.21 0.16 0.13 0.08 0.07 0.04 0.03 0.02 0.00 0.00 0.00 0.00 0.00 0.00 0.00 0.00
0.00 0.00 0.00 0.00 0.00 0.00 0.00 0.00 0.00 0.00 0.00 0.00 0.00 0.00 0.00 0.02 0.05 0.10 0.17 0.21 0.21 0.21 0.22 0.29 0.26 0.32 0.24 0.21 0.20 0.18 0.14 0.08 0.06 0.04 0.02 0.02 0.01 0.01 0.01 0.00 0.00 0.00 0.00
0.00 0.00 0.00 0.00 0.00 0.00 0.00 0.00 0.00 0.00 0.00 0.00 0.00 0.00 0.00 0.01 0.06 0.10 0.13 0.14 0.13 0.11 0.15 0.22 0.23 0.25 0.27 0.27 0.24 0.21 0.16 0.11 0.07 0.05 0.02 0.01 0.01 0.00 0.01 0.01 0.00 0.00 0.00
0.00 0.00 0.00 0.00 0.00 0.00 0.00 0.00 0.00 0.00 0.00 0.00 0.00 0.00 0.00 0.02 0.05 0.06 0.06 0.08 0.10 0.14 0.13 0.16 0.20 0.22 0.22 0.23 0.21 0.20 0.17 0.13 0.08 0.06 0.05 0.03 0.01 0.01 0.02 0.03 0.02 0.01 0.01
0.00 0.00 0.00 0.00 0.00 0.00 0.00 0.00 0.00 0.00 0.00 0.00 0.01 0.00 0.01 0.04 0.05 0.05 0.07 0.09 0.10 0.09 0.10 0.13 0.15 0.15 0.16 0.18 0.18 0.16 0.13 0.11 0.09 0.07 0.04 0.02 0.01 0.00 0.00 0.00 0.01 0.03 0.04
0.00 0.00 0.00 0.00 0.00 0.00 0.00 0.00 0.00 0.00 0.01 0.03 0.01 0.01 0.01 0.04 0.04 0.06 0.07 0.07 0.07 0.06 0.09 0.10 0.09 0.08 0.08 0.08 0.09 0.10 0.10 0.10 0.12 0.15 0.15 0.16 0.10 0.04 0.00 0.00 0.01 0.02 0.03
0.00 0.00 0.00 0.00 0.00 0.00 0.00 0.00 0.00 0.00 0.01 0.01 0.01 0.02 0.03 0.05 0.04 0.06 0.05 0.06 0.05 0.05 0.06 0.05 0.05 0.04 0.04 0.04 0.04 0.03 0.03 0.03 0.05 0.08 0.12 0.14 0.11 0.06 0.04 0.04 0.07 0.12 0.16
0.00 0.00 0.00 0.00 0.00 0.00 0.00 0.00 0.00 0.00 0.01 0.00 0.00 0.00 0.02 0.04 0.05 0.06 0.05 0.04 0.04 0.04 0.03 0.02 0.02 0.02 0.01 0.01 0.01 0.01 0.02 0.02 0.02 0.02 0.02 0.05 0.07 0.10 0.14 0.19 0.22 0.22 0.21
0.00 0.00 0.00 0.00 0.00 0.00 0.02 0.04 0.02 0.00 0.00 0.00 0.01 0.01 0.02 0.05 0.07 0.07 0.06 0.04 0.02 0.02 0.01 0.01 0.03 0.04 0.06 0.07 0.07 0.08 0.08 0.08 0.08 0.09 0.11 0.15 0.17 0.21 0.24 0.23 0.20 0.18 0.13
0.00 0.00 0.00 0.00 0.00 0.03 0.05 0.03 0.03 0.02 0.03 0.05 0.06 0.06 0.05 0.05 0.04 0.04 0.05 0.04 0.02 0.01 0.02 0.02 0.02 0.02 0.02 0.03 0.03 0.04 0.05 0.07 0.11 0.18 0.23 0.25 0.27 0.26 0.24 0.22 0.18 0.12 0.07
0.00 0.01 0.00 0.01 0.00 0.01 0.02 0.02 0.04 0.06 0.11 0.11 0.09 0.07 0.03 0.04 0.05 0.05 0.05 0.05 0.04 0.05 0.05 0.06 0.06 0.09 0.10 0.12 0.11 0.11 0.14 0.19 0.26 0.29 0.29 0.27 0.26 0.23 0.17 0.11 0.06 0.03 0.02
0.01 0.00 0.00 0.00 0.01 0.01 0.00 0.00 0.03 0.06 0.07 0.08 0.06 0.03 0.04 0.04 0.04 0.11 0.22 0.13 0.17 0.15 0.18 0.24 0.13 0.13 0.16 0.33 0.31 0.31 0.33 0.33 0.31 0.26 0.21 0.15 0.10 0.06 0.03 0.01 0.00 0.00 0.01
0.01 0.00 0.00 0.00 0.00 0.00 0.00 0.01 0.03 0.02 0.03 0.06 0.06 0.04 0.05 0.08 0.03 0.06 0.14 0.34 0.40 0.31 0.39 0.50 0.55 0.50 0.62 0.66 0.47 0.33 0.22 0.17 0.14 0.12 0.09 0.06 0.03 0.01 0.00 0.00 0.00 0.00 0.01
0.00 0.00 0.00 0.00 0.00 0.00 0.00 0.01 0.12 0.06 0.33 0.14 0.29 0.37 0.34 0.30 0.25 0.27 0.38 0.36 0.36 0.32 0.38 0.55 0.78 0.72 0.57 0.51 0.32 0.20 0.16 0.13 0.09 0.05 0.02 0.00 0.00 0.00 0.00 0.00 0.00 0.01 0.00
0.00 0.00 0.00 0.00 0.00 0.00 0.00 0.01 0.00 0.01 0.06 0.21 0.39 0.28 0.42 0.30 0.33 0.60 0.68 0.91 1.13 0.98 0.68 0.49 0.38 0.29 0.23 0.14 0.09 0.06 0.04 0.01 0.00 0.00 0.00 0.00 0.00 0.00 0.00 0.01 0.01 0.01 0.00
0.00 0.00 0.00 0.00 0.01 0.01 0.03 0.02 0.04 0.05 0.08 0.16 0.29 0.34 0.46 0.70 0.71 0.87 0.74 0.55 0.57 0.61 0.47 0.30 0.19 0.13 0.08 0.03 0.01 0.00 0.00 0.00 0.00 0.00 0.00 0.00 0.00 0.00 0.01 0.02 0.01 0.00 0.00
0.06 0.06 0.06 0.07 0.10 0.18 0.19 0.16 0.28 0.38 0.45 0.58 0.88 0.67 0.67 0.84 0.73 0.59 0.50 0.32 0.18 0.13 0.09 0.05 0.02 0.01 0.00 0.00 0.00 0.00 0.00 0.00 0.00 0.00 0.00 0.00 0.00 0.01 0.02 0.02 0.00 0.00 0.00
0.28 0.31 0.23 0.34 0.46 0.74 0.62 0.50 0.60 0.67 0.67 0.50 0.43 0.43 0.32 0.24 0.18 0.08 0.04 0.01 0.00 0.00 0.00 0.00 0.00 0.00 0.00 0.00 0.00 0.00 0.00 0.00 0.00 0.00 0.00 0.00 0.01 0.01 0.00 0.00 0.00 0.01 0.00
0.13 0.18 0.25 0.41 0.42 0.51 0.38 0.39 0.25 0.25 0.25 0.14 0.10 0.08 0.05 0.01 0.00 0.00 0.00 0.00 0.00 0.00 0.00 0.00 0.00 0.00 0.00 0.00 0.00 0.00 0.00 0.00 0.00 0.00 0.00 0.01 0.00 0.00 0.00 0.00 0.00 0.00 0.00
0.02 0.01 0.01 0.01 0.04 0.03 0.03 0.03 0.02 0.03 0.03 0.01 0.00 0.00 0.00 0.00 0.00 0.00 0.00 0.00 0.00 0.00 0.00 0.00 0.00 0.00 0.00 0.00 0.00 0.00 0.00 0.00 0.00 0.00 0.00 0.00 0.00 0.00 0.00 0.00 0.00 0.00 0.00
0.00 0.00 0.00 0.00 0.00 0.00 0.00 0.00 0.00 0.00 0.00 0.00 0.00 0.00 0.00 0.00 0.00 0.00 0.00 0.00 0.00 0.00 0.00 0.00 0.00 0.00 0.00 0.00 0.00 0.00 0.00 0.00 0.01 0.00 0.00 0.00 0.00 0.00 0.00 0.00 0.00 0.00 0.00
0.00 0.00 0.00 0.00 0.00 0.00 0.00 0.00 0.00 0.00 0.00 0.00 0.00 0.00 0.00 0.00 0.00 0.00 0.00 0.00 0.00 0.00 0.00 0.00 0.00 0.00 0.00 0.00 0.00 0.00 0.01 0.00 0.00 0.00 0.00 0.00 0.00 0.00 0.00 0.00 0.00 0.00 0.00

GFSMW_prec_precacc24_063.txt.gz
Total_Precipitation_Accumulation
0.00 0.00 0.00 0.00 0.00 0.00 0.00 0.00 0.00 0.00 0.02 0.05 0.06 0.06 0.09 0.17 0.10 0.09 0.20 0.18 0.15 0.12 0.08 0.04 0.01 0.00 0.00 0.00 0.00 0.00 0.00 0.00 0.00 0.00 0.00 0.00 0.00 0.00 0.00 0.00 0.00 0.00 0.00
0.00 0.00 0.00 0.00 0.00 0.00 0.00 0.00 0.00 0.00 0.00 0.01 0.02 0.05 0.11 0.15 0.17 0.20 0.16 0.16 0.18 0.31 0.18 0.06 0.03 0.05 0.00 0.00 0.00 0.00 0.00 0.00 0.00 0.00 0.00 0.00 0.00 0.00 0.00 0.00 0.00 0.00 0.00
0.00 0.00 0.00 0.00 0.00 0.00 0.00 0.00 0.00 0.00 0.00 0.00 0.03 0.09 0.14 0.19 0.19 0.14 0.06 0.07 0.21 0.46 0.34 0.16 0.08 0.14 0.06 0.06 0.03 0.04 0.03 0.01 0.00 0.00 0.00 0.00 0.00 0.00 0.00 0.00 0.00 0.00 0.00
0.00 0.00 0.00 0.00 0.00 0.00 0.00 0.00 0.00 0.00 0.00 0.00 0.00 0.01 0.01 0.03 0.08 0.10 0.11 0.18 0.24 0.44 0.51 0.34 0.21 0.25 0.23 0.19 0.19 0.13 0.12 0.08 0.03 0.00 0.00 0.00 0.00 0.00 0.00 0.00 0.00 0.00 0.00
0.00 0.00 0.00 0.00 0.00 0.00 0.00 0.00 0.00 0.00 0.00 0.00 0.00 0.00 0.02 0.06 0.09 0.13 0.16 0.20 0.27 0.32 0.36 0.36 0.33 0.23 0.25 0.27 0.21 0.17 0.13 0.11 0.07 0.05 0.03 0.01 0.00 0.00 0.00 0.00 0.00 0.00 0.00
0.00 0.00 0.00 0.00 0.00 0.00 0.00 0.00 0.00 0.00 0.00 0.00 0.00 0.00 0.00 0.01 0.04 0.08 0.16 0.18 0.20 0.20 0.21 0.29 0.27 0.34 0.27 0.25 0.29 0.30 0.25 0.15 0.12 0.07 0.04 0.04 0.04 0.02 0.02 0.02 0.01 0.00 0.00
0.00 0.00 0.00 0.00 0.00 0.00 0.00 0.00 0.00 0.00 0.00 0.00 0.00 0.00 0.00 0.01 0.03 0.07 0.10 0.12 0.12 0.10 0.15 0.22 0.24 0.26 0.28 0.29 0.27 0.27 0.21 0.18 0.15 0.10 0.06 0.05 0.04 0.03 0.03 0.03 0.02 0.01 0.01
0.00 0.00 0.00 0.00 0.00 0.00 0.00 0.00 0.00 0.00 0.00 0.00 0.00 0.00 0.00 0.02 0.03 0.04 0.05 0.08 0.09 0.14 0.13 0.16 0.20 0.23 0.23 0.25 0.23 0.22 0.19 0.17 0.15 0.13 0.11 0.08 0.06 0.04 0.07 0.11 0.15 0.16 0.14
0.00 0.00 0.00 0.00 0.00 0.00 0.00 0.00 0.00 0.00 0.00 0.00 0.01 0.00 0.01 0.03 0.03 0.04 0.06 0.08 0.10 0.09 0.10 0.13 0.15 0.16 0.17 0.19 0.19 0.18 0.16 0.16 0.15 0.12 0.10 0.10 0.10 0.11 0.13 0.16 0.20 0.27 0.23
0.00 0.00 0.00 0.00 0.00 0.00 0.00 0.00 0.00 0.00 0.01 0.03 0.01 0.01 0.01 0.03 0.04 0.05 0.07 0.06 0.06 0.06 0.09 0.10 0.09 0.08 0.08 0.09 0.10 0.11 0.14 0.16 0.18 0.20 0.22 0.24 0.23 0.19 0.15 0.11 0.10 0.10 0.12
0.00 0.00 0.00 0.00 0.00 0.00 0.00 0.00 0.00 0.00 0.01 0.01 0.01 0.02 0.03 0.05 0.04 0.05 0.04 0.05 0.05 0.05 0.06 0.05 0.05 0.04 0.04 0.04 0.05 0.04 0.05 0.05 0.06 0.11 0.16 0.20 0.19 0.21 0.19 0.16 0.18 0.19 0.23
0.00 0.00 0.00 0.00 0.00 0.00 0.00 0.00 0.00 0.00 0.01 0.00 0.00 0.00 0.02 0.04 0.05 0.05 0.05 0.03 0.04 0.04 0.03 0.02 0.02 0.02 0.01 0.01 0.01 0.02 0.03 0.03 0.04 0.04 0.05 0.08 0.10 0.12 0.16 0.22 0.28 0.29 0.28
0.00 0.00 0.00 0.00 0.00 0.00 0.02 0.04 0.02 0.00 0.00 0.00 0.01 0.01 0.02 0.05 0.07 0.07 0.05 0.03 0.02 0.02 0.01 0.01 0.03 0.05 0.06 0.08 0.07 0.08 0.09 0.08 0.09 0.10 0.13 0.16 0.19 0.23 0.25 0.25 0.23 0.21 0.17
0.00 0.00 0.00 0.00 0.00 0.03 0.05 0.03 0.03 0.02 0.03 0.05 0.06 0.06 0.05 0.05 0.04 0.04 0.05 0.04 0.02 0.01 0.02 0.03 0.03 0.03 0.03 0.04 0.04 0.04 0.05 0.07 0.12 0.19 0.24 0.26 0.28 0.28 0.28 0.26 0.22 0.16 0.10
0.00 0.01 0.00 0.01 0.00 0.01 0.02 0.02 0.04 0.06 0.11 0.11 0.09 0.07 0.03 0.04 0.05 0.05 0.05 0.05 0.04 0.05 0.05 0.06 0.07 0.09 0.11 0.13 0.11 0.11 0.14 0.19 0.27 0.30 0.30 0.30 0.29 0.24 0.17 0.11 0.06 0.04 0.02
0.01 0.00 0.00 0.00 0.01 0.01 0.00 0.00 0.03 0.06 0.07 0.08 0.06 0.03 0.03 0.04 0.04 0.11 0.22 0.13 0.18 0.17 0.21 0.32 0.25 0.23 0.25 0.38 0.33 0.32 0.34 0.35 0.32 0.28 0.22 0.16 0.11 0.06 0.03 0.01 0.00 0.00 0.00
0.01 0.00 0.00 0.00 0.00 0.00 0.00 0.01 0.03 0.02 0.03 0.05 0.05 0.03 0.05 0.08 0.03 0.06 0.14 0.34 0.41 0.35 0.43 0.67 0.83 0.82 0.92 0.89 0.64 0.45 0.27 0.22 0.19 0.16 0.12 0.08 0.04 0.02 0.00 0.00 0.00 0.00 0.00
0.00 0.00 0.00 0.00 0.00 0.00 0.00 0.00 0.12 0.06 0.33 0.14 0.29 0.37 0.34 0.30 0.25 0.27 0.38 0.36 0.36 0.34 0.41 0.56 0.81 0.81 0.72 0.75 0.56 0.43 0.31 0.19 0.11 0.05 0.02 0.00 0.00 0.00 0.00 0.00 0.00 0.00 0.00
0.00 0.00 0.00 0.00 0.00 0.00 0.00 0.00 0.00 0.00 0.06 0.20 0.39 0.27 0.42 0.30 0.33 0.60 0.68 0.92 1.14 1.01 0.73 0.54 0.43 0.31 0.24 0.15 0.09 0.06 0.04 0.02 0.01 0.00 0.00 0.00 0.00 0.00 0.00 0.00 0.00 0.00 0.00
0.00 0.00 0.00 0.00 0.00 0.00 0.01 0.01 0.03 0.04 0.06 0.15 0.28 0.34 0.46 0.70 0.71 0.87 0.74 0.55 0.57 0.62 0.50 0.32 0.19 0.13 0.08 0.04 0.01 0.00 0.00 0.00 0.00 0.00 0.00 0.00 0.00 0.00 0.01 0.01 0.01 0.00 0.00
0.04 0.04 0.04 0.05 0.08 0.16 0.16 0.14 0.27 0.37 0.45 0.58 0.88 0.67 0.67 0.84 0.73 0.59 0.50 0.32 0.18 0.13 0.09 0.05 0.02 0.01 0.00 0.00 0.00 0.00 0.00 0.00 0.00 0.00 0.00 0.00 0.00 0.01 0.01 0.01 0.00 0.00 0.00
0.28 0.31 0.23 0.34 0.46 0.74 0.62 0.50 0.60 0.67 0.67 0.50 0.43 0.43 0.32 0.24 0.18 0.08 0.04 0.01 0.00 0.00 0.00 0.00 0.00 0.00 0.00 0.00 0.00 0.00 0.00 0.00 0.00 0.00 0.00 0.00 0.01 0.01 0.00 0.00 0.00 0.00 0.00
0.12 0.18 0.25 0.41 0.42 0.51 0.38 0.39 0.25 0.25 0.25 0.14 0.10 0.08 0.05 0.01 0.00 0.00 0.00 0.00 0.00 0.00 0.00 0.00 0.00 0.00 0.00 0.00 0.00 0.00 0.00 0.00 0.00 0.00 0.00 0.00 0.00 0.00 0.00 0.00 0.00 0.00 0.00
0.02 0.01 0.01 0.01 0.04 0.03 0.03 0.03 0.02 0.03 0.03 0.01 0.00 0.00 0.00 0.00 0.00 0.00 0.00 0.00 0.00 0.00 0.00 0.00 0.00 0.00 0.00 0.00 0.00 0.00 0.00 0.00 0.00 0.00 0.00 0.00 0.00 0.00 0.00 0.00 0.00 0.00 0.00
0.00 0.00 0.00 0.00 0.00 0.00 0.00 0.00 0.00 0.00 0.00 0.00 0.00 0.00 0.00 0.00 0.00 0.00 0.00 0.00 0.00 0.00 0.00 0.00 0.00 0.00 0.00 0.00 0.00 0.00 0.00 0.00 0.00 0.00 0.00 0.00 0.00 0.00 0.00 0.00 0.00 0.00 0.00
0.00 0.00 0.00 0.00 0.00 0.00 0.00 0.00 0.00 0.00 0.00 0.00 0.00 0.00 0.00 0.00 0.00 0.00 0.00 0.00 0.00 0.00 0.00 0.00 0.00 0.00 0.00 0.00 0.00 0.00 0.00 0.00 0.00 0.00 0.00 0.00 0.00 0.00 0.00 0.00 0.00 0.00 0.00

GFSMW_prec_precacc24_066.txt.gz
Total_Precipitation_Accumulation
0.00 0.00 0.00 0.00 0.00 0.00 0.00 0.00 0.00 0.00 0.02 0.05 0.07 0.07 0.09 0.17 0.10 0.10 0.20 0.14 0.16 0.14 0.09 0.04 0.04 0.01 0.00 0.00 0.00 0.00 0.00 0.00 0.00 0.00 0.00 0.00 0.00 0.00 0.00 0.00 0.00 0.00 0.00
0.00 0.00 0.00 0.00 0.00 0.00 0.00 0.00 0.00 0.00 0.00 0.01 0.02 0.05 0.11 0.15 0.17 0.19 0.14 0.15 0.15 0.30 0.19 0.07 0.04 0.09 0.04 0.01 0.00 0.01 0.02 0.00 0.01 0.00 0.00 0.00 0.00 0.00 0.00 0.00 0.00 0.00 0.00
0.00 0.00 0.00 0.00 0.00 0.00 0.00 0.00 0.00 0.00 0.00 0.00 0.03 0.09 0.14 0.19 0.19 0.13 0.05 0.04 0.19 0.44 0.38 0.17 0.08 0.16 0.10 0.11 0.08 0.07 0.10 0.06 0.03 0.01 0.00 0.00 0.00 0.00 0.00 0.00 0.00 0.00 0.00
0.00 0.00 0.00 0.00 0.00 0.00 0.00 0.00 0.00 0.00 0.00 0.00 0.00 0.01 0.01 0.03 0.06 0.07 0.09 0.16 0.19 0.40 0.50 0.36 0.22 0.26 0.24 0.21 0.23 0.18 0.20 0.17 0.06 0.03 0.01 0.01 0.00 0.00 0.00 0.00 0.00 0.00 0.00
0.00 0.00 0.00 0.00 0.00 0.00 0.00 0.00 0.00 0.00 0.00 0.00 0.00 0.00 0.01 0.05 0.07 0.12 0.15 0.18 0.23 0.31 0.35 0.36 0.35 0.25 0.26 0.29 0.24 0.22 0.17 0.19 0.15 0.09 0.09 0.06 0.02 0.00 0.00 0.00 0.00 0.00 0.00
0.00 0.00 0.00 0.00 0.00 0.00 0.00 0.00 0.00 0.00 0.00 0.00 0.00 0.00 0.00 0.01 0.04 0.08 0.15 0.16 0.17 0.18 0.22 0.29 0.26 0.34 0.28 0.26 0.30 0.31 0.31 0.22 0.23 0.16 0.10 0.10 0.10 0.07 0.05 0.05 0.02 0.01 0.00
0.00 0.00 0.00 0.00 0.00 0.00 0.00 0.00 0.00 0.00 0.00 0.00 0.00 0.00 0.00 0.01 0.03 0.07 0.10 0.11 0.10 0.09 0.14 0.23 0.24 0.27 0.29 0.30 0.28 0.29 0.24 0.23 0.23 0.20 0.14 0.12 0.12 0.09 0.08 0.09 0.06 0.04 0.03
0.00 0.00 0.00 0.00 0.00 0.00 0.00 0.00 0.00 0.00 0.00 0.00 0.00 0.00 0.00 0.02 0.03 0.04 0.04 0.05 0.07 0.12 0.12 0.16 0.20 0.23 0.24 0.26 0.25 0.24 0.22 0.19 0.19 0.20 0.19 0.13 0.09 0.10 0.13 0.17 0.22 0.27 0.30
0.00 0.00 0.00 0.00 0.00 0.00 0.00 0.00 0.00 0.00 0.00 0.00 0.01 0.00 0.01 0.03 0.03 0.03 0.04 0.06 0.08 0.08 0.09 0.12 0.15 0.16 0.17 0.21 0.22 0.20 0.18 0.20 0.20 0.19 0.18 0.16 0.13 0.15 0.16 0.20 0.28 0.45 0.54
0.00 0.00 0.00 0.00 0.00 0.00 0.00 0.00 0.00 0.00 0.01 0.03 0.01 0.01 0.01 0.03 0.04 0.04 0.05 0.05 0.06 0.06 0.09 0.10 0.09 0.08 0.09 0.09 0.11 0.13 0.16 0.19 0.23 0.27 0.32 0.32 0.29 0.23 0.18 0.14 0.15 0.19 0.26
0.00 0.00 0.00 0.00 0.00 0.00 0.00 0.00 0.00 0.00 0.01 0.01 0.01 0.02 0.03 0.04 0.04 0.04 0.04 0.05 0.04 0.05 0.06 0.05 0.05 0.04 0.04 0.04 0.05 0.04 0.06 0.08 0.09 0.15 0.21 0.27 0.25 0.27 0.28 0.33 0.40 0.49 0.52
0.00 0.00 0.00 0.00 0.00 0.00 0.00 0.00 0.00 0.00 0.01 0.00 0.00 0.00 0.02 0.04 0.05 0.05 0.04 0.03 0.03 0.03 0.03 0.02 0.02 0.02 0.01 0.01 0.02 0.03 0.04 0.05 0.06 0.06 0.08 0.12 0.14 0.18 0.22 0.28 0.35 0.38 0.37
0.00 0.00 0.00 0.00 0.00 0.00 0.00 0.03 0.02 0.00 0.00 0.00 0.01 0.01 0.02 0.04 0.06 0.06 0.05 0.03 0.02 0.01 0.01 0.01 0.02 0.05 0.06 0.08 0.08 0.09 0.10 0.10 0.10 0.11 0.15 0.18 0.22 0.27 0.30 0.30 0.29 0.27 0.20
0.00 0.00 0.00 0.00 0.00 0.02 0.02 0.03 0.03 0.02 0.03 0.05 0.06 0.06 0.05 0.04 0.04 0.04 0.04 0.04 0.02 0.01 0.02 0.03 0.03 0.03 0.03 0.05 0.04 0.05 0.06 0.08 0.13 0.20 0.26 0.26 0.29 0.30 0.30 0.30 0.25 0.18 0.11
0.00 0.00 0.00 0.01 0.00 0.01 0.02 0.02 0.04 0.06 0.11 0.11 0.09 0.07 0.03 0.04 0.05 0.05 0.05 0.04 0.04 0.05 0.05 0.06 0.07 0.09 0.11 0.13 0.12 0.12 0.15 0.20 0.27 0.30 0.31 0.32 0.33 0.27 0.19 0.12 0.07 0.04 0.02
0.00 0.00 0.00 0.00 0.01 0.01 0.00 0.00 0.03 0.06 0.07 0.08 0.05 0.02 0.03 0.04 0.04 0.11 0.22 0.13 0.18 0.17 0.21 0.32 0.25 0.23 0.26 0.43 0.36 0.32 0.34 0.35 0.35 0.35 0.30 0.25 0.17 0.12 0.05 0.01 0.00 0.00 0.00
0.00 0.00 0.00 0.00 0.00 0.00 0.00 0.01 0.03 0.02 0.03 0.05 0.05 0.03 0.05 0.08 0.03 0.06 0.14 0.33 0.41 0.35 0.43 0.67 0.83 0.82 0.94 0.94 0.72 0.57 0.38 0.33 0.31 0.27 0.19 0.10 0.07 0.05 0.02 0.01 0.00 0.00 0.00
0.00 0.00 0.00 0.00 0.00 0.00 0.00 0.00 0.12 0.06 0.33 0.13 0.28 0.37 0.34 0.30 0.24 0.26 0.37 0.36 0.36 0.34 0.41 0.56 0.82 0.81 0.72 0.77 0.62 0.51 0.43 0.31 0.16 0.07 0.03 0.01 0.01 0.00 0.00 0.00 0.00 0.00 0.00
0.00 0.00 0.00 0.00 0.00 0.00 0.00 0.00 0.00 0.00 0.06 0.20 0.38 0.26 0.40 0.29 0.32 0.58 0.67 0.92 1.15 1.01 0.73 0.54 0.43 0.31 0.24 0.15 0.09 0.06 0.04 0.02 0.01 0.00 0.00 0.00 0.00 0.00 0.00 0.00 0.00 0.00 0.00
0.00 0.00 0.00 0.00 0.00 0.00 0.00 0.00 0.01 0.02 0.03 0.09 0.24 0.25 0.30 0.56 0.67 0.87 0.74 0.55 0.57 0.62 0.50 0.32 0.19 0.13 0.08 0.04 0.01 0.00 0.00 0.00 0.00 0.00 0.00 0.00 0.00 0.00 0.01 0.01 0.00 0.00 0.00
0.00 0.00 0.00 0.01 0.01 0.02 0.01 0.03 0.13 0.18 0.29 0.44 0.71 0.61 0.65 0.82 0.73 0.59 0.50 0.32 0.18 0.13 0.09 0.05 0.02 0.01 0.00 0.00 0.00 0.00 0.00 0.00 0.00 0.00 0.00 0.00 0.00 0.01 0.01 0.01 0.00 0.00 0.00
0.09 0.05 0.07 0.19 0.26 0.44 0.28 0.31 0.46 0.52 0.56 0.47 0.43 0.42 0.32 0.24 0.18 0.08 0.04 0.01 0.00 0.00 0.00 0.00 0.00 0.00 0.00 0.00 0.00 0.00 0.00 0.00 0.00 0.00 0.00 0.00 0.01 0.01 0.00 0.00 0.00 0.00 0.00
0.12 0.16 0.23 0.39 0.40 0.50 0.36 0.38 0.25 0.25 0.25 0.14 0.10 0.08 0.05 0.01 0.00 0.00 0.00 0.00 0.00 0.00 0.00 0.00 0.00 0.00 0.00 0.00 0.00 0.00 0.00 0.00 0.00 0.00 0.00 0.00 0.00 0.00 0.00 0.00 0.00 0.00 0.00
0.01 0.00 0.00 0.01 0.04 0.03 0.03 0.03 0.02 0.03 0.03 0.01 0.00 0.00 0.00 0.00 0.00 0.00 0.00 0.00 0.00 0.00 0.00 0.00 0.00 0.00 0.00 0.00 0.00 0.00 0.00 0.00 0.00 0.00 0.00 0.00 0.00 0.00 0.00 0.00 0.00 0.00 0.00
0.00 0.00 0.00 0.00 0.00 0.00 0.00 0.00 0.00 0.00 0.00 0.00 0.00 0.00 0.00 0.00 0.00 0.00 0.00 0.00 0.00 0.00 0.00 0.00 0.00 0.00 0.00 0.00 0.00 0.00 0.00 0.00 0.00 0.00 0.00 0.00 0.00 0.00 0.00 0.00 0.00 0.00 0.00
0.00 0.00 0.00 0.00 0.00 0.00 0.00 0.00 0.00 0.00 0.00 0.00 0.00 0.00 0.00 0.00 0.00 0.00 0.00 0.00 0.00 0.00 0.00 0.00 0.00 0.00 0.00 0.00 0.00 0.00 0.00 0.00 0.00 0.00 0.00 0.00 0.00 0.00 0.00 0.00 0.00 0.00 0.00

GFSMW_prec_precacc24_069.txt.gz
Total_Precipitation_Accumulation
0.00 0.00 0.00 0.00 0.00 0.00 0.00 0.00 0.00 0.00 0.02 0.05 0.07 0.07 0.10 0.21 0.12 0.10 0.23 0.19 0.19 0.15 0.10 0.05 0.04 0.02 0.00 0.00 0.00 0.00 0.00 0.00 0.00 0.00 0.00 0.00 0.00 0.00 0.00 0.00 0.00 0.00 0.00
0.00 0.00 0.00 0.00 0.00 0.00 0.00 0.00 0.00 0.00 0.00 0.01 0.01 0.04 0.06 0.08 0.14 0.19 0.14 0.17 0.19 0.31 0.21 0.10 0.07 0.13 0.09 0.03 0.01 0.02 0.05 0.03 0.02 0.00 0.00 0.00 0.00 0.00 0.00 0.00 0.00 0.00 0.00
0.00 0.00 0.00 0.00 0.00 0.00 0.00 0.00 0.00 0.00 0.00 0.00 0.03 0.08 0.11 0.11 0.13 0.12 0.05 0.04 0.15 0.39 0.35 0.21 0.13 0.20 0.16 0.19 0.11 0.08 0.13 0.15 0.12 0.05 0.01 0.00 0.00 0.00 0.00 0.00 0.00 0.00 0.00
0.00 0.00 0.00 0.00 0.00 0.00 0.00 0.00 0.00 0.00 0.00 0.00 0.00 0.01 0.01 0.01 0.01 0.02 0.06 0.12 0.14 0.31 0.44 0.36 0.24 0.29 0.28 0.25 0.28 0.23 0.24 0.24 0.16 0.13 0.06 0.05 0.01 0.00 0.00 0.01 0.01 0.00 0.00
0.00 0.00 0.00 0.00 0.00 0.00 0.00 0.00 0.00 0.00 0.00 0.00 0.00 0.00 0.01 0.03 0.02 0.06 0.10 0.13 0.18 0.26 0.31 0.33 0.34 0.28 0.30 0.34 0.32 0.32 0.25 0.29 0.26 0.19 0.18 0.14 0.09 0.03 0.01 0.02 0.03 0.02 0.01
0.00 0.00 0.00 0.00 0.00 0.00 0.00 0.00 0.00 0.00 0.00 0.00 0.00 0.00 0.00 0.00 0.01 0.06 0.12 0.12 0.13 0.15 0.19 0.28 0.25 0.33 0.27 0.26 0.32 0.36 0.37 0.31 0.35 0.29 0.22 0.20 0.21 0.17 0.13 0.09 0.07 0.06 0.07
0.00 0.00 0.00 0.00 0.00 0.00 0.00 0.00 0.00 0.00 0.00 0.00 0.00 0.00 0.00 0.00 0.00 0.05 0.08 0.09 0.09 0.07 0.13 0.23 0.23 0.26 0.28 0.30 0.29 0.30 0.25 0.27 0.29 0.30 0.25 0.23 0.23 0.20 0.19 0.15 0.12 0.10 0.11
0.00 0.00 0.00 0.00 0.00 0.00 0.00 0.00 0.00 0.00 0.00 0.00 0.00 0.00 0.00 0.00 0.01 0.02 0.02 0.03 0.05 0.11 0.11 0.15 0.19 0.22 0.23 0.26 0.25 0.25 0.23 0.21 0.22 0.26 0.29 0.22 0.17 0.18 0.23 0.26 0.31 0.37 0.38
0.00 0.00 0.00 0.00 0.00 0.00 0.00 0.00 0.00 0.00 0.00 0.00 0.00 0.00 0.00 0.01 0.01 0.02 0.03 0.05 0.07 0.08 0.09 0.12 0.13 0.14 0.17 0.21 0.22 0.21 0.19 0.21 0.22 0.22 0.23 0.22 0.19 0.23 0.25 0.30 0.36 0.51 0.62
0.00 0.00 0.00 0.00 0.00 0.00 0.00 0.00 0.00 0.00 0.00 0.00 0.00 0.00 0.00 0.01 0.02 0.03 0.05 0.05 0.06 0.06 0.08 0.09 0.08 0.07 0.08 0.09 0.11 0.13 0.16 0.19 0.23 0.28 0.34 0.36 0.34 0.30 0.25 0.22 0.23 0.28 0.36
0.00 0.00 0.00 0.00 0.00 0.00 0.00 0.00 0.00 0.00 0.00 0.00 0.00 0.01 0.02 0.04 0.04 0.04 0.04 0.05 0.04 0.04 0.05 0.04 0.04 0.04 0.04 0.04 0.05 0.04 0.06 0.08 0.10 0.16 0.22 0.29 0.26 0.29 0.32 0.39 0.52 0.64 0.74
0.00 0.00 0.00 0.00 0.00 0.00 0.00 0.00 0.00 0.00 0.00 0.00 0.00 0.00 0.02 0.04 0.05 0.05 0.04 0.03 0.03 0.02 0.02 0.02 0.02 0.01 0.01 0.01 0.01 0.03 0.04 0.06 0.07 0.07 0.10 0.14 0.16 0.20 0.25 0.33 0.41 0.48 0.53
0.00 0.00 0.00 0.00 0.00 0.00 0.00 0.00 0.00 0.00 0.00 0.00 0.01 0.01 0.02 0.04 0.05 0.06 0.05 0.03 0.01 0.01 0.00 0.00 0.00 0.02 0.03 0.06 0.07 0.09 0.10 0.11 0.11 0.12 0.16 0.20 0.23 0.28 0.31 0.31 0.32 0.31 0.26
0.00 0.00 0.00 0.00 0.00 0.00 0.00 0.01 0.02 0.02 0.03 0.04 0.06 0.06 0.05 0.04 0.03 0.04 0.04 0.03 0.01 0.01 0.01 0.02 0.02 0.01 0.03 0.05 0.04 0.05 0.07 0.09 0.14 0.21 0.27 0.29 0.31 0.31 0.31 0.32 0.29 0.21 0.12
0.00 0.00 0.00 0.00 0.00 0.00 0.01 0.01 0.03 0.05 0.09 0.09 0.09 0.07 0.03 0.04 0.05 0.05 0.05 0.04 0.04 0.05 0.05 0.04 0.04 0.06 0.10 0.13 0.12 0.12 0.15 0.20 0.28 0.31 0.31 0.32 0.35 0.31 0.26 0.20 0.12 0.06 0.02
0.00 0.00 0.00 0.00 0.01 0.01 0.00 0.00 0.02 0.06 0.06 0.07 0.05 0.02 0.03 0.04 0.04 0.11 0.22 0.13 0.18 0.17 0.21 0.31 0.24 0.21 0.25 0.43 0.36 0.32 0.34 0.36 0.35 0.36 0.33 0.31 0.28 0.19 0.14 0.10 0.06 0.01 0.00
0.00 0.00 0.00 0.00 0.00 0.00 0.00 0.01 0.03 0.02 0.03 0.05 0.05 0.03 0.05 0.08 0.03 0.05 0.13 0.31 0.36 0.26 0.32 0.58 0.80 0.82 0.94 0.94 0.72 0.57 0.38 0.34 0.32 0.29 0.22 0.13 0.09 0.07 0.04 0.01 0.00 0.00 0.00
0.00 0.00 0.00 0.00 0.00 0.00 0.00 0.00 0.12 0.06 0.33 0.13 0.27 0.36 0.33 0.29 0.23 0.24 0.35 0.34 0.34 0.31 0.37 0.54 0.81 0.81 0.72 0.77 0.62 0.51 0.43 0.31 0.16 0.07 0.03 0.01 0.01 0.00 0.00 0.00 0.00 0.00 0.00
0.00 0.00 0.00 0.00 0.00 0.00 0.00 0.00 0.00 0.00 0.05 0.19 0.36 0.24 0.37 0.23 0.26 0.52 0.51 0.72 0.99 0.94 0.72 0.54 0.43 0.31 0.24 0.15 0.09 0.06 0.04 0.02 0.01 0.00 0.00 0.00 0.00 0.00 0.00 0.00 0.00 0.00 0.00
0.00 0.00 0.00 0.00 0.00 0.00 0.00 0.00 0.00 0.00 0.01 0.05 0.18 0.21 0.21 0.39 0.45 0.70 0.67 0.53 0.57 0.62 0.49 0.32 0.19 0.13 0.08 0.04 0.01 0.00 0.00 0.00 0.00 0.00 0.00 0.00 0.00 0.00 0.01 0.01 0.00 0.00 0.00
0.00 0.00 0.00 0.00 0.00 0.00 0.00 0.00 0.01 0.04 0.16 0.29 0.40 0.33 0.45 0.60 0.57 0.52 0.47 0.31 0.18 0.13 0.09 0.05 0.02 0.01 0.00 0.00 0.00 0.00 0.00 0.00 0.00 0.00 0.00 0.00 0.00 0.01 0.00 0.00 0.00 0.00 0.00
0.00 0.00 0.02 0.05 0.05 0.07 0.03 0.08 0.14 0.16 0.19 0.23 0.26 0.31 0.24 0.22 0.17 0.08 0.04 0.01 0.00 0.00 0.00 0.00 0.00 0.00 0.00 0.00 0.00 0.00 0.00 0.00 0.00 0.00 0.00 0.00 0.00 0.00 0.00 0.00 0.00 0.00 0.00
0.01 0.02 0.06 0.11 0.18 0.19 0.15 0.14 0.12 0.11 0.17 0.11 0.08 0.08 0.05 0.01 0.00 0.00 0.00 0.00 0.00 0.00 0.00 0.00 0.00 0.00 0.00 0.00 0.00 0.00 0.00 0.00 0.00 0.00 0.00 0.00 0.00 0.00 0.00 0.00 0.00 0.00 0.00
0.00 0.00 0.00 0.01 0.04 0.02 0.03 0.03 0.02 0.02 0.03 0.01 0.00 0.00 0.00 0.00 0.00 0.00 0.00 0.00 0.00 0.00 0.00 0.00 0.00 0.00 0.00 0.00 0.00 0.00 0.00 0.00 0.00 0.00 0.00 0.00 0.00 0.00 0.00 0.00 0.00 0.00 0.00
0.00 0.00 0.00 0.00 0.00 0.00 0.00 0.00 0.00 0.00 0.00 0.00 0.00 0.00 0.00 0.00 0.00 0.00 0.00 0.00 0.00 0.00 0.00 0.00 0.00 0.00 0.00 0.00 0.00 0.00 0.00 0.00 0.00 0.00 0.00 0.00 0.00 0.00 0.00 0.00 0.00 0.00 0.00
0.00 0.00 0.00 0.00 0.00 0.00 0.00 0.00 0.00 0.00 0.00 0.00 0.00 0.00 0.00 0.00 0.00 0.00 0.00 0.00 0.00 0.00 0.00 0.00 0.00 0.00 0.00 0.00 0.00 0.00 0.00 0.00 0.00 0.00 0.00 0.00 0.00 0.00 0.00 0.00 0.00 0.00 0.00

GFSMW_prec_precacc24_075.txt.gz
Total_Precipitation_Accumulation
0.00 0.00 0.00 0.00 0.00 0.00 0.00 0.00 0.00 0.00 0.01 0.00 0.02 0.04 0.04 0.16 0.11 0.10 0.24 0.21 0.19 0.15 0.08 0.04 0.04 0.03 0.00 0.01 0.01 0.01 0.00 0.00 0.02 0.01 0.00 0.00 0.00 0.00 0.00 0.00 0.00 0.00 0.00
0.00 0.00 0.00 0.00 0.00 0.00 0.00 0.00 0.00 0.00 0.00 0.00 0.00 0.00 0.00 0.01 0.04 0.10 0.13 0.18 0.21 0.25 0.21 0.15 0.09 0.16 0.13 0.07 0.04 0.04 0.07 0.05 0.14 0.12 0.07 0.03 0.01 0.00 0.00 0.00 0.00 0.01 0.01
0.00 0.00 0.00 0.00 0.00 0.00 0.00 0.00 0.00 0.00 0.00 0.00 0.00 0.00 0.00 0.00 0.01 0.01 0.01 0.02 0.10 0.13 0.19 0.19 0.13 0.21 0.17 0.18 0.13 0.12 0.18 0.18 0.21 0.22 0.18 0.03 0.00 0.00 0.00 0.00 0.00 0.01 0.01
0.00 0.00 0.00 0.00 0.00 0.00 0.00 0.00 0.00 0.00 0.00 0.00 0.00 0.00 0.00 0.00 0.00 0.00 0.00 0.00 0.03 0.07 0.23 0.23 0.16 0.19 0.18 0.16 0.23 0.26 0.29 0.33 0.22 0.20 0.16 0.15 0.07 0.04 0.01 0.02 0.04 0.03 0.03
0.00 0.00 0.00 0.00 0.00 0.00 0.00 0.00 0.00 0.00 0.00 0.00 0.00 0.00 0.00 0.00 0.00 0.00 0.00 0.00 0.02 0.07 0.13 0.18 0.21 0.17 0.24 0.30 0.30 0.30 0.28 0.38 0.36 0.30 0.29 0.26 0.19 0.11 0.06 0.04 0.07 0.06 0.04
0.00 0.00 0.00 0.00 0.00 0.00 0.00 0.00 0.00 0.00 0.00 0.00 0.00 0.00 0.00 0.00 0.00 0.00 0.02 0.03 0.03 0.03 0.07 0.15 0.14 0.22 0.18 0.18 0.27 0.33 0.38 0.34 0.39 0.34 0.28 0.29 0.31 0.25 0.21 0.14 0.09 0.10 0.11
0.00 0.00 0.00 0.00 0.00 0.00 0.00 0.00 0.00 0.00 0.00 0.00 0.00 0.00 0.00 0.00 0.00 0.01 0.02 0.05 0.04 0.02 0.05 0.12 0.15 0.16 0.20 0.24 0.26 0.28 0.25 0.27 0.31 0.33 0.31 0.29 0.30 0.31 0.32 0.28 0.25 0.21 0.17
0.00 0.00 0.00 0.00 0.00 0.00 0.00 0.00 0.00 0.00 0.00 0.00 0.00 0.00 0.00 0.00 0.00 0.00 0.01 0.01 0.01 0.04 0.04 0.08 0.12 0.16 0.19 0.23 0.23 0.24 0.23 0.21 0.22 0.28 0.32 0.23 0.19 0.22 0.30 0.35 0.41 0.45 0.45
0.00 0.00 0.00 0.00 0.00 0.00 0.00 0.00 0.00 0.00 0.00 0.00 0.00 0.00 0.00 0.00 0.00 0.00 0.00 0.00 0.00 0.01 0.03 0.06 0.08 0.12 0.16 0.20 0.21 0.20 0.19 0.21 0.22 0.22 0.23 0.23 0.20 0.24 0.27 0.34 0.44 0.62 0.74
0.00 0.00 0.00 0.00 0.00 0.00 0.00 0.00 0.00 0.00 0.00 0.00 0.00 0.00 0.00 0.00 0.00 0.00 0.00 0.00 0.00 0.00 0.02 0.04 0.06 0.07 0.08 0.08 0.10 0.12 0.15 0.19 0.23 0.27 0.33 0.35 0.34 0.31 0.27 0.25 0.26 0.34 0.46
0.00 0.00 0.00 0.00 0.00 0.00 0.00 0.00 0.00 0.00 0.00 0.00 0.00 0.00 0.00 0.00 0.00 0.00 0.00 0.00 0.00 0.00 0.01 0.02 0.03 0.03 0.03 0.03 0.04 0.04 0.05 0.08 0.09 0.15 0.22 0.29 0.27 0.30 0.32 0.40 0.54 0.68 0.77
0.00 0.00 0.00 0.00 0.00 0.00 0.00 0.00 0.00 0.00 0.00 0.00 0.00 0.00 0.00 0.00 0.00 0.00 0.00 0.00 0.00 0.00 0.01 0.01 0.02 0.01 0.01 0.01 0.01 0.02 0.03 0.05 0.06 0.07 0.10 0.14 0.16 0.21 0.25 0.34 0.43 0.50 0.56
0.00 0.00 0.00 0.00 0.00 0.00 0.00 0.00 0.00 0.00 0.00 0.00 0.00 0.00 0.00 0.00 0.00 0.00 0.00 0.00 0.00 0.00 0.00 0.00 0.00 0.00 0.01 0.01 0.01 0.02 0.02 0.04 0.04 0.07 0.13 0.19 0.22 0.28 0.31 0.31 0.32 0.32 0.27
0.00 0.00 0.00 0.00 0.00 0.00 0.00 0.00 0.00 0.00 0.00 0.00 0.00 0.00 0.01 0.01 0.01 0.02 0.02 0.02 0.01 0.01 0.01 0.01 0.01 0.01 0.01 0.02 0.01 0.02 0.03 0.06 0.10 0.16 0.22 0.27 0.30 0.30 0.31 0.32 0.31 0.25 0.16
0.00 0.00 0.00 0.00 0.00 0.00 0.00 0.00 0.00 0.00 0.00 0.00 0.00 0.00 0.01 0.03 0.04 0.04 0.04 0.03 0.03 0.04 0.04 0.03 0.02 0.01 0.01 0.03 0.03 0.03 0.07 0.13 0.23 0.29 0.31 0.32 0.35 0.32 0.26 0.21 0.15 0.08 0.04
0.00 0.00 0.00 0.00 0.00 0.00 0.00 0.00 0.00 0.00 0.00 0.00 0.00 0.00 0.01 0.03 0.04 0.10 0.21 0.12 0.16 0.15 0.18 0.27 0.19 0.15 0.15 0.27 0.19 0.18 0.23 0.30 0.32 0.32 0.31 0.30 0.28 0.19 0.14 0.11 0.07 0.02 0.00
0.00 0.00 0.00 0.00 0.00 0.00 0.00 0.00 0.00 0.00 0.00 0.00 0.01 0.01 0.00 0.02 0.02 0.03 0.09 0.28 0.31 0.19 0.24 0.46 0.59 0.54 0.64 0.72 0.61 0.50 0.35 0.32 0.31 0.28 0.22 0.13 0.09 0.07 0.04 0.01 0.00 0.00 0.00
0.00 0.00 0.00 0.00 0.00 0.00 0.00 0.00 0.00 0.00 0.05 0.02 0.09 0.17 0.11 0.23 0.18 0.15 0.17 0.15 0.22 0.16 0.14 0.17 0.38 0.50 0.57 0.71 0.60 0.50 0.42 0.31 0.16 0.07 0.03 0.01 0.01 0.00 0.00 0.00 0.00 0.00 0.00
0.00 0.00 0.00 0.00 0.00 0.00 0.00 0.00 0.00 0.00 0.01 0.07 0.15 0.14 0.24 0.15 0.14 0.33 0.22 0.28 0.44 0.47 0.37 0.36 0.33 0.26 0.22 0.14 0.08 0.06 0.04 0.02 0.01 0.00 0.00 0.00 0.00 0.00 0.00 0.00 0.00 0.00 0.00
0.00 0.00 0.00 0.00 0.00 0.00 0.00 0.00 0.00 0.00 0.00 0.01 0.02 0.02 0.01 0.02 0.05 0.14 0.16 0.16 0.31 0.45 0.42 0.31 0.19 0.13 0.08 0.04 0.01 0.00 0.00 0.00 0.00 0.00 0.00 0.00 0.00 0.00 0.00 0.00 0.00 0.00 0.00
0.00 0.00 0.00 0.00 0.00 0.00 0.00 0.00 0.00 0.00 0.02 0.03 0.07 0.04 0.11 0.12 0.14 0.22 0.26 0.19 0.13 0.11 0.08 0.05 0.02 0.01 0.00 0.00 0.00 0.00 0.00 0.00 0.00 0.00 0.00 0.00 0.00 0.00 0.00 0.00 0.00 0.00 0.00
0.00 0.00 0.00 0.00 0.00 0.00 0.00 0.00 0.00 0.01 0.01 0.03 0.04 0.06 0.08 0.09 0.10 0.05 0.02 0.00 0.00 0.00 0.00 0.00 0.00 0.00 0.00 0.00 0.00 0.00 0.00 0.00 0.00 0.00 0.00 0.00 0.00 0.00 0.00 0.00 0.00 0.00 0.00
0.00 0.00 0.00 0.00 0.00 0.00 0.00 0.00 0.00 0.00 0.00 0.01 0.02 0.03 0.03 0.01 0.00 0.00 0.00 0.00 0.00 0.00 0.00 0.00 0.00 0.00 0.00 0.00 0.00 0.00 0.00 0.00 0.00 0.00 0.00 0.00 0.00 0.00 0.00 0.00 0.00 0.00 0.00
0.00 0.00 0.00 0.00 0.00 0.00 0.00 0.00 0.00 0.00 0.00 0.00 0.00 0.00 0.00 0.00 0.00 0.00 0.00 0.00 0.00 0.00 0.00 0.00 0.00 0.00 0.00 0.00 0.00 0.00 0.00 0.00 0.00 0.00 0.00 0.00 0.00 0.00 0.00 0.00 0.00 0.00 0.00
0.00 0.00 0.00 0.00 0.00 0.00 0.00 0.00 0.00 0.00 0.00 0.00 0.00 0.00 0.00 0.00 0.00 0.00 0.00 0.00 0.00 0.00 0.00 0.00 0.00 0.00 0.00 0.00 0.00 0.00 0.00 0.00 0.00 0.00 0.00 0.00 0.00 0.00 0.00 0.00 0.00 0.00 0.00
0.00 0.00 0.00 0.00 0.00 0.00 0.00 0.00 0.00 0.00 0.00 0.00 0.00 0.00 0.00 0.00 0.00 0.00 0.00 0.00 0.00 0.00 0.00 0.00 0.00 0.00 0.00 0.00 0.00 0.00 0.00 0.00 0.00 0.00 0.00 0.00 0.00 0.00 0.00 0.00 0.00 0.00 0.00

GFSMW_prec_precacc24_078.txt.gz
Total_Precipitation_Accumulation
0.00 0.00 0.00 0.00 0.00 0.00 0.00 0.00 0.00 0.01 0.01 0.00 0.01 0.03 0.04 0.15 0.09 0.07 0.17 0.20 0.17 0.14 0.06 0.03 0.04 0.03 0.01 0.01 0.01 0.01 0.01 0.01 0.03 0.01 0.00 0.00 0.00 0.00 0.01 0.01 0.00 0.00 0.00
0.00 0.00 0.00 0.00 0.00 0.00 0.00 0.00 0.00 0.00 0.00 0.00 0.00 0.00 0.00 0.01 0.03 0.09 0.13 0.17 0.19 0.23 0.21 0.12 0.08 0.16 0.13 0.07 0.04 0.04 0.07 0.05 0.14 0.13 0.07 0.03 0.01 0.00 0.00 0.00 0.00 0.01 0.01
0.00 0.00 0.00 0.00 0.00 0.00 0.00 0.00 0.00 0.00 0.00 0.00 0.00 0.00 0.00 0.00 0.00 0.01 0.01 0.01 0.05 0.09 0.14 0.15 0.10 0.20 0.17 0.16 0.10 0.08 0.15 0.18 0.21 0.23 0.20 0.04 0.01 0.00 0.00 0.00 0.00 0.01 0.01
0.00 0.00 0.00 0.00 0.00 0.00 0.00 0.00 0.00 0.00 0.00 0.00 0.00 0.00 0.00 0.00 0.00 0.00 0.00 0.00 0.01 0.02 0.15 0.18 0.13 0.16 0.15 0.11 0.17 0.19 0.22 0.30 0.20 0.20 0.17 0.16 0.09 0.06 0.02 0.02 0.04 0.03 0.03
0.00 0.00 0.00 0.00 0.00 0.00 0.00 0.00 0.00 0.00 0.00 0.00 0.00 0.00 0.00 0.00 0.00 0.00 0.00 0.00 0.01 0.02 0.05 0.13 0.17 0.15 0.20 0.25 0.26 0.27 0.25 0.36 0.35 0.29 0.29 0.26 0.19 0.12 0.07 0.05 0.07 0.06 0.04
0.00 0.00 0.00 0.00 0.00 0.00 0.00 0.00 0.00 0.00 0.00 0.00 0.00 0.00 0.00 0.00 0.00 0.00 0.00 0.00 0.00 0.01 0.04 0.12 0.09 0.18 0.15 0.15 0.22 0.30 0.34 0.32 0.38 0.34 0.28 0.29 0.32 0.26 0.21 0.14 0.09 0.10 0.11
0.00 0.00 0.00 0.00 0.00 0.00 0.00 0.00 0.00 0.00 0.00 0.00 0.00 0.00 0.00 0.00 0.00 0.00 0.00 0.00 0.01 0.00 0.01 0.07 0.10 0.12 0.14 0.18 0.21 0.24 0.22 0.26 0.31 0.33 0.31 0.29 0.30 0.32 0.34 0.29 0.26 0.21 0.17
0.00 0.00 0.00 0.00 0.00 0.00 0.00 0.00 0.00 0.00 0.00 0.00 0.00 0.00 0.00 0.00 0.00 0.00 0.00 0.00 0.00 0.00 0.01 0.03 0.07 0.11 0.13 0.16 0.19 0.22 0.21 0.21 0.22 0.28 0.32 0.23 0.18 0.22 0.30 0.36 0.42 0.45 0.45
0.00 0.00 0.00 0.00 0.00 0.00 0.00 0.00 0.00 0.00 0.00 0.00 0.00 0.00 0.00 0.00 0.00 0.00 0.00 0.00 0.00 0.00 0.01 0.01 0.02 0.05 0.11 0.15 0.18 0.20 0.19 0.21 0.22 0.22 0.23 0.23 0.20 0.24 0.28 0.34 0.44 0.63 0.74
0.00 0.00 0.00 0.00 0.00 0.00 0.00 0.00 0.00 0.00 0.00 0.00 0.00 0.00 0.00 0.00 0.00 0.00 0.00 0.00 0.00 0.00 0.00 0.00 0.00 0.02 0.04 0.06 0.09 0.12 0.15 0.19 0.23 0.27 0.33 0.35 0.34 0.31 0.27 0.25 0.26 0.34 0.47
0.00 0.00 0.00 0.00 0.00 0.00 0.00 0.00 0.00 0.00 0.00 0.00 0.00 0.00 0.00 0.00 0.00 0.00 0.00 0.00 0.00 0.00 0.00 0.00 0.00 0.00 0.01 0.02 0.04 0.04 0.05 0.08 0.09 0.15 0.22 0.28 0.26 0.29 0.31 0.37 0.51 0.66 0.76
0.00 0.00 0.00 0.00 0.00 0.00 0.00 0.00 0.00 0.00 0.00 0.00 0.00 0.00 0.00 0.00 0.00 0.00 0.00 0.00 0.00 0.00 0.00 0.00 0.00 0.00 0.00 0.00 0.01 0.02 0.03 0.05 0.06 0.07 0.09 0.13 0.14 0.17 0.20 0.28 0.38 0.48 0.55
0.00 0.00 0.00 0.00 0.00 0.00 0.00 0.00 0.00 0.00 0.00 0.00 0.00 0.00 0.00 0.00 0.00 0.00 0.00 0.00 0.00 0.00 0.00 0.00 0.00 0.00 0.00 0.01 0.01 0.02 0.02 0.03 0.03 0.04 0.05 0.08 0.10 0.16 0.24 0.28 0.31 0.31 0.27
0.00 0.00 0.00 0.00 0.00 0.00 0.00 0.00 0.00 0.00 0.00 0.00 0.00 0.00 0.00 0.00 0.01 0.02 0.02 0.01 0.01 0.00 0.01 0.01 0.01 0.01 0.01 0.01 0.01 0.01 0.02 0.04 0.08 0.12 0.17 0.21 0.25 0.27 0.30 0.31 0.31 0.25 0.16
0.00 0.00 0.00 0.00 0.00 0.00 0.00 0.00 0.00 0.00 0.00 0.00 0.00 0.00 0.00 0.01 0.03 0.04 0.04 0.03 0.03 0.04 0.04 0.03 0.02 0.01 0.01 0.02 0.02 0.02 0.04 0.07 0.13 0.17 0.21 0.25 0.30 0.30 0.26 0.21 0.15 0.08 0.04
0.00 0.00 0.00 0.00 0.00 0.00 0.00 0.00 0.00 0.00 0.00 0.00 0.00 0.00 0.00 0.02 0.03 0.10 0.21 0.12 0.16 0.14 0.18 0.27 0.18 0.14 0.14 0.19 0.11 0.07 0.07 0.10 0.12 0.19 0.22 0.25 0.25 0.18 0.14 0.11 0.07 0.02 0.00
0.00 0.00 0.00 0.00 0.00 0.00 0.00 0.00 0.00 0.00 0.00 0.00 0.00 0.00 0.00 0.00 0.01 0.01 0.08 0.27 0.31 0.18 0.21 0.42 0.56 0.50 0.56 0.53 0.39 0.32 0.23 0.24 0.26 0.27 0.21 0.13 0.09 0.07 0.04 0.01 0.00 0.00 0.00
0.00 0.00 0.00 0.00 0.00 0.00 0.00 0.00 0.00 0.00 0.00 0.00 0.02 0.08 0.05 0.03 0.04 0.07 0.11 0.11 0.15 0.10 0.07 0.08 0.26 0.31 0.32 0.47 0.42 0.37 0.34 0.27 0.16 0.07 0.03 0.01 0.01 0.00 0.00 0.00 0.00 0.00 0.00
0.00 0.00 0.00 0.00 0.00 0.00 0.00 0.00 0.00 0.00 0.00 0.01 0.04 0.04 0.10 0.06 0.11 0.25 0.15 0.14 0.25 0.31 0.22 0.17 0.18 0.14 0.12 0.08 0.06 0.05 0.04 0.02 0.01 0.00 0.00 0.00 0.00 0.00 0.00 0.00 0.00 0.00 0.00
0.00 0.00 0.00 0.00 0.00 0.00 0.00 0.00 0.00 0.00 0.00 0.00 0.01 0.01 0.00 0.02 0.02 0.09 0.13 0.09 0.18 0.31 0.26 0.16 0.12 0.10 0.07 0.03 0.01 0.00 0.00 0.00 0.00 0.00 0.00 0.00 0.00 0.00 0.00 0.00 0.00 0.00 0.00
0.00 0.00 0.00 0.00 0.00 0.00 0.00 0.00 0.00 0.00 0.01 0.02 0.04 0.03 0.07 0.06 0.05 0.10 0.15 0.12 0.07 0.05 0.04 0.03 0.01 0.01 0.00 0.00 0.00 0.00 0.00 0.00 0.00 0.00 0.00 0.00 0.00 0.00 0.00 0.00 0.00 0.00 0.00
0.00 0.00 0.00 0.00 0.00 0.00 0.00 0.00 0.00 0.00 0.00 0.01 0.00 0.01 0.01 0.02 0.03 0.01 0.01 0.00 0.00 0.00 0.00 0.00 0.00 0.00 0.00 0.00 0.00 0.00 0.00 0.00 0.00 0.00 0.00 0.00 0.00 0.00 0.00 0.00 0.00 0.00 0.00
0.00 0.00 0.00 0.00 0.00 0.00 0.00 0.00 0.00 0.00 0.00 0.00 0.00 0.00 0.00 0.00 0.00 0.00 0.00 0.00 0.00 0.00 0.00 0.00 0.00 0.00 0.00 0.00 0.00 0.00 0.00 0.00 0.00 0.00 0.00 0.00 0.00 0.00 0.00 0.00 0.00 0.00 0.00
0.00 0.00 0.00 0.00 0.00 0.00 0.00 0.00 0.00 0.00 0.00 0.00 0.00 0.00 0.00 0.00 0.00 0.00 0.00 0.00 0.00 0.00 0.00 0.00 0.00 0.00 0.00 0.00 0.00 0.00 0.00 0.00 0.00 0.00 0.00 0.00 0.00 0.00 0.00 0.00 0.00 0.00 0.00
0.00 0.00 0.00 0.00 0.00 0.00 0.00 0.00 0.00 0.00 0.00 0.00 0.00 0.00 0.00 0.00 0.00 0.00 0.00 0.00 0.00 0.00 0.00 0.00 0.00 0.00 0.00 0.00 0.00 0.00 0.00 0.00 0.00 0.00 0.00 0.00 0.00 0.00 0.00 0.00 0.00 0.00 0.00
0.00 0.00 0.00 0.00 0.00 0.00 0.00 0.00 0.00 0.00 0.00 0.00 0.00 0.00 0.00 0.00 0.00 0.00 0.00 0.00 0.00 0.00 0.00 0.00 0.00 0.00 0.00 0.00 0.00 0.00 0.00 0.00 0.00 0.00 0.00 0.00 0.00 0.00 0.00 0.00 0.00 0.00 0.00

GFSMW_prec_precacc24_081.txt.gz
Total_Precipitation_Accumulation
0.00 0.00 0.00 0.01 0.01 0.02 0.03 0.01 0.00 0.01 0.01 0.01 0.01 0.02 0.04 0.13 0.06 0.07 0.12 0.14 0.13 0.12 0.05 0.03 0.05 0.04 0.01 0.02 0.01 0.01 0.01 0.01 0.03 0.01 0.00 0.00 0.00 0.00 0.01 0.02 0.01 0.01 0.02
0.00 0.00 0.00 0.00 0.00 0.00 0.00 0.00 0.00 0.00 0.00 0.00 0.00 0.00 0.00 0.00 0.01 0.05 0.10 0.17 0.19 0.22 0.20 0.16 0.11 0.18 0.14 0.07 0.04 0.04 0.07 0.05 0.14 0.14 0.07 0.03 0.01 0.00 0.00 0.00 0.00 0.01 0.01
0.00 0.00 0.00 0.00 0.00 0.00 0.00 0.00 0.00 0.00 0.00 0.00 0.00 0.00 0.00 0.00 0.00 0.00 0.01 0.01 0.05 0.08 0.12 0.15 0.10 0.17 0.16 0.16 0.10 0.08 0.15 0.17 0.21 0.23 0.20 0.05 0.01 0.00 0.00 0.00 0.00 0.01 0.01
0.00 0.00 0.00 0.00 0.00 0.00 0.00 0.00 0.00 0.00 0.00 0.00 0.00 0.00 0.00 0.00 0.00 0.00 0.00 0.00 0.00 0.01 0.09 0.14 0.10 0.10 0.11 0.10 0.15 0.18 0.21 0.28 0.18 0.20 0.17 0.16 0.10 0.07 0.03 0.02 0.04 0.03 0.03
0.00 0.00 0.00 0.00 0.00 0.00 0.00 0.00 0.00 0.00 0.00 0.00 0.00 0.00 0.00 0.00 0.00 0.00 0.00 0.00 0.00 0.02 0.02 0.11 0.13 0.12 0.17 0.22 0.23 0.25 0.24 0.33 0.33 0.28 0.29 0.26 0.19 0.13 0.08 0.05 0.07 0.06 0.04
0.00 0.00 0.00 0.00 0.00 0.00 0.00 0.00 0.00 0.00 0.00 0.00 0.00 0.00 0.00 0.00 0.00 0.00 0.00 0.00 0.00 0.00 0.02 0.04 0.06 0.12 0.12 0.13 0.19 0.26 0.32 0.30 0.36 0.32 0.28 0.29 0.32 0.26 0.21 0.15 0.09 0.10 0.11
0.00 0.00 0.00 0.00 0.00 0.00 0.00 0.00 0.00 0.00 0.00 0.00 0.00 0.00 0.00 0.00 0.00 0.00 0.00 0.00 0.00 0.00 0.00 0.03 0.03 0.05 0.08 0.13 0.16 0.20 0.18 0.23 0.28 0.31 0.31 0.29 0.31 0.32 0.34 0.30 0.27 0.21 0.17
0.00 0.00 0.00 0.00 0.00 0.00 0.00 0.00 0.00 0.00 0.00 0.00 0.00 0.00 0.00 0.00 0.00 0.00 0.00 0.00 0.00 0.00 0.00 0.01 0.01 0.02 0.04 0.08 0.11 0.14 0.16 0.17 0.20 0.27 0.31 0.23 0.18 0.22 0.30 0.36 0.42 0.45 0.44
0.00 0.00 0.00 0.00 0.00 0.00 0.00 0.00 0.00 0.00 0.00 0.00 0.00 0.00 0.00 0.00 0.00 0.00 0.00 0.00 0.00 0.00 0.00 0.00 0.00 0.01 0.02 0.05 0.09 0.12 0.13 0.18 0.21 0.22 0.23 0.22 0.19 0.24 0.27 0.34 0.43 0.61 0.71
0.00 0.00 0.00 0.00 0.00 0.00 0.00 0.00 0.00 0.00 0.00 0.00 0.00 0.00 0.00 0.00 0.00 0.00 0.00 0.00 0.00 0.00 0.00 0.00 0.00 0.00 0.01 0.01 0.03 0.06 0.11 0.17 0.23 0.27 0.33 0.35 0.34 0.31 0.27 0.24 0.26 0.32 0.45
0.00 0.00 0.00 0.00 0.00 0.00 0.00 0.00 0.00 0.00 0.00 0.00 0.00 0.00 0.00 0.00 0.00 0.00 0.00 0.00 0.00 0.00 0.00 0.00 0.00 0.00 0.00 0.01 0.01 0.02 0.04 0.06 0.09 0.15 0.22 0.28 0.26 0.29 0.30 0.36 0.48 0.60 0.67
0.00 0.00 0.00 0.00 0.00 0.00 0.00 0.00 0.00 0.00 0.00 0.00 0.00 0.00 0.00 0.00 0.00 0.00 0.00 0.00 0.00 0.00 0.00 0.00 0.00 0.00 0.00 0.00 0.00 0.02 0.03 0.04 0.06 0.06 0.09 0.13 0.13 0.16 0.17 0.21 0.29 0.39 0.50
0.00 0.00 0.00 0.00 0.00 0.00 0.00 0.00 0.00 0.00 0.00 0.00 0.00 0.00 0.00 0.00 0.00 0.00 0.00 0.00 0.00 0.00 0.00 0.00 0.00 0.00 0.00 0.01 0.01 0.01 0.02 0.03 0.03 0.04 0.05 0.06 0.07 0.10 0.12 0.17 0.24 0.28 0.24
0.00 0.00 0.00 0.00 0.00 0.00 0.00 0.00 0.00 0.00 0.00 0.00 0.00 0.00 0.00 0.00 0.00 0.00 0.00 0.00 0.00 0.00 0.01 0.01 0.01 0.00 0.01 0.01 0.01 0.01 0.02 0.03 0.04 0.06 0.07 0.08 0.11 0.16 0.22 0.25 0.24 0.19 0.12
0.00 0.00 0.00 0.00 0.00 0.00 0.00 0.00 0.00 0.00 0.00 0.00 0.00 0.00 0.00 0.00 0.00 0.00 0.00 0.00 0.01 0.02 0.03 0.02 0.01 0.01 0.01 0.02 0.01 0.01 0.01 0.02 0.03 0.04 0.09 0.14 0.18 0.18 0.16 0.14 0.11 0.07 0.03
0.00 0.00 0.00 0.00 0.00 0.00 0.00 0.00 0.00 0.00 0.00 0.00 0.00 0.00 0.00 0.00 0.00 0.02 0.14 0.07 0.13 0.11 0.15 0.26 0.17 0.13 0.11 0.14 0.06 0.02 0.02 0.04 0.07 0.13 0.14 0.17 0.19 0.14 0.12 0.10 0.07 0.02 0.00
0.00 0.00 0.00 0.00 0.00 0.00 0.00 0.00 0.00 0.00 0.00 0.00 0.00 0.00 0.00 0.00 0.00 0.00 0.05 0.12 0.23 0.18 0.19 0.33 0.47 0.42 0.47 0.43 0.33 0.28 0.20 0.20 0.20 0.17 0.13 0.08 0.07 0.06 0.03 0.01 0.00 0.00 0.00
0.00 0.00 0.00 0.00 0.00 0.00 0.00 0.00 0.00 0.00 0.00 0.00 0.00 0.00 0.00 0.01 0.01 0.03 0.02 0.03 0.11 0.10 0.06 0.06 0.21 0.26 0.26 0.43 0.40 0.34 0.27 0.17 0.08 0.03 0.01 0.01 0.01 0.00 0.00 0.00 0.00 0.00 0.00
0.00 0.00 0.00 0.00 0.00 0.00 0.00 0.00 0.00 0.00 0.00 0.00 0.00 0.00 0.00 0.01 0.02 0.07 0.07 0.09 0.15 0.24 0.17 0.13 0.11 0.06 0.04 0.02 0.01 0.02 0.02 0.01 0.01 0.00 0.00 0.00 0.00 0.00 0.00 0.00 0.00 0.00 0.00
0.00 0.00 0.00 0.00 0.00 0.00 0.00 0.00 0.00 0.00 0.00 0.00 0.00 0.00 0.00 0.00 0.01 0.05 0.08 0.05 0.08 0.13 0.13 0.08 0.03 0.03 0.03 0.02 0.00 0.00 0.00 0.00 0.00 0.00 0.00 0.00 0.00 0.00 0.00 0.00 0.00 0.00 0.00
0.00 0.00 0.00 0.00 0.00 0.00 0.00 0.00 0.00 0.00 0.00 0.00 0.00 0.00 0.01 0.01 0.01 0.02 0.03 0.03 0.01 0.01 0.00 0.00 0.00 0.00 0.00 0.00 0.00 0.00 0.00 0.00 0.00 0.00 0.00 0.00 0.00 0.00 0.00 0.00 0.00 0.00 0.00
0.00 0.00 0.00 0.00 0.00 0.00 0.00 0.00 0.00 0.00 0.00 0.00 0.00 0.00 0.00 0.00 0.00 0.00 0.00 0.00 0.00 0.00 0.00 0.00 0.00 0.00 0.00 0.00 0.00 0.00 0.00 0.00 0.00 0.00 0.00 0.00 0.00 0.00 0.00 0.00 0.00 0.00 0.00
0.00 0.00 0.00 0.00 0.00 0.00 0.00 0.00 0.00 0.00 0.00 0.00 0.00 0.00 0.00 0.00 0.00 0.00 0.00 0.00 0.00 0.00 0.00 0.00 0.00 0.00 0.00 0.00 0.00 0.00 0.00 0.00 0.00 0.00 0.00 0.00 0.00 0.00 0.00 0.00 0.00 0.00 0.00
0.00 0.00 0.00 0.00 0.00 0.00 0.00 0.00 0.00 0.00 0.00 0.00 0.00 0.00 0.00 0.00 0.00 0.00 0.00 0.00 0.00 0.00 0.00 0.00 0.00 0.00 0.00 0.00 0.00 0.00 0.00 0.00 0.00 0.00 0.00 0.00 0.00 0.00 0.00 0.00 0.00 0.00 0.00
0.00 0.00 0.00 0.00 0.00 0.00 0.00 0.00 0.00 0.00 0.00 0.00 0.00 0.00 0.00 0.00 0.00 0.00 0.00 0.00 0.00 0.00 0.00 0.00 0.00 0.00 0.00 0.00 0.00 0.00 0.00 0.00 0.00 0.00 0.00 0.00 0.00 0.00 0.00 0.00 0.00 0.00 0.00
0.00 0.00 0.00 0.00 0.00 0.00 0.00 0.00 0.00 0.00 0.00 0.00 0.00 0.00 0.00 0.00 0.00 0.00 0.00 0.00 0.00 0.00 0.00 0.00 0.00 0.00 0.00 0.00 0.00 0.00 0.00 0.00 0.00 0.00 0.00 0.00 0.00 0.00 0.00 0.00 0.00 0.00 0.00

GFSMW_prec_precacc24_084.txt.gz
Total_Precipitation_Accumulation
0.00 0.00 0.00 0.01 0.07 0.09 0.10 0.14 0.11 0.08 0.04 0.01 0.01 0.02 0.04 0.13 0.05 0.07 0.11 0.12 0.12 0.11 0.03 0.02 0.04 0.04 0.01 0.02 0.01 0.01 0.01 0.01 0.03 0.01 0.00 0.00 0.00 0.00 0.01 0.02 0.01 0.01 0.02
0.00 0.00 0.00 0.00 0.01 0.03 0.08 0.09 0.09 0.07 0.05 0.02 0.00 0.00 0.00 0.00 0.01 0.04 0.10 0.17 0.18 0.22 0.19 0.15 0.10 0.15 0.14 0.07 0.04 0.04 0.07 0.05 0.14 0.14 0.07 0.03 0.01 0.00 0.00 0.00 0.00 0.01 0.01
0.00 0.00 0.00 0.00 0.00 0.00 0.01 0.01 0.02 0.03 0.04 0.04 0.03 0.01 0.00 0.00 0.00 0.00 0.01 0.01 0.05 0.08 0.10 0.11 0.08 0.08 0.13 0.15 0.10 0.08 0.15 0.17 0.21 0.23 0.21 0.05 0.01 0.00 0.00 0.00 0.00 0.01 0.01
0.00 0.00 0.00 0.00 0.00 0.00 0.00 0.00 0.00 0.00 0.01 0.01 0.00 0.00 0.00 0.00 0.00 0.00 0.00 0.00 0.00 0.01 0.06 0.11 0.08 0.07 0.07 0.08 0.13 0.18 0.21 0.28 0.18 0.20 0.17 0.16 0.10 0.07 0.04 0.02 0.04 0.03 0.03
0.00 0.00 0.00 0.00 0.00 0.00 0.00 0.00 0.00 0.00 0.00 0.00 0.00 0.00 0.00 0.00 0.00 0.00 0.00 0.00 0.00 0.01 0.02 0.05 0.08 0.09 0.12 0.16 0.21 0.23 0.22 0.32 0.33 0.27 0.28 0.26 0.19 0.13 0.09 0.06 0.07 0.06 0.04
0.00 0.00 0.00 0.00 0.00 0.00 0.00 0.00 0.00 0.00 0.00 0.00 0.00 0.00 0.00 0.00 0.00 0.00 0.00 0.00 0.00 0.00 0.01 0.01 0.02 0.04 0.05 0.06 0.14 0.19 0.25 0.26 0.34 0.31 0.27 0.28 0.31 0.25 0.21 0.15 0.09 0.11 0.11
0.00 0.00 0.00 0.00 0.00 0.00 0.00 0.00 0.00 0.00 0.00 0.00 0.00 0.00 0.00 0.00 0.00 0.00 0.00 0.00 0.00 0.00 0.00 0.02 0.02 0.03 0.02 0.04 0.06 0.09 0.10 0.17 0.25 0.30 0.29 0.29 0.30 0.32 0.34 0.30 0.27 0.22 0.18
0.00 0.00 0.00 0.00 0.00 0.00 0.00 0.00 0.00 0.00 0.00 0.00 0.00 0.00 0.00 0.00 0.00 0.00 0.00 0.00 0.00 0.00 0.00 0.01 0.00 0.00 0.02 0.04 0.04 0.06 0.07 0.09 0.15 0.23 0.28 0.21 0.17 0.21 0.28 0.33 0.41 0.46 0.44
0.00 0.00 0.00 0.00 0.00 0.00 0.00 0.00 0.00 0.00 0.00 0.00 0.00 0.00 0.00 0.00 0.00 0.00 0.00 0.00 0.00 0.00 0.00 0.00 0.00 0.00 0.01 0.03 0.04 0.05 0.07 0.10 0.13 0.16 0.19 0.21 0.19 0.23 0.28 0.34 0.43 0.60 0.70
0.00 0.00 0.00 0.00 0.00 0.00 0.00 0.00 0.00 0.00 0.00 0.00 0.00 0.00 0.00 0.00 0.00 0.00 0.00 0.00 0.00 0.00 0.00 0.00 0.00 0.00 0.01 0.01 0.02 0.03 0.05 0.09 0.11 0.13 0.19 0.19 0.24 0.27 0.27 0.24 0.26 0.32 0.43
0.00 0.00 0.00 0.00 0.00 0.00 0.00 0.00 0.00 0.00 0.00 0.00 0.00 0.00 0.00 0.00 0.00 0.00 0.00 0.00 0.00 0.00 0.00 0.00 0.00 0.00 0.00 0.00 0.01 0.01 0.03 0.04 0.05 0.07 0.10 0.15 0.16 0.23 0.29 0.36 0.47 0.56 0.62
0.00 0.00 0.00 0.00 0.00 0.00 0.00 0.00 0.00 0.00 0.00 0.00 0.00 0.00 0.00 0.00 0.00 0.00 0.00 0.00 0.00 0.00 0.00 0.00 0.00 0.00 0.00 0.00 0.00 0.01 0.02 0.04 0.05 0.05 0.07 0.10 0.09 0.11 0.11 0.15 0.20 0.28 0.34
0.00 0.00 0.00 0.00 0.00 0.00 0.00 0.00 0.00 0.00 0.00 0.00 0.00 0.00 0.00 0.00 0.00 0.00 0.00 0.00 0.00 0.00 0.00 0.00 0.00 0.00 0.00 0.01 0.01 0.01 0.02 0.03 0.03 0.04 0.04 0.06 0.06 0.07 0.08 0.09 0.12 0.14 0.14
0.00 0.00 0.00 0.00 0.00 0.00 0.00 0.00 0.00 0.00 0.00 0.00 0.00 0.00 0.00 0.00 0.00 0.00 0.00 0.00 0.00 0.00 0.00 0.00 0.01 0.00 0.01 0.01 0.01 0.01 0.02 0.02 0.03 0.03 0.04 0.04 0.04 0.05 0.07 0.10 0.14 0.14 0.09
0.00 0.00 0.00 0.00 0.00 0.00 0.00 0.00 0.00 0.00 0.00 0.00 0.00 0.00 0.00 0.00 0.00 0.00 0.00 0.00 0.00 0.00 0.00 0.00 0.00 0.00 0.00 0.01 0.01 0.01 0.01 0.01 0.02 0.02 0.02 0.06 0.10 0.10 0.10 0.11 0.09 0.05 0.02
0.00 0.00 0.00 0.00 0.00 0.00 0.00 0.00 0.00 0.00 0.00 0.00 0.00 0.00 0.00 0.00 0.00 0.00 0.00 0.00 0.00 0.02 0.03 0.08 0.12 0.10 0.10 0.11 0.05 0.01 0.01 0.02 0.05 0.10 0.12 0.16 0.18 0.14 0.11 0.10 0.06 0.02 0.00
0.00 0.00 0.00 0.00 0.00 0.00 0.00 0.00 0.00 0.00 0.00 0.00 0.00 0.00 0.00 0.00 0.00 0.00 0.00 0.00 0.00 0.05 0.04 0.17 0.27 0.32 0.32 0.29 0.25 0.23 0.16 0.16 0.18 0.17 0.13 0.07 0.06 0.05 0.03 0.01 0.00 0.00 0.00
0.00 0.00 0.00 0.00 0.00 0.00 0.00 0.00 0.00 0.00 0.00 0.00 0.00 0.00 0.00 0.00 0.00 0.00 0.00 0.00 0.00 0.02 0.03 0.01 0.03 0.09 0.15 0.27 0.29 0.30 0.27 0.17 0.08 0.02 0.01 0.01 0.01 0.00 0.00 0.00 0.00 0.00 0.00
0.00 0.00 0.00 0.00 0.00 0.00 0.00 0.00 0.00 0.00 0.00 0.00 0.00 0.00 0.00 0.00 0.00 0.00 0.00 0.00 0.01 0.03 0.04 0.05 0.05 0.02 0.02 0.00 0.00 0.00 0.01 0.01 0.00 0.00 0.00 0.00 0.00 0.00 0.00 0.00 0.00 0.00 0.00
0.00 0.00 0.00 0.00 0.00 0.00 0.00 0.00 0.00 0.00 0.00 0.00 0.00 0.00 0.00 0.00 0.00 0.00 0.00 0.00 0.00 0.01 0.03 0.02 0.00 0.00 0.00 0.00 0.00 0.00 0.00 0.00 0.00 0.00 0.00 0.00 0.00 0.00 0.00 0.00 0.00 0.00 0.00
0.00 0.00 0.00 0.00 0.00 0.00 0.00 0.00 0.00 0.00 0.00 0.00 0.00 0.00 0.00 0.00 0.00 0.00 0.00 0.00 0.00 0.00 0.00 0.00 0.00 0.00 0.00 0.00 0.00 0.00 0.00 0.00 0.00 0.00 0.00 0.00 0.00 0.00 0.00 0.00 0.00 0.00 0.00
0.00 0.00 0.00 0.00 0.00 0.00 0.00 0.00 0.00 0.00 0.00 0.00 0.00 0.00 0.00 0.00 0.00 0.00 0.00 0.00 0.00 0.00 0.00 0.00 0.00 0.00 0.00 0.00 0.00 0.00 0.00 0.00 0.00 0.00 0.00 0.00 0.00 0.00 0.00 0.00 0.00 0.00 0.00
0.00 0.00 0.00 0.00 0.00 0.00 0.00 0.00 0.00 0.00 0.00 0.00 0.00 0.00 0.00 0.00 0.00 0.00 0.00 0.00 0.00 0.00 0.00 0.00 0.00 0.00 0.00 0.00 0.00 0.00 0.00 0.00 0.00 0.00 0.00 0.00 0.00 0.00 0.00 0.00 0.00 0.00 0.00
0.00 0.00 0.00 0.00 0.00 0.00 0.00 0.00 0.00 0.00 0.00 0.00 0.00 0.00 0.00 0.00 0.00 0.00 0.00 0.00 0.00 0.00 0.00 0.00 0.00 0.00 0.00 0.00 0.00 0.00 0.00 0.00 0.00 0.00 0.00 0.00 0.00 0.00 0.00 0.00 0.00 0.00 0.00
0.00 0.00 0.00 0.00 0.01 0.00 0.00 0.00 0.00 0.00 0.00 0.00 0.00 0.00 0.00 0.00 0.00 0.00 0.00 0.00 0.00 0.00 0.00 0.00 0.00 0.00 0.00 0.00 0.00 0.00 0.00 0.00 0.00 0.00 0.00 0.00 0.00 0.00 0.00 0.00 0.00 0.00 0.00
0.00 0.01 0.01 0.01 0.00 0.00 0.00 0.00 0.00 0.00 0.00 0.00 0.00 0.00 0.00 0.00 0.00 0.00 0.00 0.00 0.00 0.00 0.00 0.00 0.00 0.00 0.00 0.00 0.00 0.00 0.00 0.00 0.00 0.00 0.00 0.00 0.00 0.00 0.00 0.00 0.00 0.00 0.00

GFSMW_prec_precacc24_087.txt.gz
Total_Precipitation_Accumulation
0.00 0.00 0.00 0.01 0.07 0.09 0.11 0.19 0.14 0.13 0.06 0.03 0.01 0.03 0.04 0.09 0.05 0.07 0.11 0.12 0.12 0.11 0.03 0.02 0.03 0.04 0.01 0.02 0.01 0.01 0.01 0.01 0.03 0.01 0.00 0.00 0.00 0.00 0.01 0.02 0.01 0.01 0.02
0.00 0.00 0.00 0.00 0.02 0.04 0.09 0.11 0.13 0.15 0.08 0.03 0.01 0.01 0.04 0.03 0.04 0.07 0.10 0.17 0.18 0.22 0.19 0.14 0.09 0.13 0.14 0.07 0.04 0.04 0.07 0.05 0.14 0.14 0.07 0.03 0.01 0.00 0.00 0.00 0.00 0.01 0.01
0.00 0.00 0.00 0.00 0.00 0.00 0.01 0.02 0.04 0.04 0.04 0.08 0.15 0.17 0.12 0.03 0.00 0.00 0.01 0.01 0.04 0.08 0.10 0.11 0.08 0.07 0.13 0.15 0.10 0.08 0.15 0.17 0.22 0.23 0.22 0.05 0.01 0.00 0.00 0.00 0.00 0.01 0.01
0.00 0.00 0.00 0.00 0.00 0.00 0.00 0.00 0.00 0.02 0.06 0.08 0.07 0.07 0.02 0.00 0.02 0.01 0.00 0.00 0.00 0.00 0.02 0.06 0.07 0.06 0.07 0.07 0.12 0.17 0.20 0.27 0.19 0.21 0.17 0.17 0.10 0.08 0.05 0.02 0.04 0.03 0.03
0.00 0.00 0.00 0.00 0.00 0.00 0.00 0.00 0.00 0.00 0.00 0.01 0.01 0.01 0.01 0.01 0.00 0.00 0.00 0.00 0.00 0.01 0.01 0.02 0.05 0.07 0.09 0.11 0.16 0.19 0.19 0.28 0.31 0.26 0.27 0.25 0.20 0.14 0.10 0.06 0.07 0.07 0.04
0.00 0.00 0.00 0.00 0.00 0.00 0.00 0.00 0.00 0.00 0.00 0.00 0.00 0.00 0.00 0.00 0.00 0.00 0.00 0.00 0.00 0.00 0.01 0.01 0.01 0.02 0.02 0.03 0.04 0.09 0.15 0.20 0.29 0.30 0.26 0.27 0.30 0.25 0.20 0.14 0.10 0.11 0.12
0.00 0.00 0.00 0.00 0.00 0.00 0.00 0.00 0.00 0.00 0.00 0.00 0.00 0.00 0.00 0.00 0.00 0.00 0.00 0.00 0.00 0.00 0.00 0.02 0.02 0.01 0.01 0.01 0.02 0.03 0.05 0.11 0.18 0.25 0.27 0.26 0.28 0.30 0.32 0.29 0.26 0.21 0.16
0.00 0.00 0.00 0.00 0.00 0.00 0.00 0.00 0.00 0.00 0.00 0.00 0.00 0.00 0.00 0.00 0.00 0.00 0.00 0.00 0.00 0.00 0.00 0.01 0.00 0.00 0.01 0.02 0.02 0.03 0.04 0.05 0.08 0.16 0.22 0.16 0.14 0.18 0.24 0.25 0.28 0.31 0.32
0.00 0.00 0.00 0.00 0.00 0.00 0.00 0.00 0.00 0.00 0.00 0.00 0.00 0.00 0.00 0.00 0.00 0.00 0.00 0.00 0.00 0.00 0.00 0.00 0.00 0.00 0.00 0.01 0.02 0.03 0.03 0.05 0.07 0.10 0.14 0.14 0.10 0.13 0.15 0.18 0.24 0.36 0.52
0.00 0.00 0.00 0.00 0.00 0.00 0.00 0.00 0.00 0.00 0.00 0.00 0.00 0.00 0.00 0.00 0.00 0.00 0.00 0.00 0.00 0.00 0.00 0.00 0.00 0.00 0.00 0.00 0.01 0.01 0.01 0.04 0.05 0.08 0.12 0.12 0.11 0.11 0.13 0.14 0.16 0.24 0.35
0.00 0.00 0.00 0.00 0.00 0.00 0.00 0.00 0.00 0.00 0.00 0.00 0.00 0.00 0.00 0.00 0.00 0.00 0.00 0.00 0.00 0.00 0.00 0.00 0.00 0.00 0.00 0.00 0.00 0.00 0.01 0.03 0.03 0.05 0.06 0.09 0.08 0.09 0.14 0.24 0.36 0.49 0.54
0.00 0.00 0.00 0.00 0.00 0.00 0.00 0.00 0.00 0.00 0.00 0.00 0.00 0.00 0.00 0.00 0.00 0.00 0.00 0.00 0.00 0.00 0.00 0.00 0.00 0.00 0.00 0.00 0.00 0.01 0.01 0.03 0.03 0.04 0.04 0.06 0.06 0.09 0.09 0.12 0.15 0.20 0.28
0.00 0.00 0.00 0.00 0.00 0.00 0.00 0.00 0.00 0.00 0.00 0.00 0.00 0.00 0.00 0.00 0.00 0.00 0.00 0.00 0.00 0.00 0.00 0.00 0.00 0.00 0.00 0.00 0.00 0.01 0.02 0.02 0.02 0.02 0.03 0.04 0.04 0.06 0.06 0.07 0.09 0.11 0.10
0.00 0.00 0.00 0.00 0.00 0.00 0.00 0.00 0.00 0.00 0.00 0.00 0.00 0.00 0.00 0.00 0.00 0.00 0.00 0.00 0.00 0.00 0.00 0.00 0.00 0.00 0.00 0.00 0.00 0.01 0.01 0.02 0.02 0.02 0.03 0.04 0.03 0.02 0.03 0.06 0.09 0.10 0.07
0.00 0.00 0.00 0.00 0.00 0.00 0.00 0.00 0.00 0.00 0.00 0.00 0.00 0.00 0.00 0.00 0.00 0.00 0.00 0.00 0.00 0.00 0.00 0.00 0.00 0.00 0.00 0.01 0.01 0.01 0.01 0.01 0.01 0.01 0.01 0.03 0.06 0.08 0.10 0.10 0.09 0.04 0.02
0.00 0.00 0.00 0.00 0.00 0.00 0.00 0.00 0.00 0.00 0.00 0.00 0.00 0.00 0.00 0.00 0.00 0.00 0.00 0.00 0.00 0.00 0.00 0.00 0.00 0.00 0.02 0.07 0.04 0.00 0.00 0.01 0.03 0.08 0.11 0.15 0.17 0.13 0.11 0.10 0.06 0.02 0.00
0.00 0.00 0.00 0.00 0.00 0.00 0.00 0.00 0.00 0.00 0.00 0.00 0.00 0.00 0.00 0.00 0.00 0.00 0.00 0.00 0.00 0.00 0.00 0.00 0.00 0.00 0.02 0.06 0.08 0.12 0.11 0.12 0.14 0.13 0.10 0.05 0.05 0.05 0.03 0.01 0.00 0.00 0.00
0.00 0.00 0.00 0.00 0.00 0.00 0.00 0.00 0.00 0.00 0.00 0.00 0.00 0.00 0.00 0.00 0.00 0.00 0.00 0.00 0.00 0.00 0.00 0.00 0.00 0.00 0.01 0.02 0.05 0.08 0.11 0.12 0.06 0.02 0.01 0.01 0.01 0.00 0.00 0.00 0.00 0.00 0.00
0.00 0.00 0.00 0.00 0.00 0.00 0.00 0.00 0.00 0.00 0.00 0.00 0.00 0.00 0.00 0.00 0.00 0.00 0.00 0.00 0.00 0.00 0.00 0.00 0.00 0.00 0.00 0.00 0.00 0.00 0.00 0.00 0.00 0.00 0.00 0.00 0.00 0.00 0.00 0.00 0.00 0.00 0.00
0.00 0.00 0.00 0.00 0.00 0.00 0.00 0.00 0.00 0.00 0.00 0.00 0.00 0.00 0.00 0.00 0.00 0.00 0.00 0.00 0.00 0.00 0.00 0.00 0.00 0.00 0.00 0.00 0.00 0.00 0.00 0.00 0.00 0.00 0.00 0.00 0.00 0.00 0.00 0.00 0.00 0.00 0.00
0.00 0.00 0.00 0.00 0.00 0.00 0.00 0.00 0.00 0.00 0.00 0.00 0.00 0.00 0.00 0.00 0.00 0.00 0.00 0.00 0.00 0.00 0.00 0.00 0.00 0.00 0.00 0.00 0.00 0.00 0.00 0.00 0.00 0.00 0.00 0.00 0.00 0.00 0.00 0.00 0.00 0.00 0.00
0.00 0.00 0.00 0.00 0.00 0.00 0.00 0.00 0.00 0.00 0.00 0.00 0.00 0.00 0.00 0.00 0.00 0.00 0.00 0.00 0.00 0.00 0.00 0.00 0.00 0.00 0.00 0.00 0.00 0.00 0.00 0.00 0.00 0.00 0.00 0.00 0.00 0.00 0.00 0.00 0.00 0.00 0.00
0.00 0.00 0.00 0.00 0.00 0.00 0.00 0.00 0.00 0.00 0.00 0.00 0.00 0.00 0.00 0.00 0.00 0.00 0.00 0.00 0.00 0.00 0.00 0.00 0.00 0.00 0.00 0.00 0.00 0.00 0.00 0.00 0.00 0.00 0.00 0.00 0.00 0.00 0.00 0.00 0.00 0.00 0.00
0.00 0.00 0.00 0.00 0.00 0.00 0.00 0.00 0.00 0.00 0.00 0.00 0.00 0.00 0.00 0.00 0.00 0.00 0.00 0.00 0.00 0.00 0.00 0.00 0.00 0.00 0.00 0.00 0.00 0.00 0.00 0.00 0.00 0.00 0.00 0.00 0.00 0.00 0.00 0.00 0.00 0.00 0.00
0.00 0.00 0.00 0.00 0.01 0.00 0.00 0.00 0.00 0.00 0.00 0.00 0.00 0.00 0.00 0.00 0.00 0.00 0.00 0.00 0.00 0.00 0.00 0.00 0.00 0.00 0.00 0.00 0.00 0.00 0.00 0.00 0.00 0.00 0.00 0.00 0.00 0.00 0.00 0.00 0.00 0.00 0.00
0.00 0.01 0.01 0.01 0.02 0.02 0.01 0.00 0.00 0.00 0.00 0.00 0.00 0.00 0.00 0.00 0.00 0.00 0.00 0.00 0.00 0.00 0.00 0.00 0.00 0.00 0.00 0.00 0.00 0.00 0.00 0.00 0.00 0.00 0.00 0.00 0.00 0.00 0.00 0.00 0.00 0.00 0.00

GFSMW_prec_precacc24_090.txt.gz
Total_Precipitation_Accumulation
0.00 0.00 0.00 0.01 0.07 0.09 0.11 0.19 0.15 0.23 0.12 0.07 0.03 0.06 0.07 0.16 0.08 0.06 0.10 0.12 0.09 0.09 0.02 0.01 0.01 0.02 0.01 0.02 0.01 0.01 0.01 0.01 0.03 0.01 0.00 0.00 0.00 0.00 0.01 0.02 0.01 0.01 0.02
0.00 0.00 0.00 0.00 0.02 0.04 0.10 0.12 0.14 0.20 0.19 0.05 0.10 0.21 0.23 0.19 0.16 0.15 0.15 0.20 0.24 0.22 0.18 0.14 0.08 0.09 0.10 0.05 0.04 0.03 0.05 0.05 0.14 0.14 0.08 0.03 0.01 0.00 0.00 0.00 0.00 0.01 0.01
0.00 0.00 0.00 0.00 0.00 0.00 0.01 0.04 0.10 0.07 0.05 0.13 0.32 0.49 0.41 0.19 0.13 0.16 0.11 0.10 0.04 0.04 0.06 0.09 0.08 0.06 0.10 0.10 0.06 0.05 0.08 0.14 0.20 0.23 0.23 0.06 0.01 0.00 0.00 0.00 0.00 0.01 0.01
0.00 0.00 0.00 0.00 0.00 0.00 0.00 0.00 0.01 0.07 0.18 0.25 0.29 0.17 0.03 0.09 0.15 0.12 0.09 0.06 0.03 0.00 0.00 0.02 0.05 0.05 0.06 0.05 0.08 0.13 0.12 0.19 0.16 0.19 0.16 0.16 0.11 0.08 0.05 0.02 0.04 0.03 0.03
0.00 0.00 0.00 0.00 0.00 0.00 0.01 0.01 0.01 0.01 0.05 0.05 0.03 0.02 0.04 0.09 0.04 0.06 0.03 0.02 0.01 0.01 0.01 0.01 0.03 0.05 0.08 0.09 0.13 0.14 0.15 0.21 0.25 0.23 0.22 0.22 0.19 0.15 0.10 0.06 0.07 0.06 0.04
0.00 0.00 0.00 0.00 0.00 0.00 0.00 0.00 0.00 0.00 0.00 0.01 0.00 0.00 0.00 0.00 0.00 0.01 0.00 0.00 0.00 0.00 0.00 0.01 0.01 0.02 0.02 0.02 0.03 0.07 0.09 0.13 0.18 0.22 0.22 0.23 0.26 0.23 0.18 0.11 0.08 0.10 0.11
0.00 0.00 0.00 0.00 0.00 0.00 0.00 0.00 0.00 0.00 0.00 0.00 0.00 0.00 0.00 0.00 0.00 0.00 0.00 0.00 0.00 0.00 0.00 0.00 0.01 0.01 0.00 0.01 0.01 0.02 0.02 0.06 0.11 0.16 0.19 0.21 0.22 0.25 0.28 0.24 0.23 0.18 0.15
0.00 0.00 0.00 0.00 0.00 0.00 0.00 0.00 0.00 0.00 0.00 0.00 0.00 0.00 0.00 0.00 0.00 0.00 0.00 0.00 0.00 0.00 0.00 0.00 0.00 0.00 0.00 0.00 0.01 0.02 0.02 0.02 0.04 0.09 0.15 0.12 0.11 0.13 0.18 0.20 0.21 0.19 0.16
0.00 0.00 0.00 0.00 0.00 0.00 0.00 0.00 0.00 0.00 0.00 0.00 0.00 0.00 0.00 0.00 0.00 0.00 0.00 0.00 0.00 0.00 0.00 0.00 0.00 0.00 0.00 0.00 0.00 0.01 0.01 0.01 0.02 0.03 0.05 0.07 0.07 0.09 0.12 0.15 0.16 0.19 0.20
0.00 0.00 0.00 0.00 0.00 0.00 0.00 0.00 0.00 0.00 0.00 0.00 0.00 0.00 0.00 0.00 0.00 0.00 0.00 0.00 0.00 0.00 0.00 0.00 0.00 0.00 0.00 0.00 0.00 0.00 0.00 0.00 0.00 0.01 0.02 0.04 0.05 0.07 0.09 0.11 0.12 0.15 0.21
0.00 0.00 0.00 0.00 0.00 0.00 0.00 0.00 0.00 0.00 0.00 0.00 0.00 0.00 0.00 0.00 0.00 0.00 0.00 0.00 0.00 0.00 0.00 0.00 0.00 0.00 0.00 0.00 0.00 0.00 0.00 0.00 0.00 0.00 0.01 0.02 0.02 0.03 0.04 0.07 0.13 0.19 0.25
0.00 0.00 0.00 0.00 0.00 0.00 0.00 0.00 0.01 0.00 0.00 0.00 0.00 0.00 0.00 0.00 0.00 0.00 0.00 0.00 0.00 0.00 0.00 0.00 0.00 0.00 0.00 0.00 0.00 0.00 0.00 0.00 0.01 0.01 0.01 0.02 0.02 0.02 0.03 0.06 0.08 0.11 0.19
0.00 0.00 0.00 0.00 0.00 0.00 0.00 0.00 0.00 0.00 0.00 0.00 0.00 0.00 0.00 0.00 0.00 0.00 0.00 0.00 0.00 0.00 0.00 0.00 0.00 0.00 0.00 0.00 0.00 0.00 0.00 0.01 0.01 0.01 0.01 0.02 0.01 0.01 0.01 0.02 0.03 0.05 0.07
0.00 0.00 0.00 0.00 0.00 0.00 0.00 0.00 0.00 0.00 0.00 0.00 0.00 0.00 0.00 0.00 0.00 0.00 0.00 0.00 0.00 0.00 0.00 0.00 0.00 0.00 0.00 0.00 0.00 0.00 0.00 0.01 0.01 0.01 0.01 0.03 0.02 0.01 0.01 0.02 0.06 0.08 0.06
0.00 0.00 0.00 0.00 0.00 0.00 0.00 0.00 0.00 0.00 0.00 0.00 0.00 0.00 0.00 0.00 0.00 0.00 0.00 0.00 0.00 0.00 0.00 0.00 0.00 0.00 0.00 0.00 0.00 0.00 0.00 0.00 0.01 0.01 0.00 0.01 0.03 0.06 0.08 0.09 0.08 0.04 0.02
0.00 0.00 0.00 0.00 0.00 0.00 0.00 0.00 0.00 0.00 0.00 0.00 0.00 0.00 0.00 0.00 0.00 0.00 0.00 0.00 0.00 0.00 0.00 0.00 0.00 0.00 0.00 0.01 0.01 0.00 0.00 0.00 0.00 0.01 0.03 0.06 0.11 0.08 0.09 0.09 0.06 0.02 0.00
0.00 0.00 0.00 0.00 0.00 0.00 0.00 0.00 0.00 0.00 0.00 0.00 0.00 0.00 0.00 0.00 0.00 0.00 0.00 0.00 0.00 0.00 0.00 0.00 0.00 0.00 0.00 0.02 0.00 0.00 0.00 0.00 0.02 0.01 0.03 0.03 0.02 0.02 0.01 0.01 0.00 0.00 0.00
0.00 0.00 0.00 0.00 0.00 0.00 0.00 0.00 0.00 0.00 0.00 0.00 0.00 0.00 0.00 0.00 0.00 0.00 0.00 0.00 0.00 0.00 0.00 0.00 0.00 0.00 0.00 0.00 0.00 0.00 0.00 0.00 0.00 0.00 0.00 0.00 0.00 0.00 0.00 0.00 0.00 0.00 0.00
0.00 0.00 0.00 0.00 0.00 0.00 0.00 0.00 0.00 0.00 0.00 0.00 0.00 0.00 0.00 0.00 0.00 0.00 0.00 0.00 0.00 0.00 0.00 0.00 0.00 0.00 0.00 0.00 0.00 0.00 0.00 0.00 0.00 0.00 0.00 0.00 0.00 0.00 0.00 0.00 0.00 0.00 0.00
0.00 0.00 0.00 0.00 0.00 0.00 0.00 0.00 0.00 0.00 0.00 0.00 0.00 0.00 0.00 0.00 0.00 0.00 0.00 0.00 0.00 0.00 0.00 0.00 0.00 0.00 0.00 0.00 0.00 0.00 0.00 0.00 0.00 0.00 0.00 0.00 0.00 0.00 0.00 0.00 0.00 0.00 0.00
0.00 0.00 0.00 0.00 0.00 0.00 0.00 0.00 0.00 0.00 0.00 0.00 0.00 0.00 0.00 0.00 0.00 0.00 0.00 0.00 0.00 0.00 0.00 0.00 0.00 0.00 0.00 0.00 0.00 0.00 0.00 0.00 0.00 0.00 0.00 0.00 0.00 0.00 0.00 0.00 0.00 0.00 0.00
0.00 0.00 0.00 0.00 0.00 0.00 0.00 0.00 0.00 0.00 0.00 0.00 0.00 0.00 0.00 0.00 0.00 0.00 0.00 0.00 0.00 0.00 0.00 0.00 0.00 0.00 0.00 0.00 0.00 0.00 0.00 0.00 0.00 0.00 0.00 0.00 0.00 0.00 0.00 0.00 0.00 0.00 0.00
0.00 0.00 0.00 0.00 0.00 0.00 0.00 0.00 0.00 0.00 0.00 0.00 0.00 0.00 0.00 0.00 0.00 0.00 0.00 0.00 0.00 0.00 0.00 0.00 0.00 0.00 0.00 0.00 0.00 0.00 0.00 0.00 0.00 0.00 0.00 0.00 0.00 0.00 0.00 0.00 0.00 0.00 0.00
0.00 0.00 0.00 0.00 0.00 0.00 0.00 0.00 0.00 0.00 0.00 0.00 0.00 0.00 0.00 0.00 0.00 0.00 0.00 0.00 0.00 0.00 0.00 0.00 0.00 0.00 0.00 0.00 0.00 0.00 0.00 0.00 0.00 0.00 0.00 0.00 0.00 0.00 0.00 0.00 0.00 0.00 0.00
0.00 0.00 0.00 0.00 0.01 0.00 0.00 0.00 0.00 0.00 0.00 0.00 0.00 0.00 0.00 0.00 0.00 0.00 0.00 0.00 0.00 0.00 0.00 0.00 0.00 0.00 0.00 0.00 0.00 0.00 0.00 0.00 0.00 0.00 0.00 0.00 0.00 0.00 0.00 0.00 0.00 0.00 0.00
0.00 0.01 0.01 0.01 0.02 0.02 0.01 0.00 0.00 0.00 0.00 0.00 0.00 0.00 0.00 0.00 0.00 0.00 0.00 0.00 0.00 0.00 0.00 0.00 0.00 0.00 0.00 0.00 0.00 0.00 0.00 0.00 0.00 0.00 0.00 0.00 0.00 0.00 0.00 0.00 0.00 0.00 0.00

GFSMW_prec_precacc24_093.txt.gz
Total_Precipitation_Accumulation
0.00 0.00 0.00 0.01 0.07 0.10 0.12 0.19 0.15 0.24 0.12 0.07 0.03 0.06 0.06 0.12 0.07 0.06 0.09 0.07 0.05 0.06 0.02 0.01 0.01 0.02 0.01 0.02 0.01 0.01 0.01 0.01 0.03 0.01 0.00 0.00 0.00 0.00 0.01 0.02 0.01 0.01 0.02
0.00 0.00 0.00 0.00 0.02 0.04 0.11 0.13 0.14 0.20 0.19 0.05 0.11 0.25 0.31 0.34 0.36 0.34 0.37 0.40 0.37 0.29 0.18 0.13 0.08 0.06 0.05 0.04 0.04 0.03 0.03 0.02 0.12 0.14 0.08 0.04 0.01 0.00 0.00 0.00 0.00 0.01 0.01
0.00 0.00 0.00 0.00 0.00 0.00 0.02 0.05 0.12 0.09 0.05 0.15 0.43 0.62 0.57 0.32 0.31 0.36 0.35 0.37 0.25 0.26 0.25 0.18 0.09 0.04 0.03 0.02 0.02 0.05 0.06 0.05 0.11 0.19 0.23 0.06 0.01 0.00 0.00 0.00 0.00 0.01 0.01
0.00 0.00 0.00 0.00 0.00 0.00 0.00 0.00 0.02 0.09 0.20 0.31 0.44 0.31 0.05 0.14 0.28 0.21 0.16 0.12 0.10 0.08 0.08 0.07 0.05 0.04 0.02 0.01 0.03 0.07 0.09 0.12 0.08 0.11 0.13 0.14 0.11 0.09 0.05 0.01 0.03 0.03 0.03
0.00 0.00 0.00 0.00 0.00 0.00 0.01 0.01 0.03 0.03 0.07 0.09 0.07 0.07 0.06 0.12 0.04 0.08 0.06 0.02 0.01 0.01 0.02 0.02 0.02 0.02 0.03 0.03 0.04 0.04 0.06 0.11 0.14 0.13 0.13 0.14 0.13 0.13 0.11 0.05 0.04 0.05 0.04
0.00 0.00 0.00 0.00 0.00 0.00 0.00 0.00 0.01 0.01 0.02 0.09 0.08 0.07 0.07 0.04 0.02 0.07 0.06 0.01 0.00 0.00 0.00 0.00 0.00 0.00 0.01 0.01 0.01 0.02 0.03 0.05 0.07 0.08 0.10 0.13 0.15 0.13 0.12 0.08 0.04 0.05 0.05
0.00 0.00 0.00 0.00 0.00 0.00 0.00 0.00 0.00 0.00 0.01 0.04 0.06 0.04 0.02 0.03 0.02 0.02 0.02 0.00 0.00 0.00 0.00 0.00 0.00 0.00 0.00 0.00 0.01 0.01 0.01 0.02 0.05 0.05 0.08 0.09 0.11 0.15 0.18 0.18 0.18 0.12 0.08
0.00 0.00 0.00 0.00 0.00 0.00 0.00 0.00 0.00 0.00 0.00 0.00 0.02 0.04 0.02 0.01 0.01 0.00 0.00 0.00 0.00 0.00 0.00 0.00 0.00 0.00 0.00 0.00 0.00 0.00 0.01 0.01 0.01 0.03 0.04 0.03 0.03 0.05 0.09 0.11 0.12 0.10 0.09
0.00 0.00 0.00 0.00 0.00 0.00 0.00 0.00 0.00 0.00 0.00 0.00 0.00 0.00 0.00 0.00 0.00 0.00 0.00 0.00 0.00 0.00 0.00 0.00 0.00 0.00 0.00 0.00 0.00 0.00 0.00 0.00 0.00 0.00 0.00 0.01 0.00 0.01 0.03 0.05 0.08 0.13 0.13
0.00 0.00 0.00 0.00 0.00 0.00 0.00 0.00 0.00 0.00 0.00 0.00 0.00 0.00 0.00 0.00 0.00 0.00 0.00 0.00 0.00 0.00 0.00 0.00 0.00 0.00 0.00 0.00 0.00 0.00 0.00 0.00 0.00 0.00 0.00 0.00 0.00 0.01 0.02 0.03 0.03 0.06 0.11
0.00 0.00 0.00 0.00 0.00 0.00 0.00 0.00 0.00 0.00 0.00 0.00 0.00 0.00 0.00 0.00 0.00 0.00 0.00 0.00 0.00 0.00 0.00 0.00 0.00 0.00 0.00 0.00 0.00 0.00 0.00 0.00 0.00 0.00 0.00 0.00 0.00 0.01 0.01 0.01 0.01 0.03 0.03
0.00 0.00 0.00 0.00 0.00 0.00 0.00 0.00 0.01 0.00 0.00 0.00 0.01 0.01 0.00 0.00 0.00 0.00 0.00 0.00 0.00 0.00 0.00 0.00 0.00 0.00 0.00 0.00 0.00 0.00 0.00 0.00 0.00 0.00 0.00 0.00 0.00 0.00 0.01 0.01 0.01 0.01 0.02
0.00 0.00 0.00 0.00 0.00 0.00 0.00 0.00 0.00 0.00 0.00 0.00 0.01 0.01 0.01 0.00 0.00 0.00 0.00 0.00 0.00 0.00 0.00 0.00 0.00 0.00 0.00 0.00 0.00 0.00 0.00 0.00 0.00 0.00 0.00 0.00 0.00 0.00 0.00 0.00 0.00 0.00 0.01
0.00 0.00 0.00 0.00 0.00 0.00 0.00 0.00 0.00 0.00 0.00 0.00 0.00 0.00 0.00 0.00 0.00 0.00 0.00 0.00 0.00 0.00 0.00 0.00 0.00 0.00 0.00 0.00 0.00 0.00 0.00 0.00 0.00 0.00 0.00 0.00 0.00 0.00 0.00 0.00 0.02 0.05 0.04
0.00 0.00 0.00 0.00 0.00 0.00 0.00 0.00 0.00 0.00 0.00 0.00 0.00 0.00 0.00 0.00 0.00 0.00 0.00 0.00 0.00 0.00 0.00 0.00 0.00 0.00 0.00 0.00 0.00 0.00 0.00 0.00 0.00 0.00 0.00 0.00 0.01 0.01 0.01 0.01 0.02 0.02 0.01
0.00 0.00 0.00 0.00 0.00 0.00 0.00 0.00 0.00 0.00 0.00 0.00 0.00 0.00 0.00 0.00 0.00 0.00 0.00 0.00 0.00 0.00 0.00 0.00 0.00 0.00 0.00 0.02 0.01 0.00 0.00 0.00 0.00 0.00 0.00 0.00 0.00 0.00 0.00 0.00 0.00 0.01 0.00
0.00 0.00 0.00 0.00 0.00 0.00 0.00 0.00 0.00 0.00 0.00 0.00 0.00 0.00 0.00 0.00 0.00 0.00 0.00 0.00 0.00 0.00 0.00 0.00 0.00 0.00 0.00 0.02 0.01 0.00 0.00 0.00 0.00 0.00 0.00 0.00 0.00 0.00 0.00 0.00 0.00 0.00 0.00
0.00 0.00 0.00 0.00 0.00 0.00 0.00 0.00 0.00 0.00 0.00 0.00 0.00 0.00 0.00 0.00 0.00 0.00 0.00 0.00 0.00 0.00 0.00 0.00 0.00 0.00 0.00 0.01 0.01 0.00 0.00 0.00 0.00 0.00 0.00 0.00 0.00 0.00 0.00 0.00 0.00 0.00 0.00
0.00 0.00 0.00 0.00 0.00 0.00 0.00 0.00 0.00 0.00 0.00 0.00 0.00 0.00 0.00 0.00 0.00 0.00 0.00 0.00 0.00 0.00 0.00 0.00 0.00 0.00 0.00 0.00 0.00 0.00 0.00 0.00 0.00 0.00 0.00 0.00 0.00 0.00 0.00 0.00 0.00 0.00 0.00
0.00 0.00 0.00 0.00 0.00 0.00 0.00 0.00 0.00 0.00 0.00 0.00 0.00 0.00 0.00 0.00 0.00 0.00 0.00 0.00 0.00 0.00 0.00 0.00 0.00 0.00 0.00 0.00 0.00 0.00 0.00 0.00 0.00 0.00 0.00 0.00 0.00 0.00 0.00 0.00 0.00 0.00 0.00
0.00 0.00 0.00 0.00 0.00 0.00 0.00 0.00 0.00 0.00 0.00 0.00 0.00 0.00 0.00 0.00 0.00 0.00 0.00 0.00 0.00 0.00 0.00 0.00 0.00 0.00 0.00 0.00 0.00 0.00 0.00 0.00 0.00 0.00 0.00 0.00 0.00 0.00 0.00 0.00 0.00 0.00 0.00
0.00 0.00 0.00 0.00 0.00 0.00 0.00 0.00 0.00 0.00 0.00 0.00 0.00 0.00 0.00 0.00 0.00 0.00 0.00 0.00 0.00 0.00 0.00 0.00 0.00 0.00 0.00 0.00 0.00 0.00 0.00 0.00 0.00 0.00 0.00 0.00 0.00 0.00 0.00 0.00 0.00 0.00 0.00
0.00 0.00 0.00 0.00 0.00 0.00 0.00 0.00 0.00 0.00 0.00 0.00 0.00 0.00 0.00 0.00 0.00 0.00 0.00 0.00 0.00 0.00 0.00 0.00 0.00 0.00 0.00 0.00 0.00 0.00 0.00 0.00 0.00 0.00 0.00 0.00 0.00 0.00 0.00 0.00 0.00 0.00 0.00
0.00 0.00 0.00 0.00 0.00 0.00 0.00 0.00 0.00 0.00 0.00 0.00 0.00 0.00 0.00 0.00 0.00 0.00 0.00 0.00 0.00 0.00 0.00 0.00 0.00 0.00 0.00 0.00 0.00 0.00 0.00 0.00 0.00 0.00 0.00 0.00 0.00 0.00 0.00 0.00 0.00 0.00 0.00
0.00 0.00 0.00 0.00 0.01 0.00 0.00 0.00 0.00 0.00 0.00 0.00 0.00 0.00 0.00 0.00 0.00 0.00 0.00 0.00 0.00 0.00 0.00 0.00 0.00 0.00 0.00 0.00 0.00 0.00 0.00 0.00 0.00 0.00 0.00 0.00 0.00 0.00 0.00 0.00 0.00 0.00 0.00
0.00 0.01 0.01 0.01 0.02 0.02 0.01 0.00 0.00 0.00 0.00 0.00 0.00 0.00 0.00 0.00 0.00 0.00 0.00 0.00 0.00 0.00 0.00 0.00 0.00 0.00 0.00 0.00 0.00 0.00 0.00 0.00 0.00 0.00 0.00 0.00 0.00 0.00 0.00 0.00 0.00 0.00 0.00

GFSMW_prec_precacc24_096.txt.gz
Total_Precipitation_Accumulation
0.00 0.00 0.00 0.03 0.13 0.14 0.17 0.20 0.15 0.26 0.12 0.08 0.04 0.06 0.05 0.11 0.05 0.03 0.05 0.03 0.04 0.04 0.01 0.00 0.01 0.01 0.01 0.01 0.01 0.01 0.01 0.00 0.02 0.01 0.00 0.00 0.00 0.00 0.01 0.02 0.01 0.01 0.02
0.00 0.00 0.00 0.00 0.03 0.07 0.15 0.14 0.14 0.20 0.19 0.07 0.12 0.27 0.35 0.36 0.42 0.41 0.43 0.47 0.46 0.37 0.23 0.18 0.14 0.08 0.05 0.06 0.06 0.03 0.02 0.01 0.04 0.09 0.07 0.03 0.00 0.00 0.00 0.00 0.00 0.01 0.01
0.00 0.00 0.00 0.00 0.00 0.02 0.02 0.05 0.13 0.10 0.05 0.15 0.47 0.64 0.61 0.36 0.35 0.42 0.46 0.49 0.42 0.45 0.44 0.35 0.26 0.15 0.09 0.04 0.02 0.02 0.04 0.03 0.04 0.08 0.15 0.05 0.01 0.00 0.00 0.00 0.00 0.00 0.01
0.00 0.00 0.00 0.00 0.00 0.00 0.00 0.00 0.02 0.09 0.21 0.35 0.53 0.32 0.07 0.18 0.29 0.26 0.24 0.21 0.14 0.13 0.17 0.13 0.09 0.05 0.04 0.02 0.01 0.01 0.03 0.05 0.04 0.05 0.06 0.08 0.08 0.08 0.04 0.00 0.00 0.01 0.01
0.00 0.00 0.00 0.00 0.00 0.00 0.01 0.01 0.06 0.06 0.11 0.13 0.14 0.25 0.17 0.16 0.07 0.11 0.12 0.05 0.03 0.06 0.05 0.02 0.01 0.01 0.01 0.00 0.00 0.01 0.02 0.03 0.05 0.05 0.05 0.06 0.06 0.08 0.11 0.05 0.01 0.00 0.00
0.00 0.00 0.00 0.00 0.00 0.00 0.00 0.00 0.04 0.05 0.07 0.17 0.19 0.20 0.13 0.08 0.04 0.10 0.09 0.05 0.02 0.01 0.01 0.00 0.00 0.00 0.00 0.00 0.00 0.01 0.01 0.01 0.02 0.04 0.05 0.06 0.08 0.07 0.07 0.05 0.02 0.02 0.02
0.00 0.00 0.00 0.00 0.00 0.00 0.00 0.00 0.00 0.01 0.06 0.15 0.17 0.17 0.13 0.14 0.16 0.15 0.11 0.08 0.04 0.02 0.00 0.00 0.00 0.00 0.00 0.00 0.01 0.01 0.01 0.02 0.03 0.03 0.03 0.04 0.05 0.05 0.07 0.08 0.05 0.03 0.03
0.00 0.00 0.00 0.00 0.00 0.00 0.00 0.00 0.00 0.00 0.00 0.02 0.06 0.10 0.13 0.15 0.17 0.17 0.11 0.06 0.03 0.02 0.01 0.00 0.00 0.00 0.00 0.00 0.00 0.00 0.00 0.00 0.01 0.01 0.01 0.01 0.01 0.02 0.03 0.03 0.04 0.04 0.03
0.00 0.00 0.00 0.00 0.00 0.00 0.00 0.00 0.00 0.00 0.00 0.00 0.00 0.02 0.04 0.07 0.06 0.04 0.03 0.02 0.01 0.01 0.00 0.00 0.00 0.00 0.00 0.00 0.00 0.00 0.00 0.00 0.00 0.00 0.00 0.00 0.00 0.00 0.01 0.01 0.02 0.04 0.03
0.00 0.00 0.00 0.00 0.00 0.00 0.00 0.00 0.00 0.00 0.00 0.00 0.00 0.00 0.00 0.00 0.01 0.01 0.00 0.00 0.00 0.00 0.00 0.00 0.00 0.00 0.00 0.00 0.00 0.00 0.00 0.00 0.00 0.00 0.00 0.00 0.00 0.00 0.00 0.00 0.00 0.01 0.02
0.00 0.00 0.00 0.00 0.00 0.00 0.00 0.00 0.00 0.00 0.00 0.00 0.00 0.00 0.00 0.00 0.00 0.00 0.00 0.00 0.00 0.00 0.00 0.00 0.00 0.00 0.00 0.00 0.00 0.00 0.00 0.00 0.00 0.00 0.00 0.00 0.00 0.00 0.00 0.00 0.00 0.00 0.00
0.00 0.00 0.00 0.00 0.00 0.00 0.00 0.00 0.01 0.00 0.00 0.00 0.01 0.01 0.01 0.00 0.00 0.00 0.00 0.00 0.00 0.00 0.00 0.00 0.00 0.00 0.00 0.00 0.00 0.00 0.00 0.00 0.00 0.00 0.00 0.00 0.00 0.00 0.00 0.00 0.00 0.00 0.00
0.00 0.00 0.00 0.00 0.00 0.00 0.00 0.00 0.00 0.00 0.00 0.00 0.01 0.01 0.02 0.01 0.01 0.01 0.01 0.01 0.00 0.00 0.00 0.00 0.00 0.00 0.00 0.00 0.00 0.00 0.00 0.00 0.00 0.00 0.00 0.00 0.00 0.00 0.00 0.00 0.00 0.00 0.00
0.00 0.00 0.00 0.00 0.00 0.00 0.00 0.00 0.00 0.00 0.00 0.00 0.00 0.00 0.00 0.01 0.01 0.01 0.00 0.01 0.00 0.00 0.00 0.00 0.00 0.00 0.00 0.00 0.00 0.00 0.00 0.00 0.00 0.00 0.00 0.00 0.00 0.00 0.00 0.00 0.00 0.00 0.00
0.00 0.00 0.00 0.00 0.00 0.00 0.00 0.00 0.00 0.00 0.00 0.00 0.00 0.00 0.00 0.00 0.00 0.00 0.00 0.00 0.00 0.00 0.00 0.00 0.00 0.00 0.00 0.00 0.00 0.00 0.00 0.00 0.00 0.00 0.00 0.00 0.00 0.01 0.00 0.00 0.00 0.00 0.00
0.00 0.00 0.00 0.00 0.00 0.00 0.00 0.00 0.00 0.00 0.00 0.00 0.00 0.00 0.00 0.00 0.00 0.00 0.00 0.00 0.00 0.00 0.00 0.00 0.00 0.00 0.00 0.01 0.01 0.00 0.00 0.00 0.00 0.00 0.00 0.00 0.00 0.00 0.00 0.00 0.00 0.00 0.00
0.00 0.00 0.00 0.00 0.00 0.00 0.00 0.00 0.00 0.00 0.00 0.00 0.00 0.00 0.00 0.00 0.00 0.00 0.00 0.00 0.00 0.00 0.00 0.00 0.00 0.00 0.00 0.02 0.01 0.00 0.00 0.00 0.00 0.00 0.00 0.00 0.00 0.00 0.00 0.00 0.00 0.00 0.00
0.00 0.00 0.00 0.00 0.00 0.00 0.00 0.00 0.00 0.00 0.00 0.00 0.00 0.00 0.00 0.00 0.00 0.00 0.00 0.00 0.00 0.00 0.00 0.00 0.00 0.00 0.00 0.01 0.01 0.01 0.00 0.00 0.00 0.00 0.00 0.00 0.00 0.00 0.00 0.00 0.00 0.00 0.00
0.00 0.00 0.00 0.00 0.00 0.00 0.00 0.00 0.00 0.00 0.00 0.00 0.00 0.00 0.00 0.00 0.00 0.00 0.00 0.00 0.00 0.00 0.00 0.00 0.00 0.00 0.00 0.01 0.00 0.00 0.00 0.00 0.00 0.00 0.00 0.00 0.00 0.00 0.00 0.00 0.00 0.00 0.00
0.00 0.00 0.00 0.00 0.00 0.00 0.00 0.00 0.00 0.00 0.00 0.00 0.00 0.00 0.00 0.00 0.00 0.00 0.00 0.00 0.00 0.00 0.00 0.00 0.00 0.00 0.00 0.00 0.00 0.00 0.00 0.00 0.00 0.00 0.00 0.00 0.00 0.00 0.00 0.00 0.00 0.00 0.00
0.00 0.00 0.00 0.00 0.00 0.00 0.00 0.00 0.00 0.00 0.00 0.00 0.00 0.00 0.00 0.00 0.00 0.00 0.00 0.00 0.00 0.00 0.00 0.00 0.00 0.00 0.00 0.00 0.00 0.00 0.00 0.00 0.00 0.00 0.00 0.00 0.00 0.00 0.00 0.00 0.00 0.00 0.00
0.00 0.00 0.00 0.00 0.00 0.00 0.00 0.00 0.00 0.00 0.00 0.00 0.00 0.00 0.00 0.00 0.00 0.00 0.00 0.00 0.00 0.00 0.00 0.00 0.00 0.00 0.00 0.00 0.00 0.00 0.00 0.00 0.00 0.00 0.00 0.00 0.00 0.00 0.00 0.00 0.00 0.00 0.00
0.00 0.00 0.00 0.00 0.00 0.00 0.00 0.00 0.00 0.00 0.00 0.00 0.00 0.00 0.00 0.00 0.00 0.00 0.00 0.00 0.00 0.00 0.00 0.00 0.00 0.00 0.00 0.00 0.00 0.00 0.00 0.00 0.00 0.01 0.00 0.00 0.00 0.00 0.00 0.00 0.00 0.00 0.00
0.00 0.00 0.00 0.00 0.00 0.00 0.00 0.00 0.00 0.00 0.00 0.00 0.00 0.00 0.00 0.00 0.00 0.00 0.00 0.00 0.00 0.00 0.00 0.00 0.00 0.00 0.00 0.00 0.00 0.00 0.00 0.00 0.00 0.01 0.01 0.00 0.00 0.00 0.00 0.00 0.00 0.00 0.00
0.00 0.00 0.00 0.00 0.01 0.00 0.00 0.00 0.00 0.00 0.00 0.00 0.00 0.00 0.00 0.00 0.00 0.00 0.00 0.00 0.00 0.00 0.00 0.00 0.00 0.00 0.00 0.00 0.00 0.00 0.00 0.00 0.00 0.00 0.00 0.00 0.00 0.00 0.00 0.00 0.00 0.00 0.00
0.00 0.01 0.01 0.01 0.02 0.02 0.01 0.00 0.00 0.00 0.00 0.00 0.00 0.00 0.00 0.00 0.00 0.00 0.00 0.00 0.00 0.00 0.01 0.00 0.00 0.00 0.00 0.00 0.00 0.00 0.00 0.00 0.00 0.00 0.00 0.00 0.00 0.00 0.00 0.00 0.00 0.00 0.00

GFSMW_prec_precacc24_099.txt.gz
Total_Precipitation_Accumulation
0.00 0.01 0.06 0.11 0.24 0.18 0.19 0.24 0.21 0.35 0.24 0.12 0.04 0.06 0.05 0.10 0.04 0.03 0.03 0.02 0.02 0.03 0.01 0.00 0.01 0.01 0.01 0.01 0.00 0.00 0.01 0.00 0.01 0.01 0.01 0.00 0.00 0.00 0.01 0.02 0.01 0.00 0.01
0.00 0.00 0.00 0.02 0.05 0.15 0.27 0.22 0.16 0.24 0.21 0.11 0.16 0.28 0.36 0.38 0.43 0.39 0.40 0.45 0.42 0.33 0.19 0.15 0.13 0.09 0.05 0.07 0.07 0.05 0.01 0.01 0.01 0.06 0.05 0.02 0.00 0.00 0.00 0.00 0.00 0.00 0.00
0.00 0.00 0.00 0.00 0.01 0.03 0.03 0.05 0.14 0.19 0.11 0.16 0.51 0.72 0.66 0.40 0.43 0.42 0.46 0.49 0.46 0.56 0.60 0.55 0.41 0.24 0.11 0.07 0.03 0.03 0.04 0.03 0.01 0.03 0.09 0.04 0.01 0.00 0.00 0.00 0.00 0.00 0.00
0.00 0.00 0.00 0.00 0.00 0.00 0.01 0.02 0.08 0.14 0.27 0.41 0.58 0.35 0.10 0.32 0.32 0.32 0.32 0.27 0.18 0.19 0.26 0.26 0.26 0.24 0.14 0.08 0.03 0.04 0.04 0.04 0.03 0.04 0.03 0.04 0.06 0.07 0.04 0.00 0.00 0.00 0.00
0.00 0.00 0.00 0.00 0.00 0.00 0.01 0.02 0.07 0.11 0.25 0.22 0.25 0.31 0.19 0.20 0.15 0.21 0.27 0.12 0.06 0.09 0.16 0.15 0.15 0.12 0.05 0.02 0.02 0.01 0.02 0.03 0.04 0.03 0.02 0.03 0.04 0.07 0.10 0.05 0.01 0.00 0.00
0.00 0.00 0.00 0.00 0.00 0.00 0.00 0.01 0.06 0.09 0.09 0.24 0.24 0.32 0.25 0.16 0.10 0.16 0.20 0.27 0.30 0.25 0.24 0.14 0.06 0.03 0.01 0.01 0.01 0.01 0.01 0.01 0.02 0.03 0.04 0.04 0.05 0.05 0.04 0.05 0.02 0.01 0.01
0.00 0.00 0.00 0.00 0.00 0.00 0.00 0.00 0.00 0.02 0.09 0.19 0.24 0.27 0.21 0.19 0.20 0.25 0.25 0.28 0.30 0.24 0.14 0.06 0.02 0.00 0.00 0.00 0.01 0.01 0.01 0.02 0.02 0.02 0.02 0.03 0.04 0.04 0.04 0.06 0.05 0.02 0.02
0.00 0.00 0.00 0.00 0.00 0.00 0.00 0.00 0.00 0.00 0.02 0.05 0.08 0.11 0.15 0.17 0.24 0.27 0.24 0.19 0.16 0.11 0.07 0.05 0.03 0.00 0.00 0.00 0.00 0.00 0.00 0.00 0.01 0.01 0.01 0.01 0.01 0.01 0.02 0.03 0.04 0.03 0.03
0.00 0.00 0.00 0.00 0.00 0.00 0.00 0.00 0.00 0.00 0.00 0.00 0.00 0.02 0.06 0.09 0.08 0.08 0.08 0.08 0.07 0.05 0.06 0.05 0.03 0.00 0.00 0.00 0.00 0.00 0.00 0.00 0.00 0.00 0.00 0.00 0.00 0.00 0.01 0.01 0.01 0.04 0.03
0.00 0.00 0.00 0.00 0.00 0.00 0.00 0.00 0.00 0.00 0.00 0.00 0.00 0.00 0.00 0.00 0.01 0.03 0.03 0.03 0.03 0.01 0.00 0.00 0.00 0.00 0.00 0.00 0.00 0.00 0.00 0.00 0.00 0.00 0.00 0.00 0.00 0.00 0.00 0.00 0.00 0.00 0.01
0.00 0.00 0.00 0.00 0.00 0.00 0.00 0.00 0.00 0.00 0.00 0.00 0.00 0.00 0.00 0.00 0.00 0.00 0.00 0.00 0.00 0.00 0.00 0.00 0.00 0.00 0.00 0.00 0.00 0.00 0.00 0.00 0.00 0.00 0.00 0.00 0.00 0.00 0.00 0.00 0.00 0.00 0.00
0.00 0.00 0.00 0.00 0.00 0.00 0.00 0.00 0.01 0.00 0.00 0.00 0.01 0.01 0.01 0.00 0.00 0.00 0.00 0.00 0.00 0.00 0.00 0.00 0.00 0.00 0.00 0.00 0.00 0.00 0.00 0.00 0.00 0.00 0.00 0.00 0.00 0.00 0.00 0.00 0.00 0.00 0.00
0.00 0.00 0.00 0.00 0.00 0.00 0.00 0.00 0.00 0.00 0.00 0.00 0.01 0.01 0.02 0.01 0.01 0.01 0.01 0.01 0.00 0.00 0.00 0.00 0.00 0.00 0.00 0.00 0.00 0.00 0.00 0.00 0.00 0.00 0.00 0.00 0.00 0.00 0.00 0.00 0.00 0.00 0.00
0.00 0.00 0.00 0.00 0.00 0.00 0.00 0.00 0.00 0.00 0.00 0.00 0.00 0.00 0.00 0.01 0.01 0.01 0.00 0.01 0.01 0.00 0.00 0.00 0.00 0.00 0.00 0.00 0.00 0.00 0.00 0.00 0.00 0.00 0.00 0.00 0.00 0.00 0.00 0.00 0.00 0.00 0.00
0.00 0.00 0.00 0.00 0.00 0.00 0.00 0.00 0.00 0.00 0.00 0.00 0.00 0.00 0.00 0.00 0.00 0.00 0.00 0.00 0.00 0.00 0.00 0.00 0.00 0.00 0.00 0.00 0.00 0.00 0.00 0.00 0.00 0.00 0.00 0.00 0.00 0.01 0.00 0.00 0.00 0.00 0.00
0.00 0.00 0.00 0.00 0.00 0.00 0.00 0.00 0.00 0.00 0.00 0.00 0.00 0.00 0.00 0.00 0.00 0.00 0.00 0.00 0.00 0.00 0.00 0.00 0.00 0.00 0.00 0.01 0.01 0.00 0.00 0.00 0.00 0.00 0.00 0.00 0.00 0.00 0.00 0.00 0.00 0.00 0.00
0.00 0.00 0.00 0.00 0.00 0.00 0.00 0.00 0.00 0.00 0.00 0.00 0.00 0.00 0.00 0.00 0.00 0.00 0.00 0.00 0.00 0.00 0.00 0.00 0.00 0.00 0.00 0.02 0.01 0.00 0.00 0.00 0.00 0.00 0.00 0.00 0.00 0.00 0.00 0.00 0.00 0.00 0.00
0.00 0.00 0.00 0.00 0.00 0.00 0.00 0.00 0.00 0.00 0.00 0.00 0.00 0.00 0.00 0.00 0.00 0.00 0.00 0.00 0.00 0.00 0.00 0.00 0.00 0.00 0.00 0.01 0.01 0.01 0.00 0.00 0.00 0.00 0.00 0.00 0.00 0.00 0.00 0.00 0.00 0.00 0.00
0.00 0.00 0.00 0.00 0.00 0.00 0.00 0.00 0.00 0.00 0.00 0.00 0.00 0.00 0.00 0.00 0.00 0.00 0.00 0.00 0.00 0.00 0.00 0.00 0.00 0.00 0.00 0.01 0.01 0.00 0.00 0.00 0.00 0.00 0.00 0.00 0.00 0.00 0.00 0.00 0.00 0.00 0.00
0.00 0.00 0.00 0.00 0.00 0.00 0.00 0.00 0.00 0.00 0.00 0.00 0.00 0.00 0.00 0.00 0.00 0.00 0.00 0.00 0.00 0.00 0.00 0.00 0.00 0.00 0.00 0.00 0.00 0.00 0.00 0.00 0.00 0.00 0.00 0.00 0.00 0.00 0.00 0.00 0.00 0.00 0.00
0.00 0.00 0.00 0.00 0.00 0.00 0.00 0.00 0.00 0.00 0.00 0.00 0.00 0.00 0.00 0.00 0.00 0.00 0.00 0.00 0.00 0.00 0.00 0.00 0.00 0.00 0.00 0.00 0.00 0.00 0.00 0.00 0.00 0.00 0.00 0.00 0.00 0.00 0.00 0.00 0.00 0.00 0.00
0.00 0.00 0.00 0.00 0.00 0.00 0.00 0.00 0.00 0.00 0.00 0.00 0.00 0.00 0.00 0.00 0.00 0.00 0.00 0.00 0.00 0.00 0.00 0.00 0.00 0.00 0.00 0.00 0.00 0.00 0.00 0.00 0.00 0.00 0.00 0.00 0.00 0.00 0.00 0.00 0.00 0.00 0.00
0.00 0.00 0.00 0.00 0.00 0.00 0.00 0.00 0.00 0.00 0.00 0.00 0.00 0.00 0.00 0.00 0.00 0.00 0.00 0.00 0.00 0.00 0.00 0.00 0.00 0.00 0.00 0.00 0.00 0.00 0.00 0.00 0.00 0.01 0.00 0.00 0.00 0.00 0.00 0.00 0.00 0.00 0.00
0.00 0.00 0.00 0.00 0.00 0.00 0.00 0.00 0.00 0.00 0.00 0.00 0.00 0.00 0.00 0.00 0.00 0.00 0.00 0.00 0.00 0.00 0.00 0.00 0.00 0.00 0.00 0.00 0.00 0.00 0.00 0.00 0.00 0.01 0.01 0.00 0.00 0.00 0.00 0.00 0.00 0.00 0.00
0.00 0.00 0.00 0.00 0.01 0.00 0.00 0.00 0.00 0.00 0.00 0.00 0.00 0.00 0.00 0.00 0.00 0.00 0.00 0.00 0.00 0.00 0.00 0.00 0.00 0.00 0.00 0.00 0.00 0.00 0.00 0.00 0.00 0.00 0.00 0.00 0.00 0.00 0.00 0.00 0.00 0.00 0.00
0.00 0.01 0.01 0.01 0.02 0.02 0.01 0.00 0.00 0.00 0.00 0.00 0.00 0.00 0.00 0.00 0.00 0.00 0.00 0.00 0.01 0.00 0.01 0.00 0.00 0.00 0.00 0.00 0.00 0.00 0.00 0.00 0.00 0.00 0.00 0.00 0.00 0.00 0.00 0.00 0.00 0.00 0.00

GFSMW_prec_precacc24_105.txt.gz
Total_Precipitation_Accumulation
0.16 0.27 0.37 0.41 0.41 0.37 0.41 0.51 0.40 0.55 0.82 0.86 0.72 0.44 0.12 0.13 0.05 0.03 0.02 0.03 0.02 0.00 0.00 0.00 0.00 0.00 0.00 0.00 0.00 0.00 0.00 0.00 0.02 0.02 0.01 0.00 0.00 0.00 0.00 0.00 0.00 0.00 0.00
0.03 0.05 0.16 0.30 0.26 0.36 0.58 0.62 0.40 0.40 0.46 0.58 0.82 0.85 0.64 0.55 0.57 0.48 0.42 0.46 0.42 0.27 0.14 0.11 0.11 0.07 0.05 0.07 0.07 0.06 0.04 0.12 0.09 0.14 0.07 0.02 0.00 0.00 0.00 0.00 0.00 0.00 0.00
0.00 0.01 0.03 0.09 0.25 0.27 0.26 0.37 0.46 0.62 0.50 0.59 1.04 1.34 1.37 0.91 0.76 0.71 0.81 0.72 0.58 0.64 0.63 0.56 0.43 0.29 0.17 0.14 0.15 0.16 0.22 0.19 0.12 0.15 0.10 0.03 0.00 0.00 0.00 0.00 0.00 0.00 0.00
0.00 0.00 0.01 0.01 0.02 0.11 0.20 0.23 0.38 0.49 0.56 0.79 0.92 0.90 0.59 0.74 0.87 0.88 1.05 0.74 0.47 0.45 0.43 0.43 0.47 0.50 0.48 0.42 0.33 0.29 0.27 0.17 0.12 0.09 0.08 0.05 0.04 0.04 0.02 0.00 0.00 0.00 0.00
0.00 0.00 0.00 0.00 0.00 0.02 0.02 0.06 0.26 0.38 0.53 0.64 0.74 0.74 0.46 0.43 0.59 0.53 0.51 0.29 0.17 0.20 0.32 0.41 0.57 0.64 0.55 0.38 0.28 0.26 0.32 0.23 0.12 0.08 0.05 0.03 0.04 0.05 0.09 0.04 0.00 0.00 0.00
0.00 0.00 0.00 0.00 0.00 0.00 0.00 0.01 0.07 0.18 0.29 0.49 0.38 0.49 0.46 0.50 0.39 0.36 0.37 0.48 0.45 0.42 0.50 0.55 0.55 0.49 0.47 0.54 0.62 0.63 0.44 0.14 0.04 0.03 0.03 0.03 0.04 0.05 0.04 0.04 0.02 0.01 0.01
0.00 0.00 0.00 0.00 0.00 0.00 0.00 0.00 0.00 0.02 0.14 0.31 0.29 0.32 0.39 0.36 0.30 0.34 0.39 0.43 0.38 0.31 0.24 0.24 0.26 0.31 0.31 0.27 0.17 0.08 0.04 0.02 0.02 0.02 0.02 0.03 0.04 0.03 0.03 0.04 0.03 0.01 0.02
0.00 0.00 0.00 0.00 0.00 0.00 0.00 0.00 0.00 0.00 0.02 0.08 0.15 0.16 0.21 0.21 0.27 0.29 0.28 0.24 0.19 0.16 0.11 0.08 0.06 0.05 0.03 0.01 0.00 0.00 0.00 0.00 0.00 0.01 0.01 0.01 0.01 0.01 0.02 0.02 0.03 0.03 0.02
0.00 0.00 0.00 0.00 0.00 0.00 0.00 0.00 0.00 0.00 0.00 0.00 0.01 0.03 0.08 0.10 0.09 0.09 0.09 0.09 0.08 0.07 0.07 0.07 0.04 0.02 0.00 0.00 0.00 0.00 0.00 0.00 0.00 0.00 0.00 0.00 0.00 0.00 0.00 0.01 0.01 0.04 0.04
0.00 0.00 0.00 0.00 0.00 0.00 0.00 0.00 0.00 0.00 0.00 0.00 0.00 0.00 0.00 0.00 0.02 0.03 0.04 0.05 0.04 0.03 0.02 0.01 0.01 0.00 0.00 0.00 0.00 0.00 0.00 0.00 0.00 0.00 0.00 0.00 0.00 0.00 0.00 0.00 0.00 0.00 0.02
0.00 0.00 0.00 0.00 0.00 0.00 0.00 0.00 0.00 0.00 0.00 0.00 0.00 0.00 0.00 0.00 0.00 0.00 0.00 0.01 0.02 0.02 0.02 0.01 0.00 0.00 0.00 0.00 0.00 0.00 0.00 0.00 0.00 0.00 0.00 0.00 0.00 0.00 0.00 0.00 0.00 0.00 0.00
0.00 0.00 0.00 0.00 0.00 0.00 0.00 0.00 0.01 0.00 0.00 0.00 0.01 0.01 0.01 0.00 0.00 0.00 0.00 0.00 0.00 0.00 0.00 0.00 0.00 0.00 0.00 0.00 0.00 0.00 0.00 0.00 0.00 0.00 0.00 0.00 0.00 0.00 0.00 0.00 0.00 0.00 0.00
0.00 0.00 0.00 0.00 0.00 0.00 0.00 0.00 0.00 0.00 0.00 0.00 0.01 0.01 0.02 0.01 0.01 0.01 0.01 0.01 0.00 0.00 0.00 0.00 0.00 0.00 0.00 0.00 0.00 0.00 0.00 0.00 0.00 0.00 0.00 0.00 0.00 0.00 0.00 0.00 0.00 0.00 0.00
0.00 0.00 0.00 0.00 0.00 0.00 0.00 0.00 0.00 0.00 0.00 0.00 0.00 0.00 0.00 0.01 0.01 0.01 0.00 0.01 0.01 0.00 0.00 0.00 0.00 0.00 0.00 0.00 0.00 0.00 0.00 0.00 0.00 0.00 0.00 0.00 0.00 0.00 0.00 0.00 0.00 0.00 0.00
0.00 0.00 0.00 0.00 0.00 0.00 0.00 0.00 0.00 0.00 0.00 0.00 0.00 0.00 0.00 0.00 0.00 0.00 0.00 0.00 0.00 0.00 0.00 0.00 0.00 0.00 0.00 0.00 0.00 0.00 0.00 0.00 0.00 0.00 0.00 0.00 0.00 0.00 0.00 0.00 0.00 0.00 0.00
0.00 0.00 0.00 0.00 0.00 0.00 0.00 0.00 0.00 0.00 0.00 0.00 0.00 0.00 0.00 0.00 0.00 0.00 0.00 0.00 0.00 0.00 0.00 0.00 0.00 0.00 0.00 0.01 0.01 0.00 0.00 0.00 0.00 0.00 0.00 0.00 0.00 0.00 0.00 0.00 0.00 0.00 0.00
0.00 0.00 0.00 0.00 0.00 0.00 0.00 0.00 0.00 0.00 0.00 0.00 0.00 0.00 0.00 0.00 0.00 0.00 0.00 0.00 0.00 0.00 0.00 0.00 0.00 0.00 0.00 0.02 0.01 0.00 0.00 0.00 0.00 0.00 0.00 0.00 0.00 0.00 0.00 0.00 0.00 0.00 0.00
0.00 0.00 0.00 0.00 0.00 0.00 0.00 0.00 0.00 0.00 0.00 0.00 0.00 0.00 0.00 0.00 0.00 0.00 0.00 0.00 0.00 0.00 0.00 0.00 0.00 0.00 0.00 0.01 0.01 0.01 0.00 0.00 0.00 0.00 0.00 0.00 0.00 0.00 0.00 0.00 0.00 0.00 0.00
0.00 0.00 0.00 0.00 0.00 0.00 0.00 0.00 0.00 0.00 0.00 0.00 0.00 0.00 0.00 0.00 0.00 0.00 0.00 0.00 0.00 0.00 0.00 0.00 0.00 0.00 0.00 0.01 0.01 0.00 0.00 0.00 0.00 0.00 0.00 0.00 0.00 0.00 0.00 0.00 0.00 0.00 0.00
0.00 0.00 0.00 0.00 0.00 0.00 0.00 0.00 0.00 0.00 0.00 0.00 0.00 0.00 0.00 0.00 0.00 0.00 0.00 0.00 0.00 0.00 0.00 0.00 0.00 0.00 0.00 0.00 0.00 0.00 0.00 0.00 0.00 0.00 0.00 0.00 0.00 0.00 0.00 0.00 0.00 0.00 0.00
0.00 0.00 0.00 0.00 0.00 0.00 0.00 0.00 0.00 0.00 0.00 0.00 0.00 0.00 0.00 0.00 0.00 0.00 0.00 0.00 0.00 0.00 0.00 0.00 0.00 0.00 0.00 0.00 0.00 0.00 0.00 0.00 0.00 0.00 0.00 0.00 0.00 0.00 0.00 0.00 0.00 0.00 0.00
0.00 0.00 0.00 0.00 0.00 0.00 0.00 0.00 0.00 0.00 0.00 0.00 0.00 0.00 0.00 0.00 0.00 0.00 0.00 0.00 0.00 0.00 0.00 0.00 0.00 0.00 0.00 0.00 0.00 0.00 0.00 0.00 0.00 0.00 0.00 0.00 0.00 0.00 0.00 0.00 0.00 0.00 0.00
0.00 0.00 0.00 0.00 0.00 0.00 0.00 0.00 0.00 0.00 0.00 0.00 0.00 0.00 0.00 0.00 0.00 0.00 0.00 0.00 0.00 0.00 0.00 0.00 0.00 0.00 0.00 0.00 0.00 0.00 0.00 0.00 0.00 0.01 0.00 0.00 0.00 0.00 0.00 0.00 0.00 0.00 0.00
0.00 0.00 0.00 0.00 0.00 0.00 0.00 0.00 0.00 0.00 0.00 0.00 0.00 0.00 0.00 0.00 0.00 0.00 0.00 0.00 0.00 0.00 0.00 0.00 0.00 0.00 0.00 0.00 0.00 0.00 0.00 0.00 0.00 0.01 0.01 0.00 0.00 0.00 0.00 0.00 0.00 0.00 0.00
0.00 0.00 0.00 0.00 0.01 0.00 0.00 0.00 0.00 0.00 0.00 0.00 0.00 0.00 0.00 0.00 0.00 0.00 0.00 0.00 0.00 0.00 0.00 0.00 0.00 0.00 0.00 0.00 0.00 0.00 0.00 0.00 0.00 0.00 0.00 0.00 0.00 0.00 0.00 0.00 0.00 0.00 0.00
0.00 0.01 0.01 0.01 0.02 0.02 0.01 0.00 0.00 0.00 0.00 0.00 0.00 0.00 0.00 0.00 0.00 0.00 0.00 0.01 0.02 0.01 0.01 0.00 0.00 0.00 0.00 0.00 0.00 0.00 0.00 0.00 0.00 0.00 0.00 0.00 0.00 0.00 0.00 0.00 0.00 0.00 0.00

GFSMW_prec_precacc24_108.txt.gz
Total_Precipitation_Accumulation
0.31 0.46 0.51 0.56 0.51 0.43 0.45 0.46 0.31 0.48 0.80 0.87 0.76 0.48 0.13 0.13 0.05 0.03 0.02 0.03 0.02 0.00 0.00 0.00 0.00 0.00 0.00 0.00 0.00 0.00 0.00 0.00 0.02 0.07 0.05 0.01 0.00 0.00 0.00 0.00 0.00 0.00 0.00
0.10 0.15 0.29 0.53 0.40 0.37 0.54 0.54 0.31 0.34 0.41 0.57 0.85 0.93 0.67 0.57 0.62 0.49 0.43 0.50 0.46 0.31 0.16 0.11 0.11 0.07 0.05 0.07 0.07 0.06 0.04 0.16 0.19 0.23 0.09 0.02 0.00 0.00 0.00 0.00 0.00 0.00 0.00
0.04 0.02 0.04 0.20 0.73 0.41 0.30 0.39 0.47 0.62 0.49 0.58 1.02 1.38 1.48 0.93 0.81 0.76 0.88 0.85 0.71 0.82 0.83 0.69 0.45 0.30 0.17 0.14 0.15 0.17 0.27 0.38 0.21 0.19 0.13 0.04 0.00 0.00 0.00 0.00 0.00 0.00 0.00
0.03 0.03 0.02 0.04 0.12 0.31 0.26 0.28 0.48 0.58 0.59 0.84 0.95 0.93 0.70 0.86 0.91 0.96 1.14 0.90 0.61 0.62 0.64 0.66 0.66 0.62 0.52 0.46 0.42 0.36 0.35 0.28 0.22 0.15 0.09 0.07 0.05 0.03 0.02 0.00 0.00 0.00 0.00
0.01 0.02 0.03 0.05 0.12 0.20 0.11 0.12 0.40 0.62 0.76 0.70 0.80 0.87 0.64 0.55 0.77 0.63 0.58 0.40 0.31 0.35 0.47 0.61 0.77 0.82 0.74 0.62 0.53 0.46 0.50 0.44 0.23 0.11 0.07 0.04 0.04 0.05 0.08 0.03 0.00 0.00 0.00
0.00 0.00 0.01 0.02 0.03 0.09 0.03 0.06 0.14 0.27 0.48 0.75 0.55 0.71 0.74 0.93 0.69 0.54 0.49 0.58 0.54 0.53 0.65 0.77 0.79 0.70 0.62 0.63 0.70 0.75 0.57 0.30 0.13 0.08 0.04 0.03 0.03 0.04 0.04 0.03 0.01 0.01 0.00
0.00 0.00 0.00 0.00 0.00 0.01 0.01 0.01 0.00 0.05 0.22 0.47 0.39 0.48 0.55 0.66 0.58 0.50 0.50 0.55 0.55 0.48 0.37 0.41 0.45 0.44 0.38 0.28 0.19 0.14 0.09 0.05 0.02 0.01 0.01 0.02 0.03 0.02 0.02 0.04 0.02 0.01 0.01
0.00 0.00 0.00 0.00 0.00 0.00 0.00 0.00 0.00 0.01 0.03 0.09 0.19 0.30 0.43 0.32 0.34 0.38 0.38 0.33 0.26 0.27 0.23 0.15 0.09 0.06 0.03 0.01 0.01 0.01 0.01 0.00 0.00 0.01 0.01 0.01 0.01 0.01 0.01 0.01 0.03 0.03 0.02
0.00 0.00 0.00 0.00 0.00 0.00 0.00 0.00 0.00 0.00 0.00 0.00 0.02 0.08 0.16 0.13 0.14 0.14 0.14 0.13 0.12 0.11 0.09 0.07 0.04 0.02 0.00 0.00 0.00 0.00 0.00 0.00 0.00 0.00 0.00 0.00 0.00 0.00 0.00 0.00 0.01 0.04 0.03
0.00 0.00 0.00 0.00 0.00 0.00 0.00 0.00 0.00 0.00 0.00 0.00 0.00 0.01 0.02 0.02 0.03 0.04 0.05 0.05 0.05 0.03 0.02 0.01 0.01 0.00 0.00 0.00 0.00 0.00 0.00 0.00 0.00 0.00 0.00 0.00 0.00 0.00 0.00 0.00 0.00 0.01 0.02
0.00 0.00 0.00 0.00 0.00 0.00 0.00 0.00 0.00 0.00 0.00 0.00 0.00 0.00 0.00 0.00 0.00 0.00 0.00 0.01 0.02 0.02 0.02 0.01 0.00 0.00 0.00 0.00 0.00 0.00 0.00 0.00 0.00 0.00 0.00 0.00 0.00 0.00 0.00 0.00 0.00 0.00 0.01
0.00 0.00 0.00 0.00 0.00 0.00 0.00 0.00 0.01 0.00 0.00 0.00 0.01 0.01 0.01 0.00 0.00 0.00 0.00 0.00 0.00 0.00 0.00 0.00 0.00 0.01 0.00 0.00 0.00 0.00 0.00 0.00 0.00 0.00 0.00 0.00 0.00 0.00 0.00 0.00 0.00 0.00 0.00
0.00 0.00 0.00 0.00 0.00 0.00 0.00 0.00 0.00 0.00 0.00 0.00 0.01 0.01 0.02 0.01 0.01 0.01 0.01 0.01 0.00 0.00 0.00 0.00 0.00 0.00 0.00 0.00 0.00 0.00 0.00 0.00 0.00 0.00 0.00 0.00 0.00 0.00 0.00 0.00 0.00 0.00 0.00
0.00 0.00 0.00 0.00 0.00 0.00 0.00 0.00 0.00 0.00 0.00 0.00 0.00 0.00 0.00 0.01 0.01 0.01 0.00 0.01 0.01 0.00 0.00 0.00 0.00 0.00 0.00 0.00 0.00 0.00 0.00 0.00 0.00 0.00 0.00 0.00 0.00 0.00 0.00 0.00 0.00 0.00 0.00
0.00 0.00 0.00 0.00 0.00 0.00 0.00 0.00 0.00 0.00 0.00 0.00 0.00 0.00 0.00 0.00 0.00 0.00 0.00 0.00 0.00 0.00 0.00 0.00 0.00 0.00 0.00 0.00 0.00 0.00 0.00 0.00 0.00 0.00 0.00 0.00 0.00 0.00 0.00 0.00 0.00 0.00 0.00
0.00 0.00 0.00 0.00 0.00 0.00 0.00 0.00 0.00 0.00 0.00 0.00 0.00 0.00 0.00 0.00 0.00 0.00 0.00 0.00 0.00 0.00 0.00 0.00 0.00 0.00 0.00 0.01 0.00 0.00 0.00 0.00 0.00 0.00 0.00 0.00 0.00 0.00 0.00 0.00 0.00 0.00 0.00
0.00 0.00 0.00 0.00 0.00 0.00 0.00 0.00 0.00 0.00 0.00 0.00 0.00 0.00 0.00 0.00 0.00 0.00 0.00 0.00 0.00 0.00 0.00 0.00 0.00 0.00 0.00 0.01 0.01 0.00 0.00 0.00 0.00 0.00 0.00 0.00 0.00 0.00 0.00 0.01 0.00 0.00 0.00
0.00 0.00 0.00 0.00 0.00 0.00 0.00 0.00 0.00 0.00 0.00 0.00 0.00 0.00 0.00 0.00 0.00 0.00 0.00 0.00 0.00 0.00 0.00 0.00 0.00 0.00 0.00 0.01 0.01 0.01 0.00 0.00 0.00 0.00 0.00 0.00 0.00 0.00 0.00 0.00 0.00 0.00 0.00
0.00 0.00 0.00 0.00 0.00 0.00 0.00 0.00 0.00 0.00 0.00 0.00 0.00 0.00 0.00 0.00 0.00 0.00 0.00 0.00 0.00 0.00 0.00 0.00 0.00 0.00 0.00 0.01 0.01 0.00 0.00 0.00 0.00 0.00 0.00 0.00 0.00 0.00 0.00 0.00 0.00 0.00 0.00
0.00 0.00 0.00 0.00 0.00 0.00 0.00 0.00 0.00 0.00 0.00 0.00 0.00 0.00 0.00 0.00 0.00 0.00 0.00 0.00 0.00 0.00 0.00 0.00 0.00 0.00 0.00 0.00 0.00 0.00 0.00 0.00 0.00 0.00 0.00 0.00 0.00 0.00 0.00 0.00 0.00 0.00 0.00
0.00 0.00 0.00 0.00 0.00 0.00 0.00 0.00 0.00 0.00 0.00 0.00 0.00 0.00 0.00 0.00 0.00 0.00 0.00 0.00 0.00 0.00 0.00 0.00 0.00 0.00 0.00 0.00 0.00 0.00 0.00 0.00 0.00 0.00 0.00 0.00 0.00 0.00 0.00 0.00 0.00 0.00 0.00
0.00 0.00 0.00 0.00 0.00 0.00 0.00 0.00 0.00 0.00 0.00 0.00 0.00 0.00 0.00 0.00 0.00 0.00 0.00 0.00 0.00 0.00 0.00 0.00 0.00 0.00 0.00 0.00 0.00 0.00 0.00 0.00 0.00 0.00 0.00 0.00 0.00 0.00 0.00 0.00 0.00 0.00 0.00
0.00 0.00 0.00 0.00 0.00 0.00 0.00 0.00 0.00 0.00 0.00 0.00 0.00 0.00 0.00 0.00 0.00 0.00 0.00 0.00 0.00 0.00 0.00 0.00 0.00 0.00 0.00 0.00 0.00 0.00 0.00 0.00 0.00 0.01 0.00 0.00 0.00 0.00 0.00 0.00 0.00 0.00 0.00
0.00 0.00 0.00 0.00 0.00 0.00 0.00 0.00 0.00 0.00 0.00 0.00 0.00 0.00 0.00 0.00 0.00 0.00 0.00 0.00 0.00 0.00 0.00 0.00 0.00 0.00 0.00 0.00 0.00 0.00 0.00 0.00 0.00 0.01 0.01 0.00 0.00 0.00 0.00 0.00 0.00 0.00 0.00
0.00 0.00 0.00 0.00 0.00 0.00 0.00 0.00 0.00 0.00 0.00 0.00 0.00 0.00 0.00 0.00 0.00 0.00 0.00 0.00 0.00 0.01 0.00 0.00 0.00 0.00 0.00 0.00 0.00 0.00 0.00 0.00 0.00 0.00 0.00 0.00 0.00 0.00 0.00 0.00 0.00 0.00 0.00
0.00 0.00 0.00 0.00 0.01 0.01 0.01 0.00 0.00 0.00 0.00 0.00 0.00 0.00 0.00 0.00 0.00 0.00 0.00 0.02 0.04 0.05 0.06 0.04 0.03 0.01 0.00 0.00 0.00 0.00 0.00 0.00 0.00 0.00 0.00 0.00 0.00 0.00 0.00 0.00 0.00 0.00 0.00

GFSMW_prec_precacc24_111.txt.gz
Total_Precipitation_Accumulation
0.40 0.49 0.58 0.66 0.63 0.66 1.14 0.66 0.46 0.58 0.83 0.86 0.75 0.46 0.12 0.12 0.05 0.02 0.02 0.03 0.02 0.00 0.00 0.00 0.00 0.00 0.00 0.00 0.00 0.00 0.00 0.00 0.03 0.13 0.08 0.01 0.00 0.00 0.00 0.00 0.00 0.00 0.00
0.22 0.26 0.41 0.65 0.70 0.57 1.13 0.90 0.78 0.40 0.48 0.59 0.85 0.92 0.65 0.56 0.61 0.47 0.42 0.49 0.46 0.31 0.16 0.11 0.14 0.09 0.06 0.07 0.08 0.06 0.04 0.19 0.31 0.28 0.09 0.02 0.00 0.00 0.00 0.00 0.00 0.00 0.00
0.12 0.16 0.15 0.32 1.14 0.93 0.58 0.63 1.01 0.87 0.55 0.60 0.92 1.25 1.39 0.92 0.83 0.78 0.90 0.87 0.72 0.82 0.83 0.69 0.49 0.36 0.25 0.24 0.18 0.17 0.30 0.47 0.26 0.19 0.13 0.05 0.00 0.00 0.00 0.00 0.00 0.00 0.00
0.07 0.12 0.07 0.06 0.20 0.66 0.56 0.51 0.71 0.86 0.71 0.85 0.94 0.90 0.71 0.86 0.90 0.99 1.29 1.02 0.66 0.64 0.67 0.69 0.73 0.69 0.58 0.58 0.48 0.39 0.40 0.34 0.24 0.16 0.10 0.07 0.05 0.04 0.02 0.00 0.00 0.00 0.00
0.08 0.10 0.08 0.09 0.20 0.23 0.17 0.30 0.57 0.79 0.99 0.93 0.87 0.87 0.64 0.55 0.79 0.64 0.59 0.43 0.33 0.36 0.47 0.62 0.83 0.94 0.88 0.77 0.72 0.69 0.77 0.65 0.30 0.14 0.08 0.04 0.04 0.05 0.09 0.02 0.00 0.00 0.00
0.04 0.04 0.06 0.14 0.13 0.17 0.04 0.09 0.28 0.36 0.58 0.92 0.62 0.73 0.76 0.97 0.80 0.62 0.54 0.60 0.55 0.54 0.66 0.79 0.82 0.77 0.77 0.82 0.99 1.03 0.71 0.48 0.24 0.12 0.04 0.03 0.02 0.03 0.03 0.03 0.00 0.00 0.00
0.00 0.01 0.00 0.01 0.06 0.06 0.03 0.03 0.10 0.19 0.30 0.55 0.48 0.51 0.58 0.72 0.82 0.75 0.61 0.64 0.59 0.49 0.39 0.44 0.56 0.59 0.57 0.48 0.39 0.27 0.19 0.15 0.05 0.02 0.02 0.02 0.02 0.02 0.02 0.03 0.02 0.01 0.01
0.00 0.00 0.00 0.00 0.01 0.01 0.01 0.01 0.04 0.17 0.20 0.19 0.30 0.48 0.61 0.44 0.49 0.50 0.45 0.37 0.28 0.29 0.27 0.17 0.13 0.15 0.16 0.14 0.09 0.08 0.04 0.01 0.01 0.02 0.01 0.01 0.00 0.00 0.01 0.01 0.03 0.02 0.02
0.00 0.00 0.00 0.00 0.00 0.00 0.00 0.01 0.04 0.09 0.07 0.08 0.11 0.23 0.39 0.28 0.27 0.26 0.19 0.19 0.17 0.18 0.16 0.13 0.08 0.05 0.10 0.06 0.03 0.01 0.01 0.01 0.00 0.00 0.00 0.00 0.00 0.00 0.00 0.00 0.01 0.04 0.03
0.00 0.00 0.00 0.00 0.00 0.00 0.00 0.00 0.01 0.00 0.02 0.01 0.05 0.07 0.12 0.05 0.11 0.11 0.11 0.10 0.12 0.10 0.06 0.04 0.03 0.05 0.04 0.01 0.00 0.01 0.01 0.01 0.00 0.00 0.00 0.00 0.00 0.00 0.00 0.00 0.00 0.01 0.02
0.00 0.00 0.00 0.00 0.00 0.00 0.00 0.00 0.00 0.00 0.00 0.00 0.00 0.00 0.02 0.03 0.05 0.05 0.04 0.04 0.07 0.05 0.04 0.02 0.02 0.02 0.02 0.00 0.01 0.00 0.00 0.00 0.00 0.00 0.00 0.00 0.00 0.00 0.00 0.00 0.00 0.00 0.01
0.00 0.00 0.00 0.00 0.00 0.00 0.00 0.00 0.01 0.00 0.00 0.00 0.01 0.01 0.01 0.01 0.01 0.01 0.02 0.01 0.02 0.03 0.02 0.02 0.01 0.02 0.01 0.00 0.00 0.00 0.00 0.00 0.00 0.00 0.00 0.00 0.00 0.00 0.00 0.00 0.00 0.00 0.00
0.00 0.00 0.00 0.00 0.00 0.00 0.00 0.00 0.00 0.00 0.00 0.00 0.01 0.01 0.02 0.01 0.01 0.01 0.01 0.01 0.01 0.01 0.01 0.01 0.00 0.01 0.00 0.00 0.00 0.00 0.00 0.00 0.00 0.00 0.00 0.00 0.00 0.00 0.00 0.00 0.00 0.00 0.00
0.00 0.00 0.00 0.00 0.00 0.00 0.00 0.00 0.00 0.00 0.00 0.00 0.00 0.00 0.00 0.01 0.01 0.01 0.00 0.01 0.01 0.00 0.00 0.00 0.00 0.00 0.00 0.00 0.00 0.00 0.00 0.00 0.00 0.00 0.00 0.00 0.00 0.00 0.00 0.00 0.00 0.00 0.00
0.00 0.00 0.00 0.00 0.00 0.00 0.00 0.00 0.00 0.00 0.00 0.00 0.00 0.00 0.00 0.00 0.00 0.00 0.00 0.00 0.00 0.00 0.00 0.00 0.00 0.01 0.01 0.00 0.00 0.00 0.00 0.00 0.00 0.00 0.00 0.00 0.00 0.00 0.00 0.00 0.00 0.00 0.00
0.00 0.00 0.00 0.00 0.00 0.00 0.00 0.00 0.00 0.00 0.00 0.00 0.00 0.00 0.00 0.00 0.00 0.00 0.00 0.00 0.00 0.00 0.00 0.00 0.01 0.01 0.00 0.00 0.00 0.00 0.00 0.00 0.00 0.00 0.00 0.00 0.00 0.00 0.00 0.00 0.00 0.00 0.00
0.00 0.00 0.00 0.00 0.00 0.00 0.00 0.00 0.00 0.00 0.00 0.00 0.00 0.00 0.00 0.00 0.00 0.00 0.00 0.00 0.00 0.00 0.00 0.00 0.00 0.00 0.00 0.01 0.01 0.00 0.00 0.00 0.00 0.00 0.00 0.00 0.00 0.00 0.00 0.01 0.00 0.00 0.00
0.00 0.00 0.00 0.00 0.00 0.00 0.00 0.00 0.00 0.00 0.00 0.00 0.00 0.00 0.00 0.00 0.00 0.00 0.00 0.00 0.00 0.00 0.00 0.00 0.00 0.00 0.00 0.01 0.01 0.01 0.00 0.00 0.00 0.00 0.00 0.00 0.00 0.00 0.00 0.00 0.00 0.00 0.00
0.00 0.00 0.00 0.00 0.00 0.00 0.00 0.00 0.00 0.00 0.00 0.00 0.00 0.00 0.00 0.00 0.00 0.00 0.00 0.00 0.00 0.00 0.00 0.00 0.00 0.00 0.00 0.01 0.01 0.00 0.00 0.00 0.00 0.00 0.00 0.00 0.00 0.00 0.00 0.00 0.00 0.00 0.00
0.00 0.00 0.00 0.00 0.00 0.00 0.00 0.00 0.00 0.00 0.00 0.00 0.00 0.00 0.00 0.00 0.00 0.00 0.00 0.00 0.00 0.00 0.00 0.00 0.00 0.00 0.00 0.00 0.00 0.00 0.00 0.00 0.00 0.00 0.00 0.00 0.00 0.00 0.00 0.00 0.00 0.00 0.00
0.00 0.00 0.00 0.00 0.00 0.00 0.00 0.00 0.00 0.00 0.00 0.00 0.00 0.00 0.00 0.00 0.00 0.00 0.00 0.00 0.00 0.00 0.00 0.00 0.00 0.00 0.00 0.00 0.00 0.00 0.00 0.00 0.00 0.00 0.00 0.00 0.00 0.00 0.00 0.00 0.00 0.00 0.00
0.01 0.00 0.00 0.00 0.00 0.00 0.00 0.00 0.00 0.00 0.00 0.00 0.00 0.00 0.00 0.00 0.00 0.00 0.00 0.00 0.00 0.00 0.00 0.00 0.00 0.00 0.00 0.00 0.00 0.00 0.00 0.00 0.00 0.00 0.00 0.00 0.00 0.00 0.00 0.00 0.00 0.00 0.00
0.00 0.00 0.00 0.00 0.00 0.00 0.00 0.00 0.00 0.00 0.00 0.00 0.00 0.00 0.00 0.00 0.00 0.00 0.00 0.00 0.00 0.00 0.00 0.00 0.00 0.00 0.00 0.00 0.00 0.00 0.00 0.00 0.00 0.01 0.00 0.00 0.00 0.00 0.00 0.00 0.00 0.00 0.00
0.00 0.00 0.00 0.00 0.00 0.00 0.00 0.00 0.00 0.00 0.00 0.00 0.00 0.00 0.00 0.00 0.00 0.00 0.00 0.00 0.00 0.00 0.00 0.00 0.00 0.00 0.00 0.00 0.00 0.00 0.00 0.00 0.00 0.01 0.01 0.00 0.00 0.00 0.00 0.00 0.00 0.00 0.00
0.00 0.00 0.00 0.00 0.00 0.00 0.00 0.00 0.00 0.00 0.00 0.00 0.00 0.00 0.00 0.00 0.00 0.00 0.00 0.00 0.00 0.01 0.00 0.00 0.00 0.00 0.00 0.00 0.00 0.00 0.00 0.00 0.00 0.00 0.00 0.00 0.00 0.00 0.00 0.00 0.00 0.00 0.00
0.00 0.00 0.00 0.00 0.00 0.00 0.00 0.00 0.00 0.00 0.00 0.00 0.00 0.00 0.00 0.00 0.00 0.00 0.00 0.02 0.05 0.07 0.08 0.07 0.05 0.03 0.03 0.02 0.02 0.01 0.00 0.00 0.00 0.00 0.00 0.00 0.00 0.00 0.00 0.00 0.00 0.00 0.00

GFSMW_prec_precacc24_114.txt.gz
Total_Precipitation_Accumulation
0.53 0.50 0.59 0.67 0.64 0.68 1.61 1.15 1.28 0.73 0.79 0.84 0.76 0.44 0.10 0.05 0.02 0.01 0.02 0.03 0.02 0.00 0.00 0.00 0.00 0.00 0.00 0.00 0.00 0.00 0.00 0.00 0.03 0.13 0.08 0.01 0.00 0.00 0.00 0.00 0.00 0.00 0.00
0.32 0.27 0.41 0.66 0.72 0.60 1.45 1.83 1.49 0.78 0.40 0.57 0.76 0.73 0.46 0.40 0.49 0.39 0.37 0.42 0.38 0.27 0.14 0.11 0.14 0.10 0.06 0.07 0.08 0.07 0.04 0.19 0.31 0.28 0.09 0.02 0.00 0.00 0.00 0.00 0.00 0.00 0.00
0.15 0.21 0.20 0.39 1.20 0.98 0.73 1.37 1.99 1.70 0.82 0.67 0.79 0.95 1.12 0.77 0.71 0.62 0.80 0.79 0.69 0.83 0.83 0.69 0.49 0.37 0.26 0.26 0.22 0.22 0.32 0.52 0.28 0.19 0.12 0.05 0.00 0.00 0.00 0.00 0.00 0.00 0.00
0.18 0.17 0.16 0.16 0.37 0.80 0.71 0.76 1.29 1.88 1.38 1.06 0.99 1.00 0.79 0.81 0.77 0.89 1.21 0.97 0.65 0.67 0.73 0.77 0.82 0.80 0.70 0.72 0.66 0.53 0.51 0.48 0.36 0.18 0.10 0.06 0.04 0.03 0.02 0.00 0.00 0.00 0.00
0.12 0.12 0.11 0.13 0.29 0.27 0.25 0.37 0.80 1.17 1.53 1.36 1.20 1.01 0.73 0.54 0.80 0.58 0.56 0.42 0.34 0.36 0.49 0.67 0.89 0.99 0.92 0.81 0.83 0.78 0.87 0.94 0.66 0.32 0.09 0.03 0.03 0.04 0.08 0.02 0.00 0.00 0.00
0.16 0.10 0.08 0.21 0.27 0.21 0.04 0.12 0.37 0.54 0.79 1.23 0.89 0.84 0.79 1.01 0.84 0.63 0.54 0.61 0.57 0.55 0.66 0.79 0.84 0.81 0.80 0.83 1.00 1.07 0.90 0.69 0.47 0.40 0.13 0.02 0.01 0.01 0.02 0.02 0.00 0.00 0.00
0.04 0.06 0.04 0.07 0.16 0.11 0.03 0.03 0.11 0.24 0.40 0.71 0.66 0.59 0.63 0.75 0.83 0.75 0.61 0.65 0.61 0.51 0.39 0.44 0.57 0.60 0.58 0.51 0.42 0.30 0.26 0.27 0.20 0.18 0.08 0.01 0.01 0.00 0.00 0.01 0.01 0.01 0.01
0.00 0.02 0.04 0.09 0.15 0.17 0.07 0.01 0.05 0.17 0.21 0.25 0.38 0.52 0.64 0.47 0.49 0.50 0.45 0.38 0.31 0.32 0.31 0.19 0.16 0.16 0.17 0.16 0.10 0.13 0.09 0.05 0.04 0.04 0.04 0.03 0.01 0.00 0.00 0.01 0.02 0.02 0.02
0.00 0.00 0.00 0.00 0.01 0.04 0.06 0.07 0.05 0.12 0.09 0.12 0.26 0.35 0.43 0.34 0.34 0.38 0.26 0.20 0.18 0.19 0.19 0.17 0.13 0.08 0.16 0.17 0.12 0.08 0.08 0.05 0.03 0.03 0.04 0.04 0.02 0.00 0.00 0.00 0.01 0.04 0.03
0.00 0.00 0.00 0.00 0.00 0.00 0.02 0.10 0.14 0.14 0.14 0.15 0.13 0.16 0.23 0.11 0.29 0.31 0.24 0.23 0.16 0.17 0.16 0.12 0.14 0.14 0.15 0.20 0.18 0.11 0.07 0.05 0.03 0.03 0.02 0.00 0.00 0.00 0.00 0.00 0.00 0.01 0.02
0.00 0.00 0.00 0.00 0.00 0.00 0.00 0.00 0.02 0.05 0.07 0.16 0.10 0.12 0.13 0.05 0.13 0.17 0.10 0.15 0.23 0.11 0.11 0.16 0.15 0.10 0.10 0.09 0.09 0.05 0.04 0.01 0.01 0.01 0.00 0.00 0.00 0.00 0.00 0.00 0.00 0.00 0.01
0.00 0.00 0.00 0.00 0.00 0.00 0.00 0.00 0.00 0.00 0.00 0.11 0.05 0.05 0.04 0.02 0.07 0.06 0.04 0.03 0.06 0.07 0.04 0.04 0.06 0.07 0.07 0.04 0.03 0.01 0.01 0.01 0.01 0.00 0.00 0.00 0.00 0.00 0.00 0.00 0.00 0.00 0.00
0.00 0.00 0.00 0.00 0.00 0.00 0.00 0.00 0.00 0.00 0.00 0.07 0.10 0.05 0.05 0.06 0.06 0.07 0.07 0.05 0.03 0.02 0.03 0.05 0.04 0.04 0.03 0.02 0.01 0.01 0.01 0.00 0.00 0.00 0.00 0.00 0.00 0.00 0.00 0.00 0.00 0.00 0.00
0.00 0.00 0.00 0.00 0.00 0.00 0.00 0.00 0.00 0.00 0.00 0.03 0.04 0.03 0.04 0.05 0.05 0.05 0.02 0.02 0.02 0.01 0.00 0.00 0.00 0.00 0.01 0.01 0.01 0.01 0.01 0.00 0.00 0.00 0.00 0.00 0.00 0.00 0.00 0.00 0.00 0.00 0.00
0.00 0.00 0.00 0.00 0.00 0.00 0.00 0.00 0.00 0.00 0.00 0.00 0.01 0.01 0.00 0.00 0.00 0.00 0.00 0.00 0.00 0.00 0.00 0.00 0.00 0.01 0.01 0.01 0.01 0.01 0.01 0.00 0.00 0.00 0.00 0.00 0.00 0.00 0.00 0.00 0.00 0.00 0.00
0.00 0.00 0.00 0.00 0.00 0.00 0.00 0.00 0.00 0.00 0.00 0.00 0.00 0.01 0.00 0.00 0.00 0.00 0.00 0.00 0.00 0.00 0.00 0.00 0.01 0.01 0.01 0.01 0.01 0.01 0.00 0.00 0.00 0.00 0.00 0.00 0.00 0.00 0.00 0.00 0.00 0.00 0.00
0.00 0.00 0.00 0.00 0.00 0.00 0.00 0.00 0.00 0.00 0.00 0.00 0.00 0.00 0.00 0.00 0.00 0.00 0.00 0.00 0.00 0.00 0.00 0.00 0.00 0.00 0.00 0.01 0.01 0.00 0.00 0.00 0.00 0.00 0.00 0.00 0.00 0.00 0.00 0.01 0.00 0.00 0.00
0.00 0.00 0.00 0.00 0.00 0.00 0.00 0.00 0.00 0.00 0.00 0.00 0.00 0.00 0.00 0.00 0.00 0.00 0.00 0.00 0.00 0.00 0.00 0.00 0.00 0.00 0.00 0.01 0.01 0.01 0.00 0.00 0.00 0.00 0.00 0.00 0.00 0.00 0.00 0.00 0.00 0.00 0.00
0.00 0.00 0.00 0.00 0.00 0.00 0.00 0.00 0.00 0.00 0.00 0.00 0.00 0.00 0.00 0.00 0.00 0.00 0.00 0.00 0.00 0.00 0.00 0.00 0.00 0.00 0.00 0.01 0.01 0.00 0.00 0.00 0.00 0.00 0.00 0.00 0.00 0.00 0.00 0.00 0.00 0.00 0.00
0.00 0.00 0.00 0.00 0.00 0.00 0.00 0.00 0.00 0.00 0.00 0.00 0.00 0.00 0.00 0.00 0.00 0.00 0.00 0.00 0.00 0.00 0.00 0.00 0.00 0.00 0.00 0.00 0.00 0.00 0.00 0.00 0.00 0.00 0.00 0.00 0.00 0.00 0.00 0.00 0.00 0.00 0.00
0.00 0.00 0.00 0.00 0.00 0.00 0.00 0.00 0.00 0.00 0.00 0.00 0.00 0.00 0.00 0.00 0.00 0.00 0.00 0.00 0.00 0.00 0.00 0.00 0.00 0.00 0.00 0.00 0.00 0.00 0.00 0.00 0.00 0.00 0.00 0.00 0.00 0.00 0.00 0.00 0.00 0.00 0.00
0.01 0.00 0.00 0.00 0.00 0.00 0.00 0.00 0.00 0.00 0.00 0.00 0.00 0.00 0.00 0.00 0.00 0.00 0.00 0.00 0.00 0.00 0.00 0.00 0.00 0.00 0.00 0.00 0.00 0.00 0.00 0.00 0.00 0.00 0.00 0.00 0.00 0.00 0.00 0.00 0.00 0.00 0.00
0.00 0.00 0.00 0.00 0.00 0.00 0.00 0.00 0.00 0.00 0.00 0.00 0.00 0.00 0.00 0.00 0.00 0.00 0.00 0.00 0.00 0.00 0.00 0.00 0.00 0.00 0.00 0.00 0.00 0.00 0.00 0.00 0.00 0.01 0.00 0.00 0.00 0.00 0.00 0.00 0.00 0.00 0.00
0.00 0.00 0.00 0.00 0.00 0.00 0.00 0.00 0.00 0.00 0.00 0.00 0.00 0.00 0.00 0.00 0.00 0.00 0.00 0.00 0.00 0.00 0.00 0.00 0.00 0.00 0.00 0.00 0.00 0.00 0.00 0.00 0.00 0.01 0.01 0.00 0.00 0.00 0.00 0.00 0.00 0.00 0.00
0.00 0.00 0.00 0.00 0.00 0.00 0.00 0.00 0.00 0.00 0.00 0.00 0.00 0.00 0.00 0.00 0.00 0.00 0.00 0.00 0.00 0.01 0.00 0.00 0.00 0.00 0.00 0.00 0.00 0.00 0.00 0.00 0.00 0.00 0.00 0.00 0.00 0.00 0.00 0.00 0.00 0.00 0.00
0.00 0.00 0.00 0.00 0.00 0.00 0.00 0.00 0.00 0.00 0.00 0.00 0.00 0.00 0.00 0.00 0.00 0.00 0.00 0.02 0.05 0.07 0.08 0.07 0.05 0.04 0.03 0.03 0.03 0.03 0.02 0.01 0.00 0.00 0.00 0.00 0.00 0.00 0.00 0.00 0.00 0.00 0.00

GFSMW_prec_precacc24_120.txt.gz
Total_Precipitation_Accumulation
0.75 0.67 0.70 0.78 0.78 0.90 2.07 1.80 1.98 1.42 1.41 1.04 0.84 0.53 0.19 0.08 0.02 0.00 0.00 0.02 0.01 0.00 0.00 0.00 0.00 0.00 0.00 0.00 0.00 0.00 0.00 0.00 0.03 0.13 0.08 0.01 0.00 0.00 0.00 0.03 0.03 0.01 0.00
0.51 0.41 0.52 0.80 0.82 0.69 1.52 2.11 1.83 1.35 0.88 0.97 0.88 0.73 0.47 0.30 0.24 0.12 0.07 0.10 0.08 0.04 0.03 0.01 0.04 0.04 0.03 0.02 0.04 0.04 0.04 0.19 0.31 0.26 0.07 0.01 0.00 0.00 0.02 0.04 0.02 0.01 0.00
0.25 0.34 0.33 0.47 1.29 1.01 0.76 1.43 2.13 2.11 1.13 1.13 0.99 1.03 1.04 0.72 0.57 0.39 0.46 0.40 0.31 0.41 0.41 0.36 0.25 0.23 0.18 0.22 0.23 0.24 0.35 0.52 0.28 0.19 0.10 0.04 0.00 0.00 0.01 0.03 0.03 0.01 0.00
0.39 0.29 0.27 0.21 0.46 0.89 0.76 0.81 1.40 2.32 1.82 1.34 1.27 1.23 0.89 0.79 0.70 0.77 1.07 0.82 0.55 0.56 0.56 0.64 0.74 0.78 0.70 0.74 0.74 0.65 0.72 0.60 0.50 0.37 0.14 0.05 0.03 0.02 0.01 0.00 0.00 0.00 0.00
0.31 0.25 0.25 0.34 0.39 0.44 0.47 0.49 0.92 1.43 2.11 1.74 1.60 1.32 0.98 0.74 0.90 0.57 0.49 0.40 0.33 0.30 0.44 0.64 0.88 1.00 0.94 0.87 0.93 0.91 1.04 1.15 0.93 0.67 0.31 0.12 0.03 0.02 0.03 0.01 0.00 0.00 0.00
0.52 0.35 0.20 0.36 0.35 0.28 0.18 0.31 0.69 0.88 1.32 1.72 1.15 1.13 1.06 1.28 1.26 0.75 0.50 0.58 0.56 0.56 0.65 0.78 0.84 0.82 0.81 0.86 1.04 1.11 0.94 0.78 0.59 0.56 0.32 0.13 0.05 0.02 0.01 0.01 0.00 0.00 0.00
0.45 0.31 0.18 0.12 0.18 0.13 0.07 0.18 0.44 0.96 0.75 1.34 0.90 0.75 0.78 0.78 0.94 1.03 0.84 0.69 0.61 0.54 0.43 0.44 0.58 0.61 0.59 0.54 0.45 0.31 0.28 0.29 0.24 0.26 0.22 0.10 0.05 0.03 0.02 0.01 0.00 0.00 0.00
0.58 0.57 0.44 0.34 0.28 0.22 0.11 0.08 0.28 0.85 0.74 0.77 0.73 0.69 0.78 0.57 0.45 0.50 0.54 0.64 0.56 0.51 0.48 0.26 0.20 0.27 0.28 0.18 0.11 0.15 0.11 0.07 0.08 0.17 0.20 0.20 0.14 0.06 0.03 0.02 0.03 0.02 0.00
0.23 0.53 0.46 0.42 0.34 0.15 0.13 0.15 0.18 0.29 0.37 0.49 0.57 0.51 0.54 0.44 0.47 0.49 0.35 0.27 0.30 0.33 0.30 0.25 0.18 0.18 0.22 0.18 0.14 0.11 0.17 0.16 0.13 0.18 0.18 0.15 0.14 0.10 0.05 0.04 0.04 0.04 0.03
0.00 0.02 0.10 0.07 0.07 0.06 0.12 0.29 0.42 0.34 0.27 0.39 0.35 0.32 0.39 0.23 0.42 0.47 0.41 0.36 0.25 0.26 0.23 0.17 0.16 0.17 0.19 0.22 0.20 0.23 0.23 0.20 0.19 0.13 0.16 0.16 0.12 0.09 0.06 0.04 0.02 0.01 0.02
0.00 0.00 0.00 0.00 0.00 0.00 0.01 0.10 0.41 0.40 0.28 0.38 0.40 0.47 0.39 0.21 0.37 0.42 0.27 0.28 0.36 0.19 0.16 0.23 0.22 0.17 0.17 0.18 0.21 0.18 0.28 0.22 0.12 0.11 0.11 0.09 0.08 0.04 0.02 0.01 0.00 0.00 0.01
0.00 0.00 0.00 0.00 0.00 0.00 0.00 0.00 0.11 0.33 0.24 0.31 0.36 0.49 0.46 0.50 0.43 0.39 0.35 0.18 0.20 0.24 0.16 0.14 0.16 0.20 0.20 0.25 0.26 0.18 0.25 0.39 0.34 0.18 0.14 0.08 0.02 0.00 0.00 0.00 0.00 0.00 0.00
0.00 0.00 0.00 0.00 0.00 0.00 0.00 0.00 0.00 0.04 0.14 0.25 0.32 0.46 0.70 0.71 0.60 0.56 0.62 0.66 0.32 0.18 0.17 0.22 0.19 0.16 0.17 0.14 0.12 0.10 0.10 0.12 0.15 0.08 0.06 0.02 0.01 0.00 0.00 0.00 0.00 0.00 0.00
0.00 0.00 0.00 0.00 0.00 0.00 0.00 0.00 0.00 0.01 0.09 0.17 0.20 0.27 0.51 0.40 0.44 0.35 0.21 0.26 0.29 0.29 0.22 0.21 0.23 0.14 0.09 0.09 0.07 0.04 0.04 0.04 0.03 0.02 0.03 0.02 0.01 0.00 0.00 0.00 0.00 0.00 0.00
0.00 0.00 0.00 0.00 0.00 0.00 0.00 0.00 0.00 0.00 0.00 0.05 0.06 0.06 0.06 0.07 0.09 0.11 0.09 0.07 0.07 0.08 0.09 0.09 0.09 0.10 0.08 0.06 0.05 0.02 0.02 0.03 0.03 0.01 0.01 0.00 0.00 0.00 0.00 0.00 0.00 0.00 0.00
0.00 0.00 0.00 0.00 0.00 0.00 0.00 0.00 0.00 0.00 0.00 0.00 0.00 0.01 0.01 0.01 0.00 0.00 0.00 0.00 0.00 0.00 0.00 0.00 0.01 0.01 0.01 0.02 0.01 0.01 0.01 0.01 0.01 0.01 0.01 0.00 0.00 0.00 0.00 0.00 0.00 0.00 0.00
0.00 0.00 0.00 0.00 0.00 0.00 0.00 0.00 0.00 0.00 0.00 0.00 0.00 0.00 0.00 0.00 0.00 0.01 0.01 0.01 0.00 0.00 0.00 0.00 0.00 0.00 0.00 0.00 0.00 0.00 0.00 0.00 0.00 0.00 0.00 0.00 0.00 0.00 0.00 0.01 0.00 0.00 0.00
0.00 0.00 0.00 0.00 0.00 0.00 0.00 0.00 0.00 0.00 0.00 0.00 0.00 0.00 0.00 0.00 0.00 0.00 0.00 0.00 0.00 0.00 0.00 0.00 0.00 0.00 0.00 0.00 0.00 0.00 0.00 0.00 0.00 0.00 0.00 0.00 0.00 0.00 0.00 0.00 0.00 0.00 0.00
0.00 0.00 0.00 0.00 0.00 0.00 0.00 0.00 0.00 0.00 0.00 0.00 0.00 0.00 0.00 0.00 0.00 0.00 0.00 0.00 0.00 0.00 0.00 0.00 0.00 0.00 0.00 0.00 0.00 0.00 0.00 0.00 0.00 0.00 0.00 0.00 0.00 0.00 0.00 0.00 0.00 0.00 0.00
0.00 0.00 0.00 0.00 0.00 0.00 0.00 0.00 0.00 0.00 0.00 0.00 0.00 0.00 0.00 0.00 0.00 0.00 0.00 0.00 0.00 0.00 0.00 0.00 0.00 0.00 0.00 0.00 0.00 0.00 0.00 0.00 0.00 0.00 0.00 0.00 0.00 0.00 0.00 0.00 0.00 0.00 0.00
0.00 0.00 0.00 0.00 0.00 0.00 0.00 0.00 0.00 0.00 0.00 0.00 0.00 0.00 0.00 0.00 0.00 0.00 0.00 0.00 0.00 0.00 0.00 0.00 0.00 0.00 0.00 0.00 0.00 0.00 0.00 0.00 0.00 0.00 0.00 0.00 0.00 0.00 0.00 0.00 0.00 0.00 0.00
0.01 0.00 0.00 0.00 0.00 0.00 0.00 0.00 0.00 0.00 0.00 0.00 0.00 0.00 0.00 0.00 0.00 0.00 0.00 0.00 0.00 0.00 0.00 0.00 0.00 0.00 0.00 0.00 0.00 0.00 0.00 0.00 0.00 0.00 0.00 0.00 0.00 0.00 0.00 0.00 0.00 0.00 0.00
0.00 0.00 0.00 0.00 0.00 0.00 0.00 0.00 0.00 0.00 0.00 0.00 0.00 0.00 0.00 0.00 0.00 0.00 0.00 0.00 0.00 0.00 0.00 0.00 0.00 0.00 0.00 0.00 0.00 0.00 0.00 0.00 0.00 0.00 0.00 0.00 0.00 0.00 0.00 0.00 0.00 0.00 0.00
0.00 0.00 0.00 0.00 0.00 0.00 0.00 0.00 0.00 0.00 0.00 0.00 0.00 0.00 0.00 0.00 0.00 0.00 0.00 0.00 0.00 0.00 0.00 0.00 0.00 0.00 0.00 0.00 0.00 0.00 0.00 0.00 0.00 0.00 0.00 0.00 0.00 0.00 0.00 0.00 0.00 0.00 0.00
0.00 0.00 0.00 0.00 0.00 0.00 0.00 0.00 0.00 0.00 0.00 0.00 0.00 0.00 0.00 0.00 0.00 0.00 0.00 0.00 0.01 0.01 0.00 0.00 0.00 0.00 0.00 0.00 0.00 0.00 0.00 0.00 0.00 0.00 0.00 0.00 0.00 0.00 0.00 0.00 0.00 0.00 0.00
0.00 0.00 0.00 0.00 0.00 0.00 0.00 0.00 0.00 0.00 0.00 0.00 0.00 0.00 0.00 0.00 0.00 0.00 0.01 0.03 0.06 0.08 0.07 0.06 0.05 0.04 0.03 0.03 0.03 0.03 0.02 0.02 0.02 0.01 0.00 0.01 0.01 0.01 0.00 0.00 0.00 0.00 0.00

GFSMW_prec_precacc24_123.txt.gz
Total_Precipitation_Accumulation
0.97 0.79 0.72 0.77 0.68 0.87 2.10 1.90 2.56 2.37 1.72 1.35 1.16 0.71 0.30 0.12 0.04 0.01 0.01 0.04 0.02 0.00 0.00 0.00 0.00 0.00 0.00 0.00 0.00 0.00 0.00 0.00 0.03 0.12 0.07 0.01 0.00 0.00 0.00 0.03 0.03 0.01 0.00
0.66 0.50 0.56 0.86 0.83 0.62 1.43 2.13 2.30 2.51 1.57 1.24 1.12 0.99 0.61 0.36 0.27 0.14 0.08 0.12 0.09 0.04 0.02 0.01 0.04 0.03 0.02 0.00 0.01 0.02 0.03 0.18 0.31 0.23 0.05 0.01 0.00 0.00 0.02 0.04 0.02 0.02 0.00
0.37 0.41 0.36 0.49 1.32 1.00 0.76 1.50 2.27 2.52 1.76 1.35 1.39 1.31 1.28 1.20 0.69 0.42 0.47 0.41 0.28 0.30 0.23 0.15 0.09 0.15 0.16 0.19 0.22 0.23 0.33 0.51 0.27 0.18 0.09 0.03 0.00 0.00 0.01 0.03 0.03 0.01 0.00
0.51 0.45 0.33 0.25 0.47 0.91 0.76 0.80 1.41 2.41 2.03 1.42 1.36 1.31 0.96 0.92 1.13 0.92 1.02 0.79 0.51 0.50 0.47 0.52 0.56 0.60 0.60 0.68 0.72 0.63 0.69 0.59 0.49 0.37 0.14 0.05 0.02 0.01 0.01 0.00 0.00 0.00 0.00
0.44 0.51 0.33 0.38 0.41 0.48 0.51 0.50 0.94 1.45 2.10 1.74 1.52 1.27 0.99 0.72 1.00 0.81 0.65 0.44 0.38 0.29 0.33 0.52 0.75 0.90 0.90 0.86 0.92 0.91 1.04 1.14 0.93 0.67 0.31 0.13 0.04 0.02 0.02 0.00 0.00 0.00 0.00
0.73 0.47 0.32 0.47 0.41 0.36 0.24 0.34 0.69 0.87 1.35 1.71 1.12 1.02 0.94 1.21 1.22 0.73 0.53 0.55 0.41 0.38 0.43 0.65 0.78 0.79 0.81 0.87 1.07 1.16 1.02 0.86 0.68 0.70 0.40 0.19 0.09 0.07 0.06 0.03 0.01 0.01 0.00
0.69 0.58 0.35 0.26 0.24 0.20 0.10 0.20 0.44 0.99 0.80 1.40 0.88 0.67 0.72 0.74 0.91 0.94 0.73 0.52 0.41 0.37 0.30 0.39 0.56 0.61 0.60 0.60 0.57 0.45 0.43 0.40 0.39 0.42 0.31 0.13 0.05 0.04 0.04 0.03 0.02 0.01 0.00
1.06 0.76 0.60 0.43 0.33 0.24 0.12 0.09 0.30 1.03 0.93 0.84 0.86 0.77 0.80 0.58 0.42 0.43 0.47 0.59 0.47 0.45 0.46 0.23 0.18 0.29 0.33 0.28 0.24 0.23 0.21 0.10 0.10 0.20 0.21 0.20 0.14 0.06 0.03 0.02 0.03 0.04 0.03
0.64 0.78 0.80 0.77 0.37 0.16 0.14 0.19 0.24 0.37 1.00 0.92 0.95 0.74 0.63 0.47 0.47 0.47 0.32 0.24 0.35 0.41 0.37 0.33 0.34 0.34 0.37 0.33 0.26 0.17 0.22 0.20 0.14 0.18 0.18 0.15 0.14 0.11 0.09 0.09 0.09 0.09 0.07
0.16 0.24 0.30 0.36 0.11 0.08 0.15 0.33 0.47 0.40 0.47 1.06 0.72 0.80 0.60 0.35 0.47 0.49 0.42 0.35 0.25 0.31 0.35 0.29 0.28 0.39 0.41 0.41 0.30 0.26 0.24 0.21 0.19 0.13 0.17 0.18 0.14 0.15 0.17 0.16 0.17 0.15 0.11
0.03 0.03 0.03 0.01 0.00 0.00 0.01 0.12 0.43 0.43 0.36 0.57 0.60 0.73 0.57 0.44 0.51 0.50 0.38 0.42 0.43 0.25 0.21 0.28 0.29 0.25 0.25 0.29 0.28 0.21 0.29 0.22 0.12 0.12 0.13 0.14 0.14 0.12 0.11 0.12 0.13 0.14 0.06
0.00 0.00 0.02 0.00 0.00 0.00 0.00 0.00 0.11 0.42 0.38 0.38 0.44 0.63 0.58 0.74 0.70 0.59 0.55 0.40 0.33 0.33 0.24 0.22 0.21 0.23 0.24 0.31 0.31 0.21 0.27 0.41 0.37 0.31 0.30 0.27 0.30 0.26 0.11 0.07 0.04 0.02 0.00
0.00 0.00 0.00 0.00 0.00 0.00 0.00 0.00 0.00 0.07 0.19 0.32 0.41 0.63 0.85 0.88 0.86 0.86 0.99 1.13 0.63 0.33 0.29 0.33 0.28 0.23 0.23 0.21 0.17 0.15 0.15 0.16 0.21 0.18 0.18 0.15 0.14 0.15 0.14 0.11 0.05 0.01 0.00
0.00 0.00 0.00 0.00 0.00 0.00 0.00 0.00 0.00 0.01 0.09 0.19 0.25 0.44 1.00 0.81 0.67 0.58 0.54 0.60 0.71 0.66 0.54 0.37 0.35 0.30 0.21 0.19 0.18 0.15 0.13 0.12 0.09 0.08 0.11 0.09 0.06 0.08 0.07 0.04 0.01 0.00 0.00
0.00 0.00 0.00 0.00 0.00 0.00 0.00 0.00 0.00 0.00 0.00 0.06 0.07 0.09 0.21 0.23 0.21 0.25 0.23 0.20 0.19 0.23 0.30 0.40 0.40 0.41 0.37 0.27 0.23 0.21 0.20 0.17 0.13 0.10 0.08 0.08 0.08 0.07 0.04 0.01 0.00 0.00 0.00
0.00 0.00 0.00 0.00 0.00 0.00 0.00 0.00 0.00 0.00 0.00 0.00 0.00 0.02 0.02 0.02 0.01 0.01 0.03 0.07 0.09 0.11 0.10 0.08 0.08 0.10 0.16 0.19 0.11 0.10 0.10 0.09 0.07 0.04 0.03 0.05 0.04 0.02 0.01 0.00 0.00 0.00 0.00
0.00 0.00 0.00 0.00 0.00 0.00 0.00 0.00 0.00 0.00 0.00 0.00 0.00 0.00 0.00 0.00 0.01 0.01 0.01 0.01 0.00 0.00 0.00 0.01 0.01 0.02 0.01 0.01 0.01 0.01 0.00 0.01 0.02 0.02 0.02 0.02 0.01 0.01 0.00 0.00 0.00 0.00 0.00
0.00 0.00 0.00 0.00 0.00 0.00 0.00 0.00 0.00 0.00 0.00 0.00 0.00 0.00 0.00 0.00 0.00 0.00 0.00 0.00 0.00 0.00 0.00 0.00 0.00 0.00 0.00 0.00 0.00 0.00 0.00 0.01 0.01 0.00 0.00 0.01 0.01 0.01 0.00 0.00 0.00 0.00 0.00
0.00 0.00 0.00 0.00 0.00 0.00 0.00 0.00 0.00 0.00 0.00 0.00 0.00 0.00 0.00 0.00 0.00 0.00 0.00 0.00 0.00 0.00 0.00 0.00 0.00 0.00 0.00 0.00 0.00 0.00 0.00 0.00 0.00 0.00 0.00 0.01 0.02 0.04 0.03 0.02 0.00 0.00 0.00
0.00 0.00 0.00 0.00 0.00 0.00 0.00 0.00 0.00 0.00 0.00 0.00 0.00 0.00 0.00 0.00 0.00 0.00 0.00 0.00 0.00 0.00 0.00 0.00 0.00 0.00 0.00 0.00 0.00 0.00 0.00 0.00 0.00 0.00 0.00 0.01 0.00 0.00 0.00 0.00 0.00 0.00 0.00
0.00 0.00 0.00 0.00 0.00 0.00 0.00 0.00 0.00 0.00 0.00 0.00 0.00 0.00 0.00 0.00 0.00 0.00 0.00 0.00 0.00 0.00 0.00 0.00 0.00 0.00 0.00 0.00 0.00 0.00 0.00 0.00 0.00 0.00 0.00 0.00 0.00 0.00 0.00 0.00 0.00 0.00 0.00
0.01 0.00 0.00 0.00 0.00 0.00 0.00 0.00 0.00 0.00 0.00 0.00 0.00 0.00 0.00 0.00 0.00 0.00 0.00 0.00 0.00 0.00 0.00 0.00 0.00 0.00 0.00 0.00 0.00 0.00 0.00 0.00 0.00 0.00 0.00 0.00 0.00 0.00 0.00 0.00 0.00 0.00 0.00
0.00 0.00 0.00 0.00 0.00 0.00 0.00 0.00 0.00 0.00 0.00 0.00 0.00 0.00 0.00 0.00 0.00 0.00 0.00 0.00 0.00 0.00 0.00 0.00 0.00 0.00 0.00 0.00 0.00 0.00 0.00 0.00 0.00 0.00 0.00 0.00 0.00 0.00 0.00 0.00 0.00 0.00 0.00
0.00 0.00 0.00 0.00 0.00 0.00 0.00 0.00 0.00 0.00 0.00 0.00 0.00 0.00 0.00 0.00 0.00 0.00 0.00 0.00 0.00 0.00 0.00 0.00 0.00 0.00 0.00 0.00 0.00 0.00 0.00 0.00 0.00 0.00 0.00 0.00 0.00 0.00 0.00 0.00 0.00 0.00 0.00
0.00 0.00 0.00 0.00 0.00 0.00 0.00 0.00 0.00 0.00 0.00 0.00 0.00 0.00 0.00 0.00 0.00 0.00 0.00 0.00 0.01 0.01 0.00 0.00 0.00 0.00 0.00 0.00 0.00 0.00 0.00 0.00 0.01 0.01 0.00 0.00 0.00 0.00 0.00 0.00 0.00 0.00 0.00
0.00 0.00 0.00 0.00 0.00 0.00 0.00 0.00 0.00 0.00 0.00 0.00 0.00 0.00 0.00 0.00 0.00 0.00 0.01 0.03 0.06 0.08 0.08 0.07 0.05 0.04 0.03 0.03 0.04 0.03 0.03 0.02 0.02 0.01 0.00 0.01 0.01 0.01 0.00 0.00 0.00 0.00 0.00

GFSMW_prec_precacc24_126.txt.gz
Total_Precipitation_Accumulation
0.94 0.71 0.58 0.58 0.53 0.66 1.87 1.64 2.42 2.22 1.58 1.00 0.89 0.63 0.43 0.18 0.06 0.02 0.02 0.04 0.03 0.01 0.00 0.00 0.00 0.00 0.00 0.00 0.00 0.00 0.00 0.00 0.03 0.12 0.07 0.01 0.00 0.00 0.00 0.03 0.03 0.01 0.01
0.67 0.51 0.54 0.80 0.77 0.47 1.15 1.80 2.12 2.43 1.80 1.42 1.12 0.87 0.55 0.39 0.35 0.18 0.11 0.14 0.13 0.07 0.05 0.01 0.04 0.03 0.02 0.00 0.01 0.01 0.00 0.14 0.30 0.21 0.04 0.01 0.00 0.00 0.02 0.04 0.02 0.02 0.00
0.38 0.42 0.38 0.51 1.35 1.01 0.68 1.37 2.16 2.43 1.83 1.88 1.67 1.19 0.99 1.03 0.76 0.53 0.55 0.47 0.36 0.37 0.28 0.16 0.07 0.09 0.10 0.15 0.15 0.17 0.24 0.44 0.23 0.12 0.05 0.03 0.00 0.00 0.01 0.03 0.03 0.01 0.00
0.57 0.52 0.37 0.29 0.52 0.97 0.84 0.83 1.39 2.36 2.14 1.96 2.52 2.00 1.13 0.93 1.13 0.81 0.90 0.73 0.52 0.48 0.39 0.37 0.41 0.40 0.36 0.50 0.61 0.54 0.62 0.54 0.47 0.33 0.09 0.03 0.02 0.01 0.01 0.00 0.00 0.00 0.00
1.09 0.98 0.39 0.41 0.51 0.61 0.60 0.54 0.94 1.44 2.15 1.92 2.03 2.34 1.79 0.98 0.95 0.89 0.73 0.54 0.45 0.29 0.26 0.32 0.48 0.61 0.68 0.76 0.87 0.86 1.01 1.10 0.88 0.63 0.28 0.12 0.04 0.02 0.02 0.00 0.00 0.00 0.00
1.32 1.41 1.45 0.78 0.60 0.54 0.37 0.39 0.73 0.89 1.30 1.82 1.40 1.40 1.60 1.60 1.42 1.05 0.90 0.81 0.51 0.37 0.31 0.40 0.47 0.54 0.58 0.62 0.90 1.11 1.01 0.86 0.68 0.70 0.42 0.22 0.15 0.09 0.06 0.03 0.01 0.01 0.00
1.38 1.39 1.62 1.16 0.80 0.44 0.22 0.24 0.46 1.00 0.82 1.44 0.99 0.85 0.87 0.92 1.09 1.11 0.88 0.77 0.74 0.56 0.31 0.28 0.37 0.34 0.34 0.43 0.51 0.45 0.44 0.43 0.44 0.49 0.41 0.28 0.17 0.08 0.05 0.03 0.02 0.01 0.00
1.54 1.06 1.10 0.77 0.51 0.29 0.14 0.09 0.30 1.03 0.94 0.84 0.88 0.83 0.90 0.65 0.49 0.52 0.53 0.61 0.51 0.49 0.53 0.26 0.19 0.27 0.33 0.29 0.27 0.28 0.26 0.19 0.17 0.27 0.31 0.30 0.21 0.09 0.04 0.02 0.02 0.03 0.02
0.87 0.89 1.04 0.94 0.50 0.21 0.15 0.19 0.24 0.37 1.01 0.94 0.96 0.77 0.66 0.51 0.50 0.50 0.34 0.27 0.38 0.47 0.47 0.46 0.35 0.35 0.42 0.37 0.31 0.25 0.30 0.30 0.23 0.23 0.22 0.17 0.16 0.12 0.09 0.09 0.09 0.09 0.07
0.51 0.52 0.52 0.47 0.14 0.08 0.15 0.33 0.48 0.41 0.47 1.21 0.89 1.05 0.72 0.45 0.61 0.54 0.43 0.37 0.29 0.35 0.41 0.46 0.47 0.46 0.55 0.60 0.51 0.46 0.40 0.33 0.29 0.21 0.21 0.19 0.15 0.15 0.17 0.16 0.18 0.19 0.21
0.13 0.12 0.07 0.02 0.01 0.00 0.01 0.12 0.43 0.46 0.41 0.69 0.94 1.11 1.27 0.80 0.80 0.67 0.41 0.45 0.45 0.27 0.25 0.36 0.41 0.36 0.36 0.43 0.46 0.38 0.42 0.30 0.17 0.15 0.16 0.16 0.17 0.15 0.13 0.14 0.15 0.18 0.21
0.00 0.06 0.05 0.00 0.00 0.00 0.00 0.00 0.12 0.44 0.42 0.43 0.55 0.78 0.87 1.22 1.06 0.89 0.70 0.52 0.46 0.43 0.31 0.29 0.28 0.28 0.29 0.37 0.40 0.31 0.37 0.48 0.40 0.33 0.31 0.27 0.32 0.35 0.34 0.31 0.24 0.18 0.13
0.00 0.00 0.00 0.00 0.00 0.00 0.00 0.00 0.00 0.07 0.20 0.33 0.41 0.66 0.94 1.03 1.09 1.10 1.18 1.29 0.81 0.52 0.45 0.45 0.37 0.31 0.29 0.25 0.23 0.22 0.24 0.24 0.28 0.24 0.23 0.18 0.17 0.18 0.20 0.23 0.28 0.25 0.17
0.00 0.00 0.00 0.00 0.00 0.00 0.00 0.00 0.00 0.01 0.10 0.20 0.25 0.45 1.05 0.88 0.77 0.67 0.63 0.77 0.92 0.86 0.71 0.51 0.47 0.43 0.38 0.33 0.28 0.23 0.22 0.22 0.16 0.14 0.17 0.16 0.13 0.11 0.11 0.11 0.14 0.15 0.13
0.00 0.00 0.00 0.00 0.00 0.00 0.00 0.00 0.00 0.00 0.00 0.06 0.09 0.10 0.21 0.23 0.21 0.26 0.25 0.26 0.27 0.31 0.38 0.50 0.51 0.51 0.47 0.40 0.37 0.34 0.34 0.32 0.24 0.20 0.18 0.21 0.22 0.19 0.17 0.14 0.11 0.08 0.05
0.00 0.00 0.00 0.00 0.00 0.00 0.00 0.00 0.00 0.00 0.00 0.00 0.00 0.02 0.02 0.02 0.01 0.01 0.03 0.08 0.11 0.16 0.18 0.18 0.19 0.21 0.28 0.36 0.32 0.31 0.29 0.25 0.19 0.13 0.11 0.12 0.13 0.15 0.20 0.22 0.17 0.08 0.03
0.00 0.00 0.00 0.00 0.00 0.00 0.00 0.00 0.00 0.00 0.00 0.00 0.00 0.00 0.00 0.00 0.01 0.01 0.01 0.01 0.00 0.00 0.01 0.04 0.07 0.11 0.16 0.18 0.14 0.11 0.09 0.10 0.10 0.07 0.07 0.07 0.07 0.07 0.02 0.03 0.04 0.02 0.01
0.00 0.00 0.00 0.00 0.00 0.00 0.00 0.00 0.00 0.00 0.00 0.00 0.00 0.00 0.00 0.00 0.00 0.00 0.00 0.00 0.00 0.00 0.00 0.00 0.00 0.00 0.01 0.01 0.03 0.06 0.07 0.08 0.09 0.10 0.10 0.07 0.06 0.05 0.02 0.02 0.02 0.01 0.00
0.00 0.00 0.00 0.00 0.00 0.00 0.00 0.00 0.00 0.00 0.00 0.00 0.00 0.00 0.00 0.00 0.00 0.00 0.00 0.00 0.00 0.00 0.00 0.00 0.00 0.00 0.00 0.01 0.01 0.00 0.00 0.00 0.01 0.02 0.02 0.02 0.03 0.05 0.04 0.03 0.03 0.03 0.01
0.00 0.00 0.00 0.00 0.00 0.00 0.00 0.00 0.00 0.00 0.00 0.00 0.00 0.00 0.00 0.00 0.00 0.00 0.00 0.00 0.00 0.00 0.00 0.00 0.00 0.00 0.00 0.00 0.00 0.00 0.00 0.00 0.00 0.01 0.02 0.03 0.01 0.02 0.03 0.04 0.04 0.05 0.03
0.00 0.00 0.00 0.00 0.00 0.00 0.00 0.00 0.00 0.00 0.00 0.00 0.00 0.00 0.00 0.00 0.00 0.00 0.00 0.00 0.00 0.00 0.00 0.00 0.00 0.00 0.00 0.00 0.00 0.00 0.00 0.00 0.00 0.00 0.02 0.02 0.02 0.02 0.04 0.09 0.10 0.04 0.00
0.01 0.00 0.00 0.00 0.00 0.00 0.00 0.00 0.00 0.00 0.00 0.00 0.00 0.00 0.00 0.00 0.00 0.00 0.00 0.00 0.00 0.00 0.00 0.00 0.00 0.00 0.00 0.00 0.00 0.00 0.00 0.00 0.00 0.01 0.01 0.01 0.00 0.01 0.03 0.05 0.05 0.02 0.00
0.00 0.00 0.00 0.00 0.00 0.00 0.00 0.00 0.00 0.00 0.00 0.00 0.00 0.00 0.00 0.00 0.00 0.00 0.00 0.00 0.00 0.00 0.00 0.00 0.00 0.00 0.00 0.00 0.00 0.00 0.00 0.00 0.00 0.01 0.01 0.01 0.00 0.00 0.00 0.00 0.00 0.00 0.00
0.00 0.00 0.00 0.00 0.00 0.00 0.00 0.00 0.00 0.00 0.00 0.00 0.00 0.00 0.00 0.00 0.00 0.00 0.00 0.00 0.00 0.00 0.00 0.00 0.00 0.00 0.00 0.00 0.00 0.00 0.00 0.00 0.00 0.00 0.01 0.01 0.01 0.01 0.01 0.01 0.02 0.01 0.00
0.00 0.00 0.00 0.00 0.00 0.00 0.00 0.00 0.00 0.00 0.00 0.00 0.00 0.00 0.00 0.00 0.00 0.00 0.00 0.00 0.01 0.01 0.00 0.00 0.00 0.00 0.00 0.00 0.00 0.01 0.00 0.00 0.01 0.01 0.00 0.01 0.00 0.00 0.01 0.02 0.03 0.03 0.02
0.00 0.00 0.00 0.00 0.00 0.00 0.00 0.00 0.00 0.00 0.00 0.00 0.00 0.00 0.00 0.00 0.00 0.00 0.01 0.03 0.06 0.08 0.08 0.07 0.05 0.04 0.03 0.04 0.04 0.04 0.03 0.04 0.04 0.03 0.01 0.01 0.01 0.01 0.00 0.01 0.03 0.03 0.02

GFSMW_prec_precacc24_129.txt.gz
Total_Precipitation_Accumulation
0.82 0.53 0.40 0.47 0.51 0.66 1.85 1.62 2.39 2.20 1.49 0.79 0.55 0.43 0.44 0.21 0.08 0.03 0.02 0.03 0.03 0.02 0.01 0.01 0.01 0.00 0.00 0.00 0.00 0.00 0.00 0.00 0.01 0.11 0.07 0.01 0.00 0.00 0.00 0.03 0.03 0.01 0.01
0.64 0.46 0.40 0.59 0.67 0.45 1.13 1.73 2.07 2.40 1.80 1.35 0.73 0.48 0.39 0.31 0.24 0.10 0.05 0.08 0.09 0.07 0.06 0.02 0.04 0.03 0.02 0.00 0.01 0.01 0.00 0.07 0.22 0.14 0.02 0.01 0.00 0.00 0.02 0.04 0.02 0.02 0.00
0.38 0.41 0.35 0.43 1.13 0.83 0.56 1.21 1.97 2.15 1.72 1.85 1.56 1.08 0.77 0.88 0.58 0.33 0.25 0.25 0.25 0.29 0.27 0.17 0.09 0.10 0.10 0.12 0.11 0.10 0.15 0.34 0.16 0.06 0.04 0.03 0.00 0.00 0.01 0.03 0.03 0.01 0.00
0.58 0.51 0.36 0.29 0.51 0.87 0.70 0.71 1.20 2.16 2.01 1.82 2.44 1.83 0.97 0.70 0.71 0.46 0.39 0.42 0.33 0.35 0.38 0.41 0.39 0.34 0.26 0.34 0.42 0.37 0.46 0.46 0.41 0.32 0.09 0.02 0.02 0.01 0.01 0.00 0.00 0.00 0.00
1.35 1.06 0.41 0.44 0.57 0.64 0.71 0.62 0.88 1.36 2.02 1.70 1.69 2.26 2.04 1.10 0.77 0.67 0.57 0.43 0.43 0.31 0.27 0.33 0.38 0.39 0.40 0.50 0.66 0.66 0.74 0.93 0.84 0.62 0.28 0.12 0.04 0.02 0.02 0.00 0.01 0.00 0.00
1.74 1.56 1.56 0.93 0.78 0.81 0.87 0.62 0.86 1.02 1.28 1.63 1.29 1.34 1.98 2.16 1.74 1.07 0.89 0.81 0.56 0.45 0.35 0.35 0.38 0.40 0.37 0.34 0.46 0.55 0.60 0.73 0.66 0.70 0.42 0.22 0.15 0.10 0.06 0.03 0.01 0.01 0.00
1.96 2.09 2.21 1.97 1.87 1.36 1.13 0.74 0.61 1.11 0.79 1.36 0.98 0.85 0.87 1.25 1.61 1.59 1.22 1.02 0.95 0.87 0.49 0.40 0.47 0.40 0.30 0.33 0.40 0.37 0.41 0.42 0.44 0.49 0.41 0.28 0.22 0.18 0.10 0.05 0.02 0.01 0.00
1.97 1.47 1.76 1.76 1.46 0.95 0.41 0.22 0.40 1.05 0.94 0.83 0.86 0.82 0.90 0.74 0.81 0.94 0.96 1.09 0.84 0.80 0.92 0.61 0.45 0.38 0.36 0.30 0.27 0.28 0.26 0.19 0.17 0.27 0.32 0.34 0.30 0.20 0.13 0.07 0.07 0.07 0.03
1.04 1.06 1.35 1.14 0.85 0.44 0.34 0.30 0.28 0.41 1.01 0.94 0.97 0.78 0.68 0.56 0.58 0.67 0.66 0.61 0.66 0.72 0.77 0.69 0.56 0.48 0.50 0.42 0.33 0.27 0.30 0.31 0.24 0.26 0.26 0.21 0.22 0.18 0.13 0.13 0.12 0.10 0.07
0.67 0.68 0.69 0.85 0.59 0.38 0.36 0.43 0.49 0.41 0.47 1.22 0.90 1.05 0.75 0.48 0.66 0.62 0.57 0.62 0.56 0.51 0.55 0.61 0.56 0.52 0.61 0.66 0.55 0.49 0.45 0.39 0.37 0.33 0.33 0.29 0.23 0.20 0.21 0.18 0.19 0.20 0.22
0.18 0.17 0.11 0.08 0.14 0.10 0.08 0.17 0.46 0.47 0.41 0.71 1.02 1.20 1.38 0.87 0.85 0.83 0.57 0.56 0.53 0.34 0.30 0.41 0.55 0.50 0.41 0.49 0.53 0.46 0.51 0.41 0.28 0.29 0.30 0.29 0.28 0.24 0.21 0.20 0.20 0.22 0.24
0.02 0.09 0.06 0.00 0.00 0.00 0.01 0.04 0.14 0.47 0.46 0.47 0.61 0.89 1.03 1.75 1.38 1.31 1.05 0.71 0.52 0.47 0.36 0.31 0.30 0.35 0.35 0.41 0.48 0.38 0.41 0.54 0.48 0.40 0.37 0.34 0.39 0.42 0.40 0.34 0.27 0.20 0.16
0.00 0.00 0.00 0.00 0.00 0.00 0.00 0.00 0.00 0.09 0.29 0.37 0.49 0.83 1.00 1.28 1.45 1.50 1.72 1.56 0.94 0.66 0.61 0.52 0.40 0.36 0.37 0.32 0.28 0.28 0.31 0.33 0.35 0.31 0.30 0.24 0.23 0.24 0.23 0.25 0.29 0.31 0.30
0.00 0.00 0.00 0.00 0.00 0.00 0.00 0.00 0.00 0.02 0.12 0.24 0.27 0.47 1.11 0.99 0.89 0.79 0.75 0.87 1.01 0.93 0.78 0.61 0.53 0.48 0.45 0.41 0.34 0.28 0.26 0.27 0.26 0.24 0.25 0.25 0.23 0.19 0.17 0.17 0.19 0.19 0.18
0.00 0.00 0.00 0.00 0.00 0.00 0.00 0.00 0.00 0.00 0.01 0.07 0.09 0.12 0.25 0.24 0.23 0.29 0.28 0.31 0.34 0.36 0.41 0.52 0.53 0.54 0.50 0.45 0.46 0.42 0.40 0.38 0.33 0.31 0.30 0.30 0.30 0.28 0.27 0.24 0.21 0.20 0.20
0.00 0.00 0.00 0.00 0.00 0.00 0.00 0.00 0.00 0.00 0.00 0.00 0.00 0.02 0.02 0.02 0.01 0.01 0.04 0.08 0.11 0.16 0.18 0.19 0.20 0.23 0.33 0.46 0.41 0.40 0.40 0.38 0.36 0.31 0.27 0.28 0.28 0.25 0.32 0.36 0.29 0.24 0.23
0.00 0.00 0.00 0.00 0.00 0.00 0.00 0.00 0.00 0.00 0.00 0.00 0.00 0.00 0.00 0.00 0.01 0.01 0.01 0.01 0.00 0.00 0.01 0.04 0.07 0.12 0.18 0.25 0.22 0.22 0.22 0.29 0.36 0.40 0.41 0.41 0.35 0.25 0.17 0.20 0.22 0.23 0.26
0.00 0.00 0.00 0.00 0.00 0.00 0.00 0.00 0.00 0.00 0.00 0.00 0.00 0.00 0.00 0.00 0.00 0.00 0.00 0.00 0.00 0.00 0.00 0.00 0.00 0.00 0.01 0.02 0.05 0.11 0.15 0.21 0.25 0.28 0.30 0.32 0.34 0.35 0.29 0.21 0.20 0.21 0.20
0.00 0.00 0.00 0.00 0.00 0.00 0.00 0.00 0.00 0.00 0.00 0.00 0.00 0.00 0.00 0.00 0.00 0.00 0.00 0.00 0.00 0.00 0.00 0.00 0.00 0.00 0.00 0.01 0.01 0.01 0.00 0.01 0.02 0.06 0.11 0.13 0.12 0.13 0.15 0.18 0.19 0.18 0.15
0.00 0.00 0.00 0.00 0.00 0.00 0.00 0.00 0.00 0.00 0.00 0.00 0.00 0.00 0.00 0.00 0.00 0.00 0.00 0.00 0.00 0.00 0.00 0.00 0.00 0.00 0.00 0.00 0.00 0.00 0.00 0.00 0.00 0.01 0.02 0.03 0.04 0.11 0.15 0.17 0.18 0.15 0.13
0.00 0.00 0.00 0.00 0.00 0.00 0.00 0.00 0.00 0.00 0.00 0.00 0.00 0.00 0.00 0.00 0.00 0.00 0.00 0.00 0.00 0.00 0.00 0.00 0.00 0.00 0.00 0.00 0.00 0.00 0.00 0.00 0.00 0.00 0.02 0.02 0.02 0.02 0.05 0.12 0.16 0.17 0.17
0.01 0.00 0.00 0.00 0.00 0.00 0.00 0.00 0.00 0.00 0.00 0.00 0.00 0.00 0.00 0.00 0.00 0.00 0.00 0.00 0.00 0.00 0.00 0.00 0.00 0.00 0.00 0.00 0.00 0.00 0.00 0.00 0.00 0.01 0.01 0.01 0.01 0.01 0.03 0.07 0.12 0.15 0.15
0.00 0.00 0.00 0.00 0.00 0.00 0.00 0.00 0.00 0.00 0.00 0.00 0.00 0.00 0.00 0.00 0.00 0.00 0.00 0.00 0.00 0.00 0.00 0.00 0.00 0.00 0.00 0.00 0.00 0.00 0.00 0.00 0.00 0.01 0.02 0.02 0.01 0.01 0.01 0.00 0.01 0.02 0.03
0.00 0.00 0.00 0.00 0.00 0.00 0.00 0.00 0.00 0.00 0.00 0.00 0.00 0.00 0.00 0.00 0.00 0.00 0.00 0.00 0.00 0.00 0.00 0.00 0.00 0.00 0.00 0.00 0.00 0.00 0.00 0.00 0.00 0.00 0.01 0.02 0.03 0.03 0.03 0.05 0.05 0.05 0.06
0.00 0.00 0.00 0.00 0.00 0.00 0.00 0.00 0.00 0.00 0.00 0.00 0.00 0.00 0.00 0.00 0.00 0.00 0.00 0.00 0.00 0.00 0.00 0.00 0.00 0.00 0.00 0.00 0.00 0.01 0.00 0.00 0.01 0.01 0.00 0.01 0.01 0.01 0.02 0.04 0.07 0.09 0.14
0.00 0.00 0.00 0.00 0.00 0.00 0.00 0.00 0.00 0.00 0.00 0.00 0.00 0.00 0.00 0.00 0.00 0.00 0.00 0.02 0.05 0.07 0.08 0.07 0.05 0.04 0.03 0.04 0.04 0.04 0.04 0.04 0.05 0.04 0.01 0.01 0.01 0.01 0.00 0.03 0.09 0.10 0.10

GFSMW_prec_precacc24_135.txt.gz
Total_Precipitation_Accumulation
0.57 0.31 0.19 0.22 0.24 0.30 1.03 1.29 2.19 2.06 1.43 0.77 0.51 0.40 0.44 0.23 0.15 0.16 0.12 0.11 0.04 0.02 0.04 0.02 0.03 0.01 0.00 0.00 0.00 0.00 0.00 0.00 0.00 0.00 0.00 0.00 0.00 0.00 0.00 0.03 0.03 0.01 0.01
0.45 0.25 0.16 0.24 0.20 0.19 0.49 1.34 1.56 2.24 1.70 1.31 0.69 0.41 0.35 0.29 0.19 0.11 0.11 0.10 0.08 0.05 0.05 0.02 0.02 0.04 0.02 0.00 0.01 0.01 0.00 0.00 0.01 0.00 0.00 0.00 0.00 0.00 0.02 0.04 0.02 0.02 0.00
0.27 0.27 0.23 0.19 0.24 0.17 0.23 0.93 1.38 1.87 1.62 1.76 1.55 1.03 0.70 0.92 0.57 0.33 0.24 0.17 0.15 0.13 0.08 0.03 0.03 0.05 0.03 0.03 0.07 0.09 0.06 0.06 0.02 0.01 0.00 0.00 0.00 0.00 0.01 0.03 0.03 0.01 0.00
0.54 0.46 0.32 0.25 0.33 0.32 0.33 0.43 0.87 1.78 1.79 1.70 2.39 1.79 0.86 0.64 0.73 0.38 0.19 0.17 0.16 0.17 0.15 0.17 0.14 0.19 0.18 0.20 0.27 0.27 0.32 0.27 0.28 0.24 0.07 0.01 0.00 0.00 0.00 0.00 0.00 0.00 0.00
1.33 1.07 0.40 0.38 0.40 0.47 0.58 0.39 0.59 0.94 1.59 1.48 1.61 2.17 1.90 1.02 0.64 0.64 0.56 0.34 0.29 0.17 0.14 0.16 0.15 0.11 0.12 0.15 0.25 0.24 0.29 0.51 0.65 0.55 0.24 0.10 0.03 0.01 0.00 0.00 0.01 0.00 0.00
1.77 1.59 1.57 0.84 0.70 0.73 0.89 0.60 0.68 0.86 1.07 1.29 1.22 1.22 1.75 1.75 1.47 0.96 0.84 0.77 0.53 0.39 0.22 0.16 0.15 0.16 0.12 0.11 0.13 0.17 0.36 0.40 0.47 0.60 0.39 0.22 0.15 0.10 0.06 0.03 0.02 0.02 0.01
2.09 2.13 2.22 2.03 1.88 1.67 1.25 0.94 0.69 1.34 0.81 1.22 0.95 0.82 0.80 1.00 1.17 1.36 1.22 0.93 0.83 0.75 0.45 0.27 0.23 0.20 0.15 0.22 0.24 0.26 0.31 0.31 0.41 0.48 0.40 0.28 0.22 0.18 0.11 0.05 0.02 0.01 0.01
2.11 1.55 1.88 2.04 1.78 1.57 0.93 0.44 0.52 1.39 1.12 0.95 0.77 0.60 0.77 0.62 0.64 0.81 1.03 1.25 1.01 0.85 0.90 0.65 0.57 0.59 0.51 0.42 0.40 0.35 0.31 0.24 0.20 0.28 0.32 0.34 0.30 0.20 0.15 0.10 0.10 0.10 0.05
1.28 1.44 1.81 1.65 1.29 0.67 0.87 0.63 0.57 0.51 1.14 1.12 0.99 0.77 0.89 0.68 0.50 0.58 0.68 0.62 0.75 0.89 0.98 0.97 0.89 0.94 0.96 0.85 0.77 0.61 0.51 0.44 0.33 0.31 0.31 0.25 0.25 0.23 0.20 0.24 0.23 0.23 0.16
0.73 0.86 0.98 1.28 1.09 0.91 1.29 0.89 0.67 0.70 0.63 1.33 1.01 1.32 1.15 0.94 0.77 0.63 0.56 0.65 0.58 0.57 0.78 1.08 1.03 0.87 1.05 1.19 1.02 0.93 0.81 0.69 0.61 0.49 0.44 0.41 0.35 0.37 0.40 0.39 0.35 0.30 0.31
0.22 0.19 0.13 0.15 0.44 0.66 0.88 0.72 0.74 0.67 0.71 0.89 1.28 1.63 2.00 1.14 1.13 0.87 0.57 0.60 0.67 0.53 0.58 0.71 0.94 0.94 0.83 0.92 0.96 0.88 0.87 0.74 0.53 0.49 0.47 0.44 0.44 0.43 0.41 0.38 0.38 0.41 0.41
0.02 0.10 0.06 0.03 0.13 0.32 0.48 0.78 0.88 0.95 1.11 0.96 0.79 1.00 1.15 1.85 1.45 1.34 1.07 0.82 0.69 0.57 0.56 0.63 0.67 0.73 0.74 0.83 0.86 0.70 0.69 0.73 0.63 0.56 0.55 0.50 0.55 0.62 0.61 0.58 0.48 0.39 0.33
0.00 0.00 0.00 0.00 0.00 0.03 0.11 0.39 0.75 0.59 0.85 0.63 0.64 0.96 1.09 1.40 1.65 1.61 1.93 1.86 1.26 0.92 0.85 0.96 0.76 0.59 0.61 0.57 0.49 0.48 0.52 0.48 0.45 0.38 0.39 0.36 0.39 0.42 0.41 0.46 0.51 0.53 0.53
0.00 0.00 0.00 0.00 0.00 0.00 0.00 0.03 0.12 0.21 0.38 0.43 0.42 0.67 1.23 1.05 0.98 0.91 0.89 1.19 1.43 1.30 1.13 0.97 1.00 0.80 0.57 0.52 0.47 0.38 0.35 0.39 0.38 0.36 0.36 0.34 0.33 0.31 0.31 0.34 0.37 0.39 0.43
0.00 0.00 0.00 0.00 0.00 0.00 0.00 0.00 0.00 0.02 0.10 0.21 0.22 0.27 0.38 0.27 0.27 0.37 0.42 0.43 0.57 0.58 0.57 0.69 0.63 0.65 0.62 0.57 0.54 0.47 0.46 0.43 0.41 0.42 0.45 0.49 0.53 0.52 0.50 0.47 0.42 0.42 0.49
0.00 0.00 0.00 0.00 0.00 0.00 0.00 0.00 0.00 0.00 0.00 0.00 0.01 0.08 0.13 0.08 0.05 0.07 0.12 0.16 0.22 0.29 0.30 0.26 0.25 0.26 0.36 0.56 0.49 0.47 0.43 0.43 0.41 0.37 0.35 0.40 0.52 0.51 0.65 0.74 0.68 0.64 0.61
0.00 0.00 0.00 0.00 0.00 0.00 0.00 0.00 0.00 0.00 0.00 0.00 0.00 0.00 0.00 0.01 0.01 0.02 0.03 0.02 0.02 0.02 0.03 0.04 0.07 0.12 0.18 0.27 0.26 0.27 0.23 0.30 0.39 0.44 0.46 0.47 0.49 0.54 0.45 0.52 0.54 0.55 0.61
0.00 0.00 0.00 0.00 0.00 0.00 0.00 0.00 0.00 0.00 0.00 0.00 0.00 0.00 0.00 0.00 0.00 0.00 0.00 0.00 0.00 0.00 0.00 0.00 0.00 0.00 0.01 0.02 0.05 0.11 0.15 0.21 0.25 0.29 0.31 0.33 0.38 0.42 0.40 0.36 0.37 0.40 0.40
0.00 0.00 0.00 0.00 0.00 0.00 0.00 0.00 0.00 0.00 0.00 0.00 0.00 0.00 0.00 0.00 0.00 0.00 0.00 0.00 0.00 0.00 0.00 0.00 0.00 0.00 0.00 0.01 0.01 0.01 0.00 0.01 0.02 0.06 0.12 0.13 0.13 0.16 0.19 0.24 0.28 0.32 0.34
0.00 0.00 0.00 0.00 0.00 0.00 0.00 0.00 0.00 0.00 0.00 0.00 0.00 0.00 0.00 0.00 0.00 0.00 0.00 0.00 0.00 0.00 0.00 0.00 0.00 0.00 0.00 0.00 0.00 0.00 0.00 0.00 0.00 0.01 0.02 0.03 0.04 0.11 0.16 0.17 0.19 0.19 0.19
0.00 0.00 0.00 0.00 0.00 0.00 0.00 0.00 0.00 0.00 0.00 0.00 0.00 0.00 0.00 0.00 0.00 0.00 0.00 0.00 0.00 0.00 0.00 0.00 0.00 0.00 0.00 0.00 0.00 0.00 0.00 0.00 0.00 0.00 0.02 0.02 0.03 0.03 0.06 0.13 0.16 0.18 0.20
0.00 0.00 0.00 0.00 0.00 0.00 0.00 0.00 0.00 0.00 0.00 0.00 0.00 0.00 0.00 0.00 0.00 0.00 0.00 0.00 0.00 0.00 0.00 0.00 0.00 0.00 0.00 0.00 0.00 0.00 0.00 0.00 0.00 0.01 0.01 0.01 0.01 0.02 0.04 0.07 0.12 0.16 0.17
0.00 0.00 0.00 0.00 0.00 0.00 0.00 0.00 0.00 0.00 0.00 0.00 0.00 0.00 0.00 0.00 0.00 0.00 0.00 0.00 0.00 0.00 0.00 0.00 0.00 0.00 0.00 0.00 0.00 0.00 0.00 0.00 0.00 0.01 0.02 0.02 0.02 0.01 0.01 0.01 0.02 0.04 0.04
0.00 0.00 0.00 0.00 0.00 0.00 0.00 0.00 0.00 0.00 0.00 0.00 0.00 0.00 0.00 0.00 0.00 0.00 0.00 0.00 0.00 0.00 0.00 0.00 0.00 0.00 0.00 0.00 0.00 0.00 0.00 0.00 0.00 0.00 0.01 0.03 0.03 0.03 0.03 0.06 0.06 0.06 0.08
0.00 0.00 0.00 0.00 0.00 0.00 0.00 0.00 0.00 0.00 0.00 0.00 0.00 0.00 0.00 0.00 0.00 0.00 0.00 0.00 0.00 0.00 0.00 0.00 0.00 0.00 0.00 0.00 0.01 0.01 0.01 0.01 0.01 0.01 0.00 0.01 0.01 0.01 0.02 0.04 0.08 0.11 0.19
0.00 0.00 0.00 0.00 0.00 0.00 0.00 0.00 0.00 0.00 0.00 0.00 0.00 0.00 0.00 0.00 0.00 0.00 0.00 0.01 0.01 0.01 0.00 0.00 0.01 0.01 0.01 0.02 0.03 0.04 0.04 0.05 0.06 0.04 0.01 0.01 0.01 0.01 0.01 0.04 0.11 0.16 0.21

GFSMW_prec_precacc24_138.txt.gz
Total_Precipitation_Accumulation
0.45 0.30 0.19 0.21 0.23 0.28 0.56 0.80 1.37 1.80 1.41 0.74 0.49 0.39 0.42 0.22 0.15 0.18 0.16 0.19 0.13 0.07 0.10 0.05 0.04 0.02 0.00 0.00 0.00 0.00 0.00 0.00 0.00 0.00 0.00 0.00 0.00 0.00 0.00 0.02 0.02 0.01 0.01
0.34 0.23 0.15 0.23 0.18 0.16 0.16 0.39 0.84 1.82 1.67 1.30 0.69 0.41 0.35 0.28 0.19 0.12 0.13 0.15 0.14 0.10 0.10 0.07 0.03 0.03 0.01 0.00 0.00 0.00 0.00 0.00 0.00 0.00 0.00 0.00 0.00 0.00 0.02 0.04 0.02 0.02 0.00
0.24 0.22 0.18 0.13 0.19 0.11 0.08 0.18 0.35 1.01 1.36 1.65 1.50 0.99 0.68 0.90 0.57 0.35 0.27 0.22 0.22 0.16 0.13 0.08 0.04 0.05 0.02 0.01 0.03 0.04 0.04 0.00 0.00 0.01 0.00 0.00 0.00 0.00 0.01 0.03 0.03 0.01 0.00
0.44 0.41 0.24 0.15 0.16 0.18 0.18 0.18 0.28 0.71 1.00 1.33 2.12 1.59 0.76 0.61 0.73 0.38 0.21 0.24 0.23 0.21 0.14 0.13 0.07 0.10 0.08 0.06 0.10 0.13 0.21 0.13 0.15 0.20 0.06 0.01 0.00 0.00 0.00 0.00 0.00 0.00 0.00
1.29 1.05 0.37 0.34 0.31 0.42 0.49 0.31 0.34 0.56 1.00 1.00 1.27 2.01 1.77 0.94 0.60 0.64 0.56 0.40 0.47 0.27 0.18 0.19 0.15 0.10 0.12 0.13 0.15 0.15 0.18 0.21 0.28 0.36 0.22 0.10 0.03 0.01 0.00 0.00 0.01 0.00 0.00
1.65 1.54 1.56 0.78 0.56 0.69 0.88 0.58 0.61 0.69 0.86 0.97 0.94 1.11 1.72 1.72 1.44 0.97 0.85 0.78 0.60 0.74 0.38 0.23 0.34 0.21 0.14 0.15 0.16 0.16 0.19 0.21 0.23 0.31 0.29 0.20 0.15 0.10 0.06 0.03 0.02 0.02 0.01
2.05 2.08 2.19 2.00 1.80 1.63 1.25 0.94 0.69 1.30 0.72 1.07 0.77 0.74 0.75 0.98 1.18 1.40 1.25 0.96 0.87 0.83 0.74 0.40 0.28 0.23 0.16 0.25 0.29 0.29 0.29 0.23 0.27 0.34 0.33 0.27 0.21 0.18 0.11 0.05 0.02 0.01 0.01
2.11 1.53 1.84 2.00 1.67 1.43 0.88 0.44 0.52 1.40 1.11 0.90 0.69 0.56 0.75 0.59 0.65 0.84 1.09 1.33 1.03 0.87 0.93 0.67 0.57 0.59 0.53 0.48 0.53 0.44 0.36 0.26 0.22 0.28 0.33 0.32 0.29 0.20 0.15 0.10 0.10 0.10 0.06
1.28 1.44 1.81 1.65 1.28 0.64 0.87 0.60 0.57 0.49 1.14 1.11 0.88 0.67 0.88 0.63 0.44 0.47 0.63 0.68 0.85 0.94 1.00 1.00 0.91 0.95 0.96 0.79 0.75 0.73 0.65 0.59 0.47 0.38 0.32 0.24 0.25 0.24 0.22 0.27 0.29 0.29 0.18
0.73 0.86 0.98 1.28 1.09 0.91 1.29 0.82 0.56 0.58 0.55 1.25 1.01 1.36 1.17 0.99 0.65 0.51 0.52 0.62 0.64 0.59 0.75 1.05 1.01 0.83 0.97 1.03 0.86 0.86 0.80 0.70 0.64 0.55 0.54 0.53 0.45 0.44 0.48 0.46 0.44 0.43 0.44
0.22 0.19 0.13 0.15 0.44 0.66 0.90 0.79 0.76 0.64 0.68 0.78 1.31 1.84 2.69 1.39 1.24 0.95 0.66 0.63 0.59 0.54 0.54 0.59 0.84 0.89 0.78 0.85 0.92 0.91 0.97 0.93 0.76 0.69 0.65 0.58 0.57 0.58 0.55 0.51 0.52 0.58 0.58
0.02 0.10 0.06 0.02 0.13 0.33 0.49 0.95 1.12 1.07 1.40 1.18 1.56 1.67 1.85 2.50 1.74 1.77 1.51 0.98 0.74 0.59 0.59 0.65 0.68 0.76 0.77 0.88 0.95 0.83 0.88 0.98 0.91 0.84 0.80 0.70 0.72 0.75 0.70 0.69 0.63 0.57 0.54
0.00 0.00 0.00 0.00 0.00 0.03 0.11 0.45 0.85 0.70 1.18 0.79 0.81 1.20 1.24 1.62 1.89 1.89 2.44 2.04 1.25 0.92 0.84 0.96 0.76 0.62 0.65 0.60 0.57 0.58 0.63 0.61 0.57 0.51 0.52 0.47 0.53 0.54 0.51 0.59 0.65 0.65 0.67
0.00 0.00 0.00 0.00 0.00 0.00 0.00 0.03 0.16 0.36 0.51 0.53 0.64 0.94 1.33 1.15 1.14 0.98 0.95 1.22 1.46 1.35 1.15 1.00 1.04 0.89 0.70 0.68 0.63 0.53 0.47 0.47 0.47 0.47 0.49 0.46 0.42 0.39 0.39 0.45 0.47 0.47 0.52
0.00 0.00 0.00 0.00 0.00 0.00 0.00 0.00 0.00 0.02 0.15 0.33 0.29 0.31 0.63 0.42 0.45 0.51 0.56 0.60 0.72 0.89 0.80 0.77 0.75 0.88 0.91 0.74 0.77 0.76 0.68 0.58 0.50 0.46 0.47 0.50 0.56 0.57 0.53 0.49 0.43 0.43 0.51
0.00 0.00 0.00 0.00 0.00 0.00 0.00 0.00 0.00 0.00 0.00 0.00 0.03 0.14 0.34 0.23 0.24 0.24 0.29 0.40 0.37 0.55 0.60 0.47 0.42 0.45 0.57 0.75 0.62 0.60 0.55 0.49 0.44 0.38 0.36 0.40 0.54 0.53 0.70 0.81 0.76 0.72 0.69
0.00 0.00 0.00 0.00 0.00 0.00 0.00 0.00 0.00 0.00 0.00 0.00 0.00 0.00 0.05 0.06 0.06 0.08 0.13 0.11 0.13 0.20 0.27 0.24 0.22 0.22 0.25 0.31 0.28 0.28 0.25 0.31 0.40 0.45 0.46 0.47 0.50 0.55 0.45 0.53 0.55 0.56 0.63
0.00 0.00 0.00 0.00 0.00 0.00 0.00 0.00 0.00 0.00 0.00 0.00 0.00 0.00 0.00 0.00 0.00 0.00 0.00 0.00 0.00 0.00 0.01 0.01 0.01 0.00 0.01 0.02 0.05 0.11 0.15 0.21 0.25 0.29 0.31 0.33 0.38 0.42 0.40 0.36 0.37 0.40 0.40
0.00 0.00 0.00 0.00 0.00 0.00 0.00 0.00 0.00 0.00 0.00 0.00 0.00 0.00 0.00 0.00 0.00 0.00 0.00 0.00 0.00 0.00 0.00 0.00 0.00 0.00 0.00 0.01 0.01 0.01 0.00 0.01 0.02 0.06 0.12 0.13 0.13 0.16 0.19 0.24 0.28 0.32 0.34
0.00 0.00 0.00 0.00 0.00 0.00 0.00 0.00 0.00 0.00 0.00 0.00 0.00 0.00 0.00 0.00 0.00 0.00 0.00 0.00 0.00 0.00 0.00 0.00 0.00 0.00 0.00 0.00 0.00 0.00 0.00 0.00 0.00 0.01 0.02 0.03 0.04 0.11 0.16 0.17 0.19 0.19 0.19
0.00 0.00 0.00 0.00 0.00 0.00 0.00 0.00 0.00 0.00 0.00 0.00 0.00 0.00 0.00 0.00 0.00 0.00 0.00 0.00 0.00 0.00 0.00 0.00 0.00 0.00 0.00 0.00 0.00 0.00 0.00 0.00 0.00 0.00 0.02 0.02 0.03 0.03 0.06 0.13 0.16 0.18 0.20
0.00 0.00 0.00 0.00 0.00 0.00 0.00 0.00 0.00 0.00 0.00 0.00 0.00 0.00 0.00 0.00 0.00 0.00 0.00 0.00 0.00 0.00 0.00 0.00 0.00 0.00 0.00 0.00 0.00 0.00 0.00 0.00 0.00 0.01 0.01 0.01 0.01 0.02 0.04 0.07 0.12 0.16 0.17
0.00 0.00 0.00 0.00 0.00 0.00 0.00 0.00 0.00 0.00 0.00 0.00 0.00 0.00 0.00 0.00 0.00 0.00 0.00 0.00 0.00 0.00 0.00 0.00 0.00 0.00 0.00 0.00 0.00 0.00 0.00 0.00 0.00 0.01 0.02 0.02 0.02 0.02 0.01 0.01 0.02 0.04 0.04
0.00 0.00 0.00 0.00 0.00 0.00 0.00 0.00 0.00 0.00 0.00 0.00 0.00 0.00 0.00 0.00 0.00 0.00 0.00 0.00 0.00 0.00 0.00 0.00 0.00 0.00 0.00 0.00 0.00 0.00 0.00 0.00 0.00 0.00 0.01 0.03 0.03 0.03 0.04 0.06 0.06 0.06 0.08
0.00 0.00 0.00 0.00 0.00 0.00 0.00 0.00 0.00 0.00 0.00 0.00 0.00 0.00 0.00 0.00 0.00 0.00 0.00 0.00 0.00 0.00 0.00 0.00 0.00 0.00 0.00 0.00 0.01 0.01 0.00 0.00 0.01 0.01 0.00 0.01 0.01 0.01 0.02 0.04 0.08 0.11 0.19
0.00 0.00 0.00 0.00 0.00 0.00 0.00 0.00 0.00 0.00 0.00 0.00 0.00 0.00 0.00 0.00 0.00 0.00 0.00 0.01 0.01 0.01 0.00 0.00 0.00 0.00 0.01 0.01 0.02 0.02 0.02 0.04 0.06 0.04 0.01 0.01 0.01 0.01 0.01 0.05 0.11 0.16 0.22

GFSMW_prec_precacc24_141.txt.gz
Total_Precipitation_Accumulation
0.31 0.18 0.09 0.13 0.18 0.27 0.56 0.79 1.22 1.28 0.89 0.58 0.46 0.38 0.42 0.22 0.15 0.19 0.16 0.21 0.19 0.12 0.14 0.08 0.08 0.05 0.00 0.00 0.00 0.00 0.00 0.00 0.00 0.00 0.00 0.00 0.00 0.00 0.00 0.01 0.01 0.01 0.01
0.21 0.13 0.08 0.16 0.15 0.16 0.15 0.38 0.69 1.32 1.23 0.93 0.58 0.38 0.34 0.28 0.18 0.12 0.14 0.17 0.18 0.15 0.16 0.11 0.07 0.06 0.01 0.00 0.00 0.00 0.00 0.00 0.00 0.00 0.00 0.00 0.00 0.00 0.01 0.03 0.02 0.02 0.00
0.18 0.14 0.11 0.08 0.13 0.09 0.06 0.15 0.21 0.59 1.09 1.28 1.26 0.83 0.61 0.86 0.54 0.33 0.26 0.24 0.26 0.22 0.21 0.15 0.08 0.08 0.04 0.01 0.00 0.01 0.00 0.00 0.00 0.00 0.00 0.00 0.00 0.00 0.00 0.02 0.03 0.01 0.00
0.29 0.31 0.16 0.12 0.10 0.13 0.14 0.15 0.17 0.28 0.60 1.08 1.84 1.37 0.67 0.57 0.72 0.38 0.20 0.26 0.26 0.26 0.20 0.18 0.12 0.11 0.09 0.04 0.02 0.01 0.04 0.03 0.05 0.06 0.05 0.01 0.00 0.00 0.00 0.00 0.00 0.00 0.00
1.18 0.95 0.30 0.27 0.28 0.38 0.38 0.22 0.21 0.26 0.42 0.63 0.95 1.76 1.63 0.81 0.53 0.63 0.55 0.41 0.50 0.32 0.24 0.25 0.20 0.15 0.16 0.10 0.07 0.04 0.02 0.03 0.07 0.13 0.11 0.07 0.02 0.01 0.00 0.00 0.01 0.00 0.00
1.39 1.38 1.52 0.76 0.55 0.66 0.82 0.52 0.47 0.44 0.32 0.38 0.63 0.91 1.58 1.57 1.25 0.90 0.83 0.78 0.61 0.79 0.47 0.30 0.43 0.45 0.29 0.29 0.19 0.14 0.16 0.13 0.14 0.25 0.20 0.17 0.14 0.10 0.06 0.03 0.02 0.02 0.01
1.82 1.92 2.14 1.99 1.80 1.61 1.23 0.90 0.65 1.21 0.43 0.34 0.43 0.53 0.64 0.92 1.07 1.23 1.13 0.91 0.86 0.81 0.95 0.90 0.44 0.51 0.51 0.44 0.50 0.45 0.36 0.23 0.27 0.32 0.27 0.25 0.21 0.18 0.11 0.05 0.02 0.01 0.01
2.03 1.38 1.74 1.87 1.58 1.40 0.87 0.43 0.51 1.37 0.99 0.48 0.34 0.35 0.59 0.44 0.58 0.78 1.06 1.28 1.01 0.86 0.94 1.13 1.46 1.04 0.81 0.76 0.74 0.73 0.63 0.38 0.22 0.20 0.22 0.23 0.24 0.20 0.15 0.10 0.11 0.11 0.06
1.28 1.42 1.78 1.54 1.12 0.58 0.85 0.59 0.53 0.47 1.12 1.01 0.71 0.58 0.79 0.54 0.32 0.42 0.62 0.68 0.84 0.93 1.02 1.04 1.10 1.56 1.56 1.13 1.10 1.11 1.04 1.06 0.59 0.34 0.34 0.28 0.26 0.24 0.22 0.29 0.31 0.31 0.21
0.73 0.86 0.98 1.28 1.08 0.90 1.28 0.76 0.48 0.50 0.53 1.24 0.98 1.33 1.14 0.98 0.62 0.47 0.50 0.61 0.64 0.61 0.81 1.10 1.07 1.04 1.22 1.48 1.21 1.07 1.06 0.82 0.83 0.81 0.70 0.58 0.47 0.46 0.53 0.52 0.49 0.48 0.51
0.21 0.19 0.13 0.15 0.44 0.66 0.90 0.76 0.61 0.53 0.61 0.68 1.22 1.67 2.55 1.30 1.11 0.81 0.61 0.61 0.55 0.55 0.62 0.63 0.85 0.97 0.98 0.96 0.99 0.93 1.04 1.09 0.83 0.74 0.74 0.68 0.66 0.70 0.71 0.69 0.67 0.69 0.70
0.02 0.10 0.06 0.02 0.13 0.33 0.49 0.95 1.10 1.04 1.37 1.09 1.40 1.46 1.62 2.34 1.59 1.65 1.46 0.99 0.75 0.56 0.60 0.71 0.72 0.73 0.72 0.92 1.10 0.99 0.91 0.95 0.92 0.92 0.94 0.87 0.93 0.99 0.94 0.91 0.81 0.74 0.71
0.00 0.00 0.00 0.00 0.00 0.03 0.11 0.45 0.85 0.70 1.19 0.83 0.88 1.14 1.13 1.47 1.69 1.75 2.65 2.34 1.62 0.97 0.90 0.96 0.77 0.60 0.60 0.57 0.61 0.69 0.74 0.72 0.70 0.70 0.75 0.70 0.72 0.70 0.66 0.72 0.79 0.79 0.82
0.00 0.00 0.00 0.00 0.00 0.00 0.00 0.03 0.16 0.36 0.52 0.52 0.60 1.02 1.39 1.19 1.40 1.10 1.38 1.73 1.99 1.59 1.19 1.02 1.06 0.92 0.76 0.74 0.67 0.58 0.55 0.57 0.57 0.54 0.55 0.54 0.50 0.47 0.47 0.55 0.57 0.57 0.62
0.00 0.00 0.00 0.00 0.00 0.00 0.00 0.00 0.00 0.02 0.15 0.40 0.36 0.34 0.91 0.62 0.73 0.87 0.84 1.05 0.83 1.09 0.97 0.88 0.80 0.91 0.97 0.83 0.85 0.83 0.79 0.72 0.69 0.61 0.58 0.61 0.66 0.63 0.57 0.53 0.45 0.45 0.53
0.00 0.00 0.00 0.00 0.00 0.00 0.00 0.00 0.00 0.00 0.00 0.00 0.04 0.16 0.46 0.36 0.40 0.46 0.37 0.67 0.71 0.81 0.96 0.92 0.77 0.64 0.77 0.99 0.77 0.68 0.72 0.70 0.66 0.61 0.54 0.56 0.67 0.62 0.78 0.91 0.90 0.85 0.77
0.00 0.00 0.00 0.00 0.00 0.00 0.00 0.00 0.00 0.00 0.00 0.00 0.00 0.00 0.10 0.17 0.10 0.26 0.22 0.27 0.46 0.42 0.54 0.60 0.52 0.46 0.56 0.60 0.51 0.44 0.39 0.49 0.56 0.58 0.57 0.57 0.59 0.62 0.47 0.55 0.57 0.58 0.65
0.00 0.00 0.00 0.00 0.00 0.00 0.00 0.00 0.00 0.00 0.00 0.00 0.00 0.00 0.00 0.00 0.00 0.00 0.04 0.03 0.10 0.19 0.18 0.25 0.23 0.17 0.17 0.17 0.16 0.20 0.20 0.25 0.28 0.31 0.33 0.34 0.38 0.42 0.40 0.36 0.37 0.40 0.40
0.00 0.00 0.00 0.00 0.00 0.00 0.00 0.00 0.00 0.00 0.00 0.00 0.00 0.00 0.00 0.00 0.00 0.00 0.00 0.00 0.00 0.00 0.00 0.00 0.00 0.00 0.00 0.01 0.01 0.01 0.00 0.01 0.02 0.06 0.12 0.13 0.13 0.16 0.19 0.24 0.28 0.32 0.34
0.00 0.00 0.00 0.00 0.00 0.00 0.00 0.00 0.00 0.00 0.00 0.00 0.00 0.00 0.00 0.00 0.00 0.00 0.00 0.00 0.00 0.00 0.00 0.00 0.00 0.00 0.00 0.00 0.00 0.00 0.00 0.00 0.00 0.01 0.02 0.03 0.04 0.11 0.16 0.17 0.19 0.19 0.19
0.00 0.00 0.00 0.00 0.00 0.00 0.00 0.00 0.00 0.00 0.00 0.00 0.00 0.00 0.00 0.00 0.00 0.00 0.00 0.00 0.00 0.00 0.00 0.00 0.00 0.00 0.00 0.00 0.00 0.00 0.00 0.00 0.00 0.00 0.02 0.02 0.03 0.03 0.06 0.13 0.16 0.18 0.20
0.00 0.00 0.00 0.00 0.00 0.00 0.00 0.00 0.00 0.00 0.00 0.00 0.00 0.00 0.00 0.00 0.00 0.00 0.00 0.00 0.00 0.00 0.00 0.00 0.00 0.00 0.00 0.00 0.00 0.00 0.00 0.00 0.00 0.01 0.01 0.01 0.01 0.02 0.04 0.08 0.13 0.17 0.17
0.00 0.00 0.00 0.00 0.00 0.00 0.00 0.00 0.00 0.00 0.00 0.00 0.00 0.00 0.00 0.00 0.00 0.00 0.00 0.00 0.00 0.00 0.00 0.00 0.00 0.00 0.00 0.00 0.00 0.00 0.00 0.00 0.00 0.01 0.02 0.02 0.02 0.02 0.01 0.01 0.02 0.04 0.04
0.00 0.00 0.00 0.00 0.00 0.00 0.00 0.00 0.00 0.00 0.00 0.00 0.00 0.00 0.00 0.00 0.00 0.00 0.00 0.00 0.00 0.00 0.00 0.00 0.00 0.00 0.00 0.00 0.00 0.00 0.00 0.00 0.00 0.00 0.01 0.03 0.03 0.03 0.04 0.06 0.06 0.06 0.08
0.00 0.00 0.00 0.00 0.00 0.00 0.00 0.00 0.00 0.00 0.00 0.00 0.00 0.00 0.00 0.00 0.00 0.00 0.00 0.00 0.00 0.00 0.00 0.00 0.00 0.00 0.00 0.00 0.01 0.01 0.00 0.00 0.01 0.01 0.00 0.01 0.01 0.01 0.02 0.04 0.08 0.11 0.19
0.00 0.00 0.00 0.00 0.00 0.00 0.00 0.00 0.00 0.00 0.00 0.00 0.00 0.00 0.00 0.00 0.00 0.00 0.00 0.01 0.01 0.01 0.00 0.00 0.00 0.00 0.01 0.01 0.02 0.02 0.02 0.03 0.05 0.04 0.00 0.00 0.01 0.01 0.01 0.05 0.11 0.16 0.22

GFSMW_prec_precacc24_144.txt.gz
Total_Precipitation_Accumulation
0.22 0.14 0.07 0.08 0.02 0.01 0.05 0.15 0.65 1.09 0.79 0.54 0.40 0.29 0.33 0.18 0.14 0.19 0.16 0.21 0.21 0.17 0.19 0.12 0.11 0.06 0.05 0.03 0.01 0.00 0.00 0.00 0.00 0.00 0.00 0.00 0.00 0.00 0.00 0.00 0.00 0.00 0.01
0.16 0.09 0.04 0.09 0.08 0.04 0.04 0.11 0.50 1.24 1.18 0.89 0.55 0.35 0.23 0.22 0.17 0.12 0.14 0.17 0.19 0.18 0.22 0.17 0.12 0.09 0.05 0.05 0.04 0.01 0.00 0.00 0.00 0.00 0.00 0.00 0.00 0.00 0.00 0.00 0.00 0.01 0.00
0.14 0.09 0.05 0.05 0.09 0.07 0.05 0.10 0.18 0.56 1.04 1.16 1.14 0.78 0.55 0.78 0.48 0.32 0.26 0.24 0.27 0.22 0.24 0.21 0.17 0.14 0.07 0.04 0.03 0.02 0.01 0.00 0.00 0.00 0.00 0.00 0.00 0.00 0.00 0.00 0.00 0.00 0.00
0.23 0.29 0.13 0.09 0.07 0.09 0.13 0.13 0.17 0.25 0.55 0.94 1.59 1.21 0.62 0.54 0.66 0.36 0.20 0.26 0.26 0.28 0.22 0.22 0.19 0.24 0.17 0.08 0.03 0.02 0.03 0.02 0.00 0.00 0.00 0.00 0.00 0.00 0.00 0.00 0.00 0.00 0.00
1.09 0.91 0.23 0.12 0.21 0.25 0.28 0.18 0.17 0.25 0.35 0.55 0.75 1.49 1.39 0.68 0.48 0.60 0.53 0.40 0.50 0.33 0.28 0.31 0.29 0.26 0.35 0.21 0.11 0.06 0.04 0.03 0.02 0.00 0.00 0.01 0.00 0.00 0.00 0.00 0.01 0.00 0.00
1.29 1.29 1.43 0.62 0.48 0.62 0.74 0.38 0.26 0.31 0.26 0.31 0.49 0.62 1.33 1.36 0.98 0.76 0.80 0.76 0.59 0.79 0.48 0.34 0.52 0.58 0.46 0.43 0.32 0.20 0.19 0.15 0.14 0.16 0.10 0.09 0.09 0.08 0.05 0.03 0.02 0.02 0.01
1.65 1.83 2.06 1.96 1.79 1.61 1.21 0.79 0.36 0.57 0.31 0.29 0.36 0.41 0.47 0.81 0.92 0.97 0.92 0.84 0.83 0.79 0.94 0.91 0.48 0.60 0.70 0.61 0.65 0.74 0.56 0.32 0.30 0.30 0.23 0.20 0.17 0.15 0.09 0.05 0.02 0.01 0.01
1.53 0.98 1.46 1.75 1.54 1.38 0.84 0.37 0.30 0.73 0.59 0.36 0.29 0.29 0.48 0.36 0.53 0.66 0.89 1.01 0.75 0.66 0.75 1.06 1.44 0.99 0.91 1.07 0.88 0.82 0.84 0.70 0.40 0.28 0.26 0.21 0.19 0.16 0.13 0.10 0.10 0.10 0.06
1.05 0.91 1.36 1.23 0.95 0.53 0.82 0.53 0.44 0.32 0.85 0.74 0.57 0.50 0.72 0.46 0.25 0.33 0.52 0.60 0.72 0.79 0.92 0.96 1.05 1.47 1.54 1.34 1.74 1.51 1.11 1.25 1.15 0.82 0.60 0.44 0.37 0.32 0.25 0.29 0.28 0.29 0.21
0.72 0.85 0.88 1.21 1.02 0.85 1.21 0.65 0.31 0.39 0.42 1.03 0.81 1.24 1.06 0.91 0.54 0.34 0.36 0.50 0.57 0.55 0.75 1.07 1.06 1.02 1.20 1.50 1.39 1.83 1.76 1.00 1.02 1.15 1.07 0.81 0.60 0.60 0.65 0.52 0.49 0.49 0.52
0.21 0.19 0.13 0.15 0.44 0.66 0.89 0.70 0.40 0.30 0.48 0.56 1.02 1.50 2.45 1.24 1.02 0.72 0.51 0.50 0.47 0.50 0.58 0.61 0.85 0.98 0.98 0.98 1.10 1.25 1.47 1.84 1.41 0.96 0.92 0.84 0.87 0.94 0.83 0.75 0.75 0.79 0.79
0.02 0.10 0.06 0.02 0.13 0.33 0.49 0.95 1.01 0.75 1.17 1.01 1.29 1.26 1.44 2.07 1.41 1.48 1.26 0.89 0.65 0.47 0.54 0.66 0.67 0.77 0.74 0.92 1.07 1.09 1.22 1.14 1.30 1.42 1.24 1.12 1.33 1.42 1.22 1.07 1.02 0.91 0.83
0.00 0.00 0.00 0.00 0.00 0.03 0.11 0.45 0.85 0.66 1.08 0.73 0.78 0.94 0.66 1.03 1.37 1.48 2.29 1.91 1.46 0.87 0.83 0.89 0.74 0.61 0.64 0.65 0.66 0.75 0.87 1.03 1.24 1.31 1.21 1.06 1.03 0.99 0.96 0.98 1.02 1.00 0.95
0.00 0.00 0.00 0.00 0.00 0.00 0.00 0.03 0.16 0.35 0.45 0.42 0.50 0.83 0.93 0.87 1.13 0.94 1.26 1.59 1.80 1.39 1.04 0.89 0.91 0.87 0.79 0.82 0.80 0.76 0.69 0.75 0.88 1.10 1.17 0.94 0.85 0.83 0.81 0.94 0.93 0.83 0.74
0.00 0.00 0.00 0.00 0.00 0.00 0.00 0.00 0.00 0.02 0.14 0.36 0.32 0.30 0.90 0.62 0.75 0.96 0.95 1.40 1.02 1.16 1.06 0.85 0.77 0.86 0.96 0.94 0.94 0.91 0.87 0.86 0.87 0.88 0.93 0.90 0.76 0.74 0.65 0.62 0.54 0.54 0.60
0.00 0.00 0.00 0.00 0.00 0.00 0.00 0.00 0.00 0.00 0.00 0.00 0.04 0.16 0.47 0.41 0.47 0.60 0.48 0.89 1.07 1.16 1.33 1.19 1.01 0.82 0.87 1.11 0.95 0.75 0.80 0.77 0.69 0.64 0.59 0.62 0.71 0.68 0.85 0.98 0.95 0.89 0.80
0.00 0.00 0.00 0.00 0.00 0.00 0.00 0.00 0.00 0.00 0.00 0.00 0.00 0.00 0.10 0.19 0.13 0.33 0.30 0.30 0.63 0.57 0.71 0.90 0.96 0.97 0.91 0.86 0.69 0.61 0.50 0.62 0.66 0.61 0.60 0.62 0.65 0.71 0.59 0.66 0.65 0.63 0.68
0.00 0.00 0.00 0.00 0.00 0.00 0.00 0.00 0.00 0.00 0.00 0.00 0.00 0.00 0.00 0.00 0.00 0.01 0.09 0.05 0.19 0.47 0.50 0.47 0.52 0.44 0.41 0.39 0.38 0.42 0.41 0.47 0.42 0.37 0.37 0.37 0.41 0.44 0.41 0.37 0.37 0.41 0.40
0.00 0.00 0.00 0.00 0.00 0.00 0.00 0.00 0.00 0.00 0.00 0.00 0.00 0.00 0.00 0.00 0.00 0.00 0.00 0.00 0.00 0.01 0.09 0.10 0.08 0.12 0.14 0.16 0.17 0.17 0.13 0.12 0.12 0.12 0.14 0.14 0.13 0.16 0.19 0.24 0.28 0.32 0.34
0.00 0.00 0.00 0.00 0.00 0.00 0.00 0.00 0.00 0.00 0.00 0.00 0.00 0.00 0.00 0.00 0.00 0.00 0.00 0.00 0.00 0.00 0.00 0.00 0.00 0.00 0.00 0.00 0.00 0.00 0.00 0.00 0.00 0.01 0.02 0.03 0.04 0.11 0.16 0.17 0.19 0.19 0.19
0.00 0.00 0.00 0.00 0.00 0.00 0.00 0.00 0.00 0.00 0.00 0.00 0.00 0.00 0.00 0.00 0.00 0.00 0.00 0.00 0.00 0.00 0.00 0.00 0.00 0.00 0.00 0.00 0.00 0.00 0.00 0.00 0.00 0.00 0.02 0.02 0.03 0.03 0.06 0.13 0.16 0.18 0.20
0.00 0.00 0.00 0.00 0.00 0.00 0.00 0.00 0.00 0.00 0.00 0.00 0.00 0.00 0.00 0.00 0.00 0.00 0.00 0.00 0.00 0.00 0.00 0.00 0.00 0.00 0.00 0.00 0.00 0.00 0.00 0.00 0.00 0.01 0.01 0.01 0.01 0.02 0.04 0.08 0.13 0.17 0.17
0.00 0.00 0.00 0.00 0.00 0.00 0.00 0.00 0.00 0.00 0.00 0.00 0.00 0.00 0.00 0.00 0.00 0.00 0.00 0.00 0.00 0.00 0.00 0.00 0.00 0.00 0.00 0.00 0.00 0.00 0.00 0.00 0.00 0.01 0.02 0.02 0.02 0.02 0.01 0.01 0.02 0.05 0.04
0.00 0.00 0.00 0.00 0.00 0.00 0.00 0.00 0.00 0.00 0.00 0.00 0.00 0.00 0.00 0.00 0.00 0.00 0.00 0.00 0.00 0.00 0.00 0.00 0.00 0.00 0.00 0.00 0.00 0.00 0.00 0.00 0.00 0.00 0.01 0.03 0.03 0.03 0.04 0.06 0.06 0.06 0.08
0.00 0.00 0.00 0.00 0.00 0.00 0.00 0.00 0.00 0.00 0.00 0.00 0.00 0.00 0.00 0.00 0.00 0.00 0.00 0.00 0.00 0.00 0.00 0.00 0.00 0.00 0.00 0.00 0.01 0.01 0.00 0.00 0.01 0.01 0.00 0.01 0.01 0.01 0.02 0.04 0.08 0.11 0.19
0.00 0.00 0.00 0.00 0.00 0.00 0.00 0.00 0.00 0.00 0.00 0.00 0.00 0.00 0.00 0.00 0.00 0.00 0.00 0.00 0.00 0.00 0.00 0.00 0.00 0.00 0.00 0.01 0.01 0.01 0.02 0.03 0.04 0.04 0.00 0.00 0.00 0.00 0.01 0.05 0.11 0.16 0.22

GFSMW_prec_precacc24_147.txt.gz
Total_Precipitation_Accumulation
0.00 0.00 0.00 0.00 0.01 0.00 0.00 0.00 0.01 0.04 0.35 0.19 0.08 0.11 0.22 0.15 0.12 0.18 0.15 0.19 0.20 0.17 0.19 0.15 0.19 0.16 0.11 0.10 0.08 0.05 0.01 0.00 0.00 0.00 0.00 0.00 0.00 0.00 0.00 0.00 0.00 0.00 0.00
0.01 0.00 0.00 0.01 0.04 0.03 0.01 0.00 0.02 0.05 0.48 0.58 0.27 0.07 0.07 0.14 0.14 0.10 0.13 0.15 0.18 0.18 0.22 0.18 0.16 0.20 0.15 0.11 0.11 0.09 0.03 0.01 0.00 0.00 0.00 0.00 0.00 0.00 0.00 0.00 0.00 0.00 0.00
0.02 0.02 0.02 0.02 0.06 0.06 0.04 0.03 0.02 0.06 0.35 0.92 0.71 0.41 0.27 0.27 0.29 0.29 0.25 0.22 0.26 0.22 0.25 0.22 0.21 0.26 0.21 0.10 0.06 0.08 0.07 0.05 0.01 0.01 0.00 0.00 0.00 0.00 0.00 0.00 0.00 0.00 0.00
0.11 0.14 0.06 0.06 0.06 0.08 0.13 0.12 0.09 0.11 0.28 0.81 1.45 1.11 0.52 0.26 0.19 0.15 0.17 0.23 0.26 0.28 0.22 0.22 0.20 0.34 0.34 0.21 0.09 0.07 0.08 0.08 0.05 0.02 0.01 0.00 0.00 0.00 0.00 0.00 0.00 0.00 0.00
0.97 0.65 0.15 0.08 0.19 0.21 0.24 0.17 0.15 0.19 0.23 0.46 0.73 1.48 1.37 0.65 0.30 0.26 0.22 0.28 0.43 0.32 0.28 0.31 0.29 0.29 0.49 0.54 0.33 0.12 0.09 0.08 0.06 0.04 0.02 0.00 0.00 0.00 0.00 0.00 0.00 0.00 0.00
1.08 1.17 1.31 0.51 0.42 0.54 0.68 0.35 0.23 0.28 0.20 0.26 0.47 0.62 1.33 1.36 0.97 0.71 0.65 0.57 0.47 0.73 0.48 0.34 0.52 0.59 0.48 0.50 0.57 0.54 0.29 0.14 0.08 0.05 0.05 0.05 0.06 0.03 0.01 0.00 0.01 0.02 0.00
1.41 1.57 1.88 1.82 1.73 1.54 1.18 0.77 0.36 0.53 0.24 0.18 0.31 0.39 0.46 0.80 0.90 0.95 0.90 0.81 0.78 0.74 0.94 0.91 0.48 0.61 0.69 0.60 0.64 0.69 0.62 0.52 0.37 0.25 0.21 0.21 0.19 0.16 0.07 0.02 0.01 0.00 0.01
1.05 0.79 1.30 1.67 1.50 1.37 0.84 0.37 0.27 0.54 0.37 0.26 0.13 0.20 0.43 0.31 0.50 0.64 0.84 0.94 0.72 0.63 0.72 1.05 1.42 0.96 0.86 0.98 0.84 0.82 0.83 0.91 0.79 0.58 0.45 0.36 0.27 0.25 0.23 0.17 0.13 0.08 0.03
0.64 0.67 1.02 0.88 0.92 0.53 0.81 0.49 0.38 0.24 0.23 0.31 0.20 0.27 0.62 0.42 0.22 0.31 0.50 0.56 0.62 0.67 0.79 0.83 0.86 1.30 1.38 1.20 1.63 1.53 1.21 1.32 1.24 1.08 0.91 0.73 0.60 0.52 0.41 0.41 0.42 0.37 0.20
0.56 0.63 0.69 0.93 0.98 0.84 1.18 0.62 0.26 0.33 0.22 0.35 0.44 0.76 0.85 0.79 0.49 0.32 0.32 0.47 0.54 0.48 0.64 0.96 0.96 0.81 0.99 1.32 1.30 1.80 1.90 1.29 1.25 1.30 1.15 0.98 0.78 0.74 0.86 0.87 0.75 0.71 0.69
0.19 0.16 0.10 0.14 0.44 0.66 0.89 0.69 0.38 0.27 0.40 0.37 0.82 1.24 2.26 1.01 0.88 0.64 0.40 0.37 0.40 0.45 0.53 0.56 0.79 0.92 0.91 0.89 1.04 1.22 1.48 1.98 1.72 1.24 1.11 0.99 0.94 1.02 1.00 1.01 1.07 1.17 1.20
0.02 0.09 0.04 0.02 0.13 0.33 0.49 0.95 1.00 0.66 1.04 0.94 1.22 1.12 1.33 1.84 1.13 1.27 1.07 0.70 0.53 0.39 0.47 0.58 0.61 0.74 0.71 0.86 1.02 1.07 1.20 1.13 1.30 1.46 1.31 1.11 1.18 1.35 1.38 1.36 1.30 1.23 1.10
0.00 0.00 0.00 0.00 0.00 0.03 0.11 0.45 0.85 0.63 1.02 0.66 0.69 0.77 0.51 0.86 1.11 1.19 1.93 1.47 1.16 0.73 0.72 0.80 0.65 0.54 0.58 0.58 0.62 0.71 0.82 0.99 1.21 1.27 1.19 1.08 1.11 1.14 1.10 1.14 1.18 1.19 1.27
0.00 0.00 0.00 0.00 0.00 0.00 0.00 0.03 0.16 0.35 0.45 0.40 0.46 0.66 0.45 0.47 0.90 0.72 0.94 1.26 1.38 1.02 0.74 0.73 0.79 0.71 0.68 0.72 0.72 0.68 0.64 0.72 0.90 1.16 1.21 1.08 1.02 1.04 1.11 1.29 1.34 1.34 1.35
0.00 0.00 0.00 0.00 0.00 0.00 0.00 0.00 0.00 0.02 0.14 0.35 0.31 0.26 0.77 0.51 0.66 0.84 0.82 1.28 0.98 1.04 0.87 0.56 0.47 0.56 0.67 0.74 0.78 0.78 0.82 0.86 1.00 1.05 1.13 1.11 1.04 0.97 0.91 0.90 0.88 0.88 0.93
0.00 0.00 0.00 0.00 0.00 0.00 0.00 0.00 0.00 0.00 0.00 0.00 0.04 0.15 0.47 0.42 0.49 0.63 0.51 0.89 1.06 1.25 1.39 1.12 0.95 0.76 0.76 1.01 1.21 0.87 0.89 1.10 0.84 0.94 0.88 0.87 0.89 0.79 0.99 1.10 1.04 0.95 0.85
0.00 0.00 0.00 0.00 0.00 0.00 0.00 0.00 0.00 0.00 0.00 0.00 0.00 0.00 0.10 0.18 0.12 0.35 0.36 0.35 0.71 0.72 0.84 1.02 1.18 1.20 1.22 1.09 0.92 1.00 0.63 0.85 0.88 0.69 0.68 0.72 0.71 0.74 0.60 0.68 0.67 0.66 0.73
0.00 0.00 0.00 0.00 0.00 0.00 0.00 0.00 0.00 0.00 0.00 0.00 0.00 0.00 0.00 0.00 0.00 0.01 0.09 0.05 0.19 0.51 0.62 0.57 0.67 0.53 0.74 0.82 0.64 0.58 0.57 0.62 0.56 0.54 0.54 0.47 0.46 0.49 0.45 0.39 0.39 0.42 0.41
0.00 0.00 0.00 0.00 0.00 0.00 0.00 0.00 0.00 0.00 0.00 0.00 0.00 0.00 0.00 0.00 0.00 0.00 0.00 0.00 0.00 0.02 0.16 0.26 0.26 0.27 0.34 0.39 0.37 0.31 0.28 0.21 0.21 0.22 0.27 0.25 0.19 0.19 0.20 0.23 0.28 0.33 0.34
0.00 0.00 0.00 0.00 0.00 0.00 0.00 0.00 0.00 0.00 0.00 0.00 0.00 0.00 0.00 0.00 0.00 0.00 0.00 0.00 0.00 0.00 0.00 0.00 0.00 0.01 0.05 0.08 0.13 0.17 0.16 0.11 0.07 0.04 0.04 0.05 0.06 0.13 0.17 0.17 0.19 0.19 0.19
0.00 0.00 0.00 0.00 0.00 0.00 0.00 0.00 0.00 0.00 0.00 0.00 0.00 0.00 0.00 0.00 0.00 0.00 0.00 0.00 0.00 0.00 0.00 0.00 0.00 0.00 0.00 0.00 0.00 0.00 0.00 0.00 0.00 0.00 0.01 0.02 0.03 0.03 0.06 0.13 0.16 0.18 0.20
0.00 0.00 0.00 0.00 0.00 0.00 0.00 0.00 0.00 0.00 0.00 0.00 0.00 0.00 0.00 0.00 0.00 0.00 0.00 0.00 0.00 0.00 0.00 0.00 0.00 0.00 0.00 0.00 0.00 0.00 0.00 0.00 0.00 0.00 0.01 0.01 0.01 0.02 0.04 0.08 0.13 0.17 0.17
0.00 0.00 0.00 0.00 0.00 0.00 0.00 0.00 0.00 0.00 0.00 0.00 0.00 0.00 0.00 0.00 0.00 0.00 0.00 0.00 0.00 0.00 0.00 0.00 0.00 0.00 0.00 0.00 0.00 0.00 0.00 0.00 0.00 0.01 0.02 0.02 0.02 0.02 0.01 0.01 0.02 0.05 0.04
0.00 0.00 0.00 0.00 0.00 0.00 0.00 0.00 0.00 0.00 0.00 0.00 0.00 0.00 0.00 0.00 0.00 0.00 0.00 0.00 0.00 0.00 0.00 0.00 0.00 0.00 0.00 0.00 0.00 0.00 0.00 0.00 0.00 0.00 0.01 0.03 0.03 0.03 0.04 0.06 0.06 0.06 0.08
0.00 0.00 0.00 0.00 0.00 0.00 0.00 0.00 0.00 0.00 0.00 0.00 0.00 0.00 0.00 0.00 0.00 0.00 0.00 0.00 0.00 0.00 0.00 0.00 0.00 0.00 0.00 0.00 0.01 0.01 0.00 0.00 0.00 0.01 0.00 0.01 0.01 0.01 0.02 0.04 0.08 0.11 0.19
0.00 0.00 0.00 0.00 0.00 0.00 0.00 0.00 0.00 0.00 0.00 0.00 0.00 0.00 0.00 0.00 0.00 0.00 0.00 0.00 0.00 0.00 0.00 0.00 0.00 0.00 0.00 0.01 0.01 0.01 0.01 0.02 0.04 0.03 0.00 0.00 0.00 0.00 0.01 0.05 0.11 0.16 0.22

GFSMW_prec_precacc24_150.txt.gz
Total_Precipitation_Accumulation
0.00 0.00 0.00 0.00 0.00 0.00 0.00 0.00 0.00 0.00 0.00 0.01 0.01 0.02 0.07 0.06 0.09 0.17 0.14 0.19 0.18 0.16 0.19 0.15 0.19 0.20 0.19 0.15 0.13 0.13 0.09 0.05 0.02 0.00 0.00 0.00 0.00 0.00 0.00 0.00 0.00 0.00 0.00
0.00 0.00 0.00 0.00 0.00 0.00 0.00 0.00 0.00 0.00 0.01 0.02 0.03 0.02 0.03 0.05 0.04 0.06 0.11 0.13 0.14 0.15 0.20 0.18 0.16 0.20 0.22 0.24 0.18 0.14 0.12 0.11 0.06 0.01 0.00 0.00 0.00 0.00 0.00 0.00 0.00 0.00 0.00
0.01 0.01 0.00 0.00 0.00 0.00 0.01 0.02 0.02 0.02 0.03 0.06 0.12 0.19 0.15 0.16 0.12 0.16 0.16 0.15 0.17 0.15 0.20 0.21 0.21 0.26 0.22 0.19 0.17 0.16 0.17 0.16 0.10 0.06 0.02 0.01 0.00 0.00 0.00 0.00 0.00 0.00 0.00
0.04 0.07 0.03 0.01 0.01 0.01 0.04 0.09 0.09 0.08 0.08 0.10 0.14 0.20 0.22 0.16 0.12 0.07 0.10 0.15 0.16 0.18 0.18 0.21 0.20 0.34 0.35 0.24 0.18 0.17 0.18 0.22 0.17 0.12 0.07 0.02 0.00 0.00 0.00 0.00 0.00 0.00 0.00
0.32 0.19 0.09 0.05 0.08 0.09 0.15 0.13 0.14 0.18 0.14 0.14 0.14 0.30 0.54 0.36 0.17 0.11 0.10 0.16 0.33 0.24 0.23 0.31 0.29 0.29 0.50 0.55 0.38 0.23 0.20 0.19 0.17 0.10 0.10 0.11 0.03 0.00 0.00 0.00 0.01 0.00 0.00
0.49 0.23 0.19 0.20 0.23 0.36 0.56 0.31 0.20 0.25 0.17 0.14 0.19 0.24 0.62 0.88 0.69 0.38 0.23 0.23 0.30 0.61 0.41 0.33 0.53 0.60 0.48 0.50 0.57 0.63 0.53 0.29 0.21 0.17 0.11 0.09 0.06 0.03 0.02 0.01 0.02 0.03 0.01
0.71 0.76 0.62 0.92 1.17 1.29 1.06 0.73 0.34 0.51 0.21 0.12 0.16 0.17 0.24 0.60 0.71 0.77 0.69 0.50 0.41 0.49 0.83 0.89 0.48 0.61 0.70 0.61 0.64 0.70 0.81 0.94 0.82 0.57 0.31 0.18 0.17 0.18 0.09 0.03 0.02 0.02 0.02
0.57 0.49 0.80 1.33 1.32 1.32 0.82 0.37 0.27 0.54 0.37 0.24 0.07 0.12 0.33 0.23 0.42 0.54 0.76 0.88 0.64 0.54 0.61 0.99 1.40 0.96 0.87 0.99 0.83 0.79 0.79 0.84 0.84 0.89 0.96 0.76 0.47 0.41 0.40 0.27 0.17 0.15 0.11
0.42 0.56 0.77 0.71 0.79 0.48 0.80 0.48 0.38 0.24 0.22 0.29 0.18 0.23 0.58 0.38 0.19 0.28 0.47 0.52 0.58 0.60 0.66 0.69 0.84 1.28 1.34 1.17 1.61 1.47 1.16 1.24 1.15 1.04 0.92 0.88 0.97 0.98 0.77 0.66 0.54 0.53 0.41
0.21 0.34 0.46 0.82 0.95 0.83 1.18 0.62 0.25 0.32 0.21 0.20 0.27 0.51 0.73 0.69 0.35 0.26 0.30 0.44 0.49 0.43 0.56 0.78 0.77 0.75 0.86 1.13 1.10 1.62 1.75 1.19 1.17 1.24 1.15 0.99 0.83 0.85 1.05 1.15 1.06 1.00 0.94
0.08 0.08 0.07 0.12 0.42 0.66 0.89 0.68 0.37 0.24 0.35 0.25 0.47 0.86 1.56 0.65 0.59 0.47 0.37 0.36 0.39 0.42 0.48 0.48 0.67 0.81 0.81 0.77 0.88 1.06 1.36 1.92 1.68 1.20 1.09 0.99 0.94 1.04 1.04 1.06 1.16 1.27 1.26
0.01 0.04 0.00 0.02 0.13 0.33 0.49 0.95 1.00 0.64 1.00 0.89 1.10 0.98 1.04 1.36 0.78 0.98 0.92 0.59 0.42 0.30 0.39 0.51 0.55 0.70 0.67 0.82 0.95 0.99 1.12 1.07 1.27 1.44 1.30 1.11 1.24 1.36 1.21 1.23 1.24 1.23 1.15
0.00 0.00 0.00 0.00 0.00 0.03 0.11 0.45 0.85 0.63 1.01 0.65 0.69 0.74 0.42 0.71 0.89 0.95 1.74 1.34 1.04 0.59 0.57 0.69 0.58 0.48 0.54 0.55 0.56 0.64 0.73 0.91 1.14 1.22 1.14 1.06 1.08 1.12 1.05 1.05 1.01 1.02 1.19
0.00 0.00 0.00 0.00 0.00 0.00 0.00 0.03 0.16 0.35 0.44 0.39 0.45 0.65 0.40 0.40 0.80 0.63 0.85 1.09 1.17 0.82 0.57 0.60 0.68 0.59 0.54 0.64 0.64 0.60 0.56 0.62 0.82 1.09 1.15 1.01 0.94 1.00 1.09 1.25 1.26 1.25 1.31
0.00 0.00 0.00 0.00 0.00 0.00 0.00 0.00 0.00 0.02 0.14 0.35 0.29 0.26 0.77 0.50 0.65 0.84 0.80 1.22 0.90 0.98 0.83 0.48 0.38 0.47 0.58 0.64 0.65 0.66 0.70 0.74 0.90 0.98 1.05 0.98 0.91 0.87 0.81 0.82 0.85 0.94 1.09
0.00 0.00 0.00 0.00 0.00 0.00 0.00 0.00 0.00 0.00 0.00 0.00 0.04 0.15 0.47 0.42 0.49 0.63 0.51 0.88 1.04 1.21 1.37 1.10 0.88 0.65 0.64 0.84 1.00 0.67 0.71 0.99 0.85 0.97 0.93 0.89 0.99 0.85 0.94 1.03 1.02 1.00 0.96
0.00 0.00 0.00 0.00 0.00 0.00 0.00 0.00 0.00 0.00 0.00 0.00 0.00 0.00 0.10 0.18 0.12 0.35 0.36 0.35 0.73 0.75 0.90 1.09 1.17 1.11 1.07 0.93 0.80 0.94 0.59 0.85 1.10 0.92 0.88 0.87 0.87 0.87 0.70 0.74 0.72 0.77 0.84
0.00 0.00 0.00 0.00 0.00 0.00 0.00 0.00 0.00 0.00 0.00 0.00 0.00 0.00 0.00 0.00 0.00 0.01 0.09 0.05 0.20 0.52 0.64 0.61 0.74 0.57 0.75 0.89 0.75 0.65 0.55 0.71 0.81 0.72 0.67 0.67 0.64 0.62 0.48 0.42 0.41 0.47 0.50
0.00 0.00 0.00 0.00 0.00 0.00 0.00 0.00 0.00 0.00 0.00 0.00 0.00 0.00 0.00 0.00 0.00 0.00 0.00 0.00 0.00 0.02 0.16 0.27 0.31 0.33 0.47 0.61 0.70 0.79 0.67 0.55 0.59 0.53 0.46 0.46 0.41 0.41 0.33 0.29 0.29 0.33 0.36
0.00 0.00 0.00 0.00 0.00 0.00 0.00 0.00 0.00 0.00 0.00 0.00 0.00 0.00 0.00 0.00 0.00 0.00 0.00 0.00 0.00 0.00 0.00 0.00 0.00 0.02 0.10 0.16 0.29 0.44 0.48 0.37 0.32 0.22 0.20 0.18 0.19 0.25 0.24 0.19 0.18 0.16 0.17
0.00 0.00 0.00 0.00 0.00 0.00 0.00 0.00 0.00 0.00 0.00 0.00 0.00 0.00 0.00 0.00 0.00 0.00 0.00 0.00 0.00 0.00 0.00 0.00 0.00 0.00 0.00 0.00 0.01 0.02 0.06 0.09 0.08 0.08 0.06 0.04 0.03 0.01 0.02 0.04 0.06 0.15 0.20
0.00 0.00 0.00 0.00 0.00 0.00 0.00 0.00 0.00 0.00 0.00 0.00 0.00 0.00 0.00 0.00 0.00 0.00 0.00 0.00 0.00 0.00 0.00 0.00 0.00 0.00 0.00 0.00 0.00 0.00 0.00 0.00 0.00 0.00 0.00 0.00 0.01 0.01 0.01 0.02 0.08 0.15 0.17
0.00 0.00 0.00 0.00 0.00 0.00 0.00 0.00 0.00 0.00 0.00 0.00 0.00 0.00 0.00 0.00 0.00 0.00 0.00 0.00 0.00 0.00 0.00 0.00 0.00 0.00 0.00 0.00 0.00 0.00 0.00 0.00 0.00 0.00 0.01 0.01 0.02 0.01 0.01 0.01 0.02 0.04 0.04
0.00 0.00 0.00 0.00 0.00 0.00 0.00 0.00 0.00 0.00 0.00 0.00 0.00 0.00 0.00 0.00 0.00 0.00 0.00 0.00 0.00 0.00 0.00 0.00 0.00 0.00 0.00 0.00 0.00 0.00 0.00 0.00 0.00 0.00 0.01 0.01 0.01 0.02 0.03 0.05 0.05 0.05 0.07
0.00 0.00 0.00 0.00 0.00 0.00 0.00 0.00 0.00 0.00 0.00 0.00 0.00 0.00 0.00 0.00 0.00 0.00 0.00 0.00 0.00 0.00 0.00 0.00 0.00 0.00 0.00 0.00 0.01 0.00 0.00 0.00 0.00 0.01 0.00 0.00 0.00 0.00 0.01 0.02 0.05 0.09 0.17
0.00 0.00 0.00 0.00 0.00 0.00 0.00 0.00 0.00 0.00 0.00 0.00 0.00 0.00 0.00 0.00 0.00 0.00 0.00 0.00 0.00 0.00 0.00 0.00 0.00 0.00 0.00 0.00 0.01 0.00 0.01 0.01 0.02 0.02 0.00 0.00 0.00 0.00 0.01 0.03 0.08 0.13 0.20

GFSMW_prec_precacc24_153.txt.gz
Total_Precipitation_Accumulation
0.00 0.00 0.00 0.00 0.00 0.00 0.00 0.00 0.00 0.00 0.00 0.00 0.00 0.01 0.01 0.02 0.08 0.16 0.14 0.18 0.18 0.15 0.18 0.14 0.18 0.20 0.19 0.16 0.15 0.16 0.13 0.10 0.08 0.04 0.01 0.00 0.00 0.00 0.00 0.00 0.00 0.00 0.00
0.00 0.00 0.00 0.00 0.00 0.00 0.00 0.00 0.00 0.00 0.00 0.00 0.00 0.01 0.01 0.01 0.01 0.04 0.10 0.13 0.14 0.14 0.18 0.17 0.16 0.20 0.22 0.24 0.20 0.17 0.16 0.15 0.14 0.13 0.12 0.04 0.00 0.00 0.00 0.00 0.00 0.00 0.00
0.01 0.01 0.00 0.00 0.00 0.00 0.00 0.00 0.00 0.00 0.00 0.00 0.01 0.02 0.07 0.07 0.07 0.09 0.11 0.15 0.16 0.14 0.18 0.19 0.19 0.25 0.22 0.19 0.17 0.19 0.22 0.22 0.15 0.13 0.13 0.11 0.03 0.01 0.00 0.00 0.00 0.00 0.00
0.04 0.07 0.03 0.01 0.01 0.01 0.00 0.00 0.00 0.00 0.00 0.03 0.04 0.03 0.03 0.07 0.06 0.05 0.07 0.13 0.15 0.17 0.15 0.16 0.17 0.33 0.35 0.24 0.19 0.17 0.20 0.31 0.30 0.23 0.14 0.09 0.07 0.03 0.02 0.01 0.00 0.01 0.00
0.06 0.10 0.07 0.03 0.03 0.03 0.02 0.01 0.00 0.00 0.03 0.07 0.07 0.06 0.06 0.06 0.09 0.09 0.07 0.12 0.27 0.19 0.18 0.24 0.23 0.28 0.50 0.55 0.38 0.23 0.20 0.21 0.22 0.19 0.16 0.20 0.18 0.13 0.06 0.02 0.02 0.02 0.02
0.07 0.08 0.07 0.05 0.05 0.08 0.05 0.07 0.06 0.04 0.08 0.09 0.17 0.13 0.08 0.08 0.16 0.18 0.14 0.11 0.16 0.49 0.30 0.23 0.45 0.53 0.48 0.51 0.59 0.65 0.53 0.30 0.23 0.24 0.20 0.16 0.14 0.11 0.06 0.02 0.04 0.05 0.03
0.14 0.05 0.03 0.11 0.10 0.38 0.15 0.23 0.19 0.40 0.19 0.11 0.16 0.16 0.13 0.13 0.11 0.22 0.27 0.16 0.15 0.18 0.64 0.73 0.34 0.52 0.69 0.61 0.66 0.72 0.83 0.96 0.83 0.61 0.40 0.30 0.26 0.21 0.13 0.08 0.04 0.06 0.07
0.14 0.08 0.14 0.34 0.36 0.65 0.54 0.23 0.17 0.52 0.37 0.23 0.07 0.10 0.27 0.12 0.09 0.11 0.31 0.38 0.31 0.23 0.22 0.64 1.13 0.84 0.83 0.98 0.85 0.82 0.80 0.85 0.85 0.90 0.96 0.83 0.63 0.52 0.52 0.37 0.23 0.16 0.13
0.24 0.38 0.47 0.51 0.44 0.24 0.61 0.38 0.35 0.21 0.21 0.29 0.17 0.22 0.55 0.32 0.11 0.10 0.15 0.18 0.30 0.34 0.37 0.45 0.63 1.16 1.26 1.13 1.61 1.49 1.18 1.27 1.17 1.01 0.88 0.85 0.95 1.01 0.88 0.86 0.88 0.94 0.76
0.06 0.18 0.30 0.43 0.50 0.54 0.97 0.51 0.24 0.32 0.21 0.19 0.26 0.50 0.71 0.66 0.30 0.18 0.16 0.20 0.22 0.27 0.42 0.63 0.67 0.69 0.80 1.08 1.07 1.59 1.72 1.15 1.09 1.13 1.04 0.90 0.75 0.80 1.01 1.14 1.12 1.12 1.10
0.04 0.02 0.02 0.07 0.30 0.56 0.82 0.64 0.35 0.24 0.34 0.23 0.40 0.77 1.45 0.58 0.54 0.31 0.21 0.25 0.32 0.35 0.43 0.42 0.53 0.67 0.77 0.70 0.81 1.01 1.29 1.82 1.59 1.08 0.95 0.87 0.83 0.95 0.96 1.00 1.12 1.27 1.29
0.00 0.00 0.00 0.02 0.13 0.33 0.48 0.92 0.97 0.61 0.96 0.85 1.05 0.87 0.88 0.82 0.46 0.56 0.57 0.41 0.36 0.26 0.35 0.49 0.52 0.63 0.61 0.78 0.89 0.94 1.11 1.04 1.21 1.38 1.24 1.04 1.16 1.29 1.16 1.20 1.22 1.21 1.13
0.00 0.00 0.00 0.00 0.00 0.03 0.11 0.45 0.85 0.62 0.92 0.61 0.61 0.57 0.37 0.46 0.53 0.55 1.20 1.08 0.91 0.44 0.41 0.62 0.56 0.44 0.46 0.48 0.52 0.60 0.68 0.87 1.13 1.20 1.08 0.99 1.02 1.07 1.02 1.03 0.99 0.97 1.07
0.00 0.00 0.00 0.00 0.00 0.00 0.00 0.03 0.16 0.34 0.42 0.35 0.43 0.63 0.34 0.29 0.68 0.51 0.74 0.99 1.08 0.76 0.50 0.51 0.62 0.55 0.48 0.58 0.61 0.59 0.57 0.62 0.76 1.03 1.10 0.93 0.85 0.93 1.03 1.20 1.22 1.23 1.27
0.00 0.00 0.00 0.00 0.00 0.00 0.00 0.00 0.00 0.02 0.14 0.34 0.29 0.24 0.73 0.50 0.64 0.81 0.77 1.17 0.83 0.93 0.80 0.47 0.39 0.49 0.59 0.62 0.62 0.62 0.67 0.73 0.86 0.90 0.97 0.90 0.83 0.78 0.71 0.73 0.76 0.84 0.96
0.00 0.00 0.00 0.00 0.00 0.00 0.00 0.00 0.00 0.00 0.00 0.00 0.04 0.15 0.47 0.42 0.49 0.63 0.51 0.88 1.04 1.21 1.37 1.10 0.90 0.70 0.62 0.75 0.93 0.60 0.63 0.90 0.72 0.82 0.79 0.75 0.85 0.75 0.83 0.91 0.93 0.90 0.85
0.00 0.00 0.00 0.00 0.00 0.00 0.00 0.00 0.00 0.00 0.00 0.00 0.00 0.00 0.10 0.18 0.12 0.35 0.36 0.35 0.73 0.75 0.90 1.09 1.19 1.12 1.05 0.86 0.73 0.84 0.46 0.68 0.85 0.61 0.57 0.58 0.64 0.74 0.60 0.65 0.65 0.68 0.75
0.00 0.00 0.00 0.00 0.00 0.00 0.00 0.00 0.00 0.00 0.00 0.00 0.00 0.00 0.00 0.00 0.00 0.01 0.09 0.05 0.20 0.52 0.64 0.61 0.75 0.59 0.77 0.89 0.74 0.63 0.47 0.61 0.68 0.57 0.51 0.52 0.52 0.54 0.48 0.47 0.38 0.42 0.44
0.00 0.00 0.00 0.00 0.00 0.00 0.00 0.00 0.00 0.00 0.00 0.00 0.00 0.00 0.00 0.00 0.00 0.00 0.00 0.00 0.00 0.02 0.16 0.27 0.31 0.33 0.49 0.64 0.74 0.85 0.76 0.72 0.79 0.70 0.58 0.62 0.79 0.81 0.69 0.56 0.47 0.39 0.44
0.00 0.00 0.00 0.00 0.00 0.00 0.00 0.00 0.00 0.00 0.00 0.00 0.00 0.00 0.00 0.00 0.00 0.00 0.00 0.00 0.00 0.00 0.00 0.00 0.00 0.02 0.10 0.18 0.34 0.55 0.63 0.67 0.64 0.44 0.56 0.59 0.54 0.66 0.51 0.42 0.35 0.28 0.28
0.00 0.00 0.00 0.00 0.00 0.00 0.00 0.00 0.00 0.00 0.00 0.00 0.00 0.00 0.00 0.00 0.00 0.00 0.00 0.00 0.00 0.00 0.00 0.00 0.00 0.00 0.00 0.00 0.01 0.04 0.10 0.21 0.24 0.20 0.24 0.26 0.16 0.10 0.10 0.10 0.12 0.15 0.15
0.00 0.00 0.00 0.00 0.00 0.00 0.00 0.00 0.00 0.00 0.00 0.00 0.00 0.00 0.00 0.00 0.00 0.00 0.00 0.00 0.00 0.00 0.00 0.00 0.00 0.00 0.00 0.00 0.00 0.00 0.00 0.00 0.00 0.01 0.01 0.01 0.02 0.01 0.01 0.01 0.01 0.02 0.03
0.00 0.00 0.00 0.00 0.00 0.00 0.00 0.00 0.00 0.00 0.00 0.00 0.00 0.00 0.00 0.00 0.00 0.00 0.00 0.00 0.00 0.00 0.00 0.00 0.00 0.00 0.00 0.00 0.00 0.00 0.00 0.00 0.00 0.00 0.00 0.00 0.00 0.01 0.00 0.01 0.01 0.03 0.01
0.00 0.00 0.00 0.00 0.00 0.00 0.00 0.00 0.00 0.00 0.00 0.00 0.00 0.00 0.00 0.00 0.00 0.00 0.00 0.00 0.00 0.00 0.00 0.00 0.00 0.00 0.00 0.00 0.00 0.00 0.00 0.00 0.00 0.00 0.00 0.00 0.00 0.00 0.01 0.02 0.01 0.01 0.01
0.00 0.00 0.00 0.00 0.00 0.00 0.00 0.00 0.00 0.00 0.00 0.00 0.00 0.00 0.00 0.00 0.00 0.00 0.00 0.00 0.00 0.00 0.00 0.00 0.00 0.00 0.00 0.00 0.01 0.00 0.00 0.00 0.00 0.00 0.00 0.00 0.00 0.00 0.00 0.00 0.01 0.02 0.05
0.00 0.00 0.00 0.00 0.00 0.00 0.00 0.00 0.00 0.00 0.00 0.00 0.00 0.00 0.00 0.00 0.00 0.00 0.00 0.00 0.00 0.00 0.00 0.00 0.00 0.00 0.00 0.00 0.01 0.00 0.00 0.00 0.01 0.00 0.00 0.00 0.00 0.00 0.00 0.01 0.02 0.06 0.12

GFSMW_prec_precacc24_156.txt.gz
Total_Precipitation_Accumulation
0.00 0.00 0.00 0.00 0.00 0.00 0.00 0.00 0.00 0.00 0.00 0.00 0.00 0.00 0.00 0.00 0.04 0.10 0.11 0.18 0.18 0.15 0.16 0.13 0.16 0.18 0.19 0.16 0.15 0.17 0.16 0.13 0.09 0.08 0.04 0.01 0.01 0.00 0.00 0.00 0.00 0.00 0.00
0.00 0.00 0.00 0.00 0.00 0.00 0.00 0.00 0.00 0.00 0.00 0.00 0.00 0.00 0.00 0.00 0.00 0.03 0.09 0.12 0.13 0.14 0.18 0.16 0.15 0.17 0.21 0.24 0.20 0.17 0.17 0.19 0.18 0.17 0.16 0.06 0.01 0.00 0.00 0.00 0.00 0.00 0.00
0.00 0.01 0.00 0.00 0.00 0.00 0.00 0.00 0.00 0.00 0.00 0.00 0.00 0.00 0.00 0.01 0.03 0.04 0.09 0.14 0.15 0.14 0.18 0.19 0.18 0.22 0.20 0.19 0.18 0.19 0.23 0.23 0.18 0.17 0.17 0.13 0.05 0.01 0.00 0.00 0.00 0.00 0.00
0.00 0.03 0.02 0.01 0.01 0.00 0.00 0.00 0.00 0.00 0.00 0.00 0.00 0.00 0.00 0.02 0.02 0.03 0.06 0.13 0.15 0.16 0.15 0.16 0.17 0.31 0.32 0.22 0.19 0.17 0.20 0.32 0.31 0.26 0.16 0.11 0.08 0.04 0.02 0.01 0.00 0.01 0.01
0.04 0.04 0.03 0.00 0.01 0.02 0.02 0.01 0.00 0.00 0.00 0.00 0.00 0.01 0.02 0.03 0.07 0.07 0.06 0.10 0.26 0.18 0.17 0.24 0.22 0.25 0.46 0.53 0.37 0.24 0.21 0.21 0.23 0.20 0.18 0.23 0.23 0.17 0.09 0.04 0.03 0.02 0.02
0.02 0.03 0.01 0.02 0.00 0.00 0.02 0.03 0.03 0.02 0.01 0.02 0.01 0.01 0.02 0.03 0.08 0.13 0.12 0.08 0.12 0.44 0.29 0.23 0.44 0.51 0.43 0.48 0.57 0.65 0.54 0.30 0.24 0.25 0.22 0.18 0.19 0.15 0.11 0.07 0.06 0.06 0.03
0.00 0.01 0.03 0.07 0.02 0.01 0.03 0.06 0.03 0.01 0.02 0.02 0.03 0.03 0.03 0.06 0.06 0.08 0.16 0.11 0.08 0.11 0.56 0.69 0.32 0.47 0.62 0.53 0.62 0.70 0.84 0.98 0.84 0.61 0.41 0.32 0.28 0.24 0.16 0.10 0.06 0.08 0.08
0.00 0.00 0.02 0.08 0.06 0.03 0.02 0.01 0.06 0.06 0.06 0.07 0.04 0.05 0.09 0.07 0.06 0.06 0.09 0.16 0.08 0.06 0.10 0.53 0.97 0.58 0.61 0.83 0.73 0.74 0.78 0.87 0.88 0.94 0.98 0.84 0.63 0.55 0.57 0.42 0.24 0.17 0.13
0.03 0.07 0.10 0.12 0.12 0.07 0.22 0.11 0.15 0.07 0.08 0.19 0.15 0.21 0.53 0.30 0.10 0.08 0.09 0.11 0.12 0.07 0.10 0.14 0.29 0.74 0.80 0.76 1.36 1.36 1.12 1.27 1.19 1.05 0.92 0.89 0.97 1.00 0.85 0.83 0.86 0.96 0.89
0.00 0.02 0.06 0.16 0.13 0.14 0.35 0.18 0.14 0.23 0.15 0.18 0.24 0.48 0.70 0.66 0.30 0.17 0.14 0.13 0.14 0.16 0.18 0.22 0.32 0.41 0.49 0.75 0.79 1.39 1.61 1.10 1.08 1.16 1.08 0.92 0.74 0.76 0.94 1.05 1.05 1.10 1.14
0.00 0.00 0.00 0.01 0.11 0.22 0.44 0.32 0.15 0.14 0.21 0.17 0.35 0.73 1.42 0.56 0.53 0.30 0.19 0.19 0.13 0.15 0.17 0.17 0.26 0.42 0.60 0.54 0.67 0.90 1.23 1.78 1.56 1.08 0.97 0.87 0.82 0.93 0.91 0.94 1.06 1.21 1.23
0.00 0.00 0.00 0.01 0.07 0.17 0.28 0.68 0.76 0.47 0.83 0.78 1.01 0.85 0.86 0.79 0.44 0.54 0.54 0.29 0.19 0.16 0.17 0.24 0.25 0.42 0.44 0.63 0.76 0.85 1.05 1.01 1.18 1.34 1.20 1.03 1.15 1.25 1.11 1.12 1.11 1.09 1.04
0.00 0.00 0.00 0.00 0.00 0.02 0.09 0.33 0.66 0.48 0.81 0.58 0.58 0.52 0.32 0.41 0.39 0.50 1.01 0.79 0.63 0.25 0.24 0.32 0.36 0.38 0.43 0.45 0.50 0.57 0.64 0.83 1.12 1.22 1.11 0.99 0.99 1.00 0.92 0.89 0.86 0.84 0.96
0.00 0.00 0.00 0.00 0.00 0.00 0.00 0.03 0.15 0.33 0.41 0.34 0.40 0.52 0.30 0.28 0.62 0.47 0.63 0.76 0.86 0.61 0.34 0.37 0.49 0.49 0.47 0.60 0.61 0.58 0.55 0.58 0.69 0.96 1.06 0.93 0.87 0.92 0.96 1.09 1.10 1.13 1.15
0.00 0.00 0.00 0.00 0.00 0.00 0.00 0.00 0.00 0.02 0.14 0.34 0.28 0.19 0.70 0.49 0.62 0.77 0.69 1.10 0.75 0.84 0.73 0.43 0.37 0.48 0.58 0.66 0.65 0.60 0.63 0.70 0.81 0.83 0.86 0.80 0.72 0.68 0.64 0.61 0.63 0.71 0.80
0.00 0.00 0.00 0.00 0.00 0.00 0.00 0.00 0.00 0.00 0.00 0.00 0.04 0.15 0.47 0.42 0.49 0.62 0.50 0.87 1.02 1.19 1.36 1.10 0.90 0.70 0.62 0.70 0.87 0.56 0.62 0.88 0.71 0.80 0.78 0.71 0.73 0.59 0.62 0.68 0.72 0.72 0.72
0.00 0.00 0.00 0.00 0.00 0.00 0.00 0.00 0.00 0.00 0.00 0.00 0.00 0.00 0.10 0.18 0.12 0.35 0.36 0.35 0.73 0.75 0.90 1.09 1.19 1.12 1.06 0.85 0.69 0.81 0.46 0.67 0.83 0.58 0.54 0.53 0.52 0.48 0.35 0.39 0.43 0.50 0.59
0.00 0.00 0.00 0.00 0.00 0.00 0.00 0.00 0.00 0.00 0.00 0.00 0.00 0.00 0.00 0.00 0.00 0.01 0.09 0.05 0.20 0.52 0.64 0.61 0.75 0.59 0.77 0.89 0.75 0.65 0.48 0.61 0.69 0.58 0.51 0.52 0.49 0.50 0.43 0.42 0.39 0.32 0.33
0.00 0.00 0.00 0.00 0.00 0.00 0.00 0.00 0.00 0.00 0.00 0.00 0.00 0.00 0.00 0.00 0.00 0.00 0.00 0.00 0.00 0.02 0.16 0.27 0.31 0.33 0.49 0.65 0.75 0.86 0.77 0.73 0.81 0.72 0.62 0.65 0.83 0.91 0.80 0.65 0.63 0.56 0.44
0.00 0.00 0.00 0.00 0.00 0.00 0.00 0.00 0.00 0.00 0.00 0.00 0.00 0.00 0.00 0.00 0.00 0.00 0.00 0.00 0.00 0.00 0.00 0.00 0.00 0.02 0.10 0.18 0.34 0.56 0.65 0.70 0.69 0.50 0.63 0.70 0.62 0.89 0.86 0.71 0.73 0.60 0.43
0.00 0.00 0.00 0.00 0.00 0.00 0.00 0.00 0.00 0.00 0.00 0.00 0.00 0.00 0.00 0.00 0.00 0.00 0.00 0.00 0.00 0.00 0.00 0.00 0.00 0.00 0.00 0.00 0.01 0.04 0.11 0.24 0.30 0.28 0.31 0.35 0.28 0.21 0.26 0.26 0.27 0.36 0.37
0.00 0.00 0.00 0.00 0.00 0.00 0.00 0.00 0.00 0.00 0.00 0.00 0.00 0.00 0.00 0.00 0.00 0.00 0.00 0.00 0.00 0.00 0.00 0.00 0.00 0.00 0.00 0.00 0.00 0.00 0.00 0.00 0.00 0.01 0.02 0.03 0.08 0.08 0.05 0.04 0.05 0.06 0.08
0.00 0.00 0.00 0.00 0.00 0.00 0.00 0.00 0.00 0.00 0.00 0.00 0.00 0.00 0.00 0.00 0.00 0.00 0.00 0.00 0.00 0.00 0.00 0.00 0.00 0.00 0.00 0.00 0.00 0.00 0.00 0.00 0.00 0.00 0.00 0.00 0.00 0.00 0.00 0.01 0.01 0.02 0.01
0.00 0.00 0.00 0.00 0.00 0.00 0.00 0.00 0.00 0.00 0.00 0.00 0.00 0.00 0.00 0.00 0.00 0.00 0.00 0.00 0.00 0.00 0.00 0.00 0.00 0.00 0.00 0.00 0.00 0.00 0.00 0.00 0.00 0.00 0.00 0.00 0.00 0.00 0.00 0.00 0.00 0.00 0.01
0.00 0.00 0.00 0.00 0.00 0.00 0.00 0.00 0.00 0.00 0.00 0.01 0.01 0.00 0.00 0.00 0.00 0.00 0.00 0.00 0.00 0.00 0.00 0.00 0.00 0.00 0.00 0.00 0.00 0.00 0.00 0.00 0.00 0.00 0.00 0.00 0.00 0.00 0.00 0.00 0.00 0.00 0.01
0.00 0.00 0.00 0.00 0.00 0.00 0.00 0.00 0.00 0.00 0.00 0.00 0.00 0.01 0.02 0.01 0.00 0.00 0.00 0.00 0.00 0.00 0.00 0.00 0.00 0.00 0.00 0.00 0.00 0.00 0.00 0.00 0.00 0.00 0.00 0.00 0.00 0.00 0.00 0.00 0.00 0.01 0.04